<?xml version="1.0" encoding="UTF-8" standalone="no" ?>
<gpx xmlns="http://www.topografix.com/GPX/1/1" xmlns:xsi="http://www.w3.org/2001/XMLSchema-instance" xsi:schemaLocation="http://www.topografix.com/GPX/1/1 http://www.topografix.com/GPX/1/1/gpx.xsd" version="1.1" creator="VisuGPX - https://www.visugpx.com">
  <metadata>
    <name>Mont Ferion-Levens</name>
    <desc><![CDATA[vtt Prealpes Maritimes]]></desc>
  </metadata>
  <wpt lat="43.82889" lon="7.20075">
    <ele>353.9</ele>
    <name><![CDATA[wpt001]]></name>
    <desc><![CDATA[ROQUETTE DU VAR]]></desc>
  </wpt>
  <wpt lat="43.85872" lon="7.2263">
    <ele>558.4</ele>
    <name><![CDATA[wpt002]]></name>
    <desc><![CDATA[LEVENS]]></desc>
  </wpt>
  <wpt lat="43.86446" lon="7.23919">
    <ele>700.6</ele>
    <name><![CDATA[wpt012]]></name>
    <desc><![CDATA[SBARRA]]></desc>
  </wpt>
  <wpt lat="43.8712" lon="7.25962">
    <ele>1079.4</ele>
    <name><![CDATA[wpt013]]></name>
    <desc><![CDATA[FOUNTA BIANCA]]></desc>
  </wpt>
  <wpt lat="43.87055" lon="7.26534">
    <ele>1104.2</ele>
    <name><![CDATA[wpt014]]></name>
    <desc><![CDATA[COL DU DRAGON 272]]></desc>
  </wpt>
  <wpt lat="43.8682" lon="7.26655">
    <ele>1097.4</ele>
    <name><![CDATA[wpt015]]></name>
    <desc><![CDATA[271]]></desc>
  </wpt>
  <wpt lat="43.86057" lon="7.25979">
    <ele>919.6</ele>
    <name><![CDATA[wpt016]]></name>
    <desc><![CDATA[SX]]></desc>
  </wpt>
  <trk>
    <name><![CDATA[2012-01-04-Mont FerionLevens]]></name>
    <trkseg>
      <trkpt lat="43.82105" lon="7.19171">
        <ele>111.2</ele>
        <time>2012-01-04T08:50:08Z</time>
      </trkpt>
      <trkpt lat="43.8211" lon="7.19163">
        <ele>115.5</ele>
        <time>2012-01-04T08:54:09Z</time>
      </trkpt>
      <trkpt lat="43.8211" lon="7.19161">
        <ele>115.4</ele>
        <time>2012-01-04T08:54:10Z</time>
      </trkpt>
      <trkpt lat="43.82113" lon="7.1914">
        <ele>114.1</ele>
        <time>2012-01-04T08:54:19Z</time>
      </trkpt>
      <trkpt lat="43.82115" lon="7.19128">
        <ele>114</ele>
        <time>2012-01-04T08:54:24Z</time>
      </trkpt>
      <trkpt lat="43.82117" lon="7.19119">
        <ele>113.9</ele>
        <time>2012-01-04T08:54:27Z</time>
      </trkpt>
      <trkpt lat="43.82122" lon="7.19111">
        <ele>113.8</ele>
        <time>2012-01-04T08:54:30Z</time>
      </trkpt>
      <trkpt lat="43.8213" lon="7.1911">
        <ele>113.7</ele>
        <time>2012-01-04T08:54:33Z</time>
      </trkpt>
      <trkpt lat="43.82138" lon="7.19112">
        <ele>113.5</ele>
        <time>2012-01-04T08:54:35Z</time>
      </trkpt>
      <trkpt lat="43.82146" lon="7.19115">
        <ele>113.1</ele>
        <time>2012-01-04T08:54:37Z</time>
      </trkpt>
      <trkpt lat="43.82154" lon="7.19117">
        <ele>112.8</ele>
        <time>2012-01-04T08:54:39Z</time>
      </trkpt>
      <trkpt lat="43.82161" lon="7.19121">
        <ele>112.5</ele>
        <time>2012-01-04T08:54:42Z</time>
      </trkpt>
      <trkpt lat="43.82169" lon="7.19123">
        <ele>112.6</ele>
        <time>2012-01-04T08:54:46Z</time>
      </trkpt>
      <trkpt lat="43.82175" lon="7.19124">
        <ele>112.5</ele>
        <time>2012-01-04T08:54:48Z</time>
      </trkpt>
      <trkpt lat="43.82181" lon="7.19127">
        <ele>112.2</ele>
        <time>2012-01-04T08:54:50Z</time>
      </trkpt>
      <trkpt lat="43.82186" lon="7.19134">
        <ele>111.7</ele>
        <time>2012-01-04T08:54:52Z</time>
      </trkpt>
      <trkpt lat="43.82186" lon="7.19144">
        <ele>111.6</ele>
        <time>2012-01-04T08:54:54Z</time>
      </trkpt>
      <trkpt lat="43.82187" lon="7.19154">
        <ele>111.7</ele>
        <time>2012-01-04T08:54:56Z</time>
      </trkpt>
      <trkpt lat="43.82186" lon="7.19163">
        <ele>111.9</ele>
        <time>2012-01-04T08:54:58Z</time>
      </trkpt>
      <trkpt lat="43.82184" lon="7.19174">
        <ele>112.3</ele>
        <time>2012-01-04T08:55:00Z</time>
      </trkpt>
      <trkpt lat="43.82182" lon="7.19184">
        <ele>113</ele>
        <time>2012-01-04T08:55:02Z</time>
      </trkpt>
      <trkpt lat="43.82181" lon="7.19195">
        <ele>113.8</ele>
        <time>2012-01-04T08:55:04Z</time>
      </trkpt>
      <trkpt lat="43.8218" lon="7.19205">
        <ele>114.5</ele>
        <time>2012-01-04T08:55:06Z</time>
      </trkpt>
      <trkpt lat="43.82179" lon="7.19213">
        <ele>115.1</ele>
        <time>2012-01-04T08:55:08Z</time>
      </trkpt>
      <trkpt lat="43.8218" lon="7.19222">
        <ele>115.5</ele>
        <time>2012-01-04T08:55:10Z</time>
      </trkpt>
      <trkpt lat="43.82181" lon="7.19226">
        <ele>115.7</ele>
        <time>2012-01-04T08:55:11Z</time>
      </trkpt>
      <trkpt lat="43.82191" lon="7.19231">
        <ele>116.1</ele>
        <time>2012-01-04T08:55:14Z</time>
      </trkpt>
      <trkpt lat="43.82197" lon="7.19225">
        <ele>116.4</ele>
        <time>2012-01-04T08:55:16Z</time>
      </trkpt>
      <trkpt lat="43.82203" lon="7.19217">
        <ele>116.7</ele>
        <time>2012-01-04T08:55:18Z</time>
      </trkpt>
      <trkpt lat="43.82209" lon="7.19208">
        <ele>117</ele>
        <time>2012-01-04T08:55:20Z</time>
      </trkpt>
      <trkpt lat="43.82215" lon="7.19201">
        <ele>117.1</ele>
        <time>2012-01-04T08:55:22Z</time>
      </trkpt>
      <trkpt lat="43.82221" lon="7.19192">
        <ele>117.1</ele>
        <time>2012-01-04T08:55:24Z</time>
      </trkpt>
      <trkpt lat="43.82226" lon="7.19183">
        <ele>117.2</ele>
        <time>2012-01-04T08:55:26Z</time>
      </trkpt>
      <trkpt lat="43.82232" lon="7.19176">
        <ele>117.2</ele>
        <time>2012-01-04T08:55:28Z</time>
      </trkpt>
      <trkpt lat="43.82238" lon="7.19167">
        <ele>117.2</ele>
        <time>2012-01-04T08:55:30Z</time>
      </trkpt>
      <trkpt lat="43.82244" lon="7.19158">
        <ele>117.3</ele>
        <time>2012-01-04T08:55:32Z</time>
      </trkpt>
      <trkpt lat="43.8225" lon="7.19151">
        <ele>117.3</ele>
        <time>2012-01-04T08:55:34Z</time>
      </trkpt>
      <trkpt lat="43.82257" lon="7.19145">
        <ele>117.6</ele>
        <time>2012-01-04T08:55:36Z</time>
      </trkpt>
      <trkpt lat="43.82264" lon="7.19141">
        <ele>117.7</ele>
        <time>2012-01-04T08:55:38Z</time>
      </trkpt>
      <trkpt lat="43.82273" lon="7.1914">
        <ele>117.6</ele>
        <time>2012-01-04T08:55:40Z</time>
      </trkpt>
      <trkpt lat="43.82281" lon="7.19137">
        <ele>115.7</ele>
        <time>2012-01-04T08:55:42Z</time>
      </trkpt>
      <trkpt lat="43.82288" lon="7.19133">
        <ele>113.4</ele>
        <time>2012-01-04T08:55:44Z</time>
      </trkpt>
      <trkpt lat="43.82296" lon="7.19127">
        <ele>112.3</ele>
        <time>2012-01-04T08:55:46Z</time>
      </trkpt>
      <trkpt lat="43.82303" lon="7.19121">
        <ele>111.8</ele>
        <time>2012-01-04T08:55:48Z</time>
      </trkpt>
      <trkpt lat="43.82309" lon="7.19114">
        <ele>111.6</ele>
        <time>2012-01-04T08:55:50Z</time>
      </trkpt>
      <trkpt lat="43.82316" lon="7.19107">
        <ele>111.6</ele>
        <time>2012-01-04T08:55:52Z</time>
      </trkpt>
      <trkpt lat="43.82322" lon="7.191">
        <ele>111.6</ele>
        <time>2012-01-04T08:55:54Z</time>
      </trkpt>
      <trkpt lat="43.82328" lon="7.19092">
        <ele>111.6</ele>
        <time>2012-01-04T08:55:56Z</time>
      </trkpt>
      <trkpt lat="43.82333" lon="7.19084">
        <ele>111.7</ele>
        <time>2012-01-04T08:55:58Z</time>
      </trkpt>
      <trkpt lat="43.82339" lon="7.19076">
        <ele>111.8</ele>
        <time>2012-01-04T08:56:00Z</time>
      </trkpt>
      <trkpt lat="43.82344" lon="7.19068">
        <ele>111</ele>
        <time>2012-01-04T08:56:02Z</time>
      </trkpt>
      <trkpt lat="43.82349" lon="7.19061">
        <ele>112</ele>
        <time>2012-01-04T08:56:04Z</time>
      </trkpt>
      <trkpt lat="43.82354" lon="7.19055">
        <ele>111.6</ele>
        <time>2012-01-04T08:56:06Z</time>
      </trkpt>
      <trkpt lat="43.8236" lon="7.19049">
        <ele>111.7</ele>
        <time>2012-01-04T08:56:08Z</time>
      </trkpt>
      <trkpt lat="43.82366" lon="7.19044">
        <ele>112.1</ele>
        <time>2012-01-04T08:56:10Z</time>
      </trkpt>
      <trkpt lat="43.82371" lon="7.19039">
        <ele>112.4</ele>
        <time>2012-01-04T08:56:12Z</time>
      </trkpt>
      <trkpt lat="43.82374" lon="7.19036">
        <ele>112.6</ele>
        <time>2012-01-04T08:56:13Z</time>
      </trkpt>
      <trkpt lat="43.82386" lon="7.19025">
        <ele>113.5</ele>
        <time>2012-01-04T08:56:18Z</time>
      </trkpt>
      <trkpt lat="43.82393" lon="7.19019">
        <ele>113.6</ele>
        <time>2012-01-04T08:56:21Z</time>
      </trkpt>
      <trkpt lat="43.82399" lon="7.19013">
        <ele>114.2</ele>
        <time>2012-01-04T08:56:24Z</time>
      </trkpt>
      <trkpt lat="43.82406" lon="7.19008">
        <ele>114.9</ele>
        <time>2012-01-04T08:56:27Z</time>
      </trkpt>
      <trkpt lat="43.82413" lon="7.19004">
        <ele>115.5</ele>
        <time>2012-01-04T08:56:30Z</time>
      </trkpt>
      <trkpt lat="43.8242" lon="7.19">
        <ele>115.7</ele>
        <time>2012-01-04T08:56:33Z</time>
      </trkpt>
      <trkpt lat="43.82428" lon="7.18997">
        <ele>116.4</ele>
        <time>2012-01-04T08:56:36Z</time>
      </trkpt>
      <trkpt lat="43.82436" lon="7.18994">
        <ele>116.5</ele>
        <time>2012-01-04T08:56:39Z</time>
      </trkpt>
      <trkpt lat="43.82445" lon="7.18992">
        <ele>116.8</ele>
        <time>2012-01-04T08:56:42Z</time>
      </trkpt>
      <trkpt lat="43.82453" lon="7.18993">
        <ele>117.2</ele>
        <time>2012-01-04T08:56:45Z</time>
      </trkpt>
      <trkpt lat="43.82462" lon="7.18995">
        <ele>117.3</ele>
        <time>2012-01-04T08:56:48Z</time>
      </trkpt>
      <trkpt lat="43.8247" lon="7.18996">
        <ele>118.2</ele>
        <time>2012-01-04T08:56:51Z</time>
      </trkpt>
      <trkpt lat="43.82477" lon="7.18997">
        <ele>119.1</ele>
        <time>2012-01-04T08:56:54Z</time>
      </trkpt>
      <trkpt lat="43.82485" lon="7.18995">
        <ele>119.7</ele>
        <time>2012-01-04T08:56:57Z</time>
      </trkpt>
      <trkpt lat="43.82491" lon="7.18992">
        <ele>120.1</ele>
        <time>2012-01-04T08:57:00Z</time>
      </trkpt>
      <trkpt lat="43.82499" lon="7.18989">
        <ele>120.2</ele>
        <time>2012-01-04T08:57:03Z</time>
      </trkpt>
      <trkpt lat="43.82505" lon="7.18985">
        <ele>120.8</ele>
        <time>2012-01-04T08:57:06Z</time>
      </trkpt>
      <trkpt lat="43.82512" lon="7.18983">
        <ele>121.8</ele>
        <time>2012-01-04T08:57:09Z</time>
      </trkpt>
      <trkpt lat="43.8252" lon="7.18982">
        <ele>122.6</ele>
        <time>2012-01-04T08:57:12Z</time>
      </trkpt>
      <trkpt lat="43.82528" lon="7.18985">
        <ele>123.6</ele>
        <time>2012-01-04T08:57:15Z</time>
      </trkpt>
      <trkpt lat="43.82531" lon="7.18986">
        <ele>123.4</ele>
        <time>2012-01-04T08:57:16Z</time>
      </trkpt>
      <trkpt lat="43.82541" lon="7.18991">
        <ele>123.4</ele>
        <time>2012-01-04T08:57:19Z</time>
      </trkpt>
      <trkpt lat="43.82547" lon="7.18994">
        <ele>123.5</ele>
        <time>2012-01-04T08:57:21Z</time>
      </trkpt>
      <trkpt lat="43.82553" lon="7.18997">
        <ele>123.5</ele>
        <time>2012-01-04T08:57:23Z</time>
      </trkpt>
      <trkpt lat="43.82558" lon="7.19">
        <ele>123.9</ele>
        <time>2012-01-04T08:57:25Z</time>
      </trkpt>
      <trkpt lat="43.82564" lon="7.19003">
        <ele>124.3</ele>
        <time>2012-01-04T08:57:27Z</time>
      </trkpt>
      <trkpt lat="43.82572" lon="7.19007">
        <ele>125.1</ele>
        <time>2012-01-04T08:57:30Z</time>
      </trkpt>
      <trkpt lat="43.8258" lon="7.19011">
        <ele>125.4</ele>
        <time>2012-01-04T08:57:33Z</time>
      </trkpt>
      <trkpt lat="43.82588" lon="7.19016">
        <ele>126.1</ele>
        <time>2012-01-04T08:57:36Z</time>
      </trkpt>
      <trkpt lat="43.82596" lon="7.19021">
        <ele>126.2</ele>
        <time>2012-01-04T08:57:39Z</time>
      </trkpt>
      <trkpt lat="43.82604" lon="7.19027">
        <ele>126.8</ele>
        <time>2012-01-04T08:57:42Z</time>
      </trkpt>
      <trkpt lat="43.82611" lon="7.19032">
        <ele>127.4</ele>
        <time>2012-01-04T08:57:45Z</time>
      </trkpt>
      <trkpt lat="43.82619" lon="7.19037">
        <ele>127.4</ele>
        <time>2012-01-04T08:57:48Z</time>
      </trkpt>
      <trkpt lat="43.82626" lon="7.19041">
        <ele>127.7</ele>
        <time>2012-01-04T08:57:51Z</time>
      </trkpt>
      <trkpt lat="43.82634" lon="7.19044">
        <ele>129.1</ele>
        <time>2012-01-04T08:57:54Z</time>
      </trkpt>
      <trkpt lat="43.82641" lon="7.19047">
        <ele>130</ele>
        <time>2012-01-04T08:57:57Z</time>
      </trkpt>
      <trkpt lat="43.82649" lon="7.19049">
        <ele>130.4</ele>
        <time>2012-01-04T08:58:00Z</time>
      </trkpt>
      <trkpt lat="43.82656" lon="7.19051">
        <ele>130.8</ele>
        <time>2012-01-04T08:58:03Z</time>
      </trkpt>
      <trkpt lat="43.82664" lon="7.19054">
        <ele>131.9</ele>
        <time>2012-01-04T08:58:06Z</time>
      </trkpt>
      <trkpt lat="43.82671" lon="7.19056">
        <ele>132.2</ele>
        <time>2012-01-04T08:58:09Z</time>
      </trkpt>
      <trkpt lat="43.82678" lon="7.19059">
        <ele>133.4</ele>
        <time>2012-01-04T08:58:12Z</time>
      </trkpt>
      <trkpt lat="43.82685" lon="7.19061">
        <ele>133.4</ele>
        <time>2012-01-04T08:58:15Z</time>
      </trkpt>
      <trkpt lat="43.82693" lon="7.19064">
        <ele>134</ele>
        <time>2012-01-04T08:58:18Z</time>
      </trkpt>
      <trkpt lat="43.82695" lon="7.19066">
        <ele>134.2</ele>
        <time>2012-01-04T08:58:19Z</time>
      </trkpt>
      <trkpt lat="43.82704" lon="7.19077">
        <ele>135</ele>
        <time>2012-01-04T08:58:24Z</time>
      </trkpt>
      <trkpt lat="43.82709" lon="7.19087">
        <ele>135.8</ele>
        <time>2012-01-04T08:58:28Z</time>
      </trkpt>
      <trkpt lat="43.82712" lon="7.19096">
        <ele>136.1</ele>
        <time>2012-01-04T08:58:31Z</time>
      </trkpt>
      <trkpt lat="43.82715" lon="7.19107">
        <ele>137.3</ele>
        <time>2012-01-04T08:58:35Z</time>
      </trkpt>
      <trkpt lat="43.82717" lon="7.19118">
        <ele>136.6</ele>
        <time>2012-01-04T08:58:39Z</time>
      </trkpt>
      <trkpt lat="43.8272" lon="7.19128">
        <ele>137.4</ele>
        <time>2012-01-04T08:58:43Z</time>
      </trkpt>
      <trkpt lat="43.82724" lon="7.19139">
        <ele>138.4</ele>
        <time>2012-01-04T08:58:47Z</time>
      </trkpt>
      <trkpt lat="43.82729" lon="7.19148">
        <ele>139</ele>
        <time>2012-01-04T08:58:51Z</time>
      </trkpt>
      <trkpt lat="43.82733" lon="7.19157">
        <ele>139.7</ele>
        <time>2012-01-04T08:58:55Z</time>
      </trkpt>
      <trkpt lat="43.82738" lon="7.19167">
        <ele>140.7</ele>
        <time>2012-01-04T08:58:59Z</time>
      </trkpt>
      <trkpt lat="43.82743" lon="7.19175">
        <ele>140.9</ele>
        <time>2012-01-04T08:59:03Z</time>
      </trkpt>
      <trkpt lat="43.82749" lon="7.19182">
        <ele>141.1</ele>
        <time>2012-01-04T08:59:06Z</time>
      </trkpt>
      <trkpt lat="43.82755" lon="7.19189">
        <ele>142.1</ele>
        <time>2012-01-04T08:59:09Z</time>
      </trkpt>
      <trkpt lat="43.82761" lon="7.19198">
        <ele>141.7</ele>
        <time>2012-01-04T08:59:12Z</time>
      </trkpt>
      <trkpt lat="43.82767" lon="7.19206">
        <ele>142.6</ele>
        <time>2012-01-04T08:59:15Z</time>
      </trkpt>
      <trkpt lat="43.82773" lon="7.19214">
        <ele>143</ele>
        <time>2012-01-04T08:59:18Z</time>
      </trkpt>
      <trkpt lat="43.82777" lon="7.19221">
        <ele>142.9</ele>
        <time>2012-01-04T08:59:21Z</time>
      </trkpt>
      <trkpt lat="43.82779" lon="7.19223">
        <ele>143.4</ele>
        <time>2012-01-04T08:59:22Z</time>
      </trkpt>
      <trkpt lat="43.82788" lon="7.19238">
        <ele>145.3</ele>
        <time>2012-01-04T08:59:29Z</time>
      </trkpt>
      <trkpt lat="43.82793" lon="7.19246">
        <ele>145.3</ele>
        <time>2012-01-04T08:59:32Z</time>
      </trkpt>
      <trkpt lat="43.82798" lon="7.19254">
        <ele>145.4</ele>
        <time>2012-01-04T08:59:35Z</time>
      </trkpt>
      <trkpt lat="43.82804" lon="7.1926">
        <ele>145.9</ele>
        <time>2012-01-04T08:59:38Z</time>
      </trkpt>
      <trkpt lat="43.82811" lon="7.19265">
        <ele>146.9</ele>
        <time>2012-01-04T08:59:41Z</time>
      </trkpt>
      <trkpt lat="43.82817" lon="7.19269">
        <ele>147.4</ele>
        <time>2012-01-04T08:59:44Z</time>
      </trkpt>
      <trkpt lat="43.82824" lon="7.19271">
        <ele>147.5</ele>
        <time>2012-01-04T08:59:47Z</time>
      </trkpt>
      <trkpt lat="43.82833" lon="7.19272">
        <ele>148.1</ele>
        <time>2012-01-04T08:59:51Z</time>
      </trkpt>
      <trkpt lat="43.82841" lon="7.19276">
        <ele>148.8</ele>
        <time>2012-01-04T08:59:55Z</time>
      </trkpt>
      <trkpt lat="43.82848" lon="7.19283">
        <ele>149</ele>
        <time>2012-01-04T08:59:59Z</time>
      </trkpt>
      <trkpt lat="43.82854" lon="7.19289">
        <ele>150.2</ele>
        <time>2012-01-04T09:00:02Z</time>
      </trkpt>
      <trkpt lat="43.82859" lon="7.19298">
        <ele>150.2</ele>
        <time>2012-01-04T09:00:06Z</time>
      </trkpt>
      <trkpt lat="43.82863" lon="7.19305">
        <ele>151.6</ele>
        <time>2012-01-04T09:00:09Z</time>
      </trkpt>
      <trkpt lat="43.82869" lon="7.19312">
        <ele>152</ele>
        <time>2012-01-04T09:00:12Z</time>
      </trkpt>
      <trkpt lat="43.82875" lon="7.1932">
        <ele>152.2</ele>
        <time>2012-01-04T09:00:16Z</time>
      </trkpt>
      <trkpt lat="43.82882" lon="7.19325">
        <ele>152.6</ele>
        <time>2012-01-04T09:00:20Z</time>
      </trkpt>
      <trkpt lat="43.8289" lon="7.19331">
        <ele>153.2</ele>
        <time>2012-01-04T09:00:24Z</time>
      </trkpt>
      <trkpt lat="43.82892" lon="7.19333">
        <ele>153.6</ele>
        <time>2012-01-04T09:00:25Z</time>
      </trkpt>
      <trkpt lat="43.82904" lon="7.19341">
        <ele>153.9</ele>
        <time>2012-01-04T09:00:31Z</time>
      </trkpt>
      <trkpt lat="43.82911" lon="7.19346">
        <ele>156</ele>
        <time>2012-01-04T09:00:37Z</time>
      </trkpt>
      <trkpt lat="43.8292" lon="7.1935">
        <ele>156.5</ele>
        <time>2012-01-04T09:00:42Z</time>
      </trkpt>
      <trkpt lat="43.82928" lon="7.19352">
        <ele>156.6</ele>
        <time>2012-01-04T09:00:46Z</time>
      </trkpt>
      <trkpt lat="43.82936" lon="7.19355">
        <ele>157.2</ele>
        <time>2012-01-04T09:00:50Z</time>
      </trkpt>
      <trkpt lat="43.82943" lon="7.19357">
        <ele>157</ele>
        <time>2012-01-04T09:00:54Z</time>
      </trkpt>
      <trkpt lat="43.8295" lon="7.19359">
        <ele>158.2</ele>
        <time>2012-01-04T09:00:57Z</time>
      </trkpt>
      <trkpt lat="43.82958" lon="7.19364">
        <ele>159.1</ele>
        <time>2012-01-04T09:01:02Z</time>
      </trkpt>
      <trkpt lat="43.82965" lon="7.19366">
        <ele>159.4</ele>
        <time>2012-01-04T09:01:17Z</time>
      </trkpt>
      <trkpt lat="43.82973" lon="7.1937">
        <ele>159.6</ele>
        <time>2012-01-04T09:01:21Z</time>
      </trkpt>
      <trkpt lat="43.82981" lon="7.19374">
        <ele>159.2</ele>
        <time>2012-01-04T09:01:24Z</time>
      </trkpt>
      <trkpt lat="43.82988" lon="7.19379">
        <ele>159.5</ele>
        <time>2012-01-04T09:01:27Z</time>
      </trkpt>
      <trkpt lat="43.82991" lon="7.19382">
        <ele>159.5</ele>
        <time>2012-01-04T09:01:28Z</time>
      </trkpt>
      <trkpt lat="43.83002" lon="7.19395">
        <ele>160.3</ele>
        <time>2012-01-04T09:01:33Z</time>
      </trkpt>
      <trkpt lat="43.83006" lon="7.19401">
        <ele>160.1</ele>
        <time>2012-01-04T09:01:35Z</time>
      </trkpt>
      <trkpt lat="43.82999" lon="7.19401">
        <ele>163</ele>
        <time>2012-01-04T09:01:46Z</time>
      </trkpt>
      <trkpt lat="43.82992" lon="7.19395">
        <ele>164</ele>
        <time>2012-01-04T09:01:50Z</time>
      </trkpt>
      <trkpt lat="43.82985" lon="7.19389">
        <ele>164.7</ele>
        <time>2012-01-04T09:01:54Z</time>
      </trkpt>
      <trkpt lat="43.82978" lon="7.19386">
        <ele>165.4</ele>
        <time>2012-01-04T09:01:57Z</time>
      </trkpt>
      <trkpt lat="43.82972" lon="7.19384">
        <ele>165.6</ele>
        <time>2012-01-04T09:02:00Z</time>
      </trkpt>
      <trkpt lat="43.82963" lon="7.19382">
        <ele>166.5</ele>
        <time>2012-01-04T09:02:04Z</time>
      </trkpt>
      <trkpt lat="43.82955" lon="7.19381">
        <ele>167.1</ele>
        <time>2012-01-04T09:02:08Z</time>
      </trkpt>
      <trkpt lat="43.82946" lon="7.19378">
        <ele>167.6</ele>
        <time>2012-01-04T09:02:12Z</time>
      </trkpt>
      <trkpt lat="43.82938" lon="7.19375">
        <ele>169.3</ele>
        <time>2012-01-04T09:02:16Z</time>
      </trkpt>
      <trkpt lat="43.82931" lon="7.19372">
        <ele>169.3</ele>
        <time>2012-01-04T09:02:20Z</time>
      </trkpt>
      <trkpt lat="43.82923" lon="7.1937">
        <ele>169.6</ele>
        <time>2012-01-04T09:02:24Z</time>
      </trkpt>
      <trkpt lat="43.82915" lon="7.19368">
        <ele>169.5</ele>
        <time>2012-01-04T09:02:28Z</time>
      </trkpt>
      <trkpt lat="43.82906" lon="7.19366">
        <ele>170.1</ele>
        <time>2012-01-04T09:02:32Z</time>
      </trkpt>
      <trkpt lat="43.82904" lon="7.19366">
        <ele>170.4</ele>
        <time>2012-01-04T09:02:33Z</time>
      </trkpt>
      <trkpt lat="43.8289" lon="7.19366">
        <ele>171.3</ele>
        <time>2012-01-04T09:02:40Z</time>
      </trkpt>
      <trkpt lat="43.82881" lon="7.19368">
        <ele>172.4</ele>
        <time>2012-01-04T09:02:44Z</time>
      </trkpt>
      <trkpt lat="43.82873" lon="7.19368">
        <ele>172.5</ele>
        <time>2012-01-04T09:02:48Z</time>
      </trkpt>
      <trkpt lat="43.82865" lon="7.19366">
        <ele>173.1</ele>
        <time>2012-01-04T09:02:52Z</time>
      </trkpt>
      <trkpt lat="43.82857" lon="7.1936">
        <ele>173.9</ele>
        <time>2012-01-04T09:02:56Z</time>
      </trkpt>
      <trkpt lat="43.8285" lon="7.19354">
        <ele>174.7</ele>
        <time>2012-01-04T09:03:01Z</time>
      </trkpt>
      <trkpt lat="43.82842" lon="7.19351">
        <ele>175.6</ele>
        <time>2012-01-04T09:04:50Z</time>
      </trkpt>
      <trkpt lat="43.8284" lon="7.19349">
        <ele>175.6</ele>
        <time>2012-01-04T09:04:51Z</time>
      </trkpt>
      <trkpt lat="43.82829" lon="7.19344">
        <ele>175.3</ele>
        <time>2012-01-04T09:04:56Z</time>
      </trkpt>
      <trkpt lat="43.82823" lon="7.19339">
        <ele>176.4</ele>
        <time>2012-01-04T09:04:59Z</time>
      </trkpt>
      <trkpt lat="43.82817" lon="7.19334">
        <ele>176.9</ele>
        <time>2012-01-04T09:05:02Z</time>
      </trkpt>
      <trkpt lat="43.82811" lon="7.19329">
        <ele>177.7</ele>
        <time>2012-01-04T09:05:05Z</time>
      </trkpt>
      <trkpt lat="43.82802" lon="7.19324">
        <ele>178.3</ele>
        <time>2012-01-04T09:05:09Z</time>
      </trkpt>
      <trkpt lat="43.82794" lon="7.19321">
        <ele>178.6</ele>
        <time>2012-01-04T09:05:13Z</time>
      </trkpt>
      <trkpt lat="43.82785" lon="7.19318">
        <ele>179.2</ele>
        <time>2012-01-04T09:05:17Z</time>
      </trkpt>
      <trkpt lat="43.82779" lon="7.19316">
        <ele>179.6</ele>
        <time>2012-01-04T09:05:20Z</time>
      </trkpt>
      <trkpt lat="43.8277" lon="7.19312">
        <ele>180.4</ele>
        <time>2012-01-04T09:05:24Z</time>
      </trkpt>
      <trkpt lat="43.82763" lon="7.19306">
        <ele>181.6</ele>
        <time>2012-01-04T09:05:28Z</time>
      </trkpt>
      <trkpt lat="43.82755" lon="7.19299">
        <ele>182</ele>
        <time>2012-01-04T09:05:32Z</time>
      </trkpt>
      <trkpt lat="43.82748" lon="7.19292">
        <ele>182.6</ele>
        <time>2012-01-04T09:05:36Z</time>
      </trkpt>
      <trkpt lat="43.8274" lon="7.19287">
        <ele>183.2</ele>
        <time>2012-01-04T09:05:40Z</time>
      </trkpt>
      <trkpt lat="43.82733" lon="7.19284">
        <ele>183.9</ele>
        <time>2012-01-04T09:05:43Z</time>
      </trkpt>
      <trkpt lat="43.82726" lon="7.19283">
        <ele>184.7</ele>
        <time>2012-01-04T09:05:46Z</time>
      </trkpt>
      <trkpt lat="43.82719" lon="7.19281">
        <ele>184.6</ele>
        <time>2012-01-04T09:05:49Z</time>
      </trkpt>
      <trkpt lat="43.82712" lon="7.19279">
        <ele>185.4</ele>
        <time>2012-01-04T09:05:52Z</time>
      </trkpt>
      <trkpt lat="43.8271" lon="7.19279">
        <ele>185.6</ele>
        <time>2012-01-04T09:05:53Z</time>
      </trkpt>
      <trkpt lat="43.82697" lon="7.19277">
        <ele>186.5</ele>
        <time>2012-01-04T09:05:59Z</time>
      </trkpt>
      <trkpt lat="43.8269" lon="7.19275">
        <ele>187.1</ele>
        <time>2012-01-04T09:06:02Z</time>
      </trkpt>
      <trkpt lat="43.82681" lon="7.19272">
        <ele>187.5</ele>
        <time>2012-01-04T09:06:06Z</time>
      </trkpt>
      <trkpt lat="43.82673" lon="7.1927">
        <ele>188.4</ele>
        <time>2012-01-04T09:06:10Z</time>
      </trkpt>
      <trkpt lat="43.82664" lon="7.19266">
        <ele>188.7</ele>
        <time>2012-01-04T09:06:14Z</time>
      </trkpt>
      <trkpt lat="43.82656" lon="7.19263">
        <ele>188.8</ele>
        <time>2012-01-04T09:06:18Z</time>
      </trkpt>
      <trkpt lat="43.82648" lon="7.19259">
        <ele>190</ele>
        <time>2012-01-04T09:06:22Z</time>
      </trkpt>
      <trkpt lat="43.8264" lon="7.19254">
        <ele>190.1</ele>
        <time>2012-01-04T09:06:26Z</time>
      </trkpt>
      <trkpt lat="43.82632" lon="7.19249">
        <ele>190.7</ele>
        <time>2012-01-04T09:06:30Z</time>
      </trkpt>
      <trkpt lat="43.82626" lon="7.19245">
        <ele>190.9</ele>
        <time>2012-01-04T09:06:33Z</time>
      </trkpt>
      <trkpt lat="43.8262" lon="7.19239">
        <ele>191.8</ele>
        <time>2012-01-04T09:06:36Z</time>
      </trkpt>
      <trkpt lat="43.82614" lon="7.19234">
        <ele>192.5</ele>
        <time>2012-01-04T09:06:39Z</time>
      </trkpt>
      <trkpt lat="43.82608" lon="7.19228">
        <ele>192.6</ele>
        <time>2012-01-04T09:06:42Z</time>
      </trkpt>
      <trkpt lat="43.82602" lon="7.19223">
        <ele>192.5</ele>
        <time>2012-01-04T09:06:45Z</time>
      </trkpt>
      <trkpt lat="43.82595" lon="7.19218">
        <ele>193.6</ele>
        <time>2012-01-04T09:06:48Z</time>
      </trkpt>
      <trkpt lat="43.82589" lon="7.19214">
        <ele>194.3</ele>
        <time>2012-01-04T09:06:51Z</time>
      </trkpt>
      <trkpt lat="43.82582" lon="7.1921">
        <ele>194.5</ele>
        <time>2012-01-04T09:06:54Z</time>
      </trkpt>
      <trkpt lat="43.8258" lon="7.19209">
        <ele>194.9</ele>
        <time>2012-01-04T09:06:55Z</time>
      </trkpt>
      <trkpt lat="43.82568" lon="7.19204">
        <ele>195.6</ele>
        <time>2012-01-04T09:07:00Z</time>
      </trkpt>
      <trkpt lat="43.82561" lon="7.19203">
        <ele>196</ele>
        <time>2012-01-04T09:07:03Z</time>
      </trkpt>
      <trkpt lat="43.82554" lon="7.19207">
        <ele>196.5</ele>
        <time>2012-01-04T09:07:06Z</time>
      </trkpt>
      <trkpt lat="43.8255" lon="7.19214">
        <ele>196</ele>
        <time>2012-01-04T09:07:09Z</time>
      </trkpt>
      <trkpt lat="43.82551" lon="7.19224">
        <ele>196.7</ele>
        <time>2012-01-04T09:07:12Z</time>
      </trkpt>
      <trkpt lat="43.82556" lon="7.1923">
        <ele>197.3</ele>
        <time>2012-01-04T09:07:15Z</time>
      </trkpt>
      <trkpt lat="43.82563" lon="7.19233">
        <ele>197.6</ele>
        <time>2012-01-04T09:07:18Z</time>
      </trkpt>
      <trkpt lat="43.82571" lon="7.19235">
        <ele>197.7</ele>
        <time>2012-01-04T09:07:21Z</time>
      </trkpt>
      <trkpt lat="43.82577" lon="7.19238">
        <ele>197.7</ele>
        <time>2012-01-04T09:07:24Z</time>
      </trkpt>
      <trkpt lat="43.82585" lon="7.19243">
        <ele>198.3</ele>
        <time>2012-01-04T09:07:28Z</time>
      </trkpt>
      <trkpt lat="43.82592" lon="7.19249">
        <ele>198.5</ele>
        <time>2012-01-04T09:07:33Z</time>
      </trkpt>
      <trkpt lat="43.826" lon="7.19255">
        <ele>199.6</ele>
        <time>2012-01-04T09:07:38Z</time>
      </trkpt>
      <trkpt lat="43.82607" lon="7.19258">
        <ele>199.6</ele>
        <time>2012-01-04T09:07:42Z</time>
      </trkpt>
      <trkpt lat="43.82614" lon="7.19263">
        <ele>200.7</ele>
        <time>2012-01-04T09:07:47Z</time>
      </trkpt>
      <trkpt lat="43.82622" lon="7.19269">
        <ele>201</ele>
        <time>2012-01-04T09:07:51Z</time>
      </trkpt>
      <trkpt lat="43.82628" lon="7.19274">
        <ele>201.7</ele>
        <time>2012-01-04T09:07:54Z</time>
      </trkpt>
      <trkpt lat="43.82635" lon="7.19279">
        <ele>202.3</ele>
        <time>2012-01-04T09:07:57Z</time>
      </trkpt>
      <trkpt lat="43.82637" lon="7.19281">
        <ele>202.4</ele>
        <time>2012-01-04T09:07:58Z</time>
      </trkpt>
      <trkpt lat="43.82649" lon="7.1929">
        <ele>203.5</ele>
        <time>2012-01-04T09:08:03Z</time>
      </trkpt>
      <trkpt lat="43.82656" lon="7.19295">
        <ele>203.9</ele>
        <time>2012-01-04T09:08:06Z</time>
      </trkpt>
      <trkpt lat="43.82664" lon="7.19299">
        <ele>204.3</ele>
        <time>2012-01-04T09:08:10Z</time>
      </trkpt>
      <trkpt lat="43.82671" lon="7.19303">
        <ele>205.5</ele>
        <time>2012-01-04T09:08:13Z</time>
      </trkpt>
      <trkpt lat="43.82678" lon="7.19306">
        <ele>205.7</ele>
        <time>2012-01-04T09:08:16Z</time>
      </trkpt>
      <trkpt lat="43.82685" lon="7.19309">
        <ele>205.4</ele>
        <time>2012-01-04T09:08:19Z</time>
      </trkpt>
      <trkpt lat="43.82692" lon="7.19312">
        <ele>205.9</ele>
        <time>2012-01-04T09:08:22Z</time>
      </trkpt>
      <trkpt lat="43.827" lon="7.19317">
        <ele>205.9</ele>
        <time>2012-01-04T09:08:26Z</time>
      </trkpt>
      <trkpt lat="43.82706" lon="7.19322">
        <ele>206.1</ele>
        <time>2012-01-04T09:08:29Z</time>
      </trkpt>
      <trkpt lat="43.82711" lon="7.1933">
        <ele>207.1</ele>
        <time>2012-01-04T09:08:32Z</time>
      </trkpt>
      <trkpt lat="43.82716" lon="7.19338">
        <ele>208</ele>
        <time>2012-01-04T09:08:35Z</time>
      </trkpt>
      <trkpt lat="43.82719" lon="7.19347">
        <ele>208.8</ele>
        <time>2012-01-04T09:08:38Z</time>
      </trkpt>
      <trkpt lat="43.82723" lon="7.19356">
        <ele>209.7</ele>
        <time>2012-01-04T09:08:41Z</time>
      </trkpt>
      <trkpt lat="43.82726" lon="7.19365">
        <ele>209.9</ele>
        <time>2012-01-04T09:08:44Z</time>
      </trkpt>
      <trkpt lat="43.82729" lon="7.19374">
        <ele>210</ele>
        <time>2012-01-04T09:08:47Z</time>
      </trkpt>
      <trkpt lat="43.82733" lon="7.19383">
        <ele>210.7</ele>
        <time>2012-01-04T09:08:50Z</time>
      </trkpt>
      <trkpt lat="43.82736" lon="7.19391">
        <ele>211.1</ele>
        <time>2012-01-04T09:08:53Z</time>
      </trkpt>
      <trkpt lat="43.82741" lon="7.19399">
        <ele>211.4</ele>
        <time>2012-01-04T09:08:56Z</time>
      </trkpt>
      <trkpt lat="43.82747" lon="7.19405">
        <ele>211.6</ele>
        <time>2012-01-04T09:08:59Z</time>
      </trkpt>
      <trkpt lat="43.82753" lon="7.1941">
        <ele>212.6</ele>
        <time>2012-01-04T09:09:02Z</time>
      </trkpt>
      <trkpt lat="43.82755" lon="7.19411">
        <ele>212.5</ele>
        <time>2012-01-04T09:09:03Z</time>
      </trkpt>
      <trkpt lat="43.82766" lon="7.19418">
        <ele>212.5</ele>
        <time>2012-01-04T09:09:08Z</time>
      </trkpt>
      <trkpt lat="43.82773" lon="7.19424">
        <ele>213</ele>
        <time>2012-01-04T09:09:12Z</time>
      </trkpt>
      <trkpt lat="43.82779" lon="7.1943">
        <ele>214.1</ele>
        <time>2012-01-04T09:09:15Z</time>
      </trkpt>
      <trkpt lat="43.82784" lon="7.19437">
        <ele>214.9</ele>
        <time>2012-01-04T09:09:18Z</time>
      </trkpt>
      <trkpt lat="43.8279" lon="7.19443">
        <ele>215</ele>
        <time>2012-01-04T09:09:21Z</time>
      </trkpt>
      <trkpt lat="43.82797" lon="7.19449">
        <ele>215.8</ele>
        <time>2012-01-04T09:09:24Z</time>
      </trkpt>
      <trkpt lat="43.82803" lon="7.19454">
        <ele>216.2</ele>
        <time>2012-01-04T09:09:27Z</time>
      </trkpt>
      <trkpt lat="43.82811" lon="7.19459">
        <ele>216.6</ele>
        <time>2012-01-04T09:09:31Z</time>
      </trkpt>
      <trkpt lat="43.82818" lon="7.19462">
        <ele>216.9</ele>
        <time>2012-01-04T09:09:34Z</time>
      </trkpt>
      <trkpt lat="43.82826" lon="7.19465">
        <ele>217.8</ele>
        <time>2012-01-04T09:09:38Z</time>
      </trkpt>
      <trkpt lat="43.82833" lon="7.19468">
        <ele>218.7</ele>
        <time>2012-01-04T09:09:41Z</time>
      </trkpt>
      <trkpt lat="43.8284" lon="7.19471">
        <ele>218.6</ele>
        <time>2012-01-04T09:09:44Z</time>
      </trkpt>
      <trkpt lat="43.82846" lon="7.19473">
        <ele>219.2</ele>
        <time>2012-01-04T09:09:47Z</time>
      </trkpt>
      <trkpt lat="43.82853" lon="7.19475">
        <ele>219.8</ele>
        <time>2012-01-04T09:09:50Z</time>
      </trkpt>
      <trkpt lat="43.82862" lon="7.19477">
        <ele>220.8</ele>
        <time>2012-01-04T09:09:54Z</time>
      </trkpt>
      <trkpt lat="43.82871" lon="7.19477">
        <ele>221.2</ele>
        <time>2012-01-04T09:09:58Z</time>
      </trkpt>
      <trkpt lat="43.82877" lon="7.19478">
        <ele>221.6</ele>
        <time>2012-01-04T09:10:01Z</time>
      </trkpt>
      <trkpt lat="43.82884" lon="7.1948">
        <ele>221.6</ele>
        <time>2012-01-04T09:10:04Z</time>
      </trkpt>
      <trkpt lat="43.82886" lon="7.19481">
        <ele>221.6</ele>
        <time>2012-01-04T09:10:05Z</time>
      </trkpt>
      <trkpt lat="43.82896" lon="7.19489">
        <ele>222.3</ele>
        <time>2012-01-04T09:10:10Z</time>
      </trkpt>
      <trkpt lat="43.829" lon="7.19497">
        <ele>223.2</ele>
        <time>2012-01-04T09:10:13Z</time>
      </trkpt>
      <trkpt lat="43.82904" lon="7.19505">
        <ele>223.9</ele>
        <time>2012-01-04T09:10:16Z</time>
      </trkpt>
      <trkpt lat="43.82908" lon="7.19514">
        <ele>224.4</ele>
        <time>2012-01-04T09:10:19Z</time>
      </trkpt>
      <trkpt lat="43.82911" lon="7.19522">
        <ele>224.8</ele>
        <time>2012-01-04T09:10:22Z</time>
      </trkpt>
      <trkpt lat="43.82915" lon="7.1953">
        <ele>225.4</ele>
        <time>2012-01-04T09:10:25Z</time>
      </trkpt>
      <trkpt lat="43.82918" lon="7.19538">
        <ele>225.9</ele>
        <time>2012-01-04T09:10:28Z</time>
      </trkpt>
      <trkpt lat="43.82922" lon="7.19549">
        <ele>226.1</ele>
        <time>2012-01-04T09:10:32Z</time>
      </trkpt>
      <trkpt lat="43.82926" lon="7.19559">
        <ele>226.8</ele>
        <time>2012-01-04T09:10:36Z</time>
      </trkpt>
      <trkpt lat="43.82929" lon="7.19571">
        <ele>226.9</ele>
        <time>2012-01-04T09:10:40Z</time>
      </trkpt>
      <trkpt lat="43.82931" lon="7.1958">
        <ele>228.1</ele>
        <time>2012-01-04T09:10:43Z</time>
      </trkpt>
      <trkpt lat="43.82933" lon="7.19592">
        <ele>228.9</ele>
        <time>2012-01-04T09:10:47Z</time>
      </trkpt>
      <trkpt lat="43.82935" lon="7.19604">
        <ele>229.5</ele>
        <time>2012-01-04T09:10:51Z</time>
      </trkpt>
      <trkpt lat="43.82936" lon="7.19616">
        <ele>230.3</ele>
        <time>2012-01-04T09:10:55Z</time>
      </trkpt>
      <trkpt lat="43.82938" lon="7.19628">
        <ele>230.6</ele>
        <time>2012-01-04T09:10:59Z</time>
      </trkpt>
      <trkpt lat="43.8294" lon="7.19637">
        <ele>230.8</ele>
        <time>2012-01-04T09:11:02Z</time>
      </trkpt>
      <trkpt lat="43.82944" lon="7.19646">
        <ele>230.8</ele>
        <time>2012-01-04T09:11:05Z</time>
      </trkpt>
      <trkpt lat="43.82948" lon="7.19654">
        <ele>231.4</ele>
        <time>2012-01-04T09:11:08Z</time>
      </trkpt>
      <trkpt lat="43.8295" lon="7.19657">
        <ele>231.8</ele>
        <time>2012-01-04T09:11:09Z</time>
      </trkpt>
      <trkpt lat="43.82959" lon="7.19669">
        <ele>232.6</ele>
        <time>2012-01-04T09:11:14Z</time>
      </trkpt>
      <trkpt lat="43.82964" lon="7.19676">
        <ele>232.4</ele>
        <time>2012-01-04T09:11:17Z</time>
      </trkpt>
      <trkpt lat="43.8297" lon="7.19684">
        <ele>233</ele>
        <time>2012-01-04T09:11:20Z</time>
      </trkpt>
      <trkpt lat="43.82975" lon="7.19691">
        <ele>234.1</ele>
        <time>2012-01-04T09:11:24Z</time>
      </trkpt>
      <trkpt lat="43.82982" lon="7.19696">
        <ele>235.2</ele>
        <time>2012-01-04T09:11:27Z</time>
      </trkpt>
      <trkpt lat="43.82989" lon="7.19701">
        <ele>235.9</ele>
        <time>2012-01-04T09:11:30Z</time>
      </trkpt>
      <trkpt lat="43.82996" lon="7.19705">
        <ele>236.2</ele>
        <time>2012-01-04T09:11:33Z</time>
      </trkpt>
      <trkpt lat="43.83003" lon="7.19709">
        <ele>236.4</ele>
        <time>2012-01-04T09:11:36Z</time>
      </trkpt>
      <trkpt lat="43.8301" lon="7.19714">
        <ele>237.3</ele>
        <time>2012-01-04T09:11:39Z</time>
      </trkpt>
      <trkpt lat="43.83016" lon="7.1972">
        <ele>237.9</ele>
        <time>2012-01-04T09:11:42Z</time>
      </trkpt>
      <trkpt lat="43.83021" lon="7.19728">
        <ele>237.8</ele>
        <time>2012-01-04T09:11:45Z</time>
      </trkpt>
      <trkpt lat="43.83025" lon="7.19737">
        <ele>238.2</ele>
        <time>2012-01-04T09:11:48Z</time>
      </trkpt>
      <trkpt lat="43.83029" lon="7.19746">
        <ele>238.4</ele>
        <time>2012-01-04T09:11:51Z</time>
      </trkpt>
      <trkpt lat="43.83033" lon="7.19753">
        <ele>239.2</ele>
        <time>2012-01-04T09:11:54Z</time>
      </trkpt>
      <trkpt lat="43.83041" lon="7.19757">
        <ele>239.6</ele>
        <time>2012-01-04T09:11:58Z</time>
      </trkpt>
      <trkpt lat="43.83048" lon="7.19752">
        <ele>240.3</ele>
        <time>2012-01-04T09:12:02Z</time>
      </trkpt>
      <trkpt lat="43.83053" lon="7.19744">
        <ele>241</ele>
        <time>2012-01-04T09:12:05Z</time>
      </trkpt>
      <trkpt lat="43.83055" lon="7.19735">
        <ele>242.2</ele>
        <time>2012-01-04T09:12:08Z</time>
      </trkpt>
      <trkpt lat="43.83053" lon="7.19724">
        <ele>242.5</ele>
        <time>2012-01-04T09:12:11Z</time>
      </trkpt>
      <trkpt lat="43.83052" lon="7.19721">
        <ele>242.6</ele>
        <time>2012-01-04T09:12:12Z</time>
      </trkpt>
      <trkpt lat="43.83047" lon="7.19703">
        <ele>242.4</ele>
        <time>2012-01-04T09:12:17Z</time>
      </trkpt>
      <trkpt lat="43.83046" lon="7.19694">
        <ele>243.3</ele>
        <time>2012-01-04T09:12:20Z</time>
      </trkpt>
      <trkpt lat="43.83047" lon="7.19685">
        <ele>244.2</ele>
        <time>2012-01-04T09:12:23Z</time>
      </trkpt>
      <trkpt lat="43.83049" lon="7.19675">
        <ele>244.3</ele>
        <time>2012-01-04T09:12:26Z</time>
      </trkpt>
      <trkpt lat="43.83052" lon="7.19667">
        <ele>245.2</ele>
        <time>2012-01-04T09:12:29Z</time>
      </trkpt>
      <trkpt lat="43.83057" lon="7.19659">
        <ele>246.1</ele>
        <time>2012-01-04T09:12:32Z</time>
      </trkpt>
      <trkpt lat="43.83061" lon="7.19651">
        <ele>246.3</ele>
        <time>2012-01-04T09:12:35Z</time>
      </trkpt>
      <trkpt lat="43.83066" lon="7.19643">
        <ele>246.9</ele>
        <time>2012-01-04T09:12:38Z</time>
      </trkpt>
      <trkpt lat="43.83071" lon="7.19636">
        <ele>246.6</ele>
        <time>2012-01-04T09:12:41Z</time>
      </trkpt>
      <trkpt lat="43.83077" lon="7.1963">
        <ele>247.1</ele>
        <time>2012-01-04T09:12:44Z</time>
      </trkpt>
      <trkpt lat="43.83084" lon="7.19625">
        <ele>247.7</ele>
        <time>2012-01-04T09:12:47Z</time>
      </trkpt>
      <trkpt lat="43.83091" lon="7.19619">
        <ele>248.1</ele>
        <time>2012-01-04T09:12:50Z</time>
      </trkpt>
      <trkpt lat="43.83097" lon="7.19614">
        <ele>248.6</ele>
        <time>2012-01-04T09:12:53Z</time>
      </trkpt>
      <trkpt lat="43.83104" lon="7.19609">
        <ele>249.5</ele>
        <time>2012-01-04T09:12:56Z</time>
      </trkpt>
      <trkpt lat="43.8311" lon="7.19604">
        <ele>250.6</ele>
        <time>2012-01-04T09:12:59Z</time>
      </trkpt>
      <trkpt lat="43.83117" lon="7.19599">
        <ele>250.8</ele>
        <time>2012-01-04T09:13:02Z</time>
      </trkpt>
      <trkpt lat="43.83124" lon="7.19594">
        <ele>251.4</ele>
        <time>2012-01-04T09:13:05Z</time>
      </trkpt>
      <trkpt lat="43.8313" lon="7.1959">
        <ele>251.8</ele>
        <time>2012-01-04T09:13:08Z</time>
      </trkpt>
      <trkpt lat="43.83137" lon="7.19585">
        <ele>252.8</ele>
        <time>2012-01-04T09:13:11Z</time>
      </trkpt>
      <trkpt lat="43.83144" lon="7.19581">
        <ele>253.1</ele>
        <time>2012-01-04T09:13:14Z</time>
      </trkpt>
      <trkpt lat="43.83146" lon="7.19581">
        <ele>253.1</ele>
        <time>2012-01-04T09:13:15Z</time>
      </trkpt>
      <trkpt lat="43.83158" lon="7.19578">
        <ele>252.7</ele>
        <time>2012-01-04T09:13:20Z</time>
      </trkpt>
      <trkpt lat="43.83166" lon="7.19581">
        <ele>253.9</ele>
        <time>2012-01-04T09:13:24Z</time>
      </trkpt>
      <trkpt lat="43.83174" lon="7.19587">
        <ele>255.4</ele>
        <time>2012-01-04T09:13:28Z</time>
      </trkpt>
      <trkpt lat="43.83182" lon="7.19589">
        <ele>255.7</ele>
        <time>2012-01-04T09:13:32Z</time>
      </trkpt>
      <trkpt lat="43.8319" lon="7.1959">
        <ele>256</ele>
        <time>2012-01-04T09:13:36Z</time>
      </trkpt>
      <trkpt lat="43.83197" lon="7.1959">
        <ele>256.5</ele>
        <time>2012-01-04T09:13:39Z</time>
      </trkpt>
      <trkpt lat="43.83204" lon="7.19588">
        <ele>257.1</ele>
        <time>2012-01-04T09:13:42Z</time>
      </trkpt>
      <trkpt lat="43.83212" lon="7.19585">
        <ele>257.6</ele>
        <time>2012-01-04T09:13:45Z</time>
      </trkpt>
      <trkpt lat="43.83219" lon="7.19582">
        <ele>258.4</ele>
        <time>2012-01-04T09:13:48Z</time>
      </trkpt>
      <trkpt lat="43.83226" lon="7.19579">
        <ele>259.3</ele>
        <time>2012-01-04T09:13:51Z</time>
      </trkpt>
      <trkpt lat="43.83233" lon="7.19576">
        <ele>259.8</ele>
        <time>2012-01-04T09:13:54Z</time>
      </trkpt>
      <trkpt lat="43.83227" lon="7.19583">
        <ele>261.1</ele>
        <time>2012-01-04T09:14:05Z</time>
      </trkpt>
      <trkpt lat="43.8322" lon="7.19585">
        <ele>261.5</ele>
        <time>2012-01-04T09:14:08Z</time>
      </trkpt>
      <trkpt lat="43.83213" lon="7.19586">
        <ele>261.6</ele>
        <time>2012-01-04T09:14:11Z</time>
      </trkpt>
      <trkpt lat="43.83206" lon="7.19588">
        <ele>262.3</ele>
        <time>2012-01-04T09:14:14Z</time>
      </trkpt>
      <trkpt lat="43.83199" lon="7.1959">
        <ele>262.9</ele>
        <time>2012-01-04T09:14:17Z</time>
      </trkpt>
      <trkpt lat="43.83196" lon="7.1959">
        <ele>263</ele>
        <time>2012-01-04T09:14:18Z</time>
      </trkpt>
      <trkpt lat="43.83181" lon="7.1959">
        <ele>264.2</ele>
        <time>2012-01-04T09:14:25Z</time>
      </trkpt>
      <trkpt lat="43.83173" lon="7.19587">
        <ele>265.1</ele>
        <time>2012-01-04T09:14:29Z</time>
      </trkpt>
      <trkpt lat="43.83166" lon="7.19585">
        <ele>265.3</ele>
        <time>2012-01-04T09:14:32Z</time>
      </trkpt>
      <trkpt lat="43.83159" lon="7.19585">
        <ele>266.2</ele>
        <time>2012-01-04T09:14:35Z</time>
      </trkpt>
      <trkpt lat="43.83153" lon="7.19589">
        <ele>267</ele>
        <time>2012-01-04T09:14:38Z</time>
      </trkpt>
      <trkpt lat="43.83147" lon="7.19595">
        <ele>267.5</ele>
        <time>2012-01-04T09:14:41Z</time>
      </trkpt>
      <trkpt lat="43.83142" lon="7.19602">
        <ele>267.4</ele>
        <time>2012-01-04T09:14:44Z</time>
      </trkpt>
      <trkpt lat="43.83136" lon="7.19609">
        <ele>268.5</ele>
        <time>2012-01-04T09:14:47Z</time>
      </trkpt>
      <trkpt lat="43.83131" lon="7.19615">
        <ele>268.2</ele>
        <time>2012-01-04T09:14:50Z</time>
      </trkpt>
      <trkpt lat="43.83125" lon="7.19621">
        <ele>268.1</ele>
        <time>2012-01-04T09:14:53Z</time>
      </trkpt>
      <trkpt lat="43.83118" lon="7.19627">
        <ele>268.9</ele>
        <time>2012-01-04T09:14:56Z</time>
      </trkpt>
      <trkpt lat="43.83112" lon="7.19633">
        <ele>269</ele>
        <time>2012-01-04T09:14:59Z</time>
      </trkpt>
      <trkpt lat="43.83107" lon="7.1964">
        <ele>269.5</ele>
        <time>2012-01-04T09:15:02Z</time>
      </trkpt>
      <trkpt lat="43.83102" lon="7.19647">
        <ele>270.1</ele>
        <time>2012-01-04T09:15:05Z</time>
      </trkpt>
      <trkpt lat="43.83099" lon="7.19657">
        <ele>271.4</ele>
        <time>2012-01-04T09:15:08Z</time>
      </trkpt>
      <trkpt lat="43.83098" lon="7.19668">
        <ele>271.9</ele>
        <time>2012-01-04T09:15:11Z</time>
      </trkpt>
      <trkpt lat="43.83099" lon="7.19678">
        <ele>272.3</ele>
        <time>2012-01-04T09:15:14Z</time>
      </trkpt>
      <trkpt lat="43.83099" lon="7.19689">
        <ele>272.4</ele>
        <time>2012-01-04T09:15:17Z</time>
      </trkpt>
      <trkpt lat="43.83099" lon="7.19699">
        <ele>272.7</ele>
        <time>2012-01-04T09:15:20Z</time>
      </trkpt>
      <trkpt lat="43.83098" lon="7.19702">
        <ele>272.9</ele>
        <time>2012-01-04T09:15:21Z</time>
      </trkpt>
      <trkpt lat="43.83098" lon="7.19719">
        <ele>274.7</ele>
        <time>2012-01-04T09:15:26Z</time>
      </trkpt>
      <trkpt lat="43.83097" lon="7.1973">
        <ele>274.9</ele>
        <time>2012-01-04T09:15:29Z</time>
      </trkpt>
      <trkpt lat="43.83097" lon="7.1974">
        <ele>275.1</ele>
        <time>2012-01-04T09:15:32Z</time>
      </trkpt>
      <trkpt lat="43.83097" lon="7.19751">
        <ele>275.2</ele>
        <time>2012-01-04T09:15:35Z</time>
      </trkpt>
      <trkpt lat="43.83098" lon="7.19762">
        <ele>275.6</ele>
        <time>2012-01-04T09:15:38Z</time>
      </trkpt>
      <trkpt lat="43.83101" lon="7.19772">
        <ele>276</ele>
        <time>2012-01-04T09:15:41Z</time>
      </trkpt>
      <trkpt lat="43.83106" lon="7.19782">
        <ele>276.6</ele>
        <time>2012-01-04T09:15:44Z</time>
      </trkpt>
      <trkpt lat="43.83111" lon="7.19789">
        <ele>277.3</ele>
        <time>2012-01-04T09:15:47Z</time>
      </trkpt>
      <trkpt lat="43.83117" lon="7.19795">
        <ele>277.9</ele>
        <time>2012-01-04T09:15:50Z</time>
      </trkpt>
      <trkpt lat="43.83122" lon="7.19801">
        <ele>278.5</ele>
        <time>2012-01-04T09:15:53Z</time>
      </trkpt>
      <trkpt lat="43.83127" lon="7.19808">
        <ele>279.1</ele>
        <time>2012-01-04T09:15:56Z</time>
      </trkpt>
      <trkpt lat="43.83131" lon="7.19817">
        <ele>279.6</ele>
        <time>2012-01-04T09:15:59Z</time>
      </trkpt>
      <trkpt lat="43.83133" lon="7.19827">
        <ele>280.2</ele>
        <time>2012-01-04T09:16:02Z</time>
      </trkpt>
      <trkpt lat="43.83133" lon="7.19838">
        <ele>280.7</ele>
        <time>2012-01-04T09:16:05Z</time>
      </trkpt>
      <trkpt lat="43.8313" lon="7.19848">
        <ele>281.1</ele>
        <time>2012-01-04T09:16:08Z</time>
      </trkpt>
      <trkpt lat="43.83125" lon="7.19855">
        <ele>281.6</ele>
        <time>2012-01-04T09:16:11Z</time>
      </trkpt>
      <trkpt lat="43.83118" lon="7.1986">
        <ele>282</ele>
        <time>2012-01-04T09:16:14Z</time>
      </trkpt>
      <trkpt lat="43.83111" lon="7.19862">
        <ele>283.1</ele>
        <time>2012-01-04T09:16:17Z</time>
      </trkpt>
      <trkpt lat="43.83104" lon="7.19863">
        <ele>283.4</ele>
        <time>2012-01-04T09:16:20Z</time>
      </trkpt>
      <trkpt lat="43.83097" lon="7.19864">
        <ele>283.3</ele>
        <time>2012-01-04T09:16:23Z</time>
      </trkpt>
      <trkpt lat="43.83095" lon="7.19864">
        <ele>283.3</ele>
        <time>2012-01-04T09:16:24Z</time>
      </trkpt>
      <trkpt lat="43.83084" lon="7.19871">
        <ele>284.2</ele>
        <time>2012-01-04T09:16:29Z</time>
      </trkpt>
      <trkpt lat="43.83079" lon="7.19877">
        <ele>285</ele>
        <time>2012-01-04T09:16:32Z</time>
      </trkpt>
      <trkpt lat="43.83075" lon="7.19887">
        <ele>285.4</ele>
        <time>2012-01-04T09:16:35Z</time>
      </trkpt>
      <trkpt lat="43.83072" lon="7.19897">
        <ele>286.1</ele>
        <time>2012-01-04T09:16:38Z</time>
      </trkpt>
      <trkpt lat="43.8307" lon="7.19908">
        <ele>286.6</ele>
        <time>2012-01-04T09:16:41Z</time>
      </trkpt>
      <trkpt lat="43.83067" lon="7.19917">
        <ele>286.8</ele>
        <time>2012-01-04T09:16:44Z</time>
      </trkpt>
      <trkpt lat="43.83063" lon="7.19926">
        <ele>286.8</ele>
        <time>2012-01-04T09:16:47Z</time>
      </trkpt>
      <trkpt lat="43.83058" lon="7.19934">
        <ele>287.8</ele>
        <time>2012-01-04T09:16:50Z</time>
      </trkpt>
      <trkpt lat="43.83052" lon="7.19941">
        <ele>288.1</ele>
        <time>2012-01-04T09:16:53Z</time>
      </trkpt>
      <trkpt lat="43.83046" lon="7.19946">
        <ele>288.3</ele>
        <time>2012-01-04T09:16:56Z</time>
      </trkpt>
      <trkpt lat="43.83039" lon="7.19947">
        <ele>289.7</ele>
        <time>2012-01-04T09:16:59Z</time>
      </trkpt>
      <trkpt lat="43.83032" lon="7.19946">
        <ele>290.5</ele>
        <time>2012-01-04T09:17:02Z</time>
      </trkpt>
      <trkpt lat="43.83026" lon="7.19943">
        <ele>291.1</ele>
        <time>2012-01-04T09:17:05Z</time>
      </trkpt>
      <trkpt lat="43.83017" lon="7.19939">
        <ele>291.4</ele>
        <time>2012-01-04T09:17:09Z</time>
      </trkpt>
      <trkpt lat="43.8301" lon="7.19935">
        <ele>292.6</ele>
        <time>2012-01-04T09:17:12Z</time>
      </trkpt>
      <trkpt lat="43.83003" lon="7.1993">
        <ele>292.9</ele>
        <time>2012-01-04T09:17:15Z</time>
      </trkpt>
      <trkpt lat="43.82996" lon="7.19925">
        <ele>293.1</ele>
        <time>2012-01-04T09:17:18Z</time>
      </trkpt>
      <trkpt lat="43.82989" lon="7.1992">
        <ele>293.5</ele>
        <time>2012-01-04T09:17:21Z</time>
      </trkpt>
      <trkpt lat="43.82984" lon="7.19913">
        <ele>293.7</ele>
        <time>2012-01-04T09:17:24Z</time>
      </trkpt>
      <trkpt lat="43.8298" lon="7.19905">
        <ele>294.2</ele>
        <time>2012-01-04T09:17:27Z</time>
      </trkpt>
      <trkpt lat="43.82978" lon="7.19903">
        <ele>294.4</ele>
        <time>2012-01-04T09:17:28Z</time>
      </trkpt>
      <trkpt lat="43.82973" lon="7.19888">
        <ele>295.3</ele>
        <time>2012-01-04T09:17:33Z</time>
      </trkpt>
      <trkpt lat="43.82969" lon="7.19877">
        <ele>296.1</ele>
        <time>2012-01-04T09:17:37Z</time>
      </trkpt>
      <trkpt lat="43.82965" lon="7.19866">
        <ele>297.7</ele>
        <time>2012-01-04T09:17:41Z</time>
      </trkpt>
      <trkpt lat="43.82961" lon="7.19858">
        <ele>298.2</ele>
        <time>2012-01-04T09:17:44Z</time>
      </trkpt>
      <trkpt lat="43.82955" lon="7.19851">
        <ele>298.4</ele>
        <time>2012-01-04T09:17:47Z</time>
      </trkpt>
      <trkpt lat="43.82948" lon="7.19846">
        <ele>299.9</ele>
        <time>2012-01-04T09:17:50Z</time>
      </trkpt>
      <trkpt lat="43.82941" lon="7.19842">
        <ele>299.7</ele>
        <time>2012-01-04T09:17:53Z</time>
      </trkpt>
      <trkpt lat="43.82934" lon="7.19836">
        <ele>299.6</ele>
        <time>2012-01-04T09:17:56Z</time>
      </trkpt>
      <trkpt lat="43.82928" lon="7.1983">
        <ele>300</ele>
        <time>2012-01-04T09:17:59Z</time>
      </trkpt>
      <trkpt lat="43.82923" lon="7.19822">
        <ele>300.1</ele>
        <time>2012-01-04T09:18:02Z</time>
      </trkpt>
      <trkpt lat="43.8292" lon="7.19813">
        <ele>300.2</ele>
        <time>2012-01-04T09:18:05Z</time>
      </trkpt>
      <trkpt lat="43.82916" lon="7.19804">
        <ele>300.3</ele>
        <time>2012-01-04T09:18:08Z</time>
      </trkpt>
      <trkpt lat="43.82914" lon="7.19797">
        <ele>301.1</ele>
        <time>2012-01-04T09:18:10Z</time>
      </trkpt>
      <trkpt lat="43.8291" lon="7.19786">
        <ele>302</ele>
        <time>2012-01-04T09:18:13Z</time>
      </trkpt>
      <trkpt lat="43.82906" lon="7.19778">
        <ele>302.2</ele>
        <time>2012-01-04T09:18:16Z</time>
      </trkpt>
      <trkpt lat="43.829" lon="7.19771">
        <ele>302.8</ele>
        <time>2012-01-04T09:18:19Z</time>
      </trkpt>
      <trkpt lat="43.82896" lon="7.19762">
        <ele>303</ele>
        <time>2012-01-04T09:18:22Z</time>
      </trkpt>
      <trkpt lat="43.82892" lon="7.19755">
        <ele>302.8</ele>
        <time>2012-01-04T09:18:25Z</time>
      </trkpt>
      <trkpt lat="43.82888" lon="7.19747">
        <ele>304</ele>
        <time>2012-01-04T09:18:28Z</time>
      </trkpt>
      <trkpt lat="43.82884" lon="7.19738">
        <ele>304.6</ele>
        <time>2012-01-04T09:18:31Z</time>
      </trkpt>
      <trkpt lat="43.82882" lon="7.19736">
        <ele>304.7</ele>
        <time>2012-01-04T09:18:32Z</time>
      </trkpt>
      <trkpt lat="43.82874" lon="7.19724">
        <ele>305.8</ele>
        <time>2012-01-04T09:18:37Z</time>
      </trkpt>
      <trkpt lat="43.82867" lon="7.19719">
        <ele>306.1</ele>
        <time>2012-01-04T09:18:40Z</time>
      </trkpt>
      <trkpt lat="43.8286" lon="7.19715">
        <ele>306.2</ele>
        <time>2012-01-04T09:18:43Z</time>
      </trkpt>
      <trkpt lat="43.82853" lon="7.19713">
        <ele>306.5</ele>
        <time>2012-01-04T09:18:46Z</time>
      </trkpt>
      <trkpt lat="43.82847" lon="7.1971">
        <ele>308</ele>
        <time>2012-01-04T09:18:49Z</time>
      </trkpt>
      <trkpt lat="43.82841" lon="7.19705">
        <ele>308.5</ele>
        <time>2012-01-04T09:18:52Z</time>
      </trkpt>
      <trkpt lat="43.82837" lon="7.19696">
        <ele>308.9</ele>
        <time>2012-01-04T09:18:55Z</time>
      </trkpt>
      <trkpt lat="43.82834" lon="7.19687">
        <ele>309.4</ele>
        <time>2012-01-04T09:18:58Z</time>
      </trkpt>
      <trkpt lat="43.82829" lon="7.19678">
        <ele>309.9</ele>
        <time>2012-01-04T09:19:01Z</time>
      </trkpt>
      <trkpt lat="43.82825" lon="7.19669">
        <ele>310.3</ele>
        <time>2012-01-04T09:19:04Z</time>
      </trkpt>
      <trkpt lat="43.82819" lon="7.19661">
        <ele>310.8</ele>
        <time>2012-01-04T09:19:07Z</time>
      </trkpt>
      <trkpt lat="43.82814" lon="7.19655">
        <ele>311.5</ele>
        <time>2012-01-04T09:19:10Z</time>
      </trkpt>
      <trkpt lat="43.82808" lon="7.19648">
        <ele>311.7</ele>
        <time>2012-01-04T09:19:13Z</time>
      </trkpt>
      <trkpt lat="43.82802" lon="7.19642">
        <ele>311.8</ele>
        <time>2012-01-04T09:19:16Z</time>
      </trkpt>
      <trkpt lat="43.82796" lon="7.19636">
        <ele>312.4</ele>
        <time>2012-01-04T09:19:19Z</time>
      </trkpt>
      <trkpt lat="43.8279" lon="7.1963">
        <ele>312.7</ele>
        <time>2012-01-04T09:19:22Z</time>
      </trkpt>
      <trkpt lat="43.82784" lon="7.19623">
        <ele>313.4</ele>
        <time>2012-01-04T09:19:25Z</time>
      </trkpt>
      <trkpt lat="43.82777" lon="7.19617">
        <ele>314</ele>
        <time>2012-01-04T09:19:28Z</time>
      </trkpt>
      <trkpt lat="43.8277" lon="7.1961">
        <ele>314.2</ele>
        <time>2012-01-04T09:19:31Z</time>
      </trkpt>
      <trkpt lat="43.82762" lon="7.19605">
        <ele>314.5</ele>
        <time>2012-01-04T09:19:34Z</time>
      </trkpt>
      <trkpt lat="43.8276" lon="7.19603">
        <ele>314.8</ele>
        <time>2012-01-04T09:19:35Z</time>
      </trkpt>
      <trkpt lat="43.82748" lon="7.19595">
        <ele>316</ele>
        <time>2012-01-04T09:19:40Z</time>
      </trkpt>
      <trkpt lat="43.82741" lon="7.19591">
        <ele>316.8</ele>
        <time>2012-01-04T09:19:43Z</time>
      </trkpt>
      <trkpt lat="43.82734" lon="7.19585">
        <ele>316.9</ele>
        <time>2012-01-04T09:19:46Z</time>
      </trkpt>
      <trkpt lat="43.82728" lon="7.19577">
        <ele>317.5</ele>
        <time>2012-01-04T09:19:49Z</time>
      </trkpt>
      <trkpt lat="43.82723" lon="7.19568">
        <ele>318.8</ele>
        <time>2012-01-04T09:19:52Z</time>
      </trkpt>
      <trkpt lat="43.82721" lon="7.19557">
        <ele>319.4</ele>
        <time>2012-01-04T09:19:55Z</time>
      </trkpt>
      <trkpt lat="43.82719" lon="7.19546">
        <ele>320.1</ele>
        <time>2012-01-04T09:19:58Z</time>
      </trkpt>
      <trkpt lat="43.82712" lon="7.19539">
        <ele>320.2</ele>
        <time>2012-01-04T09:20:01Z</time>
      </trkpt>
      <trkpt lat="43.82705" lon="7.19543">
        <ele>320</ele>
        <time>2012-01-04T09:20:04Z</time>
      </trkpt>
      <trkpt lat="43.827" lon="7.19552">
        <ele>320.2</ele>
        <time>2012-01-04T09:20:07Z</time>
      </trkpt>
      <trkpt lat="43.82698" lon="7.19562">
        <ele>320.8</ele>
        <time>2012-01-04T09:20:10Z</time>
      </trkpt>
      <trkpt lat="43.82697" lon="7.19573">
        <ele>321.3</ele>
        <time>2012-01-04T09:20:13Z</time>
      </trkpt>
      <trkpt lat="43.82696" lon="7.19583">
        <ele>321.2</ele>
        <time>2012-01-04T09:20:16Z</time>
      </trkpt>
      <trkpt lat="43.82695" lon="7.19594">
        <ele>321.5</ele>
        <time>2012-01-04T09:20:19Z</time>
      </trkpt>
      <trkpt lat="43.82694" lon="7.19605">
        <ele>322.2</ele>
        <time>2012-01-04T09:20:22Z</time>
      </trkpt>
      <trkpt lat="43.82693" lon="7.19615">
        <ele>323.1</ele>
        <time>2012-01-04T09:20:25Z</time>
      </trkpt>
      <trkpt lat="43.82692" lon="7.19626">
        <ele>323.4</ele>
        <time>2012-01-04T09:20:28Z</time>
      </trkpt>
      <trkpt lat="43.82692" lon="7.19636">
        <ele>323.7</ele>
        <time>2012-01-04T09:20:31Z</time>
      </trkpt>
      <trkpt lat="43.82692" lon="7.19647">
        <ele>324.4</ele>
        <time>2012-01-04T09:20:34Z</time>
      </trkpt>
      <trkpt lat="43.82692" lon="7.19658">
        <ele>324.9</ele>
        <time>2012-01-04T09:20:37Z</time>
      </trkpt>
      <trkpt lat="43.82692" lon="7.19661">
        <ele>324.9</ele>
        <time>2012-01-04T09:20:38Z</time>
      </trkpt>
      <trkpt lat="43.82692" lon="7.19678">
        <ele>325.3</ele>
        <time>2012-01-04T09:20:43Z</time>
      </trkpt>
      <trkpt lat="43.82691" lon="7.19688">
        <ele>326</ele>
        <time>2012-01-04T09:20:46Z</time>
      </trkpt>
      <trkpt lat="43.82692" lon="7.19698">
        <ele>326.4</ele>
        <time>2012-01-04T09:20:49Z</time>
      </trkpt>
      <trkpt lat="43.82694" lon="7.19708">
        <ele>326.7</ele>
        <time>2012-01-04T09:20:52Z</time>
      </trkpt>
      <trkpt lat="43.82695" lon="7.19718">
        <ele>327.4</ele>
        <time>2012-01-04T09:20:55Z</time>
      </trkpt>
      <trkpt lat="43.82696" lon="7.19728">
        <ele>328.1</ele>
        <time>2012-01-04T09:20:58Z</time>
      </trkpt>
      <trkpt lat="43.82696" lon="7.19739">
        <ele>328.4</ele>
        <time>2012-01-04T09:21:01Z</time>
      </trkpt>
      <trkpt lat="43.82694" lon="7.19749">
        <ele>328.8</ele>
        <time>2012-01-04T09:21:04Z</time>
      </trkpt>
      <trkpt lat="43.82691" lon="7.19758">
        <ele>329.1</ele>
        <time>2012-01-04T09:21:07Z</time>
      </trkpt>
      <trkpt lat="43.82687" lon="7.19767">
        <ele>329.6</ele>
        <time>2012-01-04T09:21:10Z</time>
      </trkpt>
      <trkpt lat="43.82684" lon="7.19777">
        <ele>330.2</ele>
        <time>2012-01-04T09:21:13Z</time>
      </trkpt>
      <trkpt lat="43.82684" lon="7.19788">
        <ele>330.8</ele>
        <time>2012-01-04T09:21:16Z</time>
      </trkpt>
      <trkpt lat="43.82685" lon="7.19798">
        <ele>331</ele>
        <time>2012-01-04T09:21:19Z</time>
      </trkpt>
      <trkpt lat="43.82689" lon="7.19808">
        <ele>331.6</ele>
        <time>2012-01-04T09:21:22Z</time>
      </trkpt>
      <trkpt lat="43.82692" lon="7.19818">
        <ele>332.9</ele>
        <time>2012-01-04T09:21:26Z</time>
      </trkpt>
      <trkpt lat="43.82695" lon="7.19828">
        <ele>332.9</ele>
        <time>2012-01-04T09:23:03Z</time>
      </trkpt>
      <trkpt lat="43.82696" lon="7.1983">
        <ele>333</ele>
        <time>2012-01-04T09:23:04Z</time>
      </trkpt>
      <trkpt lat="43.82702" lon="7.19846">
        <ele>333.1</ele>
        <time>2012-01-04T09:23:09Z</time>
      </trkpt>
      <trkpt lat="43.82706" lon="7.19855">
        <ele>333.8</ele>
        <time>2012-01-04T09:23:12Z</time>
      </trkpt>
      <trkpt lat="43.82709" lon="7.19865">
        <ele>334.4</ele>
        <time>2012-01-04T09:23:15Z</time>
      </trkpt>
      <trkpt lat="43.82713" lon="7.19876">
        <ele>334.9</ele>
        <time>2012-01-04T09:23:18Z</time>
      </trkpt>
      <trkpt lat="43.82716" lon="7.19886">
        <ele>334.8</ele>
        <time>2012-01-04T09:23:21Z</time>
      </trkpt>
      <trkpt lat="43.82719" lon="7.19897">
        <ele>335.3</ele>
        <time>2012-01-04T09:23:24Z</time>
      </trkpt>
      <trkpt lat="43.82722" lon="7.19907">
        <ele>335.7</ele>
        <time>2012-01-04T09:23:27Z</time>
      </trkpt>
      <trkpt lat="43.82726" lon="7.19917">
        <ele>336.3</ele>
        <time>2012-01-04T09:23:30Z</time>
      </trkpt>
      <trkpt lat="43.82729" lon="7.19926">
        <ele>337.1</ele>
        <time>2012-01-04T09:23:33Z</time>
      </trkpt>
      <trkpt lat="43.82733" lon="7.19935">
        <ele>338.9</ele>
        <time>2012-01-04T09:23:36Z</time>
      </trkpt>
      <trkpt lat="43.82738" lon="7.19944">
        <ele>338.6</ele>
        <time>2012-01-04T09:23:40Z</time>
      </trkpt>
      <trkpt lat="43.82744" lon="7.19954">
        <ele>339.7</ele>
        <time>2012-01-04T09:23:45Z</time>
      </trkpt>
      <trkpt lat="43.8275" lon="7.19963">
        <ele>339.7</ele>
        <time>2012-01-04T09:23:49Z</time>
      </trkpt>
      <trkpt lat="43.82758" lon="7.19968">
        <ele>341.3</ele>
        <time>2012-01-04T09:24:00Z</time>
      </trkpt>
      <trkpt lat="43.82761" lon="7.19979">
        <ele>342.2</ele>
        <time>2012-01-04T09:26:33Z</time>
      </trkpt>
      <trkpt lat="43.82762" lon="7.1998">
        <ele>342.4</ele>
        <time>2012-01-04T09:26:34Z</time>
      </trkpt>
      <trkpt lat="43.8277" lon="7.19997">
        <ele>342.9</ele>
        <time>2012-01-04T09:26:41Z</time>
      </trkpt>
      <trkpt lat="43.82774" lon="7.20008">
        <ele>343.4</ele>
        <time>2012-01-04T09:26:45Z</time>
      </trkpt>
      <trkpt lat="43.82778" lon="7.20018">
        <ele>344.7</ele>
        <time>2012-01-04T09:26:49Z</time>
      </trkpt>
      <trkpt lat="43.82782" lon="7.20029">
        <ele>345.1</ele>
        <time>2012-01-04T09:26:53Z</time>
      </trkpt>
      <trkpt lat="43.82785" lon="7.2004">
        <ele>345.8</ele>
        <time>2012-01-04T09:26:57Z</time>
      </trkpt>
      <trkpt lat="43.82787" lon="7.20051">
        <ele>346.8</ele>
        <time>2012-01-04T09:27:01Z</time>
      </trkpt>
      <trkpt lat="43.82789" lon="7.20063">
        <ele>347.7</ele>
        <time>2012-01-04T09:27:05Z</time>
      </trkpt>
      <trkpt lat="43.82792" lon="7.20072">
        <ele>347.6</ele>
        <time>2012-01-04T09:27:08Z</time>
      </trkpt>
      <trkpt lat="43.82795" lon="7.2008">
        <ele>348.1</ele>
        <time>2012-01-04T09:27:11Z</time>
      </trkpt>
      <trkpt lat="43.82799" lon="7.20088">
        <ele>349.1</ele>
        <time>2012-01-04T09:27:14Z</time>
      </trkpt>
      <trkpt lat="43.82804" lon="7.20095">
        <ele>349.7</ele>
        <time>2012-01-04T09:27:17Z</time>
      </trkpt>
      <trkpt lat="43.8281" lon="7.20102">
        <ele>350.1</ele>
        <time>2012-01-04T09:27:20Z</time>
      </trkpt>
      <trkpt lat="43.82815" lon="7.20109">
        <ele>350.8</ele>
        <time>2012-01-04T09:27:23Z</time>
      </trkpt>
      <trkpt lat="43.8282" lon="7.20115">
        <ele>351.7</ele>
        <time>2012-01-04T09:27:26Z</time>
      </trkpt>
      <trkpt lat="43.82828" lon="7.20121">
        <ele>352.3</ele>
        <time>2012-01-04T09:27:30Z</time>
      </trkpt>
      <trkpt lat="43.82834" lon="7.20125">
        <ele>352.7</ele>
        <time>2012-01-04T09:27:33Z</time>
      </trkpt>
      <trkpt lat="43.82841" lon="7.20128">
        <ele>353.6</ele>
        <time>2012-01-04T09:27:36Z</time>
      </trkpt>
      <trkpt lat="43.82843" lon="7.20129">
        <ele>353.7</ele>
        <time>2012-01-04T09:27:37Z</time>
      </trkpt>
      <trkpt lat="43.82855" lon="7.20133">
        <ele>354.4</ele>
        <time>2012-01-04T09:27:42Z</time>
      </trkpt>
      <trkpt lat="43.82864" lon="7.20134">
        <ele>355</ele>
        <time>2012-01-04T09:27:46Z</time>
      </trkpt>
      <trkpt lat="43.82872" lon="7.20135">
        <ele>356.4</ele>
        <time>2012-01-04T09:27:50Z</time>
      </trkpt>
      <trkpt lat="43.82881" lon="7.20136">
        <ele>357.2</ele>
        <time>2012-01-04T09:27:54Z</time>
      </trkpt>
      <trkpt lat="43.82889" lon="7.20138">
        <ele>357.9</ele>
        <time>2012-01-04T09:27:59Z</time>
      </trkpt>
      <trkpt lat="43.82898" lon="7.20138">
        <ele>359.1</ele>
        <time>2012-01-04T09:28:04Z</time>
      </trkpt>
      <trkpt lat="43.82903" lon="7.20133">
        <ele>359.5</ele>
        <time>2012-01-04T09:28:07Z</time>
      </trkpt>
      <trkpt lat="43.82902" lon="7.20121">
        <ele>359.4</ele>
        <time>2012-01-04T09:28:10Z</time>
      </trkpt>
      <trkpt lat="43.82898" lon="7.20111">
        <ele>360.6</ele>
        <time>2012-01-04T09:29:20Z</time>
      </trkpt>
      <trkpt lat="43.82898" lon="7.20111">
        <ele>360.6</ele>
        <time>2012-01-04T09:29:21Z</time>
      </trkpt>
      <trkpt lat="43.82905" lon="7.20103">
        <ele>360.2</ele>
        <time>2012-01-04T09:31:49Z</time>
      </trkpt>
      <trkpt lat="43.82913" lon="7.20123">
        <ele>360.5</ele>
        <time>2012-01-04T09:32:41Z</time>
      </trkpt>
      <trkpt lat="43.82911" lon="7.20134">
        <ele>361</ele>
        <time>2012-01-04T09:32:47Z</time>
      </trkpt>
      <trkpt lat="43.82905" lon="7.2014">
        <ele>361.4</ele>
        <time>2012-01-04T09:32:51Z</time>
      </trkpt>
      <trkpt lat="43.82903" lon="7.20143">
        <ele>361.7</ele>
        <time>2012-01-04T09:32:52Z</time>
      </trkpt>
      <trkpt lat="43.82899" lon="7.20161">
        <ele>361.9</ele>
        <time>2012-01-04T09:32:59Z</time>
      </trkpt>
      <trkpt lat="43.829" lon="7.20173">
        <ele>362.9</ele>
        <time>2012-01-04T09:33:03Z</time>
      </trkpt>
      <trkpt lat="43.82901" lon="7.20184">
        <ele>363.3</ele>
        <time>2012-01-04T09:33:07Z</time>
      </trkpt>
      <trkpt lat="43.82902" lon="7.20196">
        <ele>364.8</ele>
        <time>2012-01-04T09:33:11Z</time>
      </trkpt>
      <trkpt lat="43.82903" lon="7.20208">
        <ele>366.4</ele>
        <time>2012-01-04T09:33:15Z</time>
      </trkpt>
      <trkpt lat="43.82906" lon="7.20219">
        <ele>366.1</ele>
        <time>2012-01-04T09:33:19Z</time>
      </trkpt>
      <trkpt lat="43.8291" lon="7.20229">
        <ele>366.1</ele>
        <time>2012-01-04T09:33:23Z</time>
      </trkpt>
      <trkpt lat="43.82916" lon="7.20238">
        <ele>367.2</ele>
        <time>2012-01-04T09:33:27Z</time>
      </trkpt>
      <trkpt lat="43.82922" lon="7.20247">
        <ele>367.8</ele>
        <time>2012-01-04T09:33:31Z</time>
      </trkpt>
      <trkpt lat="43.82929" lon="7.20255">
        <ele>369</ele>
        <time>2012-01-04T09:33:35Z</time>
      </trkpt>
      <trkpt lat="43.82935" lon="7.20264">
        <ele>368.5</ele>
        <time>2012-01-04T09:33:39Z</time>
      </trkpt>
      <trkpt lat="43.8294" lon="7.20274">
        <ele>369.4</ele>
        <time>2012-01-04T09:33:43Z</time>
      </trkpt>
      <trkpt lat="43.82944" lon="7.20285">
        <ele>370.3</ele>
        <time>2012-01-04T09:33:47Z</time>
      </trkpt>
      <trkpt lat="43.82947" lon="7.20296">
        <ele>370.7</ele>
        <time>2012-01-04T09:33:51Z</time>
      </trkpt>
      <trkpt lat="43.82948" lon="7.20308">
        <ele>371.5</ele>
        <time>2012-01-04T09:33:55Z</time>
      </trkpt>
      <trkpt lat="43.82948" lon="7.20311">
        <ele>371.6</ele>
        <time>2012-01-04T09:33:56Z</time>
      </trkpt>
      <trkpt lat="43.82948" lon="7.20331">
        <ele>373.9</ele>
        <time>2012-01-04T09:34:03Z</time>
      </trkpt>
      <trkpt lat="43.82949" lon="7.20341">
        <ele>374.1</ele>
        <time>2012-01-04T09:34:07Z</time>
      </trkpt>
      <trkpt lat="43.82952" lon="7.2035">
        <ele>374.7</ele>
        <time>2012-01-04T09:34:11Z</time>
      </trkpt>
      <trkpt lat="43.82959" lon="7.20355">
        <ele>375.9</ele>
        <time>2012-01-04T09:34:15Z</time>
      </trkpt>
      <trkpt lat="43.82966" lon="7.20356">
        <ele>375.8</ele>
        <time>2012-01-04T09:34:19Z</time>
      </trkpt>
      <trkpt lat="43.82974" lon="7.20359">
        <ele>376.2</ele>
        <time>2012-01-04T09:34:23Z</time>
      </trkpt>
      <trkpt lat="43.8298" lon="7.20364">
        <ele>377.6</ele>
        <time>2012-01-04T09:34:27Z</time>
      </trkpt>
      <trkpt lat="43.82987" lon="7.20373">
        <ele>378.6</ele>
        <time>2012-01-04T09:34:32Z</time>
      </trkpt>
      <trkpt lat="43.82991" lon="7.20381">
        <ele>379.2</ele>
        <time>2012-01-04T09:34:36Z</time>
      </trkpt>
      <trkpt lat="43.82997" lon="7.20388">
        <ele>380</ele>
        <time>2012-01-04T09:34:40Z</time>
      </trkpt>
      <trkpt lat="43.83003" lon="7.20396">
        <ele>380.4</ele>
        <time>2012-01-04T09:34:44Z</time>
      </trkpt>
      <trkpt lat="43.83011" lon="7.20401">
        <ele>381.2</ele>
        <time>2012-01-04T09:34:48Z</time>
      </trkpt>
      <trkpt lat="43.83018" lon="7.20408">
        <ele>382</ele>
        <time>2012-01-04T09:34:52Z</time>
      </trkpt>
      <trkpt lat="43.83021" lon="7.20418">
        <ele>383</ele>
        <time>2012-01-04T09:34:56Z</time>
      </trkpt>
      <trkpt lat="43.83014" lon="7.20424">
        <ele>383.9</ele>
        <time>2012-01-04T09:35:01Z</time>
      </trkpt>
      <trkpt lat="43.83012" lon="7.20423">
        <ele>384.2</ele>
        <time>2012-01-04T09:35:02Z</time>
      </trkpt>
      <trkpt lat="43.83" lon="7.20416">
        <ele>384.6</ele>
        <time>2012-01-04T09:35:09Z</time>
      </trkpt>
      <trkpt lat="43.82994" lon="7.2041">
        <ele>385.7</ele>
        <time>2012-01-04T09:35:13Z</time>
      </trkpt>
      <trkpt lat="43.82987" lon="7.20404">
        <ele>386.6</ele>
        <time>2012-01-04T09:35:17Z</time>
      </trkpt>
      <trkpt lat="43.82979" lon="7.204">
        <ele>386.6</ele>
        <time>2012-01-04T09:35:21Z</time>
      </trkpt>
      <trkpt lat="43.82971" lon="7.20402">
        <ele>388.6</ele>
        <time>2012-01-04T09:35:25Z</time>
      </trkpt>
      <trkpt lat="43.82965" lon="7.20407">
        <ele>388.9</ele>
        <time>2012-01-04T09:35:28Z</time>
      </trkpt>
      <trkpt lat="43.82959" lon="7.20415">
        <ele>388.9</ele>
        <time>2012-01-04T09:35:32Z</time>
      </trkpt>
      <trkpt lat="43.82951" lon="7.2042">
        <ele>390.1</ele>
        <time>2012-01-04T09:36:20Z</time>
      </trkpt>
      <trkpt lat="43.82949" lon="7.20423">
        <ele>390</ele>
        <time>2012-01-04T09:36:21Z</time>
      </trkpt>
      <trkpt lat="43.82948" lon="7.20439">
        <ele>390.5</ele>
        <time>2012-01-04T09:36:25Z</time>
      </trkpt>
      <trkpt lat="43.8295" lon="7.20448">
        <ele>390.5</ele>
        <time>2012-01-04T09:36:27Z</time>
      </trkpt>
      <trkpt lat="43.82951" lon="7.20457">
        <ele>390.6</ele>
        <time>2012-01-04T09:36:29Z</time>
      </trkpt>
      <trkpt lat="43.82953" lon="7.20465">
        <ele>391.1</ele>
        <time>2012-01-04T09:36:31Z</time>
      </trkpt>
      <trkpt lat="43.82955" lon="7.20473">
        <ele>391.3</ele>
        <time>2012-01-04T09:36:33Z</time>
      </trkpt>
      <trkpt lat="43.82958" lon="7.20484">
        <ele>391.3</ele>
        <time>2012-01-04T09:36:36Z</time>
      </trkpt>
      <trkpt lat="43.82959" lon="7.20496">
        <ele>393.2</ele>
        <time>2012-01-04T09:36:39Z</time>
      </trkpt>
      <trkpt lat="43.82958" lon="7.20505">
        <ele>393.6</ele>
        <time>2012-01-04T09:36:41Z</time>
      </trkpt>
      <trkpt lat="43.82956" lon="7.20517">
        <ele>394.1</ele>
        <time>2012-01-04T09:36:44Z</time>
      </trkpt>
      <trkpt lat="43.82953" lon="7.20528">
        <ele>393.6</ele>
        <time>2012-01-04T09:36:47Z</time>
      </trkpt>
      <trkpt lat="43.82951" lon="7.20539">
        <ele>394.6</ele>
        <time>2012-01-04T09:36:50Z</time>
      </trkpt>
      <trkpt lat="43.82954" lon="7.20549">
        <ele>395.1</ele>
        <time>2012-01-04T09:36:53Z</time>
      </trkpt>
      <trkpt lat="43.82961" lon="7.20549">
        <ele>396.2</ele>
        <time>2012-01-04T09:36:56Z</time>
      </trkpt>
      <trkpt lat="43.82966" lon="7.2054">
        <ele>396.5</ele>
        <time>2012-01-04T09:36:59Z</time>
      </trkpt>
      <trkpt lat="43.82969" lon="7.2053">
        <ele>396.9</ele>
        <time>2012-01-04T09:37:02Z</time>
      </trkpt>
      <trkpt lat="43.82971" lon="7.2052">
        <ele>397.1</ele>
        <time>2012-01-04T09:37:05Z</time>
      </trkpt>
      <trkpt lat="43.82973" lon="7.2051">
        <ele>397.9</ele>
        <time>2012-01-04T09:37:08Z</time>
      </trkpt>
      <trkpt lat="43.82973" lon="7.205">
        <ele>398.2</ele>
        <time>2012-01-04T09:37:11Z</time>
      </trkpt>
      <trkpt lat="43.82974" lon="7.2049">
        <ele>398.5</ele>
        <time>2012-01-04T09:37:14Z</time>
      </trkpt>
      <trkpt lat="43.82978" lon="7.20482">
        <ele>399.5</ele>
        <time>2012-01-04T09:37:17Z</time>
      </trkpt>
      <trkpt lat="43.82985" lon="7.20476">
        <ele>400.7</ele>
        <time>2012-01-04T09:37:21Z</time>
      </trkpt>
      <trkpt lat="43.82994" lon="7.20475">
        <ele>401</ele>
        <time>2012-01-04T09:37:25Z</time>
      </trkpt>
      <trkpt lat="43.82997" lon="7.20474">
        <ele>401.1</ele>
        <time>2012-01-04T09:37:26Z</time>
      </trkpt>
      <trkpt lat="43.83009" lon="7.20474">
        <ele>401.4</ele>
        <time>2012-01-04T09:37:31Z</time>
      </trkpt>
      <trkpt lat="43.83015" lon="7.20476">
        <ele>401.8</ele>
        <time>2012-01-04T09:37:34Z</time>
      </trkpt>
      <trkpt lat="43.83022" lon="7.20478">
        <ele>402.1</ele>
        <time>2012-01-04T09:37:37Z</time>
      </trkpt>
      <trkpt lat="43.83029" lon="7.2048">
        <ele>402.7</ele>
        <time>2012-01-04T09:37:40Z</time>
      </trkpt>
      <trkpt lat="43.83035" lon="7.20483">
        <ele>403.1</ele>
        <time>2012-01-04T09:37:43Z</time>
      </trkpt>
      <trkpt lat="43.83041" lon="7.20491">
        <ele>404.3</ele>
        <time>2012-01-04T09:37:46Z</time>
      </trkpt>
      <trkpt lat="43.83045" lon="7.20499">
        <ele>404.9</ele>
        <time>2012-01-04T09:37:49Z</time>
      </trkpt>
      <trkpt lat="43.83049" lon="7.20507">
        <ele>405.5</ele>
        <time>2012-01-04T09:37:52Z</time>
      </trkpt>
      <trkpt lat="43.83053" lon="7.20516">
        <ele>407.4</ele>
        <time>2012-01-04T09:37:55Z</time>
      </trkpt>
      <trkpt lat="43.83056" lon="7.20525">
        <ele>407.5</ele>
        <time>2012-01-04T09:37:58Z</time>
      </trkpt>
      <trkpt lat="43.8306" lon="7.20533">
        <ele>407.5</ele>
        <time>2012-01-04T09:38:01Z</time>
      </trkpt>
      <trkpt lat="43.83064" lon="7.20541">
        <ele>407.6</ele>
        <time>2012-01-04T09:38:04Z</time>
      </trkpt>
      <trkpt lat="43.83068" lon="7.20549">
        <ele>408.6</ele>
        <time>2012-01-04T09:38:07Z</time>
      </trkpt>
      <trkpt lat="43.83072" lon="7.20557">
        <ele>409.6</ele>
        <time>2012-01-04T09:38:10Z</time>
      </trkpt>
      <trkpt lat="43.83077" lon="7.20564">
        <ele>409.6</ele>
        <time>2012-01-04T09:38:13Z</time>
      </trkpt>
      <trkpt lat="43.83082" lon="7.20571">
        <ele>409.6</ele>
        <time>2012-01-04T09:38:16Z</time>
      </trkpt>
      <trkpt lat="43.83087" lon="7.20578">
        <ele>409.6</ele>
        <time>2012-01-04T09:38:19Z</time>
      </trkpt>
      <trkpt lat="43.83092" lon="7.20586">
        <ele>409.7</ele>
        <time>2012-01-04T09:38:22Z</time>
      </trkpt>
      <trkpt lat="43.83096" lon="7.20594">
        <ele>410.8</ele>
        <time>2012-01-04T09:38:25Z</time>
      </trkpt>
      <trkpt lat="43.83101" lon="7.20602">
        <ele>411.7</ele>
        <time>2012-01-04T09:38:28Z</time>
      </trkpt>
      <trkpt lat="43.83103" lon="7.20604">
        <ele>411.6</ele>
        <time>2012-01-04T09:38:29Z</time>
      </trkpt>
      <trkpt lat="43.83111" lon="7.20617">
        <ele>411.7</ele>
        <time>2012-01-04T09:38:34Z</time>
      </trkpt>
      <trkpt lat="43.83115" lon="7.20625">
        <ele>412.2</ele>
        <time>2012-01-04T09:38:37Z</time>
      </trkpt>
      <trkpt lat="43.83121" lon="7.20632">
        <ele>413.3</ele>
        <time>2012-01-04T09:38:40Z</time>
      </trkpt>
      <trkpt lat="43.83125" lon="7.20639">
        <ele>414</ele>
        <time>2012-01-04T09:38:43Z</time>
      </trkpt>
      <trkpt lat="43.83131" lon="7.20648">
        <ele>414.4</ele>
        <time>2012-01-04T09:38:47Z</time>
      </trkpt>
      <trkpt lat="43.83136" lon="7.20654">
        <ele>414.8</ele>
        <time>2012-01-04T09:38:50Z</time>
      </trkpt>
      <trkpt lat="43.83141" lon="7.20661">
        <ele>415.5</ele>
        <time>2012-01-04T09:38:53Z</time>
      </trkpt>
      <trkpt lat="43.83146" lon="7.20669">
        <ele>416.2</ele>
        <time>2012-01-04T09:38:56Z</time>
      </trkpt>
      <trkpt lat="43.83151" lon="7.20676">
        <ele>416.4</ele>
        <time>2012-01-04T09:38:59Z</time>
      </trkpt>
      <trkpt lat="43.83157" lon="7.20684">
        <ele>417.3</ele>
        <time>2012-01-04T09:39:02Z</time>
      </trkpt>
      <trkpt lat="43.83162" lon="7.2069">
        <ele>417.6</ele>
        <time>2012-01-04T09:39:05Z</time>
      </trkpt>
      <trkpt lat="43.83168" lon="7.20696">
        <ele>417.5</ele>
        <time>2012-01-04T09:39:08Z</time>
      </trkpt>
      <trkpt lat="43.83175" lon="7.207">
        <ele>418.5</ele>
        <time>2012-01-04T09:39:11Z</time>
      </trkpt>
      <trkpt lat="43.83182" lon="7.20703">
        <ele>418.9</ele>
        <time>2012-01-04T09:39:14Z</time>
      </trkpt>
      <trkpt lat="43.83188" lon="7.20706">
        <ele>419.8</ele>
        <time>2012-01-04T09:39:17Z</time>
      </trkpt>
      <trkpt lat="43.83195" lon="7.20711">
        <ele>420.2</ele>
        <time>2012-01-04T09:39:20Z</time>
      </trkpt>
      <trkpt lat="43.83198" lon="7.20719">
        <ele>420.2</ele>
        <time>2012-01-04T09:39:23Z</time>
      </trkpt>
      <trkpt lat="43.83199" lon="7.20729">
        <ele>420</ele>
        <time>2012-01-04T09:39:26Z</time>
      </trkpt>
      <trkpt lat="43.83199" lon="7.20738">
        <ele>420.7</ele>
        <time>2012-01-04T09:39:29Z</time>
      </trkpt>
      <trkpt lat="43.83199" lon="7.20748">
        <ele>421.5</ele>
        <time>2012-01-04T09:39:32Z</time>
      </trkpt>
      <trkpt lat="43.832" lon="7.20751">
        <ele>422</ele>
        <time>2012-01-04T09:39:33Z</time>
      </trkpt>
      <trkpt lat="43.83203" lon="7.20768">
        <ele>423.6</ele>
        <time>2012-01-04T09:39:38Z</time>
      </trkpt>
      <trkpt lat="43.83206" lon="7.20777">
        <ele>424.2</ele>
        <time>2012-01-04T09:39:41Z</time>
      </trkpt>
      <trkpt lat="43.8321" lon="7.20786">
        <ele>424.2</ele>
        <time>2012-01-04T09:39:44Z</time>
      </trkpt>
      <trkpt lat="43.83215" lon="7.20794">
        <ele>424.5</ele>
        <time>2012-01-04T09:39:47Z</time>
      </trkpt>
      <trkpt lat="43.83222" lon="7.208">
        <ele>424.8</ele>
        <time>2012-01-04T09:39:50Z</time>
      </trkpt>
      <trkpt lat="43.83229" lon="7.20805">
        <ele>425.5</ele>
        <time>2012-01-04T09:39:53Z</time>
      </trkpt>
      <trkpt lat="43.83236" lon="7.20809">
        <ele>426.5</ele>
        <time>2012-01-04T09:39:56Z</time>
      </trkpt>
      <trkpt lat="43.83243" lon="7.20811">
        <ele>426.9</ele>
        <time>2012-01-04T09:39:59Z</time>
      </trkpt>
      <trkpt lat="43.8325" lon="7.20814">
        <ele>427.1</ele>
        <time>2012-01-04T09:40:02Z</time>
      </trkpt>
      <trkpt lat="43.83257" lon="7.20813">
        <ele>427</ele>
        <time>2012-01-04T09:40:05Z</time>
      </trkpt>
      <trkpt lat="43.83265" lon="7.20812">
        <ele>428.4</ele>
        <time>2012-01-04T09:40:08Z</time>
      </trkpt>
      <trkpt lat="43.83272" lon="7.20807">
        <ele>428.8</ele>
        <time>2012-01-04T09:40:11Z</time>
      </trkpt>
      <trkpt lat="43.83279" lon="7.20801">
        <ele>429</ele>
        <time>2012-01-04T09:40:14Z</time>
      </trkpt>
      <trkpt lat="43.83284" lon="7.20794">
        <ele>428.9</ele>
        <time>2012-01-04T09:40:17Z</time>
      </trkpt>
      <trkpt lat="43.8329" lon="7.20789">
        <ele>429.2</ele>
        <time>2012-01-04T09:40:20Z</time>
      </trkpt>
      <trkpt lat="43.83296" lon="7.20783">
        <ele>429.6</ele>
        <time>2012-01-04T09:40:23Z</time>
      </trkpt>
      <trkpt lat="43.83301" lon="7.20776">
        <ele>430.3</ele>
        <time>2012-01-04T09:40:26Z</time>
      </trkpt>
      <trkpt lat="43.83307" lon="7.2077">
        <ele>430.5</ele>
        <time>2012-01-04T09:40:29Z</time>
      </trkpt>
      <trkpt lat="43.83313" lon="7.20764">
        <ele>431.9</ele>
        <time>2012-01-04T09:40:32Z</time>
      </trkpt>
      <trkpt lat="43.8332" lon="7.20759">
        <ele>432.5</ele>
        <time>2012-01-04T09:40:35Z</time>
      </trkpt>
      <trkpt lat="43.83322" lon="7.20758">
        <ele>432.8</ele>
        <time>2012-01-04T09:40:36Z</time>
      </trkpt>
      <trkpt lat="43.83333" lon="7.20754">
        <ele>433.3</ele>
        <time>2012-01-04T09:40:41Z</time>
      </trkpt>
      <trkpt lat="43.8334" lon="7.20753">
        <ele>434.2</ele>
        <time>2012-01-04T09:40:44Z</time>
      </trkpt>
      <trkpt lat="43.83349" lon="7.20751">
        <ele>434.5</ele>
        <time>2012-01-04T09:40:48Z</time>
      </trkpt>
      <trkpt lat="43.83358" lon="7.2075">
        <ele>434.8</ele>
        <time>2012-01-04T09:40:52Z</time>
      </trkpt>
      <trkpt lat="43.83365" lon="7.20749">
        <ele>435.4</ele>
        <time>2012-01-04T09:40:55Z</time>
      </trkpt>
      <trkpt lat="43.83372" lon="7.20748">
        <ele>436.1</ele>
        <time>2012-01-04T09:40:58Z</time>
      </trkpt>
      <trkpt lat="43.83379" lon="7.20748">
        <ele>436.4</ele>
        <time>2012-01-04T09:41:01Z</time>
      </trkpt>
      <trkpt lat="43.83387" lon="7.20748">
        <ele>436.6</ele>
        <time>2012-01-04T09:41:04Z</time>
      </trkpt>
      <trkpt lat="43.83394" lon="7.20749">
        <ele>436.4</ele>
        <time>2012-01-04T09:41:07Z</time>
      </trkpt>
      <trkpt lat="43.83402" lon="7.20751">
        <ele>436.7</ele>
        <time>2012-01-04T09:41:10Z</time>
      </trkpt>
      <trkpt lat="43.8341" lon="7.20753">
        <ele>437.4</ele>
        <time>2012-01-04T09:41:13Z</time>
      </trkpt>
      <trkpt lat="43.83401" lon="7.20756">
        <ele>440</ele>
        <time>2012-01-04T09:41:23Z</time>
      </trkpt>
      <trkpt lat="43.83394" lon="7.20755">
        <ele>439.9</ele>
        <time>2012-01-04T09:41:26Z</time>
      </trkpt>
      <trkpt lat="43.83387" lon="7.20754">
        <ele>440.2</ele>
        <time>2012-01-04T09:41:29Z</time>
      </trkpt>
      <trkpt lat="43.83379" lon="7.20754">
        <ele>440.9</ele>
        <time>2012-01-04T09:41:32Z</time>
      </trkpt>
      <trkpt lat="43.83371" lon="7.20756">
        <ele>441.1</ele>
        <time>2012-01-04T09:41:35Z</time>
      </trkpt>
      <trkpt lat="43.83364" lon="7.20758">
        <ele>441.6</ele>
        <time>2012-01-04T09:41:38Z</time>
      </trkpt>
      <trkpt lat="43.83361" lon="7.20759">
        <ele>441.8</ele>
        <time>2012-01-04T09:41:39Z</time>
      </trkpt>
      <trkpt lat="43.83349" lon="7.20762">
        <ele>442.9</ele>
        <time>2012-01-04T09:41:44Z</time>
      </trkpt>
      <trkpt lat="43.83341" lon="7.20765">
        <ele>442.6</ele>
        <time>2012-01-04T09:41:47Z</time>
      </trkpt>
      <trkpt lat="43.83334" lon="7.20768">
        <ele>443.3</ele>
        <time>2012-01-04T09:41:50Z</time>
      </trkpt>
      <trkpt lat="43.83329" lon="7.20776">
        <ele>443</ele>
        <time>2012-01-04T09:41:53Z</time>
      </trkpt>
      <trkpt lat="43.83337" lon="7.20781">
        <ele>442.9</ele>
        <time>2012-01-04T09:41:57Z</time>
      </trkpt>
      <trkpt lat="43.83345" lon="7.2078">
        <ele>443.5</ele>
        <time>2012-01-04T09:42:00Z</time>
      </trkpt>
      <trkpt lat="43.83353" lon="7.20779">
        <ele>444.3</ele>
        <time>2012-01-04T09:42:03Z</time>
      </trkpt>
      <trkpt lat="43.8336" lon="7.20778">
        <ele>445.2</ele>
        <time>2012-01-04T09:42:06Z</time>
      </trkpt>
      <trkpt lat="43.83368" lon="7.20777">
        <ele>445.1</ele>
        <time>2012-01-04T09:42:09Z</time>
      </trkpt>
      <trkpt lat="43.83376" lon="7.20777">
        <ele>445.2</ele>
        <time>2012-01-04T09:42:12Z</time>
      </trkpt>
      <trkpt lat="43.83384" lon="7.20779">
        <ele>446</ele>
        <time>2012-01-04T09:42:15Z</time>
      </trkpt>
      <trkpt lat="43.83392" lon="7.20783">
        <ele>446.9</ele>
        <time>2012-01-04T09:42:19Z</time>
      </trkpt>
      <trkpt lat="43.834" lon="7.20789">
        <ele>447.6</ele>
        <time>2012-01-04T09:42:23Z</time>
      </trkpt>
      <trkpt lat="43.83405" lon="7.20795">
        <ele>448.3</ele>
        <time>2012-01-04T09:42:26Z</time>
      </trkpt>
      <trkpt lat="43.83411" lon="7.208">
        <ele>449</ele>
        <time>2012-01-04T09:42:29Z</time>
      </trkpt>
      <trkpt lat="43.83418" lon="7.20807">
        <ele>449.4</ele>
        <time>2012-01-04T09:42:32Z</time>
      </trkpt>
      <trkpt lat="43.83424" lon="7.20814">
        <ele>449.8</ele>
        <time>2012-01-04T09:42:35Z</time>
      </trkpt>
      <trkpt lat="43.83431" lon="7.20821">
        <ele>450.6</ele>
        <time>2012-01-04T09:42:38Z</time>
      </trkpt>
      <trkpt lat="43.83438" lon="7.20827">
        <ele>451.3</ele>
        <time>2012-01-04T09:42:41Z</time>
      </trkpt>
      <trkpt lat="43.83441" lon="7.2083">
        <ele>451.5</ele>
        <time>2012-01-04T09:42:42Z</time>
      </trkpt>
      <trkpt lat="43.83453" lon="7.20841">
        <ele>452.2</ele>
        <time>2012-01-04T09:42:47Z</time>
      </trkpt>
      <trkpt lat="43.8346" lon="7.20848">
        <ele>453.2</ele>
        <time>2012-01-04T09:42:50Z</time>
      </trkpt>
      <trkpt lat="43.83466" lon="7.20854">
        <ele>453.2</ele>
        <time>2012-01-04T09:42:53Z</time>
      </trkpt>
      <trkpt lat="43.83473" lon="7.20861">
        <ele>453.8</ele>
        <time>2012-01-04T09:42:56Z</time>
      </trkpt>
      <trkpt lat="43.83479" lon="7.20867">
        <ele>454</ele>
        <time>2012-01-04T09:42:59Z</time>
      </trkpt>
      <trkpt lat="43.83486" lon="7.20874">
        <ele>454.9</ele>
        <time>2012-01-04T09:43:02Z</time>
      </trkpt>
      <trkpt lat="43.83493" lon="7.20879">
        <ele>455.7</ele>
        <time>2012-01-04T09:43:05Z</time>
      </trkpt>
      <trkpt lat="43.835" lon="7.20884">
        <ele>456.2</ele>
        <time>2012-01-04T09:43:08Z</time>
      </trkpt>
      <trkpt lat="43.83507" lon="7.20889">
        <ele>457</ele>
        <time>2012-01-04T09:43:11Z</time>
      </trkpt>
      <trkpt lat="43.83514" lon="7.20893">
        <ele>457.2</ele>
        <time>2012-01-04T09:43:14Z</time>
      </trkpt>
      <trkpt lat="43.83521" lon="7.20897">
        <ele>457.3</ele>
        <time>2012-01-04T09:43:17Z</time>
      </trkpt>
      <trkpt lat="43.83528" lon="7.20901">
        <ele>457.7</ele>
        <time>2012-01-04T09:43:20Z</time>
      </trkpt>
      <trkpt lat="43.83536" lon="7.20904">
        <ele>457.7</ele>
        <time>2012-01-04T09:43:23Z</time>
      </trkpt>
      <trkpt lat="43.83543" lon="7.20907">
        <ele>458.3</ele>
        <time>2012-01-04T09:43:26Z</time>
      </trkpt>
      <trkpt lat="43.83551" lon="7.2091">
        <ele>458.8</ele>
        <time>2012-01-04T09:43:29Z</time>
      </trkpt>
      <trkpt lat="43.83558" lon="7.20913">
        <ele>459</ele>
        <time>2012-01-04T09:43:32Z</time>
      </trkpt>
      <trkpt lat="43.83565" lon="7.20915">
        <ele>459.6</ele>
        <time>2012-01-04T09:43:35Z</time>
      </trkpt>
      <trkpt lat="43.83572" lon="7.20919">
        <ele>460</ele>
        <time>2012-01-04T09:43:38Z</time>
      </trkpt>
      <trkpt lat="43.83579" lon="7.20923">
        <ele>460.4</ele>
        <time>2012-01-04T09:43:41Z</time>
      </trkpt>
      <trkpt lat="43.83586" lon="7.20929">
        <ele>460.6</ele>
        <time>2012-01-04T09:43:44Z</time>
      </trkpt>
      <trkpt lat="43.83588" lon="7.2093">
        <ele>461</ele>
        <time>2012-01-04T09:43:45Z</time>
      </trkpt>
      <trkpt lat="43.83599" lon="7.2094">
        <ele>462.9</ele>
        <time>2012-01-04T09:43:50Z</time>
      </trkpt>
      <trkpt lat="43.83605" lon="7.20947">
        <ele>463.3</ele>
        <time>2012-01-04T09:43:53Z</time>
      </trkpt>
      <trkpt lat="43.83611" lon="7.20954">
        <ele>463.6</ele>
        <time>2012-01-04T09:43:56Z</time>
      </trkpt>
      <trkpt lat="43.83616" lon="7.20963">
        <ele>463.8</ele>
        <time>2012-01-04T09:43:59Z</time>
      </trkpt>
      <trkpt lat="43.83621" lon="7.20971">
        <ele>464.5</ele>
        <time>2012-01-04T09:44:02Z</time>
      </trkpt>
      <trkpt lat="43.83625" lon="7.2098">
        <ele>465.3</ele>
        <time>2012-01-04T09:44:05Z</time>
      </trkpt>
      <trkpt lat="43.83629" lon="7.2099">
        <ele>465.8</ele>
        <time>2012-01-04T09:44:08Z</time>
      </trkpt>
      <trkpt lat="43.83632" lon="7.20999">
        <ele>466</ele>
        <time>2012-01-04T09:44:11Z</time>
      </trkpt>
      <trkpt lat="43.83634" lon="7.2101">
        <ele>465.9</ele>
        <time>2012-01-04T09:44:14Z</time>
      </trkpt>
      <trkpt lat="43.83635" lon="7.2102">
        <ele>466.5</ele>
        <time>2012-01-04T09:44:17Z</time>
      </trkpt>
      <trkpt lat="43.83637" lon="7.21031">
        <ele>467.3</ele>
        <time>2012-01-04T09:44:20Z</time>
      </trkpt>
      <trkpt lat="43.8364" lon="7.21042">
        <ele>468.1</ele>
        <time>2012-01-04T09:44:23Z</time>
      </trkpt>
      <trkpt lat="43.8364" lon="7.21054">
        <ele>468.5</ele>
        <time>2012-01-04T09:44:26Z</time>
      </trkpt>
      <trkpt lat="43.83638" lon="7.21065">
        <ele>469.2</ele>
        <time>2012-01-04T09:44:29Z</time>
      </trkpt>
      <trkpt lat="43.83636" lon="7.21074">
        <ele>469</ele>
        <time>2012-01-04T09:44:32Z</time>
      </trkpt>
      <trkpt lat="43.83633" lon="7.21085">
        <ele>469.8</ele>
        <time>2012-01-04T09:44:35Z</time>
      </trkpt>
      <trkpt lat="43.8363" lon="7.21095">
        <ele>470.2</ele>
        <time>2012-01-04T09:44:38Z</time>
      </trkpt>
      <trkpt lat="43.83629" lon="7.21106">
        <ele>471.2</ele>
        <time>2012-01-04T09:44:41Z</time>
      </trkpt>
      <trkpt lat="43.83629" lon="7.21117">
        <ele>471.5</ele>
        <time>2012-01-04T09:44:44Z</time>
      </trkpt>
      <trkpt lat="43.83631" lon="7.21125">
        <ele>471.8</ele>
        <time>2012-01-04T09:44:46Z</time>
      </trkpt>
      <trkpt lat="43.83632" lon="7.21129">
        <ele>471.9</ele>
        <time>2012-01-04T09:44:47Z</time>
      </trkpt>
      <trkpt lat="43.8364" lon="7.21144">
        <ele>473</ele>
        <time>2012-01-04T09:44:52Z</time>
      </trkpt>
      <trkpt lat="43.83646" lon="7.21151">
        <ele>473.4</ele>
        <time>2012-01-04T09:44:55Z</time>
      </trkpt>
      <trkpt lat="43.83653" lon="7.21157">
        <ele>474.4</ele>
        <time>2012-01-04T09:44:58Z</time>
      </trkpt>
      <trkpt lat="43.8366" lon="7.21162">
        <ele>474.7</ele>
        <time>2012-01-04T09:45:01Z</time>
      </trkpt>
      <trkpt lat="43.83666" lon="7.21169">
        <ele>474.4</ele>
        <time>2012-01-04T09:45:04Z</time>
      </trkpt>
      <trkpt lat="43.83671" lon="7.21177">
        <ele>474.9</ele>
        <time>2012-01-04T09:45:07Z</time>
      </trkpt>
      <trkpt lat="43.83675" lon="7.21186">
        <ele>475.2</ele>
        <time>2012-01-04T09:45:10Z</time>
      </trkpt>
      <trkpt lat="43.83678" lon="7.21196">
        <ele>476.1</ele>
        <time>2012-01-04T09:45:13Z</time>
      </trkpt>
      <trkpt lat="43.83679" lon="7.21207">
        <ele>476.6</ele>
        <time>2012-01-04T09:45:16Z</time>
      </trkpt>
      <trkpt lat="43.83681" lon="7.21217">
        <ele>477</ele>
        <time>2012-01-04T09:45:19Z</time>
      </trkpt>
      <trkpt lat="43.83682" lon="7.21227">
        <ele>477.1</ele>
        <time>2012-01-04T09:45:22Z</time>
      </trkpt>
      <trkpt lat="43.83684" lon="7.21238">
        <ele>478.1</ele>
        <time>2012-01-04T09:45:25Z</time>
      </trkpt>
      <trkpt lat="43.83685" lon="7.21249">
        <ele>478.9</ele>
        <time>2012-01-04T09:45:28Z</time>
      </trkpt>
      <trkpt lat="43.83688" lon="7.2126">
        <ele>478.5</ele>
        <time>2012-01-04T09:45:31Z</time>
      </trkpt>
      <trkpt lat="43.83691" lon="7.2127">
        <ele>478.8</ele>
        <time>2012-01-04T09:45:34Z</time>
      </trkpt>
      <trkpt lat="43.83696" lon="7.21279">
        <ele>479.4</ele>
        <time>2012-01-04T09:45:37Z</time>
      </trkpt>
      <trkpt lat="43.83702" lon="7.21286">
        <ele>480</ele>
        <time>2012-01-04T09:45:40Z</time>
      </trkpt>
      <trkpt lat="43.83709" lon="7.21291">
        <ele>480.2</ele>
        <time>2012-01-04T09:45:43Z</time>
      </trkpt>
      <trkpt lat="43.83717" lon="7.21294">
        <ele>480.6</ele>
        <time>2012-01-04T09:45:46Z</time>
      </trkpt>
      <trkpt lat="43.83725" lon="7.21295">
        <ele>481.1</ele>
        <time>2012-01-04T09:45:49Z</time>
      </trkpt>
      <trkpt lat="43.83727" lon="7.21296">
        <ele>481.3</ele>
        <time>2012-01-04T09:45:50Z</time>
      </trkpt>
      <trkpt lat="43.83739" lon="7.21298">
        <ele>482.3</ele>
        <time>2012-01-04T09:45:55Z</time>
      </trkpt>
      <trkpt lat="43.83746" lon="7.21298">
        <ele>483</ele>
        <time>2012-01-04T09:45:58Z</time>
      </trkpt>
      <trkpt lat="43.83753" lon="7.21299">
        <ele>483.4</ele>
        <time>2012-01-04T09:46:01Z</time>
      </trkpt>
      <trkpt lat="43.83761" lon="7.213">
        <ele>482.5</ele>
        <time>2012-01-04T09:46:04Z</time>
      </trkpt>
      <trkpt lat="43.83768" lon="7.21301">
        <ele>483.5</ele>
        <time>2012-01-04T09:46:07Z</time>
      </trkpt>
      <trkpt lat="43.83776" lon="7.21301">
        <ele>484</ele>
        <time>2012-01-04T09:46:10Z</time>
      </trkpt>
      <trkpt lat="43.83783" lon="7.21301">
        <ele>484.2</ele>
        <time>2012-01-04T09:46:13Z</time>
      </trkpt>
      <trkpt lat="43.83791" lon="7.21299">
        <ele>485</ele>
        <time>2012-01-04T09:46:16Z</time>
      </trkpt>
      <trkpt lat="43.83797" lon="7.21293">
        <ele>485.5</ele>
        <time>2012-01-04T09:46:19Z</time>
      </trkpt>
      <trkpt lat="43.83801" lon="7.21285">
        <ele>486.2</ele>
        <time>2012-01-04T09:46:22Z</time>
      </trkpt>
      <trkpt lat="43.83801" lon="7.21275">
        <ele>486.6</ele>
        <time>2012-01-04T09:46:25Z</time>
      </trkpt>
      <trkpt lat="43.838" lon="7.21265">
        <ele>487.4</ele>
        <time>2012-01-04T09:46:28Z</time>
      </trkpt>
      <trkpt lat="43.83798" lon="7.21255">
        <ele>487.5</ele>
        <time>2012-01-04T09:46:31Z</time>
      </trkpt>
      <trkpt lat="43.83806" lon="7.2125">
        <ele>489.1</ele>
        <time>2012-01-04T09:46:36Z</time>
      </trkpt>
      <trkpt lat="43.8381" lon="7.21256">
        <ele>489.3</ele>
        <time>2012-01-04T09:46:39Z</time>
      </trkpt>
      <trkpt lat="43.83815" lon="7.21264">
        <ele>489.7</ele>
        <time>2012-01-04T09:46:42Z</time>
      </trkpt>
      <trkpt lat="43.8382" lon="7.21273">
        <ele>490.4</ele>
        <time>2012-01-04T09:46:45Z</time>
      </trkpt>
      <trkpt lat="43.83824" lon="7.21281">
        <ele>490.9</ele>
        <time>2012-01-04T09:46:48Z</time>
      </trkpt>
      <trkpt lat="43.83828" lon="7.21289">
        <ele>491.1</ele>
        <time>2012-01-04T09:46:51Z</time>
      </trkpt>
      <trkpt lat="43.83832" lon="7.21297">
        <ele>492</ele>
        <time>2012-01-04T09:46:54Z</time>
      </trkpt>
      <trkpt lat="43.83834" lon="7.213">
        <ele>492.1</ele>
        <time>2012-01-04T09:46:55Z</time>
      </trkpt>
      <trkpt lat="43.83842" lon="7.21314">
        <ele>493.6</ele>
        <time>2012-01-04T09:47:00Z</time>
      </trkpt>
      <trkpt lat="43.83848" lon="7.21321">
        <ele>493.5</ele>
        <time>2012-01-04T09:47:03Z</time>
      </trkpt>
      <trkpt lat="43.83854" lon="7.21326">
        <ele>494</ele>
        <time>2012-01-04T09:47:06Z</time>
      </trkpt>
      <trkpt lat="43.83862" lon="7.21328">
        <ele>494.5</ele>
        <time>2012-01-04T09:47:09Z</time>
      </trkpt>
      <trkpt lat="43.8387" lon="7.21329">
        <ele>495.3</ele>
        <time>2012-01-04T09:47:12Z</time>
      </trkpt>
      <trkpt lat="43.83878" lon="7.21326">
        <ele>495.9</ele>
        <time>2012-01-04T09:47:15Z</time>
      </trkpt>
      <trkpt lat="43.83885" lon="7.2132">
        <ele>496.1</ele>
        <time>2012-01-04T09:47:18Z</time>
      </trkpt>
      <trkpt lat="43.83892" lon="7.21313">
        <ele>496.6</ele>
        <time>2012-01-04T09:47:21Z</time>
      </trkpt>
      <trkpt lat="43.83896" lon="7.21306">
        <ele>496.7</ele>
        <time>2012-01-04T09:47:23Z</time>
      </trkpt>
      <trkpt lat="43.83903" lon="7.21298">
        <ele>496.8</ele>
        <time>2012-01-04T09:47:26Z</time>
      </trkpt>
      <trkpt lat="43.83908" lon="7.21293">
        <ele>496.7</ele>
        <time>2012-01-04T09:47:28Z</time>
      </trkpt>
      <trkpt lat="43.83914" lon="7.21289">
        <ele>496.5</ele>
        <time>2012-01-04T09:47:30Z</time>
      </trkpt>
      <trkpt lat="43.83921" lon="7.21284">
        <ele>496</ele>
        <time>2012-01-04T09:47:32Z</time>
      </trkpt>
      <trkpt lat="43.83928" lon="7.2128">
        <ele>495.5</ele>
        <time>2012-01-04T09:47:34Z</time>
      </trkpt>
      <trkpt lat="43.83935" lon="7.21276">
        <ele>495.3</ele>
        <time>2012-01-04T09:47:36Z</time>
      </trkpt>
      <trkpt lat="43.83943" lon="7.21272">
        <ele>494.8</ele>
        <time>2012-01-04T09:47:38Z</time>
      </trkpt>
      <trkpt lat="43.8395" lon="7.2127">
        <ele>495.3</ele>
        <time>2012-01-04T09:47:40Z</time>
      </trkpt>
      <trkpt lat="43.83958" lon="7.2127">
        <ele>495.7</ele>
        <time>2012-01-04T09:47:42Z</time>
      </trkpt>
      <trkpt lat="43.83966" lon="7.21271">
        <ele>495.7</ele>
        <time>2012-01-04T09:47:44Z</time>
      </trkpt>
      <trkpt lat="43.83973" lon="7.21275">
        <ele>495.4</ele>
        <time>2012-01-04T09:47:46Z</time>
      </trkpt>
      <trkpt lat="43.83978" lon="7.21283">
        <ele>495.1</ele>
        <time>2012-01-04T09:47:48Z</time>
      </trkpt>
      <trkpt lat="43.83983" lon="7.21292">
        <ele>494.2</ele>
        <time>2012-01-04T09:47:50Z</time>
      </trkpt>
      <trkpt lat="43.83986" lon="7.21301">
        <ele>494.4</ele>
        <time>2012-01-04T09:47:52Z</time>
      </trkpt>
      <trkpt lat="43.8399" lon="7.2131">
        <ele>494.6</ele>
        <time>2012-01-04T09:47:54Z</time>
      </trkpt>
      <trkpt lat="43.83995" lon="7.21318">
        <ele>494.6</ele>
        <time>2012-01-04T09:47:56Z</time>
      </trkpt>
      <trkpt lat="43.83999" lon="7.21325">
        <ele>494.4</ele>
        <time>2012-01-04T09:47:58Z</time>
      </trkpt>
      <trkpt lat="43.84002" lon="7.21329">
        <ele>494.3</ele>
        <time>2012-01-04T09:47:59Z</time>
      </trkpt>
      <trkpt lat="43.84011" lon="7.21339">
        <ele>494.2</ele>
        <time>2012-01-04T09:48:02Z</time>
      </trkpt>
      <trkpt lat="43.84017" lon="7.21345">
        <ele>493.7</ele>
        <time>2012-01-04T09:48:04Z</time>
      </trkpt>
      <trkpt lat="43.84022" lon="7.21351">
        <ele>493.8</ele>
        <time>2012-01-04T09:48:06Z</time>
      </trkpt>
      <trkpt lat="43.84028" lon="7.21358">
        <ele>493.9</ele>
        <time>2012-01-04T09:48:08Z</time>
      </trkpt>
      <trkpt lat="43.84034" lon="7.21364">
        <ele>493.9</ele>
        <time>2012-01-04T09:48:10Z</time>
      </trkpt>
      <trkpt lat="43.8404" lon="7.2137">
        <ele>494</ele>
        <time>2012-01-04T09:48:12Z</time>
      </trkpt>
      <trkpt lat="43.84045" lon="7.21376">
        <ele>493.6</ele>
        <time>2012-01-04T09:48:14Z</time>
      </trkpt>
      <trkpt lat="43.8405" lon="7.21383">
        <ele>493.4</ele>
        <time>2012-01-04T09:48:16Z</time>
      </trkpt>
      <trkpt lat="43.84056" lon="7.21389">
        <ele>493.2</ele>
        <time>2012-01-04T09:48:18Z</time>
      </trkpt>
      <trkpt lat="43.84062" lon="7.21395">
        <ele>493.1</ele>
        <time>2012-01-04T09:48:20Z</time>
      </trkpt>
      <trkpt lat="43.84068" lon="7.21401">
        <ele>493.2</ele>
        <time>2012-01-04T09:48:22Z</time>
      </trkpt>
      <trkpt lat="43.84075" lon="7.21404">
        <ele>493.3</ele>
        <time>2012-01-04T09:48:24Z</time>
      </trkpt>
      <trkpt lat="43.84082" lon="7.21403">
        <ele>493</ele>
        <time>2012-01-04T09:48:26Z</time>
      </trkpt>
      <trkpt lat="43.84089" lon="7.214">
        <ele>492.8</ele>
        <time>2012-01-04T09:48:28Z</time>
      </trkpt>
      <trkpt lat="43.84095" lon="7.21395">
        <ele>492.3</ele>
        <time>2012-01-04T09:48:30Z</time>
      </trkpt>
      <trkpt lat="43.84102" lon="7.21389">
        <ele>492.1</ele>
        <time>2012-01-04T09:48:32Z</time>
      </trkpt>
      <trkpt lat="43.84109" lon="7.21384">
        <ele>491.8</ele>
        <time>2012-01-04T09:48:34Z</time>
      </trkpt>
      <trkpt lat="43.84117" lon="7.21384">
        <ele>491.8</ele>
        <time>2012-01-04T09:48:36Z</time>
      </trkpt>
      <trkpt lat="43.84124" lon="7.21388">
        <ele>492.1</ele>
        <time>2012-01-04T09:48:38Z</time>
      </trkpt>
      <trkpt lat="43.84128" lon="7.21396">
        <ele>491.9</ele>
        <time>2012-01-04T09:48:40Z</time>
      </trkpt>
      <trkpt lat="43.84133" lon="7.21404">
        <ele>492.2</ele>
        <time>2012-01-04T09:48:42Z</time>
      </trkpt>
      <trkpt lat="43.84138" lon="7.21413">
        <ele>491.9</ele>
        <time>2012-01-04T09:48:44Z</time>
      </trkpt>
      <trkpt lat="43.84144" lon="7.21422">
        <ele>491.8</ele>
        <time>2012-01-04T09:48:46Z</time>
      </trkpt>
      <trkpt lat="43.84149" lon="7.21431">
        <ele>491.9</ele>
        <time>2012-01-04T09:48:48Z</time>
      </trkpt>
      <trkpt lat="43.84155" lon="7.2144">
        <ele>491.8</ele>
        <time>2012-01-04T09:48:50Z</time>
      </trkpt>
      <trkpt lat="43.84161" lon="7.21448">
        <ele>491.3</ele>
        <time>2012-01-04T09:48:52Z</time>
      </trkpt>
      <trkpt lat="43.84167" lon="7.21455">
        <ele>491</ele>
        <time>2012-01-04T09:48:54Z</time>
      </trkpt>
      <trkpt lat="43.84173" lon="7.21463">
        <ele>490.7</ele>
        <time>2012-01-04T09:48:56Z</time>
      </trkpt>
      <trkpt lat="43.84179" lon="7.2147">
        <ele>490.8</ele>
        <time>2012-01-04T09:48:58Z</time>
      </trkpt>
      <trkpt lat="43.84186" lon="7.21476">
        <ele>491</ele>
        <time>2012-01-04T09:49:00Z</time>
      </trkpt>
      <trkpt lat="43.84194" lon="7.21482">
        <ele>491.2</ele>
        <time>2012-01-04T09:49:02Z</time>
      </trkpt>
      <trkpt lat="43.84198" lon="7.21484">
        <ele>491.3</ele>
        <time>2012-01-04T09:49:03Z</time>
      </trkpt>
      <trkpt lat="43.84202" lon="7.21486">
        <ele>491.3</ele>
        <time>2012-01-04T09:49:04Z</time>
      </trkpt>
      <trkpt lat="43.84207" lon="7.21487">
        <ele>491.1</ele>
        <time>2012-01-04T09:49:05Z</time>
      </trkpt>
      <trkpt lat="43.84216" lon="7.21488">
        <ele>490.4</ele>
        <time>2012-01-04T09:49:07Z</time>
      </trkpt>
      <trkpt lat="43.8422" lon="7.21488">
        <ele>490</ele>
        <time>2012-01-04T09:49:08Z</time>
      </trkpt>
      <trkpt lat="43.84225" lon="7.21488">
        <ele>489.6</ele>
        <time>2012-01-04T09:49:09Z</time>
      </trkpt>
      <trkpt lat="43.84229" lon="7.21487">
        <ele>489.4</ele>
        <time>2012-01-04T09:49:10Z</time>
      </trkpt>
      <trkpt lat="43.84234" lon="7.21486">
        <ele>489.1</ele>
        <time>2012-01-04T09:49:11Z</time>
      </trkpt>
      <trkpt lat="43.84239" lon="7.21485">
        <ele>489.3</ele>
        <time>2012-01-04T09:49:12Z</time>
      </trkpt>
      <trkpt lat="43.84244" lon="7.21484">
        <ele>489.5</ele>
        <time>2012-01-04T09:49:13Z</time>
      </trkpt>
      <trkpt lat="43.84249" lon="7.21484">
        <ele>489.7</ele>
        <time>2012-01-04T09:49:14Z</time>
      </trkpt>
      <trkpt lat="43.84254" lon="7.21485">
        <ele>489.8</ele>
        <time>2012-01-04T09:49:15Z</time>
      </trkpt>
      <trkpt lat="43.84259" lon="7.21486">
        <ele>489.9</ele>
        <time>2012-01-04T09:49:16Z</time>
      </trkpt>
      <trkpt lat="43.84264" lon="7.21488">
        <ele>489.8</ele>
        <time>2012-01-04T09:49:17Z</time>
      </trkpt>
      <trkpt lat="43.84269" lon="7.2149">
        <ele>489.7</ele>
        <time>2012-01-04T09:49:18Z</time>
      </trkpt>
      <trkpt lat="43.84274" lon="7.21492">
        <ele>489.5</ele>
        <time>2012-01-04T09:49:19Z</time>
      </trkpt>
      <trkpt lat="43.84279" lon="7.21494">
        <ele>489.4</ele>
        <time>2012-01-04T09:49:20Z</time>
      </trkpt>
      <trkpt lat="43.84284" lon="7.21495">
        <ele>489.5</ele>
        <time>2012-01-04T09:49:21Z</time>
      </trkpt>
      <trkpt lat="43.84289" lon="7.21496">
        <ele>489.6</ele>
        <time>2012-01-04T09:49:22Z</time>
      </trkpt>
      <trkpt lat="43.84293" lon="7.21496">
        <ele>489.7</ele>
        <time>2012-01-04T09:49:23Z</time>
      </trkpt>
      <trkpt lat="43.84298" lon="7.21497">
        <ele>489.5</ele>
        <time>2012-01-04T09:49:24Z</time>
      </trkpt>
      <trkpt lat="43.84303" lon="7.21497">
        <ele>489.3</ele>
        <time>2012-01-04T09:49:25Z</time>
      </trkpt>
      <trkpt lat="43.84308" lon="7.21498">
        <ele>489.2</ele>
        <time>2012-01-04T09:49:26Z</time>
      </trkpt>
      <trkpt lat="43.84316" lon="7.21499">
        <ele>489.1</ele>
        <time>2012-01-04T09:49:28Z</time>
      </trkpt>
      <trkpt lat="43.84325" lon="7.21499">
        <ele>488.5</ele>
        <time>2012-01-04T09:49:30Z</time>
      </trkpt>
      <trkpt lat="43.84334" lon="7.21502">
        <ele>489.5</ele>
        <time>2012-01-04T09:49:32Z</time>
      </trkpt>
      <trkpt lat="43.84342" lon="7.21504">
        <ele>489.9</ele>
        <time>2012-01-04T09:49:34Z</time>
      </trkpt>
      <trkpt lat="43.8435" lon="7.21508">
        <ele>489.8</ele>
        <time>2012-01-04T09:49:36Z</time>
      </trkpt>
      <trkpt lat="43.84359" lon="7.21512">
        <ele>489.6</ele>
        <time>2012-01-04T09:49:38Z</time>
      </trkpt>
      <trkpt lat="43.84367" lon="7.21516">
        <ele>489.6</ele>
        <time>2012-01-04T09:49:40Z</time>
      </trkpt>
      <trkpt lat="43.84375" lon="7.21521">
        <ele>488.9</ele>
        <time>2012-01-04T09:49:42Z</time>
      </trkpt>
      <trkpt lat="43.84382" lon="7.21525">
        <ele>488.8</ele>
        <time>2012-01-04T09:49:44Z</time>
      </trkpt>
      <trkpt lat="43.8439" lon="7.21529">
        <ele>489</ele>
        <time>2012-01-04T09:49:46Z</time>
      </trkpt>
      <trkpt lat="43.84398" lon="7.21534">
        <ele>489.3</ele>
        <time>2012-01-04T09:49:48Z</time>
      </trkpt>
      <trkpt lat="43.84406" lon="7.21538">
        <ele>489.4</ele>
        <time>2012-01-04T09:49:50Z</time>
      </trkpt>
      <trkpt lat="43.84413" lon="7.21544">
        <ele>489.8</ele>
        <time>2012-01-04T09:49:52Z</time>
      </trkpt>
      <trkpt lat="43.84419" lon="7.21553">
        <ele>490.2</ele>
        <time>2012-01-04T09:49:54Z</time>
      </trkpt>
      <trkpt lat="43.84424" lon="7.21563">
        <ele>489.8</ele>
        <time>2012-01-04T09:49:56Z</time>
      </trkpt>
      <trkpt lat="43.84428" lon="7.21574">
        <ele>489.6</ele>
        <time>2012-01-04T09:49:58Z</time>
      </trkpt>
      <trkpt lat="43.84431" lon="7.21585">
        <ele>490.3</ele>
        <time>2012-01-04T09:50:00Z</time>
      </trkpt>
      <trkpt lat="43.84433" lon="7.21596">
        <ele>490.7</ele>
        <time>2012-01-04T09:50:02Z</time>
      </trkpt>
      <trkpt lat="43.84435" lon="7.21607">
        <ele>490.2</ele>
        <time>2012-01-04T09:50:04Z</time>
      </trkpt>
      <trkpt lat="43.84436" lon="7.21612">
        <ele>489.7</ele>
        <time>2012-01-04T09:50:05Z</time>
      </trkpt>
      <trkpt lat="43.8444" lon="7.21627">
        <ele>490.6</ele>
        <time>2012-01-04T09:50:08Z</time>
      </trkpt>
      <trkpt lat="43.84444" lon="7.21637">
        <ele>490</ele>
        <time>2012-01-04T09:50:10Z</time>
      </trkpt>
      <trkpt lat="43.84448" lon="7.21647">
        <ele>489.7</ele>
        <time>2012-01-04T09:50:12Z</time>
      </trkpt>
      <trkpt lat="43.84452" lon="7.21657">
        <ele>489.8</ele>
        <time>2012-01-04T09:50:14Z</time>
      </trkpt>
      <trkpt lat="43.84456" lon="7.21667">
        <ele>489.9</ele>
        <time>2012-01-04T09:50:16Z</time>
      </trkpt>
      <trkpt lat="43.8446" lon="7.21676">
        <ele>490.1</ele>
        <time>2012-01-04T09:50:18Z</time>
      </trkpt>
      <trkpt lat="43.84464" lon="7.21685">
        <ele>490.3</ele>
        <time>2012-01-04T09:50:20Z</time>
      </trkpt>
      <trkpt lat="43.84467" lon="7.21694">
        <ele>490</ele>
        <time>2012-01-04T09:50:22Z</time>
      </trkpt>
      <trkpt lat="43.84472" lon="7.21703">
        <ele>490.1</ele>
        <time>2012-01-04T09:50:24Z</time>
      </trkpt>
      <trkpt lat="43.84476" lon="7.21712">
        <ele>490.6</ele>
        <time>2012-01-04T09:50:26Z</time>
      </trkpt>
      <trkpt lat="43.8448" lon="7.21721">
        <ele>490.6</ele>
        <time>2012-01-04T09:50:28Z</time>
      </trkpt>
      <trkpt lat="43.84485" lon="7.2173">
        <ele>490.9</ele>
        <time>2012-01-04T09:50:30Z</time>
      </trkpt>
      <trkpt lat="43.8449" lon="7.21738">
        <ele>491.4</ele>
        <time>2012-01-04T09:50:32Z</time>
      </trkpt>
      <trkpt lat="43.84496" lon="7.21747">
        <ele>491.7</ele>
        <time>2012-01-04T09:50:34Z</time>
      </trkpt>
      <trkpt lat="43.84503" lon="7.21755">
        <ele>492.3</ele>
        <time>2012-01-04T09:50:36Z</time>
      </trkpt>
      <trkpt lat="43.84509" lon="7.21763">
        <ele>492.3</ele>
        <time>2012-01-04T09:50:38Z</time>
      </trkpt>
      <trkpt lat="43.84515" lon="7.2177">
        <ele>491.9</ele>
        <time>2012-01-04T09:50:40Z</time>
      </trkpt>
      <trkpt lat="43.84521" lon="7.21778">
        <ele>491.8</ele>
        <time>2012-01-04T09:50:42Z</time>
      </trkpt>
      <trkpt lat="43.84527" lon="7.21785">
        <ele>491.9</ele>
        <time>2012-01-04T09:50:44Z</time>
      </trkpt>
      <trkpt lat="43.84533" lon="7.21792">
        <ele>491.8</ele>
        <time>2012-01-04T09:50:46Z</time>
      </trkpt>
      <trkpt lat="43.84539" lon="7.21799">
        <ele>492.5</ele>
        <time>2012-01-04T09:50:48Z</time>
      </trkpt>
      <trkpt lat="43.84545" lon="7.21807">
        <ele>492.6</ele>
        <time>2012-01-04T09:50:50Z</time>
      </trkpt>
      <trkpt lat="43.84549" lon="7.21815">
        <ele>493.2</ele>
        <time>2012-01-04T09:50:52Z</time>
      </trkpt>
      <trkpt lat="43.84553" lon="7.21824">
        <ele>494.1</ele>
        <time>2012-01-04T09:50:54Z</time>
      </trkpt>
      <trkpt lat="43.84556" lon="7.21833">
        <ele>494.3</ele>
        <time>2012-01-04T09:50:56Z</time>
      </trkpt>
      <trkpt lat="43.84559" lon="7.21842">
        <ele>494.1</ele>
        <time>2012-01-04T09:50:58Z</time>
      </trkpt>
      <trkpt lat="43.84561" lon="7.21852">
        <ele>494.7</ele>
        <time>2012-01-04T09:51:00Z</time>
      </trkpt>
      <trkpt lat="43.84562" lon="7.21862">
        <ele>495.1</ele>
        <time>2012-01-04T09:51:02Z</time>
      </trkpt>
      <trkpt lat="43.84563" lon="7.21871">
        <ele>495.6</ele>
        <time>2012-01-04T09:51:04Z</time>
      </trkpt>
      <trkpt lat="43.84564" lon="7.2188">
        <ele>496.3</ele>
        <time>2012-01-04T09:51:06Z</time>
      </trkpt>
      <trkpt lat="43.84565" lon="7.21889">
        <ele>496.8</ele>
        <time>2012-01-04T09:51:08Z</time>
      </trkpt>
      <trkpt lat="43.84565" lon="7.21894">
        <ele>496.9</ele>
        <time>2012-01-04T09:51:09Z</time>
      </trkpt>
      <trkpt lat="43.84568" lon="7.21908">
        <ele>497.1</ele>
        <time>2012-01-04T09:51:12Z</time>
      </trkpt>
      <trkpt lat="43.84571" lon="7.21916">
        <ele>497.8</ele>
        <time>2012-01-04T09:51:14Z</time>
      </trkpt>
      <trkpt lat="43.84574" lon="7.21924">
        <ele>497.7</ele>
        <time>2012-01-04T09:51:16Z</time>
      </trkpt>
      <trkpt lat="43.84578" lon="7.21931">
        <ele>497.8</ele>
        <time>2012-01-04T09:51:18Z</time>
      </trkpt>
      <trkpt lat="43.84582" lon="7.21937">
        <ele>497.8</ele>
        <time>2012-01-04T09:51:20Z</time>
      </trkpt>
      <trkpt lat="43.84587" lon="7.21943">
        <ele>497.8</ele>
        <time>2012-01-04T09:51:22Z</time>
      </trkpt>
      <trkpt lat="43.84592" lon="7.21948">
        <ele>497.7</ele>
        <time>2012-01-04T09:51:24Z</time>
      </trkpt>
      <trkpt lat="43.84597" lon="7.21952">
        <ele>498.9</ele>
        <time>2012-01-04T09:51:26Z</time>
      </trkpt>
      <trkpt lat="43.84603" lon="7.21956">
        <ele>499.2</ele>
        <time>2012-01-04T09:51:28Z</time>
      </trkpt>
      <trkpt lat="43.84609" lon="7.2196">
        <ele>499.5</ele>
        <time>2012-01-04T09:51:30Z</time>
      </trkpt>
      <trkpt lat="43.84614" lon="7.21963">
        <ele>499.8</ele>
        <time>2012-01-04T09:51:32Z</time>
      </trkpt>
      <trkpt lat="43.8462" lon="7.21966">
        <ele>499.9</ele>
        <time>2012-01-04T09:51:34Z</time>
      </trkpt>
      <trkpt lat="43.84626" lon="7.21969">
        <ele>499.8</ele>
        <time>2012-01-04T09:51:36Z</time>
      </trkpt>
      <trkpt lat="43.84632" lon="7.21972">
        <ele>500.3</ele>
        <time>2012-01-04T09:51:38Z</time>
      </trkpt>
      <trkpt lat="43.84638" lon="7.21975">
        <ele>501.1</ele>
        <time>2012-01-04T09:51:40Z</time>
      </trkpt>
      <trkpt lat="43.84644" lon="7.21978">
        <ele>501.8</ele>
        <time>2012-01-04T09:51:42Z</time>
      </trkpt>
      <trkpt lat="43.8465" lon="7.2198">
        <ele>501.9</ele>
        <time>2012-01-04T09:51:44Z</time>
      </trkpt>
      <trkpt lat="43.84657" lon="7.21982">
        <ele>501.8</ele>
        <time>2012-01-04T09:51:46Z</time>
      </trkpt>
      <trkpt lat="43.84663" lon="7.21984">
        <ele>502</ele>
        <time>2012-01-04T09:51:48Z</time>
      </trkpt>
      <trkpt lat="43.8467" lon="7.21985">
        <ele>502.7</ele>
        <time>2012-01-04T09:51:50Z</time>
      </trkpt>
      <trkpt lat="43.84676" lon="7.21986">
        <ele>502.9</ele>
        <time>2012-01-04T09:51:52Z</time>
      </trkpt>
      <trkpt lat="43.84685" lon="7.21989">
        <ele>503.5</ele>
        <time>2012-01-04T09:51:55Z</time>
      </trkpt>
      <trkpt lat="43.84691" lon="7.2199">
        <ele>503.4</ele>
        <time>2012-01-04T09:51:57Z</time>
      </trkpt>
      <trkpt lat="43.84699" lon="7.21991">
        <ele>504.4</ele>
        <time>2012-01-04T09:51:59Z</time>
      </trkpt>
      <trkpt lat="43.84706" lon="7.21992">
        <ele>503.6</ele>
        <time>2012-01-04T09:52:01Z</time>
      </trkpt>
      <trkpt lat="43.84713" lon="7.21992">
        <ele>503.6</ele>
        <time>2012-01-04T09:52:03Z</time>
      </trkpt>
      <trkpt lat="43.8472" lon="7.21992">
        <ele>503.5</ele>
        <time>2012-01-04T09:52:05Z</time>
      </trkpt>
      <trkpt lat="43.84727" lon="7.21991">
        <ele>503.1</ele>
        <time>2012-01-04T09:52:07Z</time>
      </trkpt>
      <trkpt lat="43.84734" lon="7.21989">
        <ele>503.2</ele>
        <time>2012-01-04T09:52:09Z</time>
      </trkpt>
      <trkpt lat="43.84741" lon="7.21988">
        <ele>504.1</ele>
        <time>2012-01-04T09:52:11Z</time>
      </trkpt>
      <trkpt lat="43.84745" lon="7.21989">
        <ele>504.4</ele>
        <time>2012-01-04T09:52:12Z</time>
      </trkpt>
      <trkpt lat="43.84753" lon="7.21999">
        <ele>504.6</ele>
        <time>2012-01-04T09:52:15Z</time>
      </trkpt>
      <trkpt lat="43.84756" lon="7.22009">
        <ele>504.6</ele>
        <time>2012-01-04T09:52:17Z</time>
      </trkpt>
      <trkpt lat="43.84758" lon="7.22019">
        <ele>505.2</ele>
        <time>2012-01-04T09:52:19Z</time>
      </trkpt>
      <trkpt lat="43.84761" lon="7.2203">
        <ele>506</ele>
        <time>2012-01-04T09:52:21Z</time>
      </trkpt>
      <trkpt lat="43.84762" lon="7.22041">
        <ele>506.1</ele>
        <time>2012-01-04T09:52:23Z</time>
      </trkpt>
      <trkpt lat="43.84764" lon="7.22052">
        <ele>506.8</ele>
        <time>2012-01-04T09:52:25Z</time>
      </trkpt>
      <trkpt lat="43.84768" lon="7.22062">
        <ele>507</ele>
        <time>2012-01-04T09:52:27Z</time>
      </trkpt>
      <trkpt lat="43.84772" lon="7.22071">
        <ele>507</ele>
        <time>2012-01-04T09:52:29Z</time>
      </trkpt>
      <trkpt lat="43.84778" lon="7.2208">
        <ele>506.6</ele>
        <time>2012-01-04T09:52:31Z</time>
      </trkpt>
      <trkpt lat="43.84783" lon="7.22088">
        <ele>506</ele>
        <time>2012-01-04T09:52:33Z</time>
      </trkpt>
      <trkpt lat="43.84788" lon="7.22097">
        <ele>506.7</ele>
        <time>2012-01-04T09:52:35Z</time>
      </trkpt>
      <trkpt lat="43.8479" lon="7.22103">
        <ele>506.7</ele>
        <time>2012-01-04T09:52:36Z</time>
      </trkpt>
      <trkpt lat="43.84792" lon="7.22109">
        <ele>506.7</ele>
        <time>2012-01-04T09:52:37Z</time>
      </trkpt>
      <trkpt lat="43.84794" lon="7.22115">
        <ele>506.4</ele>
        <time>2012-01-04T09:52:38Z</time>
      </trkpt>
      <trkpt lat="43.84796" lon="7.22121">
        <ele>506.2</ele>
        <time>2012-01-04T09:52:39Z</time>
      </trkpt>
      <trkpt lat="43.84799" lon="7.22128">
        <ele>506.1</ele>
        <time>2012-01-04T09:52:40Z</time>
      </trkpt>
      <trkpt lat="43.84801" lon="7.22135">
        <ele>506.1</ele>
        <time>2012-01-04T09:52:41Z</time>
      </trkpt>
      <trkpt lat="43.84803" lon="7.22143">
        <ele>506.2</ele>
        <time>2012-01-04T09:52:42Z</time>
      </trkpt>
      <trkpt lat="43.84805" lon="7.2215">
        <ele>506.2</ele>
        <time>2012-01-04T09:52:43Z</time>
      </trkpt>
      <trkpt lat="43.84807" lon="7.22157">
        <ele>506.3</ele>
        <time>2012-01-04T09:52:44Z</time>
      </trkpt>
      <trkpt lat="43.84809" lon="7.22165">
        <ele>506.3</ele>
        <time>2012-01-04T09:52:45Z</time>
      </trkpt>
      <trkpt lat="43.84812" lon="7.22172">
        <ele>506</ele>
        <time>2012-01-04T09:52:46Z</time>
      </trkpt>
      <trkpt lat="43.84814" lon="7.22179">
        <ele>505.8</ele>
        <time>2012-01-04T09:52:47Z</time>
      </trkpt>
      <trkpt lat="43.84817" lon="7.22187">
        <ele>505.3</ele>
        <time>2012-01-04T09:52:48Z</time>
      </trkpt>
      <trkpt lat="43.84819" lon="7.22195">
        <ele>504.9</ele>
        <time>2012-01-04T09:52:49Z</time>
      </trkpt>
      <trkpt lat="43.84821" lon="7.22203">
        <ele>504.4</ele>
        <time>2012-01-04T09:52:50Z</time>
      </trkpt>
      <trkpt lat="43.84824" lon="7.22211">
        <ele>504.1</ele>
        <time>2012-01-04T09:52:51Z</time>
      </trkpt>
      <trkpt lat="43.84827" lon="7.22219">
        <ele>503.8</ele>
        <time>2012-01-04T09:52:52Z</time>
      </trkpt>
      <trkpt lat="43.84831" lon="7.22227">
        <ele>503.4</ele>
        <time>2012-01-04T09:52:53Z</time>
      </trkpt>
      <trkpt lat="43.84835" lon="7.22235">
        <ele>503.1</ele>
        <time>2012-01-04T09:52:54Z</time>
      </trkpt>
      <trkpt lat="43.84839" lon="7.22242">
        <ele>502.5</ele>
        <time>2012-01-04T09:52:55Z</time>
      </trkpt>
      <trkpt lat="43.84844" lon="7.22248">
        <ele>502.1</ele>
        <time>2012-01-04T09:52:56Z</time>
      </trkpt>
      <trkpt lat="43.84849" lon="7.22254">
        <ele>501.7</ele>
        <time>2012-01-04T09:52:57Z</time>
      </trkpt>
      <trkpt lat="43.84855" lon="7.22259">
        <ele>501.4</ele>
        <time>2012-01-04T09:52:58Z</time>
      </trkpt>
      <trkpt lat="43.8486" lon="7.22265">
        <ele>501.2</ele>
        <time>2012-01-04T09:52:59Z</time>
      </trkpt>
      <trkpt lat="43.84865" lon="7.2227">
        <ele>501.2</ele>
        <time>2012-01-04T09:53:00Z</time>
      </trkpt>
      <trkpt lat="43.84871" lon="7.22275">
        <ele>501.1</ele>
        <time>2012-01-04T09:53:01Z</time>
      </trkpt>
      <trkpt lat="43.84877" lon="7.22279">
        <ele>501.2</ele>
        <time>2012-01-04T09:53:02Z</time>
      </trkpt>
      <trkpt lat="43.84883" lon="7.22284">
        <ele>501.2</ele>
        <time>2012-01-04T09:53:03Z</time>
      </trkpt>
      <trkpt lat="43.84888" lon="7.22288">
        <ele>500.8</ele>
        <time>2012-01-04T09:53:04Z</time>
      </trkpt>
      <trkpt lat="43.84894" lon="7.22293">
        <ele>500.5</ele>
        <time>2012-01-04T09:53:05Z</time>
      </trkpt>
      <trkpt lat="43.84899" lon="7.22297">
        <ele>500.3</ele>
        <time>2012-01-04T09:53:06Z</time>
      </trkpt>
      <trkpt lat="43.84905" lon="7.22301">
        <ele>499.7</ele>
        <time>2012-01-04T09:53:07Z</time>
      </trkpt>
      <trkpt lat="43.8491" lon="7.22306">
        <ele>499.2</ele>
        <time>2012-01-04T09:53:08Z</time>
      </trkpt>
      <trkpt lat="43.84915" lon="7.22311">
        <ele>499.4</ele>
        <time>2012-01-04T09:53:09Z</time>
      </trkpt>
      <trkpt lat="43.84919" lon="7.22315">
        <ele>499.6</ele>
        <time>2012-01-04T09:53:10Z</time>
      </trkpt>
      <trkpt lat="43.84923" lon="7.2232">
        <ele>499.7</ele>
        <time>2012-01-04T09:53:11Z</time>
      </trkpt>
      <trkpt lat="43.84927" lon="7.22325">
        <ele>499.3</ele>
        <time>2012-01-04T09:53:12Z</time>
      </trkpt>
      <trkpt lat="43.84931" lon="7.2233">
        <ele>499</ele>
        <time>2012-01-04T09:53:13Z</time>
      </trkpt>
      <trkpt lat="43.84935" lon="7.22336">
        <ele>499.1</ele>
        <time>2012-01-04T09:53:14Z</time>
      </trkpt>
      <trkpt lat="43.8494" lon="7.22341">
        <ele>499.2</ele>
        <time>2012-01-04T09:53:15Z</time>
      </trkpt>
      <trkpt lat="43.84944" lon="7.22346">
        <ele>499.2</ele>
        <time>2012-01-04T09:53:16Z</time>
      </trkpt>
      <trkpt lat="43.84949" lon="7.22351">
        <ele>499.3</ele>
        <time>2012-01-04T09:53:17Z</time>
      </trkpt>
      <trkpt lat="43.84953" lon="7.22356">
        <ele>499.3</ele>
        <time>2012-01-04T09:53:18Z</time>
      </trkpt>
      <trkpt lat="43.84958" lon="7.2236">
        <ele>499.6</ele>
        <time>2012-01-04T09:53:19Z</time>
      </trkpt>
      <trkpt lat="43.84963" lon="7.22364">
        <ele>499.9</ele>
        <time>2012-01-04T09:53:20Z</time>
      </trkpt>
      <trkpt lat="43.84968" lon="7.22368">
        <ele>499.7</ele>
        <time>2012-01-04T09:53:21Z</time>
      </trkpt>
      <trkpt lat="43.84973" lon="7.22371">
        <ele>499.6</ele>
        <time>2012-01-04T09:53:22Z</time>
      </trkpt>
      <trkpt lat="43.84978" lon="7.22374">
        <ele>499.5</ele>
        <time>2012-01-04T09:53:23Z</time>
      </trkpt>
      <trkpt lat="43.84983" lon="7.22377">
        <ele>499.4</ele>
        <time>2012-01-04T09:53:24Z</time>
      </trkpt>
      <trkpt lat="43.84988" lon="7.2238">
        <ele>499.4</ele>
        <time>2012-01-04T09:53:25Z</time>
      </trkpt>
      <trkpt lat="43.84993" lon="7.22382">
        <ele>499.1</ele>
        <time>2012-01-04T09:53:26Z</time>
      </trkpt>
      <trkpt lat="43.84998" lon="7.22383">
        <ele>498.8</ele>
        <time>2012-01-04T09:53:27Z</time>
      </trkpt>
      <trkpt lat="43.85003" lon="7.22385">
        <ele>499.1</ele>
        <time>2012-01-04T09:53:28Z</time>
      </trkpt>
      <trkpt lat="43.85008" lon="7.22385">
        <ele>499.2</ele>
        <time>2012-01-04T09:53:29Z</time>
      </trkpt>
      <trkpt lat="43.85013" lon="7.22385">
        <ele>499.4</ele>
        <time>2012-01-04T09:53:30Z</time>
      </trkpt>
      <trkpt lat="43.85019" lon="7.22386">
        <ele>499.7</ele>
        <time>2012-01-04T09:53:31Z</time>
      </trkpt>
      <trkpt lat="43.85024" lon="7.22386">
        <ele>500</ele>
        <time>2012-01-04T09:53:32Z</time>
      </trkpt>
      <trkpt lat="43.85028" lon="7.22386">
        <ele>500</ele>
        <time>2012-01-04T09:53:33Z</time>
      </trkpt>
      <trkpt lat="43.85033" lon="7.22386">
        <ele>500</ele>
        <time>2012-01-04T09:53:34Z</time>
      </trkpt>
      <trkpt lat="43.85038" lon="7.22387">
        <ele>499.7</ele>
        <time>2012-01-04T09:53:35Z</time>
      </trkpt>
      <trkpt lat="43.85043" lon="7.22388">
        <ele>499.4</ele>
        <time>2012-01-04T09:53:36Z</time>
      </trkpt>
      <trkpt lat="43.85049" lon="7.22396">
        <ele>499.6</ele>
        <time>2012-01-04T09:53:38Z</time>
      </trkpt>
      <trkpt lat="43.85052" lon="7.22408">
        <ele>500.2</ele>
        <time>2012-01-04T09:53:40Z</time>
      </trkpt>
      <trkpt lat="43.85054" lon="7.22419">
        <ele>500.9</ele>
        <time>2012-01-04T09:53:42Z</time>
      </trkpt>
      <trkpt lat="43.85055" lon="7.2243">
        <ele>501.6</ele>
        <time>2012-01-04T09:53:44Z</time>
      </trkpt>
      <trkpt lat="43.85057" lon="7.2244">
        <ele>501.6</ele>
        <time>2012-01-04T09:53:46Z</time>
      </trkpt>
      <trkpt lat="43.8506" lon="7.22451">
        <ele>502.1</ele>
        <time>2012-01-04T09:53:48Z</time>
      </trkpt>
      <trkpt lat="43.85063" lon="7.2246">
        <ele>502</ele>
        <time>2012-01-04T09:53:50Z</time>
      </trkpt>
      <trkpt lat="43.85067" lon="7.2247">
        <ele>501.9</ele>
        <time>2012-01-04T09:53:52Z</time>
      </trkpt>
      <trkpt lat="43.85071" lon="7.22479">
        <ele>502.3</ele>
        <time>2012-01-04T09:53:54Z</time>
      </trkpt>
      <trkpt lat="43.85076" lon="7.22487">
        <ele>502.7</ele>
        <time>2012-01-04T09:53:56Z</time>
      </trkpt>
      <trkpt lat="43.8508" lon="7.22496">
        <ele>502.8</ele>
        <time>2012-01-04T09:53:58Z</time>
      </trkpt>
      <trkpt lat="43.85084" lon="7.22505">
        <ele>503.1</ele>
        <time>2012-01-04T09:54:00Z</time>
      </trkpt>
      <trkpt lat="43.85089" lon="7.22514">
        <ele>503.2</ele>
        <time>2012-01-04T09:54:02Z</time>
      </trkpt>
      <trkpt lat="43.85093" lon="7.22523">
        <ele>503.4</ele>
        <time>2012-01-04T09:54:04Z</time>
      </trkpt>
      <trkpt lat="43.85098" lon="7.22532">
        <ele>503.6</ele>
        <time>2012-01-04T09:54:06Z</time>
      </trkpt>
      <trkpt lat="43.85102" lon="7.22541">
        <ele>503.8</ele>
        <time>2012-01-04T09:54:08Z</time>
      </trkpt>
      <trkpt lat="43.85107" lon="7.2255">
        <ele>504.3</ele>
        <time>2012-01-04T09:54:10Z</time>
      </trkpt>
      <trkpt lat="43.85111" lon="7.22559">
        <ele>505</ele>
        <time>2012-01-04T09:54:12Z</time>
      </trkpt>
      <trkpt lat="43.85115" lon="7.22567">
        <ele>505.4</ele>
        <time>2012-01-04T09:54:14Z</time>
      </trkpt>
      <trkpt lat="43.85119" lon="7.22576">
        <ele>505.5</ele>
        <time>2012-01-04T09:54:16Z</time>
      </trkpt>
      <trkpt lat="43.85123" lon="7.22584">
        <ele>505.7</ele>
        <time>2012-01-04T09:54:18Z</time>
      </trkpt>
      <trkpt lat="43.85125" lon="7.22588">
        <ele>505.8</ele>
        <time>2012-01-04T09:54:19Z</time>
      </trkpt>
      <trkpt lat="43.85131" lon="7.22601">
        <ele>506.7</ele>
        <time>2012-01-04T09:54:22Z</time>
      </trkpt>
      <trkpt lat="43.85136" lon="7.22609">
        <ele>506.5</ele>
        <time>2012-01-04T09:54:24Z</time>
      </trkpt>
      <trkpt lat="43.8514" lon="7.22617">
        <ele>507.2</ele>
        <time>2012-01-04T09:54:26Z</time>
      </trkpt>
      <trkpt lat="43.85145" lon="7.22625">
        <ele>507.3</ele>
        <time>2012-01-04T09:54:28Z</time>
      </trkpt>
      <trkpt lat="43.85149" lon="7.22632">
        <ele>507.2</ele>
        <time>2012-01-04T09:54:30Z</time>
      </trkpt>
      <trkpt lat="43.85155" lon="7.22639">
        <ele>507.4</ele>
        <time>2012-01-04T09:54:32Z</time>
      </trkpt>
      <trkpt lat="43.8516" lon="7.22646">
        <ele>507.7</ele>
        <time>2012-01-04T09:54:34Z</time>
      </trkpt>
      <trkpt lat="43.85165" lon="7.22653">
        <ele>507.5</ele>
        <time>2012-01-04T09:54:36Z</time>
      </trkpt>
      <trkpt lat="43.85172" lon="7.2266">
        <ele>508.1</ele>
        <time>2012-01-04T09:54:38Z</time>
      </trkpt>
      <trkpt lat="43.85178" lon="7.22666">
        <ele>509</ele>
        <time>2012-01-04T09:54:40Z</time>
      </trkpt>
      <trkpt lat="43.85184" lon="7.22673">
        <ele>509.2</ele>
        <time>2012-01-04T09:54:42Z</time>
      </trkpt>
      <trkpt lat="43.85191" lon="7.22679">
        <ele>509.3</ele>
        <time>2012-01-04T09:54:44Z</time>
      </trkpt>
      <trkpt lat="43.85197" lon="7.22684">
        <ele>509.5</ele>
        <time>2012-01-04T09:54:46Z</time>
      </trkpt>
      <trkpt lat="43.85204" lon="7.22689">
        <ele>509.4</ele>
        <time>2012-01-04T09:54:48Z</time>
      </trkpt>
      <trkpt lat="43.85211" lon="7.22691">
        <ele>509.4</ele>
        <time>2012-01-04T09:54:50Z</time>
      </trkpt>
      <trkpt lat="43.85218" lon="7.22695">
        <ele>510.2</ele>
        <time>2012-01-04T09:54:52Z</time>
      </trkpt>
      <trkpt lat="43.85224" lon="7.22699">
        <ele>510.9</ele>
        <time>2012-01-04T09:54:54Z</time>
      </trkpt>
      <trkpt lat="43.8523" lon="7.22704">
        <ele>511</ele>
        <time>2012-01-04T09:54:56Z</time>
      </trkpt>
      <trkpt lat="43.85235" lon="7.2271">
        <ele>511.2</ele>
        <time>2012-01-04T09:54:58Z</time>
      </trkpt>
      <trkpt lat="43.8524" lon="7.22718">
        <ele>511.6</ele>
        <time>2012-01-04T09:55:00Z</time>
      </trkpt>
      <trkpt lat="43.85245" lon="7.22726">
        <ele>512</ele>
        <time>2012-01-04T09:55:02Z</time>
      </trkpt>
      <trkpt lat="43.85251" lon="7.22733">
        <ele>512.2</ele>
        <time>2012-01-04T09:55:04Z</time>
      </trkpt>
      <trkpt lat="43.85257" lon="7.2274">
        <ele>512.7</ele>
        <time>2012-01-04T09:55:06Z</time>
      </trkpt>
      <trkpt lat="43.85264" lon="7.22746">
        <ele>513.2</ele>
        <time>2012-01-04T09:55:08Z</time>
      </trkpt>
      <trkpt lat="43.85271" lon="7.22753">
        <ele>513.1</ele>
        <time>2012-01-04T09:55:10Z</time>
      </trkpt>
      <trkpt lat="43.85278" lon="7.22759">
        <ele>512.6</ele>
        <time>2012-01-04T09:55:12Z</time>
      </trkpt>
      <trkpt lat="43.85284" lon="7.22765">
        <ele>512.9</ele>
        <time>2012-01-04T09:55:14Z</time>
      </trkpt>
      <trkpt lat="43.85291" lon="7.22771">
        <ele>513</ele>
        <time>2012-01-04T09:55:16Z</time>
      </trkpt>
      <trkpt lat="43.85298" lon="7.22778">
        <ele>513.3</ele>
        <time>2012-01-04T09:55:18Z</time>
      </trkpt>
      <trkpt lat="43.85305" lon="7.22784">
        <ele>513.4</ele>
        <time>2012-01-04T09:55:20Z</time>
      </trkpt>
      <trkpt lat="43.85312" lon="7.22791">
        <ele>513.4</ele>
        <time>2012-01-04T09:55:22Z</time>
      </trkpt>
      <trkpt lat="43.85316" lon="7.22795">
        <ele>513.5</ele>
        <time>2012-01-04T09:55:23Z</time>
      </trkpt>
      <trkpt lat="43.85325" lon="7.22807">
        <ele>513.9</ele>
        <time>2012-01-04T09:55:26Z</time>
      </trkpt>
      <trkpt lat="43.85331" lon="7.22817">
        <ele>513.6</ele>
        <time>2012-01-04T09:55:28Z</time>
      </trkpt>
      <trkpt lat="43.85336" lon="7.22826">
        <ele>513.2</ele>
        <time>2012-01-04T09:55:30Z</time>
      </trkpt>
      <trkpt lat="43.85342" lon="7.22836">
        <ele>513.7</ele>
        <time>2012-01-04T09:55:32Z</time>
      </trkpt>
      <trkpt lat="43.85348" lon="7.22844">
        <ele>513.5</ele>
        <time>2012-01-04T09:55:34Z</time>
      </trkpt>
      <trkpt lat="43.85355" lon="7.22851">
        <ele>513.5</ele>
        <time>2012-01-04T09:55:36Z</time>
      </trkpt>
      <trkpt lat="43.85362" lon="7.22855">
        <ele>514.1</ele>
        <time>2012-01-04T09:55:38Z</time>
      </trkpt>
      <trkpt lat="43.85369" lon="7.22857">
        <ele>514.7</ele>
        <time>2012-01-04T09:55:40Z</time>
      </trkpt>
      <trkpt lat="43.85377" lon="7.22862">
        <ele>514.6</ele>
        <time>2012-01-04T09:55:42Z</time>
      </trkpt>
      <trkpt lat="43.85381" lon="7.22866">
        <ele>514.5</ele>
        <time>2012-01-04T09:55:43Z</time>
      </trkpt>
      <trkpt lat="43.85385" lon="7.22869">
        <ele>514.4</ele>
        <time>2012-01-04T09:55:44Z</time>
      </trkpt>
      <trkpt lat="43.85389" lon="7.22872">
        <ele>514.3</ele>
        <time>2012-01-04T09:55:45Z</time>
      </trkpt>
      <trkpt lat="43.85394" lon="7.22876">
        <ele>514</ele>
        <time>2012-01-04T09:55:46Z</time>
      </trkpt>
      <trkpt lat="43.85398" lon="7.22879">
        <ele>513.8</ele>
        <time>2012-01-04T09:55:47Z</time>
      </trkpt>
      <trkpt lat="43.85403" lon="7.22884">
        <ele>513.6</ele>
        <time>2012-01-04T09:55:48Z</time>
      </trkpt>
      <trkpt lat="43.85408" lon="7.22888">
        <ele>513.6</ele>
        <time>2012-01-04T09:55:49Z</time>
      </trkpt>
      <trkpt lat="43.85413" lon="7.22895">
        <ele>513.5</ele>
        <time>2012-01-04T09:55:50Z</time>
      </trkpt>
      <trkpt lat="43.85417" lon="7.22902">
        <ele>513.1</ele>
        <time>2012-01-04T09:55:51Z</time>
      </trkpt>
      <trkpt lat="43.8542" lon="7.2291">
        <ele>512.8</ele>
        <time>2012-01-04T09:55:52Z</time>
      </trkpt>
      <trkpt lat="43.85424" lon="7.22918">
        <ele>511.9</ele>
        <time>2012-01-04T09:55:53Z</time>
      </trkpt>
      <trkpt lat="43.85427" lon="7.22926">
        <ele>511.2</ele>
        <time>2012-01-04T09:55:54Z</time>
      </trkpt>
      <trkpt lat="43.85431" lon="7.22933">
        <ele>511.1</ele>
        <time>2012-01-04T09:55:55Z</time>
      </trkpt>
      <trkpt lat="43.85434" lon="7.2294">
        <ele>511.1</ele>
        <time>2012-01-04T09:55:56Z</time>
      </trkpt>
      <trkpt lat="43.85437" lon="7.22947">
        <ele>511.1</ele>
        <time>2012-01-04T09:55:57Z</time>
      </trkpt>
      <trkpt lat="43.8544" lon="7.22954">
        <ele>510.8</ele>
        <time>2012-01-04T09:55:58Z</time>
      </trkpt>
      <trkpt lat="43.85443" lon="7.2296">
        <ele>510.5</ele>
        <time>2012-01-04T09:55:59Z</time>
      </trkpt>
      <trkpt lat="43.85448" lon="7.2297">
        <ele>510.9</ele>
        <time>2012-01-04T09:56:01Z</time>
      </trkpt>
      <trkpt lat="43.85452" lon="7.22979">
        <ele>511.6</ele>
        <time>2012-01-04T09:56:03Z</time>
      </trkpt>
      <trkpt lat="43.8546" lon="7.22983">
        <ele>511.4</ele>
        <time>2012-01-04T09:56:06Z</time>
      </trkpt>
      <trkpt lat="43.85467" lon="7.22975">
        <ele>512.4</ele>
        <time>2012-01-04T09:56:09Z</time>
      </trkpt>
      <trkpt lat="43.85472" lon="7.22966">
        <ele>512.9</ele>
        <time>2012-01-04T09:56:12Z</time>
      </trkpt>
      <trkpt lat="43.85476" lon="7.22959">
        <ele>513.1</ele>
        <time>2012-01-04T09:56:14Z</time>
      </trkpt>
      <trkpt lat="43.85483" lon="7.22955">
        <ele>513.3</ele>
        <time>2012-01-04T09:56:16Z</time>
      </trkpt>
      <trkpt lat="43.85489" lon="7.22952">
        <ele>513.5</ele>
        <time>2012-01-04T09:56:18Z</time>
      </trkpt>
      <trkpt lat="43.85495" lon="7.22945">
        <ele>512.8</ele>
        <time>2012-01-04T09:56:20Z</time>
      </trkpt>
      <trkpt lat="43.855" lon="7.22935">
        <ele>512.4</ele>
        <time>2012-01-04T09:56:22Z</time>
      </trkpt>
      <trkpt lat="43.85502" lon="7.22929">
        <ele>512.3</ele>
        <time>2012-01-04T09:56:23Z</time>
      </trkpt>
      <trkpt lat="43.85504" lon="7.22923">
        <ele>512</ele>
        <time>2012-01-04T09:56:24Z</time>
      </trkpt>
      <trkpt lat="43.85506" lon="7.22916">
        <ele>511.7</ele>
        <time>2012-01-04T09:56:25Z</time>
      </trkpt>
      <trkpt lat="43.85508" lon="7.22908">
        <ele>511.3</ele>
        <time>2012-01-04T09:56:26Z</time>
      </trkpt>
      <trkpt lat="43.8551" lon="7.22901">
        <ele>511</ele>
        <time>2012-01-04T09:56:27Z</time>
      </trkpt>
      <trkpt lat="43.85513" lon="7.22894">
        <ele>510.8</ele>
        <time>2012-01-04T09:56:28Z</time>
      </trkpt>
      <trkpt lat="43.85515" lon="7.22886">
        <ele>510.2</ele>
        <time>2012-01-04T09:56:29Z</time>
      </trkpt>
      <trkpt lat="43.85517" lon="7.22878">
        <ele>509.8</ele>
        <time>2012-01-04T09:56:30Z</time>
      </trkpt>
      <trkpt lat="43.8552" lon="7.2287">
        <ele>509.6</ele>
        <time>2012-01-04T09:56:31Z</time>
      </trkpt>
      <trkpt lat="43.85522" lon="7.22862">
        <ele>509.5</ele>
        <time>2012-01-04T09:56:32Z</time>
      </trkpt>
      <trkpt lat="43.85524" lon="7.22854">
        <ele>508.9</ele>
        <time>2012-01-04T09:56:33Z</time>
      </trkpt>
      <trkpt lat="43.85526" lon="7.22845">
        <ele>508.5</ele>
        <time>2012-01-04T09:56:34Z</time>
      </trkpt>
      <trkpt lat="43.85529" lon="7.22837">
        <ele>508.2</ele>
        <time>2012-01-04T09:56:35Z</time>
      </trkpt>
      <trkpt lat="43.85531" lon="7.22829">
        <ele>508.1</ele>
        <time>2012-01-04T09:56:36Z</time>
      </trkpt>
      <trkpt lat="43.85533" lon="7.2282">
        <ele>507.9</ele>
        <time>2012-01-04T09:56:37Z</time>
      </trkpt>
      <trkpt lat="43.85535" lon="7.22812">
        <ele>507.9</ele>
        <time>2012-01-04T09:56:38Z</time>
      </trkpt>
      <trkpt lat="43.85537" lon="7.22804">
        <ele>507.8</ele>
        <time>2012-01-04T09:56:39Z</time>
      </trkpt>
      <trkpt lat="43.85539" lon="7.22796">
        <ele>508</ele>
        <time>2012-01-04T09:56:40Z</time>
      </trkpt>
      <trkpt lat="43.85542" lon="7.22788">
        <ele>508.1</ele>
        <time>2012-01-04T09:56:41Z</time>
      </trkpt>
      <trkpt lat="43.85543" lon="7.2278">
        <ele>508.2</ele>
        <time>2012-01-04T09:56:42Z</time>
      </trkpt>
      <trkpt lat="43.85546" lon="7.22773">
        <ele>508</ele>
        <time>2012-01-04T09:56:43Z</time>
      </trkpt>
      <trkpt lat="43.85548" lon="7.22766">
        <ele>507.8</ele>
        <time>2012-01-04T09:56:44Z</time>
      </trkpt>
      <trkpt lat="43.85551" lon="7.2276">
        <ele>507.7</ele>
        <time>2012-01-04T09:56:45Z</time>
      </trkpt>
      <trkpt lat="43.85555" lon="7.22754">
        <ele>507.7</ele>
        <time>2012-01-04T09:56:46Z</time>
      </trkpt>
      <trkpt lat="43.85559" lon="7.22749">
        <ele>507.7</ele>
        <time>2012-01-04T09:56:47Z</time>
      </trkpt>
      <trkpt lat="43.85563" lon="7.22745">
        <ele>508</ele>
        <time>2012-01-04T09:56:48Z</time>
      </trkpt>
      <trkpt lat="43.85567" lon="7.22742">
        <ele>508.3</ele>
        <time>2012-01-04T09:56:49Z</time>
      </trkpt>
      <trkpt lat="43.85572" lon="7.22739">
        <ele>508.1</ele>
        <time>2012-01-04T09:56:50Z</time>
      </trkpt>
      <trkpt lat="43.85579" lon="7.22732">
        <ele>507.9</ele>
        <time>2012-01-04T09:56:52Z</time>
      </trkpt>
      <trkpt lat="43.85585" lon="7.22726">
        <ele>507.8</ele>
        <time>2012-01-04T09:56:54Z</time>
      </trkpt>
      <trkpt lat="43.8559" lon="7.22721">
        <ele>508.8</ele>
        <time>2012-01-04T09:56:56Z</time>
      </trkpt>
      <trkpt lat="43.85595" lon="7.22714">
        <ele>508.2</ele>
        <time>2012-01-04T09:56:58Z</time>
      </trkpt>
      <trkpt lat="43.85597" lon="7.22706">
        <ele>508.1</ele>
        <time>2012-01-04T09:57:00Z</time>
      </trkpt>
      <trkpt lat="43.856" lon="7.22696">
        <ele>508.6</ele>
        <time>2012-01-04T09:57:04Z</time>
      </trkpt>
      <trkpt lat="43.85603" lon="7.22706">
        <ele>509.1</ele>
        <time>2012-01-04T09:57:18Z</time>
      </trkpt>
      <trkpt lat="43.85604" lon="7.22717">
        <ele>509.2</ele>
        <time>2012-01-04T09:57:23Z</time>
      </trkpt>
      <trkpt lat="43.8561" lon="7.22724">
        <ele>510.3</ele>
        <time>2012-01-04T09:57:29Z</time>
      </trkpt>
      <trkpt lat="43.85611" lon="7.22725">
        <ele>510.7</ele>
        <time>2012-01-04T09:57:30Z</time>
      </trkpt>
      <trkpt lat="43.85623" lon="7.22722">
        <ele>514.7</ele>
        <time>2012-01-04T09:57:50Z</time>
      </trkpt>
      <trkpt lat="43.85623" lon="7.2271">
        <ele>515.3</ele>
        <time>2012-01-04T09:57:58Z</time>
      </trkpt>
      <trkpt lat="43.8563" lon="7.22715">
        <ele>517.6</ele>
        <time>2012-01-04T09:58:07Z</time>
      </trkpt>
      <trkpt lat="43.85634" lon="7.22725">
        <ele>518.4</ele>
        <time>2012-01-04T09:58:13Z</time>
      </trkpt>
      <trkpt lat="43.85638" lon="7.22714">
        <ele>520.7</ele>
        <time>2012-01-04T09:58:29Z</time>
      </trkpt>
      <trkpt lat="43.85645" lon="7.22719">
        <ele>521.8</ele>
        <time>2012-01-04T09:58:40Z</time>
      </trkpt>
      <trkpt lat="43.85646" lon="7.2272">
        <ele>522</ele>
        <time>2012-01-04T09:58:41Z</time>
      </trkpt>
      <trkpt lat="43.85652" lon="7.22716">
        <ele>524</ele>
        <time>2012-01-04T09:58:55Z</time>
      </trkpt>
      <trkpt lat="43.85661" lon="7.22715">
        <ele>526.4</ele>
        <time>2012-01-04T09:59:09Z</time>
      </trkpt>
      <trkpt lat="43.85665" lon="7.22705">
        <ele>529.5</ele>
        <time>2012-01-04T09:59:25Z</time>
      </trkpt>
      <trkpt lat="43.85667" lon="7.22693">
        <ele>531.4</ele>
        <time>2012-01-04T09:59:33Z</time>
      </trkpt>
      <trkpt lat="43.85672" lon="7.22684">
        <ele>533.1</ele>
        <time>2012-01-04T09:59:41Z</time>
      </trkpt>
      <trkpt lat="43.85673" lon="7.22683">
        <ele>533.5</ele>
        <time>2012-01-04T09:59:42Z</time>
      </trkpt>
      <trkpt lat="43.85685" lon="7.22682">
        <ele>538.3</ele>
        <time>2012-01-04T10:00:04Z</time>
      </trkpt>
      <trkpt lat="43.85688" lon="7.22694">
        <ele>538.7</ele>
        <time>2012-01-04T10:00:12Z</time>
      </trkpt>
      <trkpt lat="43.85695" lon="7.22686">
        <ele>540.9</ele>
        <time>2012-01-04T10:00:26Z</time>
      </trkpt>
      <trkpt lat="43.85698" lon="7.22676">
        <ele>543.5</ele>
        <time>2012-01-04T10:00:34Z</time>
      </trkpt>
      <trkpt lat="43.85704" lon="7.22685">
        <ele>545</ele>
        <time>2012-01-04T10:00:47Z</time>
      </trkpt>
      <trkpt lat="43.85704" lon="7.22687">
        <ele>545.3</ele>
        <time>2012-01-04T10:00:48Z</time>
      </trkpt>
      <trkpt lat="43.85706" lon="7.22697">
        <ele>546.9</ele>
        <time>2012-01-04T10:01:52Z</time>
      </trkpt>
      <trkpt lat="43.85717" lon="7.22683">
        <ele>549.2</ele>
        <time>2012-01-04T10:02:55Z</time>
      </trkpt>
      <trkpt lat="43.85717" lon="7.22681">
        <ele>549.3</ele>
        <time>2012-01-04T10:02:56Z</time>
      </trkpt>
      <trkpt lat="43.85721" lon="7.22659">
        <ele>552.3</ele>
        <time>2012-01-04T10:03:10Z</time>
      </trkpt>
      <trkpt lat="43.85726" lon="7.2265">
        <ele>554.3</ele>
        <time>2012-01-04T10:03:18Z</time>
      </trkpt>
      <trkpt lat="43.85732" lon="7.22641">
        <ele>556.3</ele>
        <time>2012-01-04T10:03:26Z</time>
      </trkpt>
      <trkpt lat="43.85736" lon="7.2263">
        <ele>559.2</ele>
        <time>2012-01-04T10:03:36Z</time>
      </trkpt>
      <trkpt lat="43.85736" lon="7.22642">
        <ele>560.1</ele>
        <time>2012-01-04T10:03:49Z</time>
      </trkpt>
      <trkpt lat="43.85743" lon="7.22649">
        <ele>561.2</ele>
        <time>2012-01-04T10:03:57Z</time>
      </trkpt>
      <trkpt lat="43.85745" lon="7.22649">
        <ele>561.4</ele>
        <time>2012-01-04T10:03:58Z</time>
      </trkpt>
      <trkpt lat="43.85758" lon="7.22659">
        <ele>561.9</ele>
        <time>2012-01-04T10:04:08Z</time>
      </trkpt>
      <trkpt lat="43.85765" lon="7.22665">
        <ele>562.8</ele>
        <time>2012-01-04T10:04:12Z</time>
      </trkpt>
      <trkpt lat="43.85772" lon="7.22671">
        <ele>563.1</ele>
        <time>2012-01-04T10:04:16Z</time>
      </trkpt>
      <trkpt lat="43.8578" lon="7.22677">
        <ele>564</ele>
        <time>2012-01-04T10:04:20Z</time>
      </trkpt>
      <trkpt lat="43.85788" lon="7.2268">
        <ele>564.2</ele>
        <time>2012-01-04T10:04:24Z</time>
      </trkpt>
      <trkpt lat="43.85797" lon="7.22679">
        <ele>565.4</ele>
        <time>2012-01-04T10:04:28Z</time>
      </trkpt>
      <trkpt lat="43.85805" lon="7.22676">
        <ele>565.8</ele>
        <time>2012-01-04T10:04:32Z</time>
      </trkpt>
      <trkpt lat="43.85812" lon="7.22671">
        <ele>565.8</ele>
        <time>2012-01-04T10:04:36Z</time>
      </trkpt>
      <trkpt lat="43.8582" lon="7.22666">
        <ele>566.6</ele>
        <time>2012-01-04T10:04:40Z</time>
      </trkpt>
      <trkpt lat="43.85828" lon="7.22661">
        <ele>567.9</ele>
        <time>2012-01-04T10:04:44Z</time>
      </trkpt>
      <trkpt lat="43.85836" lon="7.22656">
        <ele>568.9</ele>
        <time>2012-01-04T10:04:48Z</time>
      </trkpt>
      <trkpt lat="43.85844" lon="7.22653">
        <ele>569.4</ele>
        <time>2012-01-04T10:04:52Z</time>
      </trkpt>
      <trkpt lat="43.85851" lon="7.22648">
        <ele>569.9</ele>
        <time>2012-01-04T10:04:56Z</time>
      </trkpt>
      <trkpt lat="43.85857" lon="7.22641">
        <ele>570.8</ele>
        <time>2012-01-04T10:05:00Z</time>
      </trkpt>
      <trkpt lat="43.85859" lon="7.2264">
        <ele>571</ele>
        <time>2012-01-04T10:05:01Z</time>
      </trkpt>
      <trkpt lat="43.85871" lon="7.22627">
        <ele>572.1</ele>
        <time>2012-01-04T10:05:11Z</time>
      </trkpt>
      <trkpt lat="43.85869" lon="7.22639">
        <ele>574.6</ele>
        <time>2012-01-04T10:13:45Z</time>
      </trkpt>
      <trkpt lat="43.85869" lon="7.22639">
        <ele>574.6</ele>
        <time>2012-01-04T10:13:46Z</time>
      </trkpt>
      <trkpt lat="43.85873" lon="7.22628">
        <ele>574.5</ele>
        <time>2012-01-04T10:16:55Z</time>
      </trkpt>
      <trkpt lat="43.85882" lon="7.22623">
        <ele>573.5</ele>
        <time>2012-01-04T10:18:58Z</time>
      </trkpt>
      <trkpt lat="43.85893" lon="7.22633">
        <ele>573.7</ele>
        <time>2012-01-04T10:19:03Z</time>
      </trkpt>
      <trkpt lat="43.859" lon="7.22637">
        <ele>573.6</ele>
        <time>2012-01-04T10:19:06Z</time>
      </trkpt>
      <trkpt lat="43.85908" lon="7.22642">
        <ele>574.3</ele>
        <time>2012-01-04T10:19:16Z</time>
      </trkpt>
      <trkpt lat="43.85917" lon="7.22639">
        <ele>573.5</ele>
        <time>2012-01-04T10:21:45Z</time>
      </trkpt>
      <trkpt lat="43.85917" lon="7.22639">
        <ele>573.8</ele>
        <time>2012-01-04T10:21:46Z</time>
      </trkpt>
      <trkpt lat="43.85915" lon="7.22651">
        <ele>574.4</ele>
        <time>2012-01-04T10:23:29Z</time>
      </trkpt>
      <trkpt lat="43.85908" lon="7.22641">
        <ele>574.6</ele>
        <time>2012-01-04T10:25:55Z</time>
      </trkpt>
      <trkpt lat="43.859" lon="7.22629">
        <ele>573.2</ele>
        <time>2012-01-04T10:26:00Z</time>
      </trkpt>
      <trkpt lat="43.85893" lon="7.22622">
        <ele>573.6</ele>
        <time>2012-01-04T10:26:04Z</time>
      </trkpt>
      <trkpt lat="43.85885" lon="7.22624">
        <ele>574.2</ele>
        <time>2012-01-04T10:26:08Z</time>
      </trkpt>
      <trkpt lat="43.85877" lon="7.22627">
        <ele>574.8</ele>
        <time>2012-01-04T10:26:11Z</time>
      </trkpt>
      <trkpt lat="43.8587" lon="7.22635">
        <ele>574.7</ele>
        <time>2012-01-04T10:26:14Z</time>
      </trkpt>
      <trkpt lat="43.85865" lon="7.22641">
        <ele>574.2</ele>
        <time>2012-01-04T10:26:16Z</time>
      </trkpt>
      <trkpt lat="43.85859" lon="7.22644">
        <ele>573.8</ele>
        <time>2012-01-04T10:26:18Z</time>
      </trkpt>
      <trkpt lat="43.85853" lon="7.22648">
        <ele>573.5</ele>
        <time>2012-01-04T10:26:20Z</time>
      </trkpt>
      <trkpt lat="43.85845" lon="7.2265">
        <ele>572.9</ele>
        <time>2012-01-04T10:26:22Z</time>
      </trkpt>
      <trkpt lat="43.85841" lon="7.22652">
        <ele>572.5</ele>
        <time>2012-01-04T10:26:23Z</time>
      </trkpt>
      <trkpt lat="43.85836" lon="7.22655">
        <ele>572.2</ele>
        <time>2012-01-04T10:26:24Z</time>
      </trkpt>
      <trkpt lat="43.85832" lon="7.22658">
        <ele>572.1</ele>
        <time>2012-01-04T10:26:25Z</time>
      </trkpt>
      <trkpt lat="43.85827" lon="7.22662">
        <ele>572</ele>
        <time>2012-01-04T10:26:26Z</time>
      </trkpt>
      <trkpt lat="43.85823" lon="7.22667">
        <ele>570.9</ele>
        <time>2012-01-04T10:26:27Z</time>
      </trkpt>
      <trkpt lat="43.85818" lon="7.22671">
        <ele>570.2</ele>
        <time>2012-01-04T10:26:28Z</time>
      </trkpt>
      <trkpt lat="43.85813" lon="7.22674">
        <ele>569.6</ele>
        <time>2012-01-04T10:26:29Z</time>
      </trkpt>
      <trkpt lat="43.85807" lon="7.22676">
        <ele>569.1</ele>
        <time>2012-01-04T10:26:30Z</time>
      </trkpt>
      <trkpt lat="43.85801" lon="7.22677">
        <ele>568.7</ele>
        <time>2012-01-04T10:26:31Z</time>
      </trkpt>
      <trkpt lat="43.85794" lon="7.22677">
        <ele>568.2</ele>
        <time>2012-01-04T10:26:32Z</time>
      </trkpt>
      <trkpt lat="43.85788" lon="7.22676">
        <ele>567.7</ele>
        <time>2012-01-04T10:26:33Z</time>
      </trkpt>
      <trkpt lat="43.85782" lon="7.22673">
        <ele>567.1</ele>
        <time>2012-01-04T10:26:34Z</time>
      </trkpt>
      <trkpt lat="43.85776" lon="7.22669">
        <ele>566.7</ele>
        <time>2012-01-04T10:26:35Z</time>
      </trkpt>
      <trkpt lat="43.8577" lon="7.22665">
        <ele>566.4</ele>
        <time>2012-01-04T10:26:36Z</time>
      </trkpt>
      <trkpt lat="43.85765" lon="7.22661">
        <ele>565.9</ele>
        <time>2012-01-04T10:26:37Z</time>
      </trkpt>
      <trkpt lat="43.8576" lon="7.22657">
        <ele>565.5</ele>
        <time>2012-01-04T10:26:38Z</time>
      </trkpt>
      <trkpt lat="43.85755" lon="7.22653">
        <ele>564.9</ele>
        <time>2012-01-04T10:26:39Z</time>
      </trkpt>
      <trkpt lat="43.85751" lon="7.22651">
        <ele>564.4</ele>
        <time>2012-01-04T10:26:40Z</time>
      </trkpt>
      <trkpt lat="43.85744" lon="7.22645">
        <ele>564.2</ele>
        <time>2012-01-04T10:26:42Z</time>
      </trkpt>
      <trkpt lat="43.85742" lon="7.22636">
        <ele>564.1</ele>
        <time>2012-01-04T10:26:45Z</time>
      </trkpt>
      <trkpt lat="43.85734" lon="7.22635">
        <ele>561.7</ele>
        <time>2012-01-04T10:26:53Z</time>
      </trkpt>
      <trkpt lat="43.8573" lon="7.2264">
        <ele>561.5</ele>
        <time>2012-01-04T10:26:54Z</time>
      </trkpt>
      <trkpt lat="43.85727" lon="7.22646">
        <ele>561.3</ele>
        <time>2012-01-04T10:26:55Z</time>
      </trkpt>
      <trkpt lat="43.85723" lon="7.22652">
        <ele>560.2</ele>
        <time>2012-01-04T10:26:56Z</time>
      </trkpt>
      <trkpt lat="43.85721" lon="7.22658">
        <ele>559.3</ele>
        <time>2012-01-04T10:26:57Z</time>
      </trkpt>
      <trkpt lat="43.85719" lon="7.22665">
        <ele>558.2</ele>
        <time>2012-01-04T10:26:58Z</time>
      </trkpt>
      <trkpt lat="43.85718" lon="7.22672">
        <ele>557.3</ele>
        <time>2012-01-04T10:26:59Z</time>
      </trkpt>
      <trkpt lat="43.85717" lon="7.22679">
        <ele>556.2</ele>
        <time>2012-01-04T10:27:00Z</time>
      </trkpt>
      <trkpt lat="43.85714" lon="7.22689">
        <ele>554.9</ele>
        <time>2012-01-04T10:27:02Z</time>
      </trkpt>
      <trkpt lat="43.85706" lon="7.22691">
        <ele>553.7</ele>
        <time>2012-01-04T10:27:04Z</time>
      </trkpt>
      <trkpt lat="43.85704" lon="7.22682">
        <ele>551.4</ele>
        <time>2012-01-04T10:27:06Z</time>
      </trkpt>
      <trkpt lat="43.85697" lon="7.22687">
        <ele>547.9</ele>
        <time>2012-01-04T10:27:13Z</time>
      </trkpt>
      <trkpt lat="43.85692" lon="7.22697">
        <ele>546.8</ele>
        <time>2012-01-04T10:27:15Z</time>
      </trkpt>
      <trkpt lat="43.85688" lon="7.22691">
        <ele>545.7</ele>
        <time>2012-01-04T10:27:18Z</time>
      </trkpt>
      <trkpt lat="43.85686" lon="7.2268">
        <ele>544.5</ele>
        <time>2012-01-04T10:27:20Z</time>
      </trkpt>
      <trkpt lat="43.85679" lon="7.22673">
        <ele>542</ele>
        <time>2012-01-04T10:27:24Z</time>
      </trkpt>
      <trkpt lat="43.85673" lon="7.22681">
        <ele>541.1</ele>
        <time>2012-01-04T10:27:26Z</time>
      </trkpt>
      <trkpt lat="43.8567" lon="7.22686">
        <ele>540.4</ele>
        <time>2012-01-04T10:27:27Z</time>
      </trkpt>
      <trkpt lat="43.85667" lon="7.22692">
        <ele>539.9</ele>
        <time>2012-01-04T10:27:28Z</time>
      </trkpt>
      <trkpt lat="43.85666" lon="7.22699">
        <ele>538.6</ele>
        <time>2012-01-04T10:27:29Z</time>
      </trkpt>
      <trkpt lat="43.85668" lon="7.22709">
        <ele>536.7</ele>
        <time>2012-01-04T10:27:31Z</time>
      </trkpt>
      <trkpt lat="43.85661" lon="7.22711">
        <ele>533.6</ele>
        <time>2012-01-04T10:27:36Z</time>
      </trkpt>
      <trkpt lat="43.85653" lon="7.22715">
        <ele>530.9</ele>
        <time>2012-01-04T10:27:41Z</time>
      </trkpt>
      <trkpt lat="43.85644" lon="7.22713">
        <ele>527.7</ele>
        <time>2012-01-04T10:27:49Z</time>
      </trkpt>
      <trkpt lat="43.85639" lon="7.22722">
        <ele>525.5</ele>
        <time>2012-01-04T10:27:54Z</time>
      </trkpt>
      <trkpt lat="43.85631" lon="7.22717">
        <ele>522.9</ele>
        <time>2012-01-04T10:28:01Z</time>
      </trkpt>
      <trkpt lat="43.8563" lon="7.22713">
        <ele>522.4</ele>
        <time>2012-01-04T10:28:02Z</time>
      </trkpt>
      <trkpt lat="43.85624" lon="7.22719">
        <ele>521.4</ele>
        <time>2012-01-04T10:28:07Z</time>
      </trkpt>
      <trkpt lat="43.85624" lon="7.2273">
        <ele>520.5</ele>
        <time>2012-01-04T10:28:09Z</time>
      </trkpt>
      <trkpt lat="43.85616" lon="7.22729">
        <ele>518.4</ele>
        <time>2012-01-04T10:28:14Z</time>
      </trkpt>
      <trkpt lat="43.85609" lon="7.22722">
        <ele>516.1</ele>
        <time>2012-01-04T10:28:20Z</time>
      </trkpt>
      <trkpt lat="43.85603" lon="7.22713">
        <ele>514.3</ele>
        <time>2012-01-04T10:28:26Z</time>
      </trkpt>
      <trkpt lat="43.85594" lon="7.22713">
        <ele>513</ele>
        <time>2012-01-04T10:28:47Z</time>
      </trkpt>
      <trkpt lat="43.85587" lon="7.2272">
        <ele>513.4</ele>
        <time>2012-01-04T10:28:51Z</time>
      </trkpt>
      <trkpt lat="43.85579" lon="7.22723">
        <ele>513.2</ele>
        <time>2012-01-04T10:28:54Z</time>
      </trkpt>
      <trkpt lat="43.85571" lon="7.22728">
        <ele>513.1</ele>
        <time>2012-01-04T10:28:57Z</time>
      </trkpt>
      <trkpt lat="43.85565" lon="7.2273">
        <ele>513.1</ele>
        <time>2012-01-04T10:28:59Z</time>
      </trkpt>
      <trkpt lat="43.85559" lon="7.22734">
        <ele>512.9</ele>
        <time>2012-01-04T10:29:01Z</time>
      </trkpt>
      <trkpt lat="43.85554" lon="7.22739">
        <ele>513.5</ele>
        <time>2012-01-04T10:29:03Z</time>
      </trkpt>
      <trkpt lat="43.85551" lon="7.22742">
        <ele>513.4</ele>
        <time>2012-01-04T10:29:04Z</time>
      </trkpt>
      <trkpt lat="43.85544" lon="7.22754">
        <ele>513.5</ele>
        <time>2012-01-04T10:29:07Z</time>
      </trkpt>
      <trkpt lat="43.85541" lon="7.22762">
        <ele>513.4</ele>
        <time>2012-01-04T10:29:09Z</time>
      </trkpt>
      <trkpt lat="43.85538" lon="7.22771">
        <ele>513.3</ele>
        <time>2012-01-04T10:29:11Z</time>
      </trkpt>
      <trkpt lat="43.85536" lon="7.22779">
        <ele>513.3</ele>
        <time>2012-01-04T10:29:13Z</time>
      </trkpt>
      <trkpt lat="43.85533" lon="7.22788">
        <ele>513</ele>
        <time>2012-01-04T10:29:15Z</time>
      </trkpt>
      <trkpt lat="43.85531" lon="7.22797">
        <ele>513.2</ele>
        <time>2012-01-04T10:29:17Z</time>
      </trkpt>
      <trkpt lat="43.85529" lon="7.22806">
        <ele>513.4</ele>
        <time>2012-01-04T10:29:19Z</time>
      </trkpt>
      <trkpt lat="43.85526" lon="7.22815">
        <ele>513.5</ele>
        <time>2012-01-04T10:29:21Z</time>
      </trkpt>
      <trkpt lat="43.85524" lon="7.22825">
        <ele>513.7</ele>
        <time>2012-01-04T10:29:23Z</time>
      </trkpt>
      <trkpt lat="43.85522" lon="7.22834">
        <ele>513.3</ele>
        <time>2012-01-04T10:29:25Z</time>
      </trkpt>
      <trkpt lat="43.85519" lon="7.22844">
        <ele>512.8</ele>
        <time>2012-01-04T10:29:27Z</time>
      </trkpt>
      <trkpt lat="43.85517" lon="7.22853">
        <ele>513.7</ele>
        <time>2012-01-04T10:29:29Z</time>
      </trkpt>
      <trkpt lat="43.85514" lon="7.22862">
        <ele>513.7</ele>
        <time>2012-01-04T10:29:31Z</time>
      </trkpt>
      <trkpt lat="43.85512" lon="7.22871">
        <ele>514.1</ele>
        <time>2012-01-04T10:29:33Z</time>
      </trkpt>
      <trkpt lat="43.85509" lon="7.22881">
        <ele>514.4</ele>
        <time>2012-01-04T10:29:35Z</time>
      </trkpt>
      <trkpt lat="43.85507" lon="7.2289">
        <ele>514.4</ele>
        <time>2012-01-04T10:29:37Z</time>
      </trkpt>
      <trkpt lat="43.85504" lon="7.22899">
        <ele>514.3</ele>
        <time>2012-01-04T10:29:39Z</time>
      </trkpt>
      <trkpt lat="43.85502" lon="7.22908">
        <ele>514.2</ele>
        <time>2012-01-04T10:29:41Z</time>
      </trkpt>
      <trkpt lat="43.855" lon="7.22917">
        <ele>515</ele>
        <time>2012-01-04T10:29:43Z</time>
      </trkpt>
      <trkpt lat="43.85497" lon="7.22925">
        <ele>515.1</ele>
        <time>2012-01-04T10:29:45Z</time>
      </trkpt>
      <trkpt lat="43.85495" lon="7.22933">
        <ele>515.4</ele>
        <time>2012-01-04T10:29:47Z</time>
      </trkpt>
      <trkpt lat="43.85492" lon="7.22941">
        <ele>515.7</ele>
        <time>2012-01-04T10:29:49Z</time>
      </trkpt>
      <trkpt lat="43.85485" lon="7.22949">
        <ele>516.6</ele>
        <time>2012-01-04T10:29:52Z</time>
      </trkpt>
      <trkpt lat="43.85477" lon="7.22954">
        <ele>517.3</ele>
        <time>2012-01-04T10:29:55Z</time>
      </trkpt>
      <trkpt lat="43.85471" lon="7.22962">
        <ele>517.9</ele>
        <time>2012-01-04T10:29:58Z</time>
      </trkpt>
      <trkpt lat="43.85466" lon="7.22972">
        <ele>518.2</ele>
        <time>2012-01-04T10:30:01Z</time>
      </trkpt>
      <trkpt lat="43.85461" lon="7.22981">
        <ele>518.9</ele>
        <time>2012-01-04T10:30:04Z</time>
      </trkpt>
      <trkpt lat="43.85457" lon="7.22988">
        <ele>518.6</ele>
        <time>2012-01-04T10:30:08Z</time>
      </trkpt>
      <trkpt lat="43.85456" lon="7.22991">
        <ele>518.3</ele>
        <time>2012-01-04T10:30:09Z</time>
      </trkpt>
      <trkpt lat="43.85458" lon="7.23009">
        <ele>518.7</ele>
        <time>2012-01-04T10:30:14Z</time>
      </trkpt>
      <trkpt lat="43.85457" lon="7.2302">
        <ele>519.2</ele>
        <time>2012-01-04T10:30:17Z</time>
      </trkpt>
      <trkpt lat="43.85455" lon="7.23031">
        <ele>519.9</ele>
        <time>2012-01-04T10:30:20Z</time>
      </trkpt>
      <trkpt lat="43.85453" lon="7.23041">
        <ele>520.8</ele>
        <time>2012-01-04T10:30:23Z</time>
      </trkpt>
      <trkpt lat="43.8545" lon="7.23052">
        <ele>520.9</ele>
        <time>2012-01-04T10:30:26Z</time>
      </trkpt>
      <trkpt lat="43.85448" lon="7.23062">
        <ele>521.5</ele>
        <time>2012-01-04T10:30:29Z</time>
      </trkpt>
      <trkpt lat="43.85447" lon="7.23072">
        <ele>522.4</ele>
        <time>2012-01-04T10:30:32Z</time>
      </trkpt>
      <trkpt lat="43.85448" lon="7.23083">
        <ele>522.3</ele>
        <time>2012-01-04T10:30:35Z</time>
      </trkpt>
      <trkpt lat="43.85448" lon="7.23095">
        <ele>522.8</ele>
        <time>2012-01-04T10:30:38Z</time>
      </trkpt>
      <trkpt lat="43.85448" lon="7.23107">
        <ele>523</ele>
        <time>2012-01-04T10:30:41Z</time>
      </trkpt>
      <trkpt lat="43.85447" lon="7.23118">
        <ele>523.3</ele>
        <time>2012-01-04T10:30:44Z</time>
      </trkpt>
      <trkpt lat="43.85444" lon="7.23128">
        <ele>524.1</ele>
        <time>2012-01-04T10:30:47Z</time>
      </trkpt>
      <trkpt lat="43.85441" lon="7.23139">
        <ele>524.1</ele>
        <time>2012-01-04T10:30:50Z</time>
      </trkpt>
      <trkpt lat="43.85439" lon="7.2315">
        <ele>524.1</ele>
        <time>2012-01-04T10:30:53Z</time>
      </trkpt>
      <trkpt lat="43.85437" lon="7.23159">
        <ele>524.6</ele>
        <time>2012-01-04T10:30:56Z</time>
      </trkpt>
      <trkpt lat="43.8544" lon="7.23171">
        <ele>525.7</ele>
        <time>2012-01-04T10:31:01Z</time>
      </trkpt>
      <trkpt lat="43.85447" lon="7.23166">
        <ele>526.3</ele>
        <time>2012-01-04T10:31:05Z</time>
      </trkpt>
      <trkpt lat="43.85449" lon="7.23154">
        <ele>526.6</ele>
        <time>2012-01-04T10:31:08Z</time>
      </trkpt>
      <trkpt lat="43.85451" lon="7.23143">
        <ele>527</ele>
        <time>2012-01-04T10:31:11Z</time>
      </trkpt>
      <trkpt lat="43.85452" lon="7.2314">
        <ele>526.9</ele>
        <time>2012-01-04T10:31:12Z</time>
      </trkpt>
      <trkpt lat="43.85459" lon="7.23123">
        <ele>527.5</ele>
        <time>2012-01-04T10:31:17Z</time>
      </trkpt>
      <trkpt lat="43.85463" lon="7.23112">
        <ele>527.8</ele>
        <time>2012-01-04T10:31:20Z</time>
      </trkpt>
      <trkpt lat="43.85468" lon="7.23102">
        <ele>527.5</ele>
        <time>2012-01-04T10:31:23Z</time>
      </trkpt>
      <trkpt lat="43.85474" lon="7.23096">
        <ele>527.6</ele>
        <time>2012-01-04T10:31:26Z</time>
      </trkpt>
      <trkpt lat="43.85477" lon="7.23105">
        <ele>528</ele>
        <time>2012-01-04T10:31:29Z</time>
      </trkpt>
      <trkpt lat="43.85476" lon="7.23115">
        <ele>528.5</ele>
        <time>2012-01-04T10:31:32Z</time>
      </trkpt>
      <trkpt lat="43.85476" lon="7.23126">
        <ele>528.9</ele>
        <time>2012-01-04T10:31:35Z</time>
      </trkpt>
      <trkpt lat="43.85475" lon="7.23136">
        <ele>529.7</ele>
        <time>2012-01-04T10:31:38Z</time>
      </trkpt>
      <trkpt lat="43.85475" lon="7.23146">
        <ele>530.1</ele>
        <time>2012-01-04T10:31:41Z</time>
      </trkpt>
      <trkpt lat="43.85474" lon="7.23156">
        <ele>530.5</ele>
        <time>2012-01-04T10:31:44Z</time>
      </trkpt>
      <trkpt lat="43.85473" lon="7.23168">
        <ele>531.7</ele>
        <time>2012-01-04T10:31:48Z</time>
      </trkpt>
      <trkpt lat="43.85473" lon="7.23179">
        <ele>533</ele>
        <time>2012-01-04T10:31:52Z</time>
      </trkpt>
      <trkpt lat="43.85474" lon="7.23189">
        <ele>533.8</ele>
        <time>2012-01-04T10:31:55Z</time>
      </trkpt>
      <trkpt lat="43.85476" lon="7.23199">
        <ele>534.5</ele>
        <time>2012-01-04T10:31:59Z</time>
      </trkpt>
      <trkpt lat="43.85475" lon="7.23211">
        <ele>535.5</ele>
        <time>2012-01-04T10:32:04Z</time>
      </trkpt>
      <trkpt lat="43.8547" lon="7.23216">
        <ele>535.8</ele>
        <time>2012-01-04T10:32:07Z</time>
      </trkpt>
      <trkpt lat="43.85463" lon="7.23222">
        <ele>536.2</ele>
        <time>2012-01-04T10:32:10Z</time>
      </trkpt>
      <trkpt lat="43.85456" lon="7.23228">
        <ele>536.8</ele>
        <time>2012-01-04T10:32:13Z</time>
      </trkpt>
      <trkpt lat="43.85453" lon="7.23231">
        <ele>536.7</ele>
        <time>2012-01-04T10:32:14Z</time>
      </trkpt>
      <trkpt lat="43.85443" lon="7.23238">
        <ele>536.5</ele>
        <time>2012-01-04T10:32:18Z</time>
      </trkpt>
      <trkpt lat="43.85437" lon="7.23242">
        <ele>536.4</ele>
        <time>2012-01-04T10:32:20Z</time>
      </trkpt>
      <trkpt lat="43.85431" lon="7.23247">
        <ele>536.5</ele>
        <time>2012-01-04T10:32:22Z</time>
      </trkpt>
      <trkpt lat="43.85425" lon="7.23251">
        <ele>536.3</ele>
        <time>2012-01-04T10:32:24Z</time>
      </trkpt>
      <trkpt lat="43.85418" lon="7.23256">
        <ele>536.4</ele>
        <time>2012-01-04T10:32:26Z</time>
      </trkpt>
      <trkpt lat="43.85413" lon="7.2326">
        <ele>536.8</ele>
        <time>2012-01-04T10:32:28Z</time>
      </trkpt>
      <trkpt lat="43.85407" lon="7.23264">
        <ele>537.2</ele>
        <time>2012-01-04T10:32:30Z</time>
      </trkpt>
      <trkpt lat="43.854" lon="7.23268">
        <ele>537.4</ele>
        <time>2012-01-04T10:32:32Z</time>
      </trkpt>
      <trkpt lat="43.85394" lon="7.23273">
        <ele>537.3</ele>
        <time>2012-01-04T10:32:34Z</time>
      </trkpt>
      <trkpt lat="43.85388" lon="7.23279">
        <ele>537.7</ele>
        <time>2012-01-04T10:32:36Z</time>
      </trkpt>
      <trkpt lat="43.85383" lon="7.23285">
        <ele>537.2</ele>
        <time>2012-01-04T10:32:38Z</time>
      </trkpt>
      <trkpt lat="43.85377" lon="7.23292">
        <ele>537.2</ele>
        <time>2012-01-04T10:32:40Z</time>
      </trkpt>
      <trkpt lat="43.85372" lon="7.233">
        <ele>537.3</ele>
        <time>2012-01-04T10:32:42Z</time>
      </trkpt>
      <trkpt lat="43.85366" lon="7.23308">
        <ele>537.3</ele>
        <time>2012-01-04T10:32:44Z</time>
      </trkpt>
      <trkpt lat="43.85361" lon="7.23316">
        <ele>537.8</ele>
        <time>2012-01-04T10:32:46Z</time>
      </trkpt>
      <trkpt lat="43.85354" lon="7.23325">
        <ele>537.4</ele>
        <time>2012-01-04T10:32:48Z</time>
      </trkpt>
      <trkpt lat="43.85348" lon="7.23334">
        <ele>537.7</ele>
        <time>2012-01-04T10:32:50Z</time>
      </trkpt>
      <trkpt lat="43.85342" lon="7.23343">
        <ele>537.9</ele>
        <time>2012-01-04T10:32:52Z</time>
      </trkpt>
      <trkpt lat="43.85336" lon="7.23352">
        <ele>537.7</ele>
        <time>2012-01-04T10:32:54Z</time>
      </trkpt>
      <trkpt lat="43.8533" lon="7.2336">
        <ele>537.6</ele>
        <time>2012-01-04T10:32:56Z</time>
      </trkpt>
      <trkpt lat="43.85325" lon="7.23369">
        <ele>537.6</ele>
        <time>2012-01-04T10:32:58Z</time>
      </trkpt>
      <trkpt lat="43.85319" lon="7.23378">
        <ele>537.9</ele>
        <time>2012-01-04T10:33:00Z</time>
      </trkpt>
      <trkpt lat="43.85313" lon="7.23386">
        <ele>538.2</ele>
        <time>2012-01-04T10:33:02Z</time>
      </trkpt>
      <trkpt lat="43.85308" lon="7.23394">
        <ele>538.6</ele>
        <time>2012-01-04T10:33:04Z</time>
      </trkpt>
      <trkpt lat="43.85302" lon="7.23403">
        <ele>538.7</ele>
        <time>2012-01-04T10:33:06Z</time>
      </trkpt>
      <trkpt lat="43.85296" lon="7.23412">
        <ele>538.5</ele>
        <time>2012-01-04T10:33:08Z</time>
      </trkpt>
      <trkpt lat="43.85291" lon="7.2342">
        <ele>538.4</ele>
        <time>2012-01-04T10:33:10Z</time>
      </trkpt>
      <trkpt lat="43.85284" lon="7.23426">
        <ele>538.9</ele>
        <time>2012-01-04T10:33:12Z</time>
      </trkpt>
      <trkpt lat="43.85276" lon="7.23431">
        <ele>539.1</ele>
        <time>2012-01-04T10:33:14Z</time>
      </trkpt>
      <trkpt lat="43.85269" lon="7.23436">
        <ele>538.7</ele>
        <time>2012-01-04T10:33:16Z</time>
      </trkpt>
      <trkpt lat="43.85265" lon="7.23439">
        <ele>538.6</ele>
        <time>2012-01-04T10:33:17Z</time>
      </trkpt>
      <trkpt lat="43.85254" lon="7.23445">
        <ele>538.6</ele>
        <time>2012-01-04T10:33:20Z</time>
      </trkpt>
      <trkpt lat="43.85248" lon="7.2345">
        <ele>538.5</ele>
        <time>2012-01-04T10:33:22Z</time>
      </trkpt>
      <trkpt lat="43.85241" lon="7.23455">
        <ele>539</ele>
        <time>2012-01-04T10:33:24Z</time>
      </trkpt>
      <trkpt lat="43.85236" lon="7.2346">
        <ele>539.3</ele>
        <time>2012-01-04T10:33:26Z</time>
      </trkpt>
      <trkpt lat="43.85231" lon="7.23465">
        <ele>539.8</ele>
        <time>2012-01-04T10:33:28Z</time>
      </trkpt>
      <trkpt lat="43.85225" lon="7.23474">
        <ele>540.4</ele>
        <time>2012-01-04T10:33:31Z</time>
      </trkpt>
      <trkpt lat="43.8522" lon="7.23483">
        <ele>541.5</ele>
        <time>2012-01-04T10:33:34Z</time>
      </trkpt>
      <trkpt lat="43.85215" lon="7.23492">
        <ele>542.1</ele>
        <time>2012-01-04T10:33:37Z</time>
      </trkpt>
      <trkpt lat="43.85211" lon="7.23501">
        <ele>543.1</ele>
        <time>2012-01-04T10:33:40Z</time>
      </trkpt>
      <trkpt lat="43.85206" lon="7.2351">
        <ele>543.4</ele>
        <time>2012-01-04T10:33:43Z</time>
      </trkpt>
      <trkpt lat="43.852" lon="7.23519">
        <ele>544</ele>
        <time>2012-01-04T10:33:46Z</time>
      </trkpt>
      <trkpt lat="43.85195" lon="7.23528">
        <ele>544.4</ele>
        <time>2012-01-04T10:33:49Z</time>
      </trkpt>
      <trkpt lat="43.8519" lon="7.23537">
        <ele>545</ele>
        <time>2012-01-04T10:33:52Z</time>
      </trkpt>
      <trkpt lat="43.85184" lon="7.23545">
        <ele>544.9</ele>
        <time>2012-01-04T10:33:55Z</time>
      </trkpt>
      <trkpt lat="43.85179" lon="7.23553">
        <ele>546.1</ele>
        <time>2012-01-04T10:33:58Z</time>
      </trkpt>
      <trkpt lat="43.85173" lon="7.23561">
        <ele>546.4</ele>
        <time>2012-01-04T10:34:01Z</time>
      </trkpt>
      <trkpt lat="43.85168" lon="7.23569">
        <ele>547.5</ele>
        <time>2012-01-04T10:34:04Z</time>
      </trkpt>
      <trkpt lat="43.85162" lon="7.23577">
        <ele>549</ele>
        <time>2012-01-04T10:34:07Z</time>
      </trkpt>
      <trkpt lat="43.85156" lon="7.23583">
        <ele>549.3</ele>
        <time>2012-01-04T10:34:10Z</time>
      </trkpt>
      <trkpt lat="43.85148" lon="7.23588">
        <ele>549.3</ele>
        <time>2012-01-04T10:34:13Z</time>
      </trkpt>
      <trkpt lat="43.85141" lon="7.23593">
        <ele>549.3</ele>
        <time>2012-01-04T10:34:16Z</time>
      </trkpt>
      <trkpt lat="43.85133" lon="7.23597">
        <ele>549.9</ele>
        <time>2012-01-04T10:34:19Z</time>
      </trkpt>
      <trkpt lat="43.85131" lon="7.23598">
        <ele>550.2</ele>
        <time>2012-01-04T10:34:20Z</time>
      </trkpt>
      <trkpt lat="43.85118" lon="7.23604">
        <ele>550.8</ele>
        <time>2012-01-04T10:34:25Z</time>
      </trkpt>
      <trkpt lat="43.8511" lon="7.23608">
        <ele>551</ele>
        <time>2012-01-04T10:34:28Z</time>
      </trkpt>
      <trkpt lat="43.85103" lon="7.23611">
        <ele>552</ele>
        <time>2012-01-04T10:34:31Z</time>
      </trkpt>
      <trkpt lat="43.85095" lon="7.23615">
        <ele>552.3</ele>
        <time>2012-01-04T10:34:34Z</time>
      </trkpt>
      <trkpt lat="43.85089" lon="7.2362">
        <ele>552.6</ele>
        <time>2012-01-04T10:34:37Z</time>
      </trkpt>
      <trkpt lat="43.85081" lon="7.23625">
        <ele>553.7</ele>
        <time>2012-01-04T10:34:40Z</time>
      </trkpt>
      <trkpt lat="43.85074" lon="7.23631">
        <ele>554.3</ele>
        <time>2012-01-04T10:34:43Z</time>
      </trkpt>
      <trkpt lat="43.85067" lon="7.23637">
        <ele>554.3</ele>
        <time>2012-01-04T10:34:46Z</time>
      </trkpt>
      <trkpt lat="43.8506" lon="7.23642">
        <ele>554.8</ele>
        <time>2012-01-04T10:34:49Z</time>
      </trkpt>
      <trkpt lat="43.85054" lon="7.23646">
        <ele>555</ele>
        <time>2012-01-04T10:34:52Z</time>
      </trkpt>
      <trkpt lat="43.85048" lon="7.2365">
        <ele>556</ele>
        <time>2012-01-04T10:34:55Z</time>
      </trkpt>
      <trkpt lat="43.85042" lon="7.23655">
        <ele>556.6</ele>
        <time>2012-01-04T10:34:58Z</time>
      </trkpt>
      <trkpt lat="43.85035" lon="7.2366">
        <ele>557</ele>
        <time>2012-01-04T10:35:01Z</time>
      </trkpt>
      <trkpt lat="43.85028" lon="7.23664">
        <ele>557.6</ele>
        <time>2012-01-04T10:35:04Z</time>
      </trkpt>
      <trkpt lat="43.85022" lon="7.23669">
        <ele>558</ele>
        <time>2012-01-04T10:35:07Z</time>
      </trkpt>
      <trkpt lat="43.85015" lon="7.23674">
        <ele>558.7</ele>
        <time>2012-01-04T10:35:10Z</time>
      </trkpt>
      <trkpt lat="43.85008" lon="7.23679">
        <ele>559</ele>
        <time>2012-01-04T10:35:13Z</time>
      </trkpt>
      <trkpt lat="43.85001" lon="7.23683">
        <ele>559.8</ele>
        <time>2012-01-04T10:35:16Z</time>
      </trkpt>
      <trkpt lat="43.84994" lon="7.23688">
        <ele>560.6</ele>
        <time>2012-01-04T10:35:19Z</time>
      </trkpt>
      <trkpt lat="43.84988" lon="7.23693">
        <ele>560.7</ele>
        <time>2012-01-04T10:35:22Z</time>
      </trkpt>
      <trkpt lat="43.84986" lon="7.23695">
        <ele>560.8</ele>
        <time>2012-01-04T10:35:23Z</time>
      </trkpt>
      <trkpt lat="43.84973" lon="7.23705">
        <ele>561.7</ele>
        <time>2012-01-04T10:35:28Z</time>
      </trkpt>
      <trkpt lat="43.84968" lon="7.2371">
        <ele>562</ele>
        <time>2012-01-04T10:35:30Z</time>
      </trkpt>
      <trkpt lat="43.84962" lon="7.23714">
        <ele>562</ele>
        <time>2012-01-04T10:35:32Z</time>
      </trkpt>
      <trkpt lat="43.84957" lon="7.23718">
        <ele>561.9</ele>
        <time>2012-01-04T10:35:34Z</time>
      </trkpt>
      <trkpt lat="43.84951" lon="7.23723">
        <ele>562</ele>
        <time>2012-01-04T10:35:36Z</time>
      </trkpt>
      <trkpt lat="43.84946" lon="7.23728">
        <ele>562</ele>
        <time>2012-01-04T10:35:38Z</time>
      </trkpt>
      <trkpt lat="43.8494" lon="7.23732">
        <ele>562.2</ele>
        <time>2012-01-04T10:35:40Z</time>
      </trkpt>
      <trkpt lat="43.84934" lon="7.23737">
        <ele>562.5</ele>
        <time>2012-01-04T10:35:42Z</time>
      </trkpt>
      <trkpt lat="43.84928" lon="7.23741">
        <ele>562.9</ele>
        <time>2012-01-04T10:35:44Z</time>
      </trkpt>
      <trkpt lat="43.84922" lon="7.23744">
        <ele>562.3</ele>
        <time>2012-01-04T10:35:46Z</time>
      </trkpt>
      <trkpt lat="43.84917" lon="7.23751">
        <ele>562.3</ele>
        <time>2012-01-04T10:35:48Z</time>
      </trkpt>
      <trkpt lat="43.84917" lon="7.2376">
        <ele>562.5</ele>
        <time>2012-01-04T10:35:50Z</time>
      </trkpt>
      <trkpt lat="43.84921" lon="7.23767">
        <ele>562.6</ele>
        <time>2012-01-04T10:35:52Z</time>
      </trkpt>
      <trkpt lat="43.84926" lon="7.23776">
        <ele>563.4</ele>
        <time>2012-01-04T10:35:55Z</time>
      </trkpt>
      <trkpt lat="43.84931" lon="7.23786">
        <ele>563.6</ele>
        <time>2012-01-04T10:35:58Z</time>
      </trkpt>
      <trkpt lat="43.84934" lon="7.23797">
        <ele>563.9</ele>
        <time>2012-01-04T10:36:01Z</time>
      </trkpt>
      <trkpt lat="43.84937" lon="7.23808">
        <ele>564.1</ele>
        <time>2012-01-04T10:36:04Z</time>
      </trkpt>
      <trkpt lat="43.84941" lon="7.23819">
        <ele>564.5</ele>
        <time>2012-01-04T10:36:07Z</time>
      </trkpt>
      <trkpt lat="43.84944" lon="7.2383">
        <ele>564.5</ele>
        <time>2012-01-04T10:36:10Z</time>
      </trkpt>
      <trkpt lat="43.84948" lon="7.2384">
        <ele>565.1</ele>
        <time>2012-01-04T10:36:13Z</time>
      </trkpt>
      <trkpt lat="43.84953" lon="7.23851">
        <ele>565.7</ele>
        <time>2012-01-04T10:36:16Z</time>
      </trkpt>
      <trkpt lat="43.84956" lon="7.23862">
        <ele>566.1</ele>
        <time>2012-01-04T10:36:19Z</time>
      </trkpt>
      <trkpt lat="43.84959" lon="7.23873">
        <ele>566.3</ele>
        <time>2012-01-04T10:36:22Z</time>
      </trkpt>
      <trkpt lat="43.84962" lon="7.23884">
        <ele>567.1</ele>
        <time>2012-01-04T10:36:25Z</time>
      </trkpt>
      <trkpt lat="43.84963" lon="7.23888">
        <ele>567.5</ele>
        <time>2012-01-04T10:36:26Z</time>
      </trkpt>
      <trkpt lat="43.8497" lon="7.23906">
        <ele>567.8</ele>
        <time>2012-01-04T10:36:31Z</time>
      </trkpt>
      <trkpt lat="43.84974" lon="7.23916">
        <ele>569.4</ele>
        <time>2012-01-04T10:36:34Z</time>
      </trkpt>
      <trkpt lat="43.84978" lon="7.23927">
        <ele>569.4</ele>
        <time>2012-01-04T10:36:37Z</time>
      </trkpt>
      <trkpt lat="43.84983" lon="7.23938">
        <ele>569.7</ele>
        <time>2012-01-04T10:36:40Z</time>
      </trkpt>
      <trkpt lat="43.84985" lon="7.23945">
        <ele>569.7</ele>
        <time>2012-01-04T10:36:42Z</time>
      </trkpt>
      <trkpt lat="43.84989" lon="7.23956">
        <ele>570.4</ele>
        <time>2012-01-04T10:36:45Z</time>
      </trkpt>
      <trkpt lat="43.84994" lon="7.23967">
        <ele>570.6</ele>
        <time>2012-01-04T10:36:48Z</time>
      </trkpt>
      <trkpt lat="43.84998" lon="7.23977">
        <ele>571.2</ele>
        <time>2012-01-04T10:36:51Z</time>
      </trkpt>
      <trkpt lat="43.85003" lon="7.23988">
        <ele>571.4</ele>
        <time>2012-01-04T10:36:54Z</time>
      </trkpt>
      <trkpt lat="43.85008" lon="7.23998">
        <ele>571.3</ele>
        <time>2012-01-04T10:36:57Z</time>
      </trkpt>
      <trkpt lat="43.85013" lon="7.24008">
        <ele>572.2</ele>
        <time>2012-01-04T10:37:00Z</time>
      </trkpt>
      <trkpt lat="43.85018" lon="7.24018">
        <ele>573</ele>
        <time>2012-01-04T10:37:03Z</time>
      </trkpt>
      <trkpt lat="43.85024" lon="7.24027">
        <ele>573.6</ele>
        <time>2012-01-04T10:37:06Z</time>
      </trkpt>
      <trkpt lat="43.8503" lon="7.24037">
        <ele>573.8</ele>
        <time>2012-01-04T10:37:09Z</time>
      </trkpt>
      <trkpt lat="43.85034" lon="7.24043">
        <ele>574.4</ele>
        <time>2012-01-04T10:37:11Z</time>
      </trkpt>
      <trkpt lat="43.85038" lon="7.24049">
        <ele>574.7</ele>
        <time>2012-01-04T10:37:13Z</time>
      </trkpt>
      <trkpt lat="43.85044" lon="7.24059">
        <ele>575</ele>
        <time>2012-01-04T10:37:16Z</time>
      </trkpt>
      <trkpt lat="43.85048" lon="7.24065">
        <ele>575.3</ele>
        <time>2012-01-04T10:37:18Z</time>
      </trkpt>
      <trkpt lat="43.85052" lon="7.24071">
        <ele>575.4</ele>
        <time>2012-01-04T10:37:20Z</time>
      </trkpt>
      <trkpt lat="43.85058" lon="7.24079">
        <ele>576.1</ele>
        <time>2012-01-04T10:37:23Z</time>
      </trkpt>
      <trkpt lat="43.85064" lon="7.24087">
        <ele>576.3</ele>
        <time>2012-01-04T10:37:26Z</time>
      </trkpt>
      <trkpt lat="43.85066" lon="7.2409">
        <ele>576.3</ele>
        <time>2012-01-04T10:37:27Z</time>
      </trkpt>
      <trkpt lat="43.85077" lon="7.24105">
        <ele>576.6</ele>
        <time>2012-01-04T10:37:32Z</time>
      </trkpt>
      <trkpt lat="43.85082" lon="7.24114">
        <ele>576.9</ele>
        <time>2012-01-04T10:37:35Z</time>
      </trkpt>
      <trkpt lat="43.85088" lon="7.24123">
        <ele>577.5</ele>
        <time>2012-01-04T10:37:38Z</time>
      </trkpt>
      <trkpt lat="43.85093" lon="7.24133">
        <ele>578.3</ele>
        <time>2012-01-04T10:37:41Z</time>
      </trkpt>
      <trkpt lat="43.85098" lon="7.24143">
        <ele>578.9</ele>
        <time>2012-01-04T10:37:44Z</time>
      </trkpt>
      <trkpt lat="43.85103" lon="7.24153">
        <ele>578.9</ele>
        <time>2012-01-04T10:37:47Z</time>
      </trkpt>
      <trkpt lat="43.85108" lon="7.24163">
        <ele>579.9</ele>
        <time>2012-01-04T10:37:50Z</time>
      </trkpt>
      <trkpt lat="43.85113" lon="7.24173">
        <ele>580.4</ele>
        <time>2012-01-04T10:37:53Z</time>
      </trkpt>
      <trkpt lat="43.85119" lon="7.24183">
        <ele>580.7</ele>
        <time>2012-01-04T10:37:56Z</time>
      </trkpt>
      <trkpt lat="43.85124" lon="7.24192">
        <ele>581.3</ele>
        <time>2012-01-04T10:37:59Z</time>
      </trkpt>
      <trkpt lat="43.85129" lon="7.24201">
        <ele>581.8</ele>
        <time>2012-01-04T10:38:02Z</time>
      </trkpt>
      <trkpt lat="43.85131" lon="7.24212">
        <ele>581.8</ele>
        <time>2012-01-04T10:38:05Z</time>
      </trkpt>
      <trkpt lat="43.85131" lon="7.24223">
        <ele>582.6</ele>
        <time>2012-01-04T10:38:08Z</time>
      </trkpt>
      <trkpt lat="43.85131" lon="7.24235">
        <ele>583.3</ele>
        <time>2012-01-04T10:38:11Z</time>
      </trkpt>
      <trkpt lat="43.85133" lon="7.24247">
        <ele>583.9</ele>
        <time>2012-01-04T10:38:14Z</time>
      </trkpt>
      <trkpt lat="43.85135" lon="7.24259">
        <ele>584.1</ele>
        <time>2012-01-04T10:38:17Z</time>
      </trkpt>
      <trkpt lat="43.85137" lon="7.24271">
        <ele>584.5</ele>
        <time>2012-01-04T10:38:20Z</time>
      </trkpt>
      <trkpt lat="43.85139" lon="7.24283">
        <ele>584.6</ele>
        <time>2012-01-04T10:38:23Z</time>
      </trkpt>
      <trkpt lat="43.85142" lon="7.24294">
        <ele>585.1</ele>
        <time>2012-01-04T10:38:26Z</time>
      </trkpt>
      <trkpt lat="43.85144" lon="7.24306">
        <ele>585.3</ele>
        <time>2012-01-04T10:38:29Z</time>
      </trkpt>
      <trkpt lat="43.85144" lon="7.2431">
        <ele>585.4</ele>
        <time>2012-01-04T10:38:30Z</time>
      </trkpt>
      <trkpt lat="43.85147" lon="7.24328">
        <ele>586.3</ele>
        <time>2012-01-04T10:38:35Z</time>
      </trkpt>
      <trkpt lat="43.85149" lon="7.24339">
        <ele>586.7</ele>
        <time>2012-01-04T10:38:38Z</time>
      </trkpt>
      <trkpt lat="43.8515" lon="7.2435">
        <ele>587.1</ele>
        <time>2012-01-04T10:38:41Z</time>
      </trkpt>
      <trkpt lat="43.85152" lon="7.2436">
        <ele>588.1</ele>
        <time>2012-01-04T10:38:44Z</time>
      </trkpt>
      <trkpt lat="43.85154" lon="7.2437">
        <ele>588.4</ele>
        <time>2012-01-04T10:38:47Z</time>
      </trkpt>
      <trkpt lat="43.85155" lon="7.2438">
        <ele>588.8</ele>
        <time>2012-01-04T10:38:50Z</time>
      </trkpt>
      <trkpt lat="43.85156" lon="7.24389">
        <ele>589.9</ele>
        <time>2012-01-04T10:38:53Z</time>
      </trkpt>
      <trkpt lat="43.85158" lon="7.24399">
        <ele>590.4</ele>
        <time>2012-01-04T10:38:56Z</time>
      </trkpt>
      <trkpt lat="43.85162" lon="7.2441">
        <ele>591.7</ele>
        <time>2012-01-04T10:39:00Z</time>
      </trkpt>
      <trkpt lat="43.85165" lon="7.2442">
        <ele>592.6</ele>
        <time>2012-01-04T10:39:04Z</time>
      </trkpt>
      <trkpt lat="43.85168" lon="7.24431">
        <ele>593.3</ele>
        <time>2012-01-04T10:39:08Z</time>
      </trkpt>
      <trkpt lat="43.85172" lon="7.24441">
        <ele>593.8</ele>
        <time>2012-01-04T10:39:12Z</time>
      </trkpt>
      <trkpt lat="43.85176" lon="7.24451">
        <ele>594.5</ele>
        <time>2012-01-04T10:39:16Z</time>
      </trkpt>
      <trkpt lat="43.8518" lon="7.24461">
        <ele>595.5</ele>
        <time>2012-01-04T10:39:20Z</time>
      </trkpt>
      <trkpt lat="43.85184" lon="7.2447">
        <ele>596</ele>
        <time>2012-01-04T10:39:24Z</time>
      </trkpt>
      <trkpt lat="43.85188" lon="7.24478">
        <ele>596.7</ele>
        <time>2012-01-04T10:39:28Z</time>
      </trkpt>
      <trkpt lat="43.85192" lon="7.24488">
        <ele>597.6</ele>
        <time>2012-01-04T10:39:32Z</time>
      </trkpt>
      <trkpt lat="43.85193" lon="7.2449">
        <ele>598.1</ele>
        <time>2012-01-04T10:39:33Z</time>
      </trkpt>
      <trkpt lat="43.85203" lon="7.24504">
        <ele>599.7</ele>
        <time>2012-01-04T10:39:40Z</time>
      </trkpt>
      <trkpt lat="43.8521" lon="7.24509">
        <ele>600.4</ele>
        <time>2012-01-04T10:39:44Z</time>
      </trkpt>
      <trkpt lat="43.85217" lon="7.24513">
        <ele>600.4</ele>
        <time>2012-01-04T10:39:47Z</time>
      </trkpt>
      <trkpt lat="43.85224" lon="7.24518">
        <ele>600.3</ele>
        <time>2012-01-04T10:39:50Z</time>
      </trkpt>
      <trkpt lat="43.85228" lon="7.24527">
        <ele>600.5</ele>
        <time>2012-01-04T10:39:53Z</time>
      </trkpt>
      <trkpt lat="43.85227" lon="7.24535">
        <ele>600.7</ele>
        <time>2012-01-04T10:39:55Z</time>
      </trkpt>
      <trkpt lat="43.85226" lon="7.24544">
        <ele>600</ele>
        <time>2012-01-04T10:39:57Z</time>
      </trkpt>
      <trkpt lat="43.85227" lon="7.24554">
        <ele>599.4</ele>
        <time>2012-01-04T10:39:59Z</time>
      </trkpt>
      <trkpt lat="43.8523" lon="7.24564">
        <ele>599</ele>
        <time>2012-01-04T10:40:01Z</time>
      </trkpt>
      <trkpt lat="43.85231" lon="7.24576">
        <ele>598.8</ele>
        <time>2012-01-04T10:40:03Z</time>
      </trkpt>
      <trkpt lat="43.85233" lon="7.24583">
        <ele>598.6</ele>
        <time>2012-01-04T10:40:04Z</time>
      </trkpt>
      <trkpt lat="43.85235" lon="7.2459">
        <ele>598.6</ele>
        <time>2012-01-04T10:40:05Z</time>
      </trkpt>
      <trkpt lat="43.85236" lon="7.24597">
        <ele>598.2</ele>
        <time>2012-01-04T10:40:06Z</time>
      </trkpt>
      <trkpt lat="43.85237" lon="7.24605">
        <ele>597.8</ele>
        <time>2012-01-04T10:40:07Z</time>
      </trkpt>
      <trkpt lat="43.85238" lon="7.24611">
        <ele>597</ele>
        <time>2012-01-04T10:40:08Z</time>
      </trkpt>
      <trkpt lat="43.85238" lon="7.24618">
        <ele>596.3</ele>
        <time>2012-01-04T10:40:09Z</time>
      </trkpt>
      <trkpt lat="43.85237" lon="7.24624">
        <ele>595.8</ele>
        <time>2012-01-04T10:40:10Z</time>
      </trkpt>
      <trkpt lat="43.85237" lon="7.2463">
        <ele>595.1</ele>
        <time>2012-01-04T10:40:11Z</time>
      </trkpt>
      <trkpt lat="43.85236" lon="7.24637">
        <ele>594.6</ele>
        <time>2012-01-04T10:40:12Z</time>
      </trkpt>
      <trkpt lat="43.85239" lon="7.24648">
        <ele>594.1</ele>
        <time>2012-01-04T10:40:14Z</time>
      </trkpt>
      <trkpt lat="43.85246" lon="7.2465">
        <ele>593.1</ele>
        <time>2012-01-04T10:40:16Z</time>
      </trkpt>
      <trkpt lat="43.85252" lon="7.24645">
        <ele>592.9</ele>
        <time>2012-01-04T10:40:18Z</time>
      </trkpt>
      <trkpt lat="43.85258" lon="7.24636">
        <ele>593.6</ele>
        <time>2012-01-04T10:40:21Z</time>
      </trkpt>
      <trkpt lat="43.85262" lon="7.24627">
        <ele>593.8</ele>
        <time>2012-01-04T10:40:24Z</time>
      </trkpt>
      <trkpt lat="43.85265" lon="7.24617">
        <ele>593.9</ele>
        <time>2012-01-04T10:40:28Z</time>
      </trkpt>
      <trkpt lat="43.85268" lon="7.24606">
        <ele>595.4</ele>
        <time>2012-01-04T10:40:32Z</time>
      </trkpt>
      <trkpt lat="43.8527" lon="7.24594">
        <ele>597.3</ele>
        <time>2012-01-04T10:40:36Z</time>
      </trkpt>
      <trkpt lat="43.85271" lon="7.24591">
        <ele>597.8</ele>
        <time>2012-01-04T10:40:37Z</time>
      </trkpt>
      <trkpt lat="43.85277" lon="7.24577">
        <ele>597.8</ele>
        <time>2012-01-04T10:40:42Z</time>
      </trkpt>
      <trkpt lat="43.85282" lon="7.24571">
        <ele>597.7</ele>
        <time>2012-01-04T10:40:45Z</time>
      </trkpt>
      <trkpt lat="43.8529" lon="7.24563">
        <ele>598.1</ele>
        <time>2012-01-04T10:40:49Z</time>
      </trkpt>
      <trkpt lat="43.85296" lon="7.24559">
        <ele>599</ele>
        <time>2012-01-04T10:40:52Z</time>
      </trkpt>
      <trkpt lat="43.85302" lon="7.24554">
        <ele>599</ele>
        <time>2012-01-04T10:40:55Z</time>
      </trkpt>
      <trkpt lat="43.85308" lon="7.2455">
        <ele>599.2</ele>
        <time>2012-01-04T10:40:58Z</time>
      </trkpt>
      <trkpt lat="43.85315" lon="7.24547">
        <ele>599.1</ele>
        <time>2012-01-04T10:41:01Z</time>
      </trkpt>
      <trkpt lat="43.85322" lon="7.24545">
        <ele>599.8</ele>
        <time>2012-01-04T10:41:04Z</time>
      </trkpt>
      <trkpt lat="43.85329" lon="7.24545">
        <ele>600.5</ele>
        <time>2012-01-04T10:41:07Z</time>
      </trkpt>
      <trkpt lat="43.85337" lon="7.24545">
        <ele>600.9</ele>
        <time>2012-01-04T10:41:10Z</time>
      </trkpt>
      <trkpt lat="43.85344" lon="7.24545">
        <ele>601</ele>
        <time>2012-01-04T10:41:13Z</time>
      </trkpt>
      <trkpt lat="43.85352" lon="7.24546">
        <ele>601</ele>
        <time>2012-01-04T10:41:16Z</time>
      </trkpt>
      <trkpt lat="43.8536" lon="7.24547">
        <ele>601.8</ele>
        <time>2012-01-04T10:41:19Z</time>
      </trkpt>
      <trkpt lat="43.85368" lon="7.24548">
        <ele>602.3</ele>
        <time>2012-01-04T10:41:22Z</time>
      </trkpt>
      <trkpt lat="43.85376" lon="7.2455">
        <ele>602.3</ele>
        <time>2012-01-04T10:41:25Z</time>
      </trkpt>
      <trkpt lat="43.85384" lon="7.24552">
        <ele>602.6</ele>
        <time>2012-01-04T10:41:28Z</time>
      </trkpt>
      <trkpt lat="43.85392" lon="7.24555">
        <ele>602.7</ele>
        <time>2012-01-04T10:41:31Z</time>
      </trkpt>
      <trkpt lat="43.854" lon="7.24558">
        <ele>602.9</ele>
        <time>2012-01-04T10:41:34Z</time>
      </trkpt>
      <trkpt lat="43.85408" lon="7.24562">
        <ele>602.9</ele>
        <time>2012-01-04T10:41:37Z</time>
      </trkpt>
      <trkpt lat="43.85411" lon="7.24563">
        <ele>603.3</ele>
        <time>2012-01-04T10:41:38Z</time>
      </trkpt>
      <trkpt lat="43.85425" lon="7.24565">
        <ele>604.3</ele>
        <time>2012-01-04T10:41:43Z</time>
      </trkpt>
      <trkpt lat="43.85432" lon="7.24565">
        <ele>604.7</ele>
        <time>2012-01-04T10:41:46Z</time>
      </trkpt>
      <trkpt lat="43.8544" lon="7.24564">
        <ele>604.5</ele>
        <time>2012-01-04T10:41:49Z</time>
      </trkpt>
      <trkpt lat="43.85448" lon="7.24564">
        <ele>604</ele>
        <time>2012-01-04T10:41:52Z</time>
      </trkpt>
      <trkpt lat="43.85455" lon="7.24565">
        <ele>604.5</ele>
        <time>2012-01-04T10:41:55Z</time>
      </trkpt>
      <trkpt lat="43.85463" lon="7.24567">
        <ele>604.9</ele>
        <time>2012-01-04T10:41:58Z</time>
      </trkpt>
      <trkpt lat="43.8547" lon="7.24569">
        <ele>605.4</ele>
        <time>2012-01-04T10:42:01Z</time>
      </trkpt>
      <trkpt lat="43.85478" lon="7.24572">
        <ele>606.1</ele>
        <time>2012-01-04T10:42:04Z</time>
      </trkpt>
      <trkpt lat="43.85485" lon="7.24574">
        <ele>606.4</ele>
        <time>2012-01-04T10:42:07Z</time>
      </trkpt>
      <trkpt lat="43.85493" lon="7.24576">
        <ele>607</ele>
        <time>2012-01-04T10:42:10Z</time>
      </trkpt>
      <trkpt lat="43.85501" lon="7.24578">
        <ele>607.5</ele>
        <time>2012-01-04T10:42:13Z</time>
      </trkpt>
      <trkpt lat="43.85507" lon="7.24581">
        <ele>607.6</ele>
        <time>2012-01-04T10:42:15Z</time>
      </trkpt>
      <trkpt lat="43.85512" lon="7.24587">
        <ele>606.9</ele>
        <time>2012-01-04T10:42:17Z</time>
      </trkpt>
      <trkpt lat="43.85517" lon="7.24595">
        <ele>606.8</ele>
        <time>2012-01-04T10:42:19Z</time>
      </trkpt>
      <trkpt lat="43.85524" lon="7.24599">
        <ele>606.7</ele>
        <time>2012-01-04T10:42:21Z</time>
      </trkpt>
      <trkpt lat="43.85532" lon="7.24595">
        <ele>606.4</ele>
        <time>2012-01-04T10:42:23Z</time>
      </trkpt>
      <trkpt lat="43.85537" lon="7.24585">
        <ele>606.1</ele>
        <time>2012-01-04T10:42:25Z</time>
      </trkpt>
      <trkpt lat="43.85544" lon="7.24579">
        <ele>605.6</ele>
        <time>2012-01-04T10:42:27Z</time>
      </trkpt>
      <trkpt lat="43.85553" lon="7.24575">
        <ele>604.9</ele>
        <time>2012-01-04T10:42:29Z</time>
      </trkpt>
      <trkpt lat="43.85561" lon="7.24577">
        <ele>604.4</ele>
        <time>2012-01-04T10:42:31Z</time>
      </trkpt>
      <trkpt lat="43.85568" lon="7.24584">
        <ele>604.3</ele>
        <time>2012-01-04T10:42:33Z</time>
      </trkpt>
      <trkpt lat="43.85574" lon="7.24592">
        <ele>604.6</ele>
        <time>2012-01-04T10:42:35Z</time>
      </trkpt>
      <trkpt lat="43.8558" lon="7.246">
        <ele>604.9</ele>
        <time>2012-01-04T10:42:37Z</time>
      </trkpt>
      <trkpt lat="43.85584" lon="7.24603">
        <ele>604.7</ele>
        <time>2012-01-04T10:42:38Z</time>
      </trkpt>
      <trkpt lat="43.85588" lon="7.24606">
        <ele>604.6</ele>
        <time>2012-01-04T10:42:39Z</time>
      </trkpt>
      <trkpt lat="43.85592" lon="7.24608">
        <ele>604.4</ele>
        <time>2012-01-04T10:42:40Z</time>
      </trkpt>
      <trkpt lat="43.85601" lon="7.24611">
        <ele>604.1</ele>
        <time>2012-01-04T10:42:42Z</time>
      </trkpt>
      <trkpt lat="43.85609" lon="7.24612">
        <ele>604.5</ele>
        <time>2012-01-04T10:42:44Z</time>
      </trkpt>
      <trkpt lat="43.85617" lon="7.24614">
        <ele>604.7</ele>
        <time>2012-01-04T10:42:46Z</time>
      </trkpt>
      <trkpt lat="43.85624" lon="7.24617">
        <ele>605</ele>
        <time>2012-01-04T10:42:48Z</time>
      </trkpt>
      <trkpt lat="43.8563" lon="7.24622">
        <ele>604.9</ele>
        <time>2012-01-04T10:42:50Z</time>
      </trkpt>
      <trkpt lat="43.85637" lon="7.24628">
        <ele>604.5</ele>
        <time>2012-01-04T10:42:52Z</time>
      </trkpt>
      <trkpt lat="43.85644" lon="7.24632">
        <ele>604.1</ele>
        <time>2012-01-04T10:42:54Z</time>
      </trkpt>
      <trkpt lat="43.85651" lon="7.2463">
        <ele>603.7</ele>
        <time>2012-01-04T10:42:56Z</time>
      </trkpt>
      <trkpt lat="43.85657" lon="7.24624">
        <ele>604.1</ele>
        <time>2012-01-04T10:42:58Z</time>
      </trkpt>
      <trkpt lat="43.85662" lon="7.24615">
        <ele>604.1</ele>
        <time>2012-01-04T10:43:01Z</time>
      </trkpt>
      <trkpt lat="43.85671" lon="7.24616">
        <ele>605.4</ele>
        <time>2012-01-04T10:43:06Z</time>
      </trkpt>
      <trkpt lat="43.85676" lon="7.24623">
        <ele>606.7</ele>
        <time>2012-01-04T10:43:10Z</time>
      </trkpt>
      <trkpt lat="43.85682" lon="7.2463">
        <ele>607.1</ele>
        <time>2012-01-04T10:43:14Z</time>
      </trkpt>
      <trkpt lat="43.85688" lon="7.24635">
        <ele>607.5</ele>
        <time>2012-01-04T10:43:18Z</time>
      </trkpt>
      <trkpt lat="43.85695" lon="7.24639">
        <ele>607.9</ele>
        <time>2012-01-04T10:43:22Z</time>
      </trkpt>
      <trkpt lat="43.85703" lon="7.24641">
        <ele>608.2</ele>
        <time>2012-01-04T10:43:27Z</time>
      </trkpt>
      <trkpt lat="43.85711" lon="7.24644">
        <ele>609.2</ele>
        <time>2012-01-04T10:43:32Z</time>
      </trkpt>
      <trkpt lat="43.85718" lon="7.24648">
        <ele>610.4</ele>
        <time>2012-01-04T10:43:37Z</time>
      </trkpt>
      <trkpt lat="43.85726" lon="7.24651">
        <ele>610.4</ele>
        <time>2012-01-04T10:43:42Z</time>
      </trkpt>
      <trkpt lat="43.85727" lon="7.24652">
        <ele>610.4</ele>
        <time>2012-01-04T10:43:43Z</time>
      </trkpt>
      <trkpt lat="43.85741" lon="7.2466">
        <ele>612</ele>
        <time>2012-01-04T10:43:52Z</time>
      </trkpt>
      <trkpt lat="43.85748" lon="7.24666">
        <ele>613.3</ele>
        <time>2012-01-04T10:43:58Z</time>
      </trkpt>
      <trkpt lat="43.85754" lon="7.24672">
        <ele>614.9</ele>
        <time>2012-01-04T10:44:04Z</time>
      </trkpt>
      <trkpt lat="43.85762" lon="7.24677">
        <ele>615.2</ele>
        <time>2012-01-04T10:44:10Z</time>
      </trkpt>
      <trkpt lat="43.85768" lon="7.24683">
        <ele>616.4</ele>
        <time>2012-01-04T10:44:16Z</time>
      </trkpt>
      <trkpt lat="43.85775" lon="7.2469">
        <ele>618.1</ele>
        <time>2012-01-04T10:44:22Z</time>
      </trkpt>
      <trkpt lat="43.8578" lon="7.24701">
        <ele>620.4</ele>
        <time>2012-01-04T10:44:29Z</time>
      </trkpt>
      <trkpt lat="43.85786" lon="7.24709">
        <ele>621.8</ele>
        <time>2012-01-04T10:44:35Z</time>
      </trkpt>
      <trkpt lat="43.85791" lon="7.24719">
        <ele>622.6</ele>
        <time>2012-01-04T10:44:41Z</time>
      </trkpt>
      <trkpt lat="43.85795" lon="7.24729">
        <ele>624.3</ele>
        <time>2012-01-04T10:44:48Z</time>
      </trkpt>
      <trkpt lat="43.85796" lon="7.24731">
        <ele>624.6</ele>
        <time>2012-01-04T10:44:49Z</time>
      </trkpt>
      <trkpt lat="43.85804" lon="7.24749">
        <ele>627</ele>
        <time>2012-01-04T10:45:02Z</time>
      </trkpt>
      <trkpt lat="43.85812" lon="7.24752">
        <ele>628.7</ele>
        <time>2012-01-04T10:45:09Z</time>
      </trkpt>
      <trkpt lat="43.85814" lon="7.24741">
        <ele>629.5</ele>
        <time>2012-01-04T10:45:17Z</time>
      </trkpt>
      <trkpt lat="43.8581" lon="7.2473">
        <ele>630.1</ele>
        <time>2012-01-04T10:45:23Z</time>
      </trkpt>
      <trkpt lat="43.85809" lon="7.24719">
        <ele>630.8</ele>
        <time>2012-01-04T10:45:28Z</time>
      </trkpt>
      <trkpt lat="43.85808" lon="7.24708">
        <ele>631.4</ele>
        <time>2012-01-04T10:45:33Z</time>
      </trkpt>
      <trkpt lat="43.85806" lon="7.24697">
        <ele>632.6</ele>
        <time>2012-01-04T10:45:38Z</time>
      </trkpt>
      <trkpt lat="43.85804" lon="7.24687">
        <ele>633.1</ele>
        <time>2012-01-04T10:45:43Z</time>
      </trkpt>
      <trkpt lat="43.85802" lon="7.24675">
        <ele>634.6</ele>
        <time>2012-01-04T10:45:49Z</time>
      </trkpt>
      <trkpt lat="43.85803" lon="7.24673">
        <ele>634.7</ele>
        <time>2012-01-04T10:45:50Z</time>
      </trkpt>
      <trkpt lat="43.85812" lon="7.2469">
        <ele>635.6</ele>
        <time>2012-01-04T10:46:02Z</time>
      </trkpt>
      <trkpt lat="43.85816" lon="7.24701">
        <ele>636.5</ele>
        <time>2012-01-04T10:46:07Z</time>
      </trkpt>
      <trkpt lat="43.85821" lon="7.24709">
        <ele>637</ele>
        <time>2012-01-04T10:46:12Z</time>
      </trkpt>
      <trkpt lat="43.85826" lon="7.24718">
        <ele>638.5</ele>
        <time>2012-01-04T10:46:18Z</time>
      </trkpt>
      <trkpt lat="43.85831" lon="7.24728">
        <ele>639.8</ele>
        <time>2012-01-04T10:46:24Z</time>
      </trkpt>
      <trkpt lat="43.85835" lon="7.24738">
        <ele>640.6</ele>
        <time>2012-01-04T10:46:31Z</time>
      </trkpt>
      <trkpt lat="43.85841" lon="7.24746">
        <ele>641.7</ele>
        <time>2012-01-04T10:46:38Z</time>
      </trkpt>
      <trkpt lat="43.85849" lon="7.2475">
        <ele>642.7</ele>
        <time>2012-01-04T10:46:44Z</time>
      </trkpt>
      <trkpt lat="43.85857" lon="7.24754">
        <ele>644</ele>
        <time>2012-01-04T10:46:50Z</time>
      </trkpt>
      <trkpt lat="43.85858" lon="7.24754">
        <ele>644.2</ele>
        <time>2012-01-04T10:46:51Z</time>
      </trkpt>
      <trkpt lat="43.85868" lon="7.24739">
        <ele>645.7</ele>
        <time>2012-01-04T10:47:02Z</time>
      </trkpt>
      <trkpt lat="43.85869" lon="7.24727">
        <ele>646.4</ele>
        <time>2012-01-04T10:47:07Z</time>
      </trkpt>
      <trkpt lat="43.85871" lon="7.24718">
        <ele>646.7</ele>
        <time>2012-01-04T10:47:11Z</time>
      </trkpt>
      <trkpt lat="43.85874" lon="7.24708">
        <ele>646.9</ele>
        <time>2012-01-04T10:47:15Z</time>
      </trkpt>
      <trkpt lat="43.85876" lon="7.24697">
        <ele>647</ele>
        <time>2012-01-04T10:47:19Z</time>
      </trkpt>
      <trkpt lat="43.85879" lon="7.24686">
        <ele>647.1</ele>
        <time>2012-01-04T10:47:24Z</time>
      </trkpt>
      <trkpt lat="43.85876" lon="7.24675">
        <ele>646.2</ele>
        <time>2012-01-04T10:47:29Z</time>
      </trkpt>
      <trkpt lat="43.85874" lon="7.24664">
        <ele>645.8</ele>
        <time>2012-01-04T10:47:33Z</time>
      </trkpt>
      <trkpt lat="43.85875" lon="7.24652">
        <ele>646.6</ele>
        <time>2012-01-04T10:47:37Z</time>
      </trkpt>
      <trkpt lat="43.85879" lon="7.24644">
        <ele>646.9</ele>
        <time>2012-01-04T10:47:40Z</time>
      </trkpt>
      <trkpt lat="43.85884" lon="7.24636">
        <ele>646.9</ele>
        <time>2012-01-04T10:47:43Z</time>
      </trkpt>
      <trkpt lat="43.8589" lon="7.24628">
        <ele>647.1</ele>
        <time>2012-01-04T10:47:47Z</time>
      </trkpt>
      <trkpt lat="43.85896" lon="7.24623">
        <ele>647.6</ele>
        <time>2012-01-04T10:47:51Z</time>
      </trkpt>
      <trkpt lat="43.85898" lon="7.24623">
        <ele>647.8</ele>
        <time>2012-01-04T10:47:52Z</time>
      </trkpt>
      <trkpt lat="43.85913" lon="7.24617">
        <ele>648.6</ele>
        <time>2012-01-04T10:48:01Z</time>
      </trkpt>
      <trkpt lat="43.85921" lon="7.24614">
        <ele>648.8</ele>
        <time>2012-01-04T10:48:07Z</time>
      </trkpt>
      <trkpt lat="43.85928" lon="7.2461">
        <ele>650.4</ele>
        <time>2012-01-04T10:48:12Z</time>
      </trkpt>
      <trkpt lat="43.85935" lon="7.24602">
        <ele>651.3</ele>
        <time>2012-01-04T10:48:18Z</time>
      </trkpt>
      <trkpt lat="43.85938" lon="7.24591">
        <ele>652.6</ele>
        <time>2012-01-04T10:48:23Z</time>
      </trkpt>
      <trkpt lat="43.85939" lon="7.2458">
        <ele>652.8</ele>
        <time>2012-01-04T10:48:28Z</time>
      </trkpt>
      <trkpt lat="43.8594" lon="7.24569">
        <ele>653.4</ele>
        <time>2012-01-04T10:48:33Z</time>
      </trkpt>
      <trkpt lat="43.85941" lon="7.24557">
        <ele>655.1</ele>
        <time>2012-01-04T10:48:38Z</time>
      </trkpt>
      <trkpt lat="43.85942" lon="7.24546">
        <ele>655.7</ele>
        <time>2012-01-04T10:48:43Z</time>
      </trkpt>
      <trkpt lat="43.8594" lon="7.24534">
        <ele>656.3</ele>
        <time>2012-01-04T10:48:49Z</time>
      </trkpt>
      <trkpt lat="43.85935" lon="7.24526">
        <ele>657.3</ele>
        <time>2012-01-04T10:48:54Z</time>
      </trkpt>
      <trkpt lat="43.85934" lon="7.24524">
        <ele>657.2</ele>
        <time>2012-01-04T10:48:55Z</time>
      </trkpt>
      <trkpt lat="43.85921" lon="7.24514">
        <ele>658.6</ele>
        <time>2012-01-04T10:49:06Z</time>
      </trkpt>
      <trkpt lat="43.85916" lon="7.24505">
        <ele>659.6</ele>
        <time>2012-01-04T10:49:12Z</time>
      </trkpt>
      <trkpt lat="43.85921" lon="7.24494">
        <ele>662</ele>
        <time>2012-01-04T10:49:20Z</time>
      </trkpt>
      <trkpt lat="43.85927" lon="7.24488">
        <ele>662.7</ele>
        <time>2012-01-04T10:49:26Z</time>
      </trkpt>
      <trkpt lat="43.85934" lon="7.2448">
        <ele>663.2</ele>
        <time>2012-01-04T10:49:32Z</time>
      </trkpt>
      <trkpt lat="43.8594" lon="7.24471">
        <ele>664.6</ele>
        <time>2012-01-04T10:49:38Z</time>
      </trkpt>
      <trkpt lat="43.85947" lon="7.24467">
        <ele>665.2</ele>
        <time>2012-01-04T10:49:43Z</time>
      </trkpt>
      <trkpt lat="43.85955" lon="7.24464">
        <ele>666.4</ele>
        <time>2012-01-04T10:49:48Z</time>
      </trkpt>
      <trkpt lat="43.85963" lon="7.2446">
        <ele>666</ele>
        <time>2012-01-04T10:49:53Z</time>
      </trkpt>
      <trkpt lat="43.8597" lon="7.24456">
        <ele>666.8</ele>
        <time>2012-01-04T10:49:58Z</time>
      </trkpt>
      <trkpt lat="43.85972" lon="7.24455">
        <ele>666.9</ele>
        <time>2012-01-04T10:49:59Z</time>
      </trkpt>
      <trkpt lat="43.85986" lon="7.24447">
        <ele>667.9</ele>
        <time>2012-01-04T10:50:08Z</time>
      </trkpt>
      <trkpt lat="43.85992" lon="7.24441">
        <ele>669</ele>
        <time>2012-01-04T10:50:13Z</time>
      </trkpt>
      <trkpt lat="43.85998" lon="7.24433">
        <ele>669.4</ele>
        <time>2012-01-04T10:50:18Z</time>
      </trkpt>
      <trkpt lat="43.86006" lon="7.24428">
        <ele>670.3</ele>
        <time>2012-01-04T10:50:24Z</time>
      </trkpt>
      <trkpt lat="43.86014" lon="7.24423">
        <ele>671.6</ele>
        <time>2012-01-04T10:50:30Z</time>
      </trkpt>
      <trkpt lat="43.86022" lon="7.24419">
        <ele>672.7</ele>
        <time>2012-01-04T10:50:36Z</time>
      </trkpt>
      <trkpt lat="43.86029" lon="7.24413">
        <ele>673.5</ele>
        <time>2012-01-04T10:50:41Z</time>
      </trkpt>
      <trkpt lat="43.86035" lon="7.24407">
        <ele>674.1</ele>
        <time>2012-01-04T10:50:46Z</time>
      </trkpt>
      <trkpt lat="43.86042" lon="7.24401">
        <ele>674.2</ele>
        <time>2012-01-04T10:50:51Z</time>
      </trkpt>
      <trkpt lat="43.86049" lon="7.24396">
        <ele>674.8</ele>
        <time>2012-01-04T10:50:56Z</time>
      </trkpt>
      <trkpt lat="43.86056" lon="7.24391">
        <ele>675.7</ele>
        <time>2012-01-04T10:51:01Z</time>
      </trkpt>
      <trkpt lat="43.86057" lon="7.24391">
        <ele>675.7</ele>
        <time>2012-01-04T10:51:02Z</time>
      </trkpt>
      <trkpt lat="43.86069" lon="7.24377">
        <ele>676.3</ele>
        <time>2012-01-04T10:51:12Z</time>
      </trkpt>
      <trkpt lat="43.86075" lon="7.24369">
        <ele>677.9</ele>
        <time>2012-01-04T10:51:18Z</time>
      </trkpt>
      <trkpt lat="43.86082" lon="7.24363">
        <ele>678.6</ele>
        <time>2012-01-04T10:51:24Z</time>
      </trkpt>
      <trkpt lat="43.86089" lon="7.24357">
        <ele>679.2</ele>
        <time>2012-01-04T10:51:30Z</time>
      </trkpt>
      <trkpt lat="43.86097" lon="7.24354">
        <ele>680.7</ele>
        <time>2012-01-04T10:51:36Z</time>
      </trkpt>
      <trkpt lat="43.86104" lon="7.2435">
        <ele>681.3</ele>
        <time>2012-01-04T10:51:42Z</time>
      </trkpt>
      <trkpt lat="43.86111" lon="7.24345">
        <ele>681.6</ele>
        <time>2012-01-04T10:51:48Z</time>
      </trkpt>
      <trkpt lat="43.86119" lon="7.24342">
        <ele>683.1</ele>
        <time>2012-01-04T10:51:54Z</time>
      </trkpt>
      <trkpt lat="43.86127" lon="7.24341">
        <ele>684.6</ele>
        <time>2012-01-04T10:52:00Z</time>
      </trkpt>
      <trkpt lat="43.86135" lon="7.24341">
        <ele>685.6</ele>
        <time>2012-01-04T10:52:05Z</time>
      </trkpt>
      <trkpt lat="43.86137" lon="7.24341">
        <ele>685.5</ele>
        <time>2012-01-04T10:52:06Z</time>
      </trkpt>
      <trkpt lat="43.86151" lon="7.24339">
        <ele>686.1</ele>
        <time>2012-01-04T10:52:15Z</time>
      </trkpt>
      <trkpt lat="43.86158" lon="7.24335">
        <ele>686.8</ele>
        <time>2012-01-04T10:52:20Z</time>
      </trkpt>
      <trkpt lat="43.86164" lon="7.24328">
        <ele>687.1</ele>
        <time>2012-01-04T10:52:25Z</time>
      </trkpt>
      <trkpt lat="43.8617" lon="7.24321">
        <ele>688</ele>
        <time>2012-01-04T10:52:30Z</time>
      </trkpt>
      <trkpt lat="43.86174" lon="7.24313">
        <ele>689.1</ele>
        <time>2012-01-04T10:52:35Z</time>
      </trkpt>
      <trkpt lat="43.86178" lon="7.24302">
        <ele>690</ele>
        <time>2012-01-04T10:52:41Z</time>
      </trkpt>
      <trkpt lat="43.86177" lon="7.2429">
        <ele>691.2</ele>
        <time>2012-01-04T10:52:53Z</time>
      </trkpt>
      <trkpt lat="43.86175" lon="7.24279">
        <ele>692.3</ele>
        <time>2012-01-04T10:53:16Z</time>
      </trkpt>
      <trkpt lat="43.86175" lon="7.24277">
        <ele>692.4</ele>
        <time>2012-01-04T10:53:17Z</time>
      </trkpt>
      <trkpt lat="43.86178" lon="7.24257">
        <ele>692.4</ele>
        <time>2012-01-04T10:53:26Z</time>
      </trkpt>
      <trkpt lat="43.86181" lon="7.24247">
        <ele>693.4</ele>
        <time>2012-01-04T10:53:31Z</time>
      </trkpt>
      <trkpt lat="43.86185" lon="7.24237">
        <ele>693.7</ele>
        <time>2012-01-04T10:53:36Z</time>
      </trkpt>
      <trkpt lat="43.86189" lon="7.24228">
        <ele>694.1</ele>
        <time>2012-01-04T10:53:41Z</time>
      </trkpt>
      <trkpt lat="43.86193" lon="7.24219">
        <ele>695.5</ele>
        <time>2012-01-04T10:53:46Z</time>
      </trkpt>
      <trkpt lat="43.86196" lon="7.24209">
        <ele>695.8</ele>
        <time>2012-01-04T10:53:51Z</time>
      </trkpt>
      <trkpt lat="43.862" lon="7.24198">
        <ele>696.7</ele>
        <time>2012-01-04T10:53:56Z</time>
      </trkpt>
      <trkpt lat="43.86202" lon="7.24186">
        <ele>697.4</ele>
        <time>2012-01-04T10:54:01Z</time>
      </trkpt>
      <trkpt lat="43.86201" lon="7.24175">
        <ele>697.9</ele>
        <time>2012-01-04T10:54:06Z</time>
      </trkpt>
      <trkpt lat="43.86197" lon="7.24165">
        <ele>698.3</ele>
        <time>2012-01-04T10:54:10Z</time>
      </trkpt>
      <trkpt lat="43.86191" lon="7.24158">
        <ele>698.6</ele>
        <time>2012-01-04T10:54:13Z</time>
      </trkpt>
      <trkpt lat="43.86185" lon="7.24151">
        <ele>698.4</ele>
        <time>2012-01-04T10:54:16Z</time>
      </trkpt>
      <trkpt lat="43.86179" lon="7.24145">
        <ele>698.4</ele>
        <time>2012-01-04T10:54:19Z</time>
      </trkpt>
      <trkpt lat="43.86177" lon="7.24143">
        <ele>698.5</ele>
        <time>2012-01-04T10:54:20Z</time>
      </trkpt>
      <trkpt lat="43.86167" lon="7.24134">
        <ele>698.8</ele>
        <time>2012-01-04T10:54:25Z</time>
      </trkpt>
      <trkpt lat="43.8616" lon="7.24127">
        <ele>699.8</ele>
        <time>2012-01-04T10:54:29Z</time>
      </trkpt>
      <trkpt lat="43.86155" lon="7.24117">
        <ele>699.6</ele>
        <time>2012-01-04T10:54:33Z</time>
      </trkpt>
      <trkpt lat="43.86153" lon="7.24107">
        <ele>700.2</ele>
        <time>2012-01-04T10:54:37Z</time>
      </trkpt>
      <trkpt lat="43.86153" lon="7.24095">
        <ele>701.1</ele>
        <time>2012-01-04T10:54:42Z</time>
      </trkpt>
      <trkpt lat="43.86155" lon="7.24085">
        <ele>701.9</ele>
        <time>2012-01-04T10:54:46Z</time>
      </trkpt>
      <trkpt lat="43.86159" lon="7.24075">
        <ele>701.7</ele>
        <time>2012-01-04T10:54:50Z</time>
      </trkpt>
      <trkpt lat="43.86164" lon="7.24065">
        <ele>702.7</ele>
        <time>2012-01-04T10:54:54Z</time>
      </trkpt>
      <trkpt lat="43.86169" lon="7.24058">
        <ele>703.7</ele>
        <time>2012-01-04T10:54:57Z</time>
      </trkpt>
      <trkpt lat="43.86174" lon="7.24049">
        <ele>703</ele>
        <time>2012-01-04T10:55:00Z</time>
      </trkpt>
      <trkpt lat="43.86178" lon="7.2404">
        <ele>703.1</ele>
        <time>2012-01-04T10:55:03Z</time>
      </trkpt>
      <trkpt lat="43.86182" lon="7.24031">
        <ele>703.7</ele>
        <time>2012-01-04T10:55:06Z</time>
      </trkpt>
      <trkpt lat="43.86188" lon="7.24024">
        <ele>703.4</ele>
        <time>2012-01-04T10:55:09Z</time>
      </trkpt>
      <trkpt lat="43.86192" lon="7.24016">
        <ele>702.5</ele>
        <time>2012-01-04T10:55:12Z</time>
      </trkpt>
      <trkpt lat="43.86196" lon="7.24007">
        <ele>702.6</ele>
        <time>2012-01-04T10:55:15Z</time>
      </trkpt>
      <trkpt lat="43.86198" lon="7.23998">
        <ele>703.3</ele>
        <time>2012-01-04T10:55:18Z</time>
      </trkpt>
      <trkpt lat="43.86197" lon="7.23988">
        <ele>703.6</ele>
        <time>2012-01-04T10:55:21Z</time>
      </trkpt>
      <trkpt lat="43.86196" lon="7.23985">
        <ele>703.1</ele>
        <time>2012-01-04T10:55:22Z</time>
      </trkpt>
      <trkpt lat="43.86197" lon="7.23967">
        <ele>703.1</ele>
        <time>2012-01-04T10:55:27Z</time>
      </trkpt>
      <trkpt lat="43.86203" lon="7.23959">
        <ele>703.5</ele>
        <time>2012-01-04T10:55:30Z</time>
      </trkpt>
      <trkpt lat="43.86208" lon="7.23953">
        <ele>704.3</ele>
        <time>2012-01-04T10:55:33Z</time>
      </trkpt>
      <trkpt lat="43.86214" lon="7.23947">
        <ele>704.9</ele>
        <time>2012-01-04T10:55:36Z</time>
      </trkpt>
      <trkpt lat="43.86217" lon="7.23938">
        <ele>704.8</ele>
        <time>2012-01-04T10:55:39Z</time>
      </trkpt>
      <trkpt lat="43.86217" lon="7.23928">
        <ele>705.6</ele>
        <time>2012-01-04T10:55:42Z</time>
      </trkpt>
      <trkpt lat="43.8622" lon="7.23919">
        <ele>704.9</ele>
        <time>2012-01-04T10:55:45Z</time>
      </trkpt>
      <trkpt lat="43.86224" lon="7.2391">
        <ele>704.8</ele>
        <time>2012-01-04T10:55:48Z</time>
      </trkpt>
      <trkpt lat="43.8623" lon="7.23903">
        <ele>705.1</ele>
        <time>2012-01-04T10:55:51Z</time>
      </trkpt>
      <trkpt lat="43.86236" lon="7.23896">
        <ele>705.3</ele>
        <time>2012-01-04T10:55:54Z</time>
      </trkpt>
      <trkpt lat="43.86243" lon="7.23889">
        <ele>706.7</ele>
        <time>2012-01-04T10:55:58Z</time>
      </trkpt>
      <trkpt lat="43.86249" lon="7.23883">
        <ele>707.1</ele>
        <time>2012-01-04T10:56:02Z</time>
      </trkpt>
      <trkpt lat="43.86255" lon="7.23875">
        <ele>707.8</ele>
        <time>2012-01-04T10:56:06Z</time>
      </trkpt>
      <trkpt lat="43.86261" lon="7.2387">
        <ele>707.9</ele>
        <time>2012-01-04T10:56:10Z</time>
      </trkpt>
      <trkpt lat="43.86268" lon="7.23866">
        <ele>707.9</ele>
        <time>2012-01-04T10:56:14Z</time>
      </trkpt>
      <trkpt lat="43.86276" lon="7.23861">
        <ele>708.8</ele>
        <time>2012-01-04T10:56:19Z</time>
      </trkpt>
      <trkpt lat="43.86283" lon="7.23857">
        <ele>708.4</ele>
        <time>2012-01-04T10:56:23Z</time>
      </trkpt>
      <trkpt lat="43.86285" lon="7.23856">
        <ele>708.5</ele>
        <time>2012-01-04T10:56:24Z</time>
      </trkpt>
      <trkpt lat="43.86298" lon="7.23846">
        <ele>709</ele>
        <time>2012-01-04T10:56:31Z</time>
      </trkpt>
      <trkpt lat="43.86304" lon="7.23842">
        <ele>708.8</ele>
        <time>2012-01-04T10:56:34Z</time>
      </trkpt>
      <trkpt lat="43.86311" lon="7.23841">
        <ele>708.4</ele>
        <time>2012-01-04T10:56:37Z</time>
      </trkpt>
      <trkpt lat="43.86319" lon="7.23844">
        <ele>708.1</ele>
        <time>2012-01-04T10:56:41Z</time>
      </trkpt>
      <trkpt lat="43.86324" lon="7.23851">
        <ele>709.1</ele>
        <time>2012-01-04T10:56:45Z</time>
      </trkpt>
      <trkpt lat="43.86328" lon="7.23862">
        <ele>709.6</ele>
        <time>2012-01-04T10:56:50Z</time>
      </trkpt>
      <trkpt lat="43.86331" lon="7.23872">
        <ele>709.6</ele>
        <time>2012-01-04T10:56:54Z</time>
      </trkpt>
      <trkpt lat="43.86334" lon="7.23882">
        <ele>709.7</ele>
        <time>2012-01-04T10:56:58Z</time>
      </trkpt>
      <trkpt lat="43.86337" lon="7.23891">
        <ele>710.6</ele>
        <time>2012-01-04T10:57:02Z</time>
      </trkpt>
      <trkpt lat="43.86343" lon="7.239">
        <ele>710.7</ele>
        <time>2012-01-04T10:57:07Z</time>
      </trkpt>
      <trkpt lat="43.8635" lon="7.23905">
        <ele>711.1</ele>
        <time>2012-01-04T10:57:11Z</time>
      </trkpt>
      <trkpt lat="43.86357" lon="7.23908">
        <ele>712.1</ele>
        <time>2012-01-04T10:57:15Z</time>
      </trkpt>
      <trkpt lat="43.86364" lon="7.2391">
        <ele>713.1</ele>
        <time>2012-01-04T10:57:19Z</time>
      </trkpt>
      <trkpt lat="43.86372" lon="7.23911">
        <ele>713.2</ele>
        <time>2012-01-04T10:57:23Z</time>
      </trkpt>
      <trkpt lat="43.8638" lon="7.23912">
        <ele>713.8</ele>
        <time>2012-01-04T10:57:27Z</time>
      </trkpt>
      <trkpt lat="43.86382" lon="7.23911">
        <ele>713.9</ele>
        <time>2012-01-04T10:57:28Z</time>
      </trkpt>
      <trkpt lat="43.86396" lon="7.23915">
        <ele>715.9</ele>
        <time>2012-01-04T10:57:36Z</time>
      </trkpt>
      <trkpt lat="43.86404" lon="7.23921">
        <ele>716.1</ele>
        <time>2012-01-04T10:57:41Z</time>
      </trkpt>
      <trkpt lat="43.86411" lon="7.23927">
        <ele>716.2</ele>
        <time>2012-01-04T10:57:46Z</time>
      </trkpt>
      <trkpt lat="43.86419" lon="7.23929">
        <ele>716.7</ele>
        <time>2012-01-04T10:57:50Z</time>
      </trkpt>
      <trkpt lat="43.86426" lon="7.23929">
        <ele>717.1</ele>
        <time>2012-01-04T10:57:54Z</time>
      </trkpt>
      <trkpt lat="43.86435" lon="7.23927">
        <ele>718</ele>
        <time>2012-01-04T10:57:59Z</time>
      </trkpt>
      <trkpt lat="43.86444" lon="7.23928">
        <ele>719</ele>
        <time>2012-01-04T10:58:09Z</time>
      </trkpt>
      <trkpt lat="43.86452" lon="7.23927">
        <ele>720.2</ele>
        <time>2012-01-04T10:59:01Z</time>
      </trkpt>
      <trkpt lat="43.86453" lon="7.23926">
        <ele>720.2</ele>
        <time>2012-01-04T10:59:02Z</time>
      </trkpt>
      <trkpt lat="43.86467" lon="7.23924">
        <ele>720.9</ele>
        <time>2012-01-04T10:59:11Z</time>
      </trkpt>
      <trkpt lat="43.86475" lon="7.23921">
        <ele>722.9</ele>
        <time>2012-01-04T10:59:17Z</time>
      </trkpt>
      <trkpt lat="43.86484" lon="7.23922">
        <ele>723.9</ele>
        <time>2012-01-04T11:03:13Z</time>
      </trkpt>
      <trkpt lat="43.86486" lon="7.23922">
        <ele>723.6</ele>
        <time>2012-01-04T11:03:14Z</time>
      </trkpt>
      <trkpt lat="43.865" lon="7.23918">
        <ele>724.6</ele>
        <time>2012-01-04T11:03:22Z</time>
      </trkpt>
      <trkpt lat="43.86507" lon="7.23911">
        <ele>724.8</ele>
        <time>2012-01-04T11:03:27Z</time>
      </trkpt>
      <trkpt lat="43.86512" lon="7.23901">
        <ele>726.1</ele>
        <time>2012-01-04T11:03:32Z</time>
      </trkpt>
      <trkpt lat="43.86516" lon="7.23891">
        <ele>725.4</ele>
        <time>2012-01-04T11:03:37Z</time>
      </trkpt>
      <trkpt lat="43.86519" lon="7.23882">
        <ele>726.5</ele>
        <time>2012-01-04T11:03:42Z</time>
      </trkpt>
      <trkpt lat="43.86525" lon="7.23873">
        <ele>726.6</ele>
        <time>2012-01-04T11:03:47Z</time>
      </trkpt>
      <trkpt lat="43.8653" lon="7.23865">
        <ele>727.3</ele>
        <time>2012-01-04T11:03:52Z</time>
      </trkpt>
      <trkpt lat="43.86537" lon="7.23857">
        <ele>728.1</ele>
        <time>2012-01-04T11:03:58Z</time>
      </trkpt>
      <trkpt lat="43.86545" lon="7.23852">
        <ele>729.1</ele>
        <time>2012-01-04T11:04:04Z</time>
      </trkpt>
      <trkpt lat="43.86553" lon="7.23854">
        <ele>731.3</ele>
        <time>2012-01-04T11:04:10Z</time>
      </trkpt>
      <trkpt lat="43.8656" lon="7.23859">
        <ele>732.1</ele>
        <time>2012-01-04T11:04:16Z</time>
      </trkpt>
      <trkpt lat="43.86561" lon="7.23859">
        <ele>732.2</ele>
        <time>2012-01-04T11:04:17Z</time>
      </trkpt>
      <trkpt lat="43.86576" lon="7.23863">
        <ele>733.2</ele>
        <time>2012-01-04T11:04:27Z</time>
      </trkpt>
      <trkpt lat="43.86585" lon="7.23867">
        <ele>734.2</ele>
        <time>2012-01-04T11:04:33Z</time>
      </trkpt>
      <trkpt lat="43.86593" lon="7.23872">
        <ele>735.1</ele>
        <time>2012-01-04T11:04:39Z</time>
      </trkpt>
      <trkpt lat="43.86599" lon="7.23877">
        <ele>735.5</ele>
        <time>2012-01-04T11:04:44Z</time>
      </trkpt>
      <trkpt lat="43.86606" lon="7.23884">
        <ele>739.4</ele>
        <time>2012-01-04T11:07:21Z</time>
      </trkpt>
      <trkpt lat="43.86607" lon="7.23884">
        <ele>739.3</ele>
        <time>2012-01-04T11:07:22Z</time>
      </trkpt>
      <trkpt lat="43.86619" lon="7.239">
        <ele>739</ele>
        <time>2012-01-04T11:07:35Z</time>
      </trkpt>
      <trkpt lat="43.86623" lon="7.2391">
        <ele>740</ele>
        <time>2012-01-04T11:07:41Z</time>
      </trkpt>
      <trkpt lat="43.86627" lon="7.23921">
        <ele>740.7</ele>
        <time>2012-01-04T11:07:47Z</time>
      </trkpt>
      <trkpt lat="43.86629" lon="7.23932">
        <ele>741.8</ele>
        <time>2012-01-04T11:07:53Z</time>
      </trkpt>
      <trkpt lat="43.86632" lon="7.23942">
        <ele>743.1</ele>
        <time>2012-01-04T11:07:59Z</time>
      </trkpt>
      <trkpt lat="43.86635" lon="7.23953">
        <ele>743.6</ele>
        <time>2012-01-04T11:08:05Z</time>
      </trkpt>
      <trkpt lat="43.86639" lon="7.23964">
        <ele>745.1</ele>
        <time>2012-01-04T11:08:11Z</time>
      </trkpt>
      <trkpt lat="43.86643" lon="7.23973">
        <ele>744.9</ele>
        <time>2012-01-04T11:08:16Z</time>
      </trkpt>
      <trkpt lat="43.86647" lon="7.23983">
        <ele>746.1</ele>
        <time>2012-01-04T11:08:22Z</time>
      </trkpt>
      <trkpt lat="43.86648" lon="7.23985">
        <ele>745.8</ele>
        <time>2012-01-04T11:08:23Z</time>
      </trkpt>
      <trkpt lat="43.86661" lon="7.23998">
        <ele>747.8</ele>
        <time>2012-01-04T11:08:34Z</time>
      </trkpt>
      <trkpt lat="43.86668" lon="7.24004">
        <ele>749.1</ele>
        <time>2012-01-04T11:08:40Z</time>
      </trkpt>
      <trkpt lat="43.86675" lon="7.2401">
        <ele>749.9</ele>
        <time>2012-01-04T11:08:46Z</time>
      </trkpt>
      <trkpt lat="43.86682" lon="7.24017">
        <ele>751.4</ele>
        <time>2012-01-04T11:09:42Z</time>
      </trkpt>
      <trkpt lat="43.86683" lon="7.24018">
        <ele>751.4</ele>
        <time>2012-01-04T11:09:43Z</time>
      </trkpt>
      <trkpt lat="43.86688" lon="7.24038">
        <ele>752.6</ele>
        <time>2012-01-04T11:09:54Z</time>
      </trkpt>
      <trkpt lat="43.86688" lon="7.2405">
        <ele>752.8</ele>
        <time>2012-01-04T11:09:59Z</time>
      </trkpt>
      <trkpt lat="43.86686" lon="7.24061">
        <ele>753.3</ele>
        <time>2012-01-04T11:10:04Z</time>
      </trkpt>
      <trkpt lat="43.86682" lon="7.24071">
        <ele>754.3</ele>
        <time>2012-01-04T11:10:09Z</time>
      </trkpt>
      <trkpt lat="43.86677" lon="7.2408">
        <ele>755.3</ele>
        <time>2012-01-04T11:10:14Z</time>
      </trkpt>
      <trkpt lat="43.86672" lon="7.24088">
        <ele>755.6</ele>
        <time>2012-01-04T11:10:19Z</time>
      </trkpt>
      <trkpt lat="43.86668" lon="7.24099">
        <ele>756.1</ele>
        <time>2012-01-04T11:10:24Z</time>
      </trkpt>
      <trkpt lat="43.86663" lon="7.24109">
        <ele>756.8</ele>
        <time>2012-01-04T11:10:29Z</time>
      </trkpt>
      <trkpt lat="43.86657" lon="7.24117">
        <ele>757.8</ele>
        <time>2012-01-04T11:10:34Z</time>
      </trkpt>
      <trkpt lat="43.8665" lon="7.24122">
        <ele>758.4</ele>
        <time>2012-01-04T11:10:38Z</time>
      </trkpt>
      <trkpt lat="43.86643" lon="7.24126">
        <ele>758.1</ele>
        <time>2012-01-04T11:10:42Z</time>
      </trkpt>
      <trkpt lat="43.86638" lon="7.24132">
        <ele>757.4</ele>
        <time>2012-01-04T11:10:45Z</time>
      </trkpt>
      <trkpt lat="43.86636" lon="7.24134">
        <ele>757.5</ele>
        <time>2012-01-04T11:10:46Z</time>
      </trkpt>
      <trkpt lat="43.86625" lon="7.24146">
        <ele>757.6</ele>
        <time>2012-01-04T11:10:51Z</time>
      </trkpt>
      <trkpt lat="43.86618" lon="7.24151">
        <ele>757.5</ele>
        <time>2012-01-04T11:10:55Z</time>
      </trkpt>
      <trkpt lat="43.86611" lon="7.24153">
        <ele>758.6</ele>
        <time>2012-01-04T11:10:59Z</time>
      </trkpt>
      <trkpt lat="43.86604" lon="7.24157">
        <ele>759.6</ele>
        <time>2012-01-04T11:11:03Z</time>
      </trkpt>
      <trkpt lat="43.86598" lon="7.24161">
        <ele>759.6</ele>
        <time>2012-01-04T11:11:07Z</time>
      </trkpt>
      <trkpt lat="43.8659" lon="7.24168">
        <ele>760.7</ele>
        <time>2012-01-04T11:11:12Z</time>
      </trkpt>
      <trkpt lat="43.86583" lon="7.24173">
        <ele>761.3</ele>
        <time>2012-01-04T11:11:17Z</time>
      </trkpt>
      <trkpt lat="43.86575" lon="7.24176">
        <ele>762.3</ele>
        <time>2012-01-04T11:11:22Z</time>
      </trkpt>
      <trkpt lat="43.86568" lon="7.24179">
        <ele>763.5</ele>
        <time>2012-01-04T11:11:26Z</time>
      </trkpt>
      <trkpt lat="43.86561" lon="7.24181">
        <ele>763.2</ele>
        <time>2012-01-04T11:11:30Z</time>
      </trkpt>
      <trkpt lat="43.86552" lon="7.24185">
        <ele>764</ele>
        <time>2012-01-04T11:11:35Z</time>
      </trkpt>
      <trkpt lat="43.86545" lon="7.2419">
        <ele>764.4</ele>
        <time>2012-01-04T11:11:40Z</time>
      </trkpt>
      <trkpt lat="43.86537" lon="7.24193">
        <ele>765.4</ele>
        <time>2012-01-04T11:11:45Z</time>
      </trkpt>
      <trkpt lat="43.8653" lon="7.24196">
        <ele>766.6</ele>
        <time>2012-01-04T11:11:50Z</time>
      </trkpt>
      <trkpt lat="43.86529" lon="7.24197">
        <ele>766.7</ele>
        <time>2012-01-04T11:11:51Z</time>
      </trkpt>
      <trkpt lat="43.86515" lon="7.24199">
        <ele>768.2</ele>
        <time>2012-01-04T11:12:00Z</time>
      </trkpt>
      <trkpt lat="43.86507" lon="7.242">
        <ele>768.2</ele>
        <time>2012-01-04T11:12:05Z</time>
      </trkpt>
      <trkpt lat="43.86499" lon="7.24202">
        <ele>769.4</ele>
        <time>2012-01-04T11:12:10Z</time>
      </trkpt>
      <trkpt lat="43.86491" lon="7.24206">
        <ele>770.4</ele>
        <time>2012-01-04T11:12:15Z</time>
      </trkpt>
      <trkpt lat="43.86484" lon="7.2421">
        <ele>771.7</ele>
        <time>2012-01-04T11:12:20Z</time>
      </trkpt>
      <trkpt lat="43.86477" lon="7.24216">
        <ele>771.8</ele>
        <time>2012-01-04T11:12:25Z</time>
      </trkpt>
      <trkpt lat="43.86472" lon="7.24224">
        <ele>772.5</ele>
        <time>2012-01-04T11:12:30Z</time>
      </trkpt>
      <trkpt lat="43.86467" lon="7.24233">
        <ele>772.7</ele>
        <time>2012-01-04T11:12:35Z</time>
      </trkpt>
      <trkpt lat="43.86462" lon="7.24242">
        <ele>772.4</ele>
        <time>2012-01-04T11:12:40Z</time>
      </trkpt>
      <trkpt lat="43.86457" lon="7.2425">
        <ele>774.4</ele>
        <time>2012-01-04T11:12:45Z</time>
      </trkpt>
      <trkpt lat="43.86452" lon="7.24257">
        <ele>775.2</ele>
        <time>2012-01-04T11:12:50Z</time>
      </trkpt>
      <trkpt lat="43.86446" lon="7.24267">
        <ele>775</ele>
        <time>2012-01-04T11:12:56Z</time>
      </trkpt>
      <trkpt lat="43.86446" lon="7.24269">
        <ele>774.8</ele>
        <time>2012-01-04T11:12:57Z</time>
      </trkpt>
      <trkpt lat="43.86439" lon="7.24288">
        <ele>777.9</ele>
        <time>2012-01-04T11:13:07Z</time>
      </trkpt>
      <trkpt lat="43.86436" lon="7.24298">
        <ele>778</ele>
        <time>2012-01-04T11:13:12Z</time>
      </trkpt>
      <trkpt lat="43.86436" lon="7.24309">
        <ele>779</ele>
        <time>2012-01-04T11:13:17Z</time>
      </trkpt>
      <trkpt lat="43.86433" lon="7.2432">
        <ele>779.9</ele>
        <time>2012-01-04T11:13:23Z</time>
      </trkpt>
      <trkpt lat="43.86429" lon="7.24331">
        <ele>781</ele>
        <time>2012-01-04T11:13:29Z</time>
      </trkpt>
      <trkpt lat="43.86423" lon="7.24339">
        <ele>781.9</ele>
        <time>2012-01-04T11:13:35Z</time>
      </trkpt>
      <trkpt lat="43.86417" lon="7.24348">
        <ele>783.5</ele>
        <time>2012-01-04T11:13:41Z</time>
      </trkpt>
      <trkpt lat="43.86411" lon="7.24357">
        <ele>784.2</ele>
        <time>2012-01-04T11:13:47Z</time>
      </trkpt>
      <trkpt lat="43.86405" lon="7.24366">
        <ele>784.4</ele>
        <time>2012-01-04T11:13:52Z</time>
      </trkpt>
      <trkpt lat="43.864" lon="7.24373">
        <ele>785.3</ele>
        <time>2012-01-04T11:13:57Z</time>
      </trkpt>
      <trkpt lat="43.86396" lon="7.24382">
        <ele>785.7</ele>
        <time>2012-01-04T11:14:02Z</time>
      </trkpt>
      <trkpt lat="43.86395" lon="7.24384">
        <ele>785.7</ele>
        <time>2012-01-04T11:14:03Z</time>
      </trkpt>
      <trkpt lat="43.86389" lon="7.24403">
        <ele>787.7</ele>
        <time>2012-01-04T11:14:13Z</time>
      </trkpt>
      <trkpt lat="43.86386" lon="7.24414">
        <ele>788.2</ele>
        <time>2012-01-04T11:14:18Z</time>
      </trkpt>
      <trkpt lat="43.86385" lon="7.24425">
        <ele>789.1</ele>
        <time>2012-01-04T11:14:23Z</time>
      </trkpt>
      <trkpt lat="43.86385" lon="7.24435">
        <ele>789.8</ele>
        <time>2012-01-04T11:14:28Z</time>
      </trkpt>
      <trkpt lat="43.86388" lon="7.24446">
        <ele>789.9</ele>
        <time>2012-01-04T11:14:34Z</time>
      </trkpt>
      <trkpt lat="43.86391" lon="7.24457">
        <ele>791.8</ele>
        <time>2012-01-04T11:14:40Z</time>
      </trkpt>
      <trkpt lat="43.86394" lon="7.24468">
        <ele>792.3</ele>
        <time>2012-01-04T11:14:46Z</time>
      </trkpt>
      <trkpt lat="43.86396" lon="7.2448">
        <ele>793.2</ele>
        <time>2012-01-04T11:14:52Z</time>
      </trkpt>
      <trkpt lat="43.86399" lon="7.24491">
        <ele>793.7</ele>
        <time>2012-01-04T11:14:58Z</time>
      </trkpt>
      <trkpt lat="43.86402" lon="7.245">
        <ele>795.4</ele>
        <time>2012-01-04T11:15:03Z</time>
      </trkpt>
      <trkpt lat="43.86406" lon="7.2451">
        <ele>795.4</ele>
        <time>2012-01-04T11:15:08Z</time>
      </trkpt>
      <trkpt lat="43.86406" lon="7.24512">
        <ele>795.2</ele>
        <time>2012-01-04T11:15:09Z</time>
      </trkpt>
      <trkpt lat="43.86413" lon="7.24529">
        <ele>796.5</ele>
        <time>2012-01-04T11:15:18Z</time>
      </trkpt>
      <trkpt lat="43.86418" lon="7.24537">
        <ele>797.6</ele>
        <time>2012-01-04T11:15:23Z</time>
      </trkpt>
      <trkpt lat="43.86423" lon="7.24547">
        <ele>798.3</ele>
        <time>2012-01-04T11:15:29Z</time>
      </trkpt>
      <trkpt lat="43.86429" lon="7.24556">
        <ele>800</ele>
        <time>2012-01-04T11:15:35Z</time>
      </trkpt>
      <trkpt lat="43.86433" lon="7.24565">
        <ele>800.7</ele>
        <time>2012-01-04T11:15:40Z</time>
      </trkpt>
      <trkpt lat="43.86437" lon="7.24577">
        <ele>800.8</ele>
        <time>2012-01-04T11:15:46Z</time>
      </trkpt>
      <trkpt lat="43.8644" lon="7.24587">
        <ele>802</ele>
        <time>2012-01-04T11:15:52Z</time>
      </trkpt>
      <trkpt lat="43.8644" lon="7.24599">
        <ele>803.5</ele>
        <time>2012-01-04T11:15:58Z</time>
      </trkpt>
      <trkpt lat="43.86439" lon="7.24611">
        <ele>805</ele>
        <time>2012-01-04T11:16:04Z</time>
      </trkpt>
      <trkpt lat="43.86439" lon="7.24621">
        <ele>805.2</ele>
        <time>2012-01-04T11:16:09Z</time>
      </trkpt>
      <trkpt lat="43.86438" lon="7.24632">
        <ele>805.6</ele>
        <time>2012-01-04T11:16:14Z</time>
      </trkpt>
      <trkpt lat="43.86438" lon="7.24634">
        <ele>805.5</ele>
        <time>2012-01-04T11:16:15Z</time>
      </trkpt>
      <trkpt lat="43.86436" lon="7.24654">
        <ele>806.5</ele>
        <time>2012-01-04T11:16:25Z</time>
      </trkpt>
      <trkpt lat="43.86431" lon="7.24665">
        <ele>808.4</ele>
        <time>2012-01-04T11:19:18Z</time>
      </trkpt>
      <trkpt lat="43.86431" lon="7.24667">
        <ele>808.4</ele>
        <time>2012-01-04T11:19:19Z</time>
      </trkpt>
      <trkpt lat="43.86425" lon="7.24687">
        <ele>809.7</ele>
        <time>2012-01-04T11:19:28Z</time>
      </trkpt>
      <trkpt lat="43.86422" lon="7.24697">
        <ele>809.9</ele>
        <time>2012-01-04T11:19:33Z</time>
      </trkpt>
      <trkpt lat="43.86416" lon="7.24707">
        <ele>811.2</ele>
        <time>2012-01-04T11:19:39Z</time>
      </trkpt>
      <trkpt lat="43.86412" lon="7.24717">
        <ele>812.2</ele>
        <time>2012-01-04T11:19:45Z</time>
      </trkpt>
      <trkpt lat="43.86408" lon="7.24728">
        <ele>813.2</ele>
        <time>2012-01-04T11:19:51Z</time>
      </trkpt>
      <trkpt lat="43.86405" lon="7.24738">
        <ele>813.5</ele>
        <time>2012-01-04T11:19:56Z</time>
      </trkpt>
      <trkpt lat="43.86402" lon="7.24749">
        <ele>815.5</ele>
        <time>2012-01-04T11:20:02Z</time>
      </trkpt>
      <trkpt lat="43.86398" lon="7.24761">
        <ele>816.7</ele>
        <time>2012-01-04T11:20:08Z</time>
      </trkpt>
      <trkpt lat="43.86394" lon="7.24772">
        <ele>817.5</ele>
        <time>2012-01-04T11:20:14Z</time>
      </trkpt>
      <trkpt lat="43.86391" lon="7.24782">
        <ele>817.9</ele>
        <time>2012-01-04T11:20:19Z</time>
      </trkpt>
      <trkpt lat="43.86389" lon="7.24792">
        <ele>818.7</ele>
        <time>2012-01-04T11:20:24Z</time>
      </trkpt>
      <trkpt lat="43.86388" lon="7.24794">
        <ele>818.7</ele>
        <time>2012-01-04T11:20:25Z</time>
      </trkpt>
      <trkpt lat="43.86384" lon="7.24815">
        <ele>820.3</ele>
        <time>2012-01-04T11:20:36Z</time>
      </trkpt>
      <trkpt lat="43.86382" lon="7.24826">
        <ele>821.2</ele>
        <time>2012-01-04T11:20:42Z</time>
      </trkpt>
      <trkpt lat="43.8638" lon="7.24838">
        <ele>822.6</ele>
        <time>2012-01-04T11:20:48Z</time>
      </trkpt>
      <trkpt lat="43.86378" lon="7.24848">
        <ele>822.9</ele>
        <time>2012-01-04T11:20:53Z</time>
      </trkpt>
      <trkpt lat="43.86374" lon="7.24859">
        <ele>824.2</ele>
        <time>2012-01-04T11:20:59Z</time>
      </trkpt>
      <trkpt lat="43.86371" lon="7.2487">
        <ele>825.4</ele>
        <time>2012-01-04T11:21:05Z</time>
      </trkpt>
      <trkpt lat="43.86369" lon="7.2488">
        <ele>825.6</ele>
        <time>2012-01-04T11:21:10Z</time>
      </trkpt>
      <trkpt lat="43.86368" lon="7.24891">
        <ele>826.4</ele>
        <time>2012-01-04T11:21:15Z</time>
      </trkpt>
      <trkpt lat="43.86366" lon="7.24903">
        <ele>826.7</ele>
        <time>2012-01-04T11:21:21Z</time>
      </trkpt>
      <trkpt lat="43.86365" lon="7.24913">
        <ele>827.7</ele>
        <time>2012-01-04T11:21:26Z</time>
      </trkpt>
      <trkpt lat="43.86364" lon="7.24915">
        <ele>827.8</ele>
        <time>2012-01-04T11:21:27Z</time>
      </trkpt>
      <trkpt lat="43.86363" lon="7.24937">
        <ele>829.4</ele>
        <time>2012-01-04T11:21:38Z</time>
      </trkpt>
      <trkpt lat="43.86362" lon="7.24949">
        <ele>830.1</ele>
        <time>2012-01-04T11:21:44Z</time>
      </trkpt>
      <trkpt lat="43.86362" lon="7.24961">
        <ele>831.5</ele>
        <time>2012-01-04T11:21:50Z</time>
      </trkpt>
      <trkpt lat="43.86362" lon="7.24972">
        <ele>832.3</ele>
        <time>2012-01-04T11:21:56Z</time>
      </trkpt>
      <trkpt lat="43.86362" lon="7.24984">
        <ele>833.7</ele>
        <time>2012-01-04T11:22:02Z</time>
      </trkpt>
      <trkpt lat="43.86364" lon="7.24996">
        <ele>833.5</ele>
        <time>2012-01-04T11:22:08Z</time>
      </trkpt>
      <trkpt lat="43.86364" lon="7.25008">
        <ele>834.4</ele>
        <time>2012-01-04T11:22:14Z</time>
      </trkpt>
      <trkpt lat="43.86365" lon="7.2502">
        <ele>835.2</ele>
        <time>2012-01-04T11:22:20Z</time>
      </trkpt>
      <trkpt lat="43.86368" lon="7.25031">
        <ele>836.1</ele>
        <time>2012-01-04T11:22:26Z</time>
      </trkpt>
      <trkpt lat="43.86369" lon="7.25043">
        <ele>836.5</ele>
        <time>2012-01-04T11:22:32Z</time>
      </trkpt>
      <trkpt lat="43.8637" lon="7.25045">
        <ele>837.1</ele>
        <time>2012-01-04T11:22:33Z</time>
      </trkpt>
      <trkpt lat="43.86374" lon="7.25066">
        <ele>840.1</ele>
        <time>2012-01-04T11:22:44Z</time>
      </trkpt>
      <trkpt lat="43.86377" lon="7.25076">
        <ele>840.7</ele>
        <time>2012-01-04T11:22:50Z</time>
      </trkpt>
      <trkpt lat="43.86379" lon="7.25088">
        <ele>841</ele>
        <time>2012-01-04T11:22:56Z</time>
      </trkpt>
      <trkpt lat="43.86382" lon="7.25099">
        <ele>842</ele>
        <time>2012-01-04T11:23:02Z</time>
      </trkpt>
      <trkpt lat="43.86385" lon="7.25109">
        <ele>842.6</ele>
        <time>2012-01-04T11:23:07Z</time>
      </trkpt>
      <trkpt lat="43.86388" lon="7.2512">
        <ele>843</ele>
        <time>2012-01-04T11:23:13Z</time>
      </trkpt>
      <trkpt lat="43.86391" lon="7.25131">
        <ele>844.6</ele>
        <time>2012-01-04T11:23:19Z</time>
      </trkpt>
      <trkpt lat="43.86395" lon="7.25142">
        <ele>845</ele>
        <time>2012-01-04T11:23:25Z</time>
      </trkpt>
      <trkpt lat="43.86398" lon="7.25154">
        <ele>846.3</ele>
        <time>2012-01-04T11:23:31Z</time>
      </trkpt>
      <trkpt lat="43.86401" lon="7.25165">
        <ele>847</ele>
        <time>2012-01-04T11:23:37Z</time>
      </trkpt>
      <trkpt lat="43.86401" lon="7.25167">
        <ele>847.4</ele>
        <time>2012-01-04T11:23:38Z</time>
      </trkpt>
      <trkpt lat="43.86407" lon="7.25187">
        <ele>849.5</ele>
        <time>2012-01-04T11:23:49Z</time>
      </trkpt>
      <trkpt lat="43.86411" lon="7.25198">
        <ele>849.9</ele>
        <time>2012-01-04T11:23:55Z</time>
      </trkpt>
      <trkpt lat="43.86414" lon="7.25209">
        <ele>850.3</ele>
        <time>2012-01-04T11:24:01Z</time>
      </trkpt>
      <trkpt lat="43.86417" lon="7.25219">
        <ele>851.8</ele>
        <time>2012-01-04T11:24:07Z</time>
      </trkpt>
      <trkpt lat="43.86421" lon="7.2523">
        <ele>852.8</ele>
        <time>2012-01-04T11:24:13Z</time>
      </trkpt>
      <trkpt lat="43.86422" lon="7.2524">
        <ele>852.3</ele>
        <time>2012-01-04T11:24:18Z</time>
      </trkpt>
      <trkpt lat="43.86424" lon="7.25252">
        <ele>853.2</ele>
        <time>2012-01-04T11:24:24Z</time>
      </trkpt>
      <trkpt lat="43.86427" lon="7.25263">
        <ele>854.6</ele>
        <time>2012-01-04T11:24:30Z</time>
      </trkpt>
      <trkpt lat="43.86429" lon="7.25275">
        <ele>855.6</ele>
        <time>2012-01-04T11:24:36Z</time>
      </trkpt>
      <trkpt lat="43.86432" lon="7.25286">
        <ele>856.9</ele>
        <time>2012-01-04T11:24:42Z</time>
      </trkpt>
      <trkpt lat="43.86432" lon="7.25288">
        <ele>856.9</ele>
        <time>2012-01-04T11:24:43Z</time>
      </trkpt>
      <trkpt lat="43.86436" lon="7.25309">
        <ele>858.9</ele>
        <time>2012-01-04T11:24:54Z</time>
      </trkpt>
      <trkpt lat="43.86438" lon="7.25321">
        <ele>859.7</ele>
        <time>2012-01-04T11:25:00Z</time>
      </trkpt>
      <trkpt lat="43.86441" lon="7.25332">
        <ele>860.4</ele>
        <time>2012-01-04T11:25:06Z</time>
      </trkpt>
      <trkpt lat="43.86443" lon="7.25342">
        <ele>861.3</ele>
        <time>2012-01-04T11:25:11Z</time>
      </trkpt>
      <trkpt lat="43.86445" lon="7.25353">
        <ele>861.8</ele>
        <time>2012-01-04T11:25:17Z</time>
      </trkpt>
      <trkpt lat="43.86448" lon="7.25363">
        <ele>862.5</ele>
        <time>2012-01-04T11:25:23Z</time>
      </trkpt>
      <trkpt lat="43.86451" lon="7.25374">
        <ele>864.6</ele>
        <time>2012-01-04T11:25:29Z</time>
      </trkpt>
      <trkpt lat="43.86453" lon="7.25385">
        <ele>865.8</ele>
        <time>2012-01-04T11:25:35Z</time>
      </trkpt>
      <trkpt lat="43.86454" lon="7.25397">
        <ele>866.7</ele>
        <time>2012-01-04T11:25:41Z</time>
      </trkpt>
      <trkpt lat="43.86454" lon="7.25409">
        <ele>866.9</ele>
        <time>2012-01-04T11:25:47Z</time>
      </trkpt>
      <trkpt lat="43.86454" lon="7.25411">
        <ele>866.9</ele>
        <time>2012-01-04T11:25:48Z</time>
      </trkpt>
      <trkpt lat="43.86456" lon="7.25432">
        <ele>869.2</ele>
        <time>2012-01-04T11:25:58Z</time>
      </trkpt>
      <trkpt lat="43.8646" lon="7.25442">
        <ele>869.3</ele>
        <time>2012-01-04T11:26:04Z</time>
      </trkpt>
      <trkpt lat="43.86464" lon="7.25452">
        <ele>870.2</ele>
        <time>2012-01-04T11:26:10Z</time>
      </trkpt>
      <trkpt lat="43.86467" lon="7.25463">
        <ele>872.2</ele>
        <time>2012-01-04T11:26:16Z</time>
      </trkpt>
      <trkpt lat="43.8647" lon="7.25475">
        <ele>872.6</ele>
        <time>2012-01-04T11:26:22Z</time>
      </trkpt>
      <trkpt lat="43.86472" lon="7.25486">
        <ele>873.3</ele>
        <time>2012-01-04T11:26:50Z</time>
      </trkpt>
      <trkpt lat="43.86472" lon="7.25488">
        <ele>873.3</ele>
        <time>2012-01-04T11:26:51Z</time>
      </trkpt>
      <trkpt lat="43.86473" lon="7.25508">
        <ele>875.7</ele>
        <time>2012-01-04T11:27:02Z</time>
      </trkpt>
      <trkpt lat="43.86475" lon="7.2552">
        <ele>875.9</ele>
        <time>2012-01-04T11:27:08Z</time>
      </trkpt>
      <trkpt lat="43.86477" lon="7.25531">
        <ele>876.7</ele>
        <time>2012-01-04T11:27:14Z</time>
      </trkpt>
      <trkpt lat="43.86478" lon="7.25542">
        <ele>877.3</ele>
        <time>2012-01-04T11:27:20Z</time>
      </trkpt>
      <trkpt lat="43.8648" lon="7.25553">
        <ele>878.6</ele>
        <time>2012-01-04T11:27:26Z</time>
      </trkpt>
      <trkpt lat="43.86483" lon="7.25565">
        <ele>880.4</ele>
        <time>2012-01-04T11:27:32Z</time>
      </trkpt>
      <trkpt lat="43.86486" lon="7.25576">
        <ele>881.3</ele>
        <time>2012-01-04T11:27:38Z</time>
      </trkpt>
      <trkpt lat="43.8649" lon="7.25587">
        <ele>881.7</ele>
        <time>2012-01-04T11:27:44Z</time>
      </trkpt>
      <trkpt lat="43.86494" lon="7.25597">
        <ele>883</ele>
        <time>2012-01-04T11:27:50Z</time>
      </trkpt>
      <trkpt lat="43.86499" lon="7.25607">
        <ele>883.4</ele>
        <time>2012-01-04T11:27:56Z</time>
      </trkpt>
      <trkpt lat="43.865" lon="7.25608">
        <ele>883.5</ele>
        <time>2012-01-04T11:27:57Z</time>
      </trkpt>
      <trkpt lat="43.86511" lon="7.25625">
        <ele>886.7</ele>
        <time>2012-01-04T11:28:25Z</time>
      </trkpt>
      <trkpt lat="43.86517" lon="7.25633">
        <ele>886.8</ele>
        <time>2012-01-04T11:28:32Z</time>
      </trkpt>
      <trkpt lat="43.86525" lon="7.2564">
        <ele>887.4</ele>
        <time>2012-01-04T11:28:38Z</time>
      </trkpt>
      <trkpt lat="43.86531" lon="7.25646">
        <ele>887.6</ele>
        <time>2012-01-04T11:28:43Z</time>
      </trkpt>
      <trkpt lat="43.86538" lon="7.25654">
        <ele>888.9</ele>
        <time>2012-01-04T11:28:48Z</time>
      </trkpt>
      <trkpt lat="43.86543" lon="7.25662">
        <ele>889.7</ele>
        <time>2012-01-04T11:28:53Z</time>
      </trkpt>
      <trkpt lat="43.86548" lon="7.25671">
        <ele>890.7</ele>
        <time>2012-01-04T11:28:59Z</time>
      </trkpt>
      <trkpt lat="43.86549" lon="7.25673">
        <ele>891.3</ele>
        <time>2012-01-04T11:29:00Z</time>
      </trkpt>
      <trkpt lat="43.86554" lon="7.25692">
        <ele>891.5</ele>
        <time>2012-01-04T11:29:10Z</time>
      </trkpt>
      <trkpt lat="43.86556" lon="7.25703">
        <ele>892</ele>
        <time>2012-01-04T11:29:15Z</time>
      </trkpt>
      <trkpt lat="43.86557" lon="7.25714">
        <ele>893</ele>
        <time>2012-01-04T11:29:20Z</time>
      </trkpt>
      <trkpt lat="43.86562" lon="7.25723">
        <ele>893.6</ele>
        <time>2012-01-04T11:29:25Z</time>
      </trkpt>
      <trkpt lat="43.86571" lon="7.25721">
        <ele>894.1</ele>
        <time>2012-01-04T11:29:31Z</time>
      </trkpt>
      <trkpt lat="43.86572" lon="7.25711">
        <ele>894.5</ele>
        <time>2012-01-04T11:29:36Z</time>
      </trkpt>
      <trkpt lat="43.8657" lon="7.25701">
        <ele>896.5</ele>
        <time>2012-01-04T11:29:41Z</time>
      </trkpt>
      <trkpt lat="43.86568" lon="7.25691">
        <ele>897.8</ele>
        <time>2012-01-04T11:29:46Z</time>
      </trkpt>
      <trkpt lat="43.86567" lon="7.2568">
        <ele>898</ele>
        <time>2012-01-04T11:29:51Z</time>
      </trkpt>
      <trkpt lat="43.86566" lon="7.25669">
        <ele>898.5</ele>
        <time>2012-01-04T11:29:56Z</time>
      </trkpt>
      <trkpt lat="43.86564" lon="7.25659">
        <ele>899.4</ele>
        <time>2012-01-04T11:30:01Z</time>
      </trkpt>
      <trkpt lat="43.86564" lon="7.25657">
        <ele>899.5</ele>
        <time>2012-01-04T11:30:02Z</time>
      </trkpt>
      <trkpt lat="43.86554" lon="7.2564">
        <ele>901.8</ele>
        <time>2012-01-04T11:30:13Z</time>
      </trkpt>
      <trkpt lat="43.8655" lon="7.25632">
        <ele>902.4</ele>
        <time>2012-01-04T11:30:18Z</time>
      </trkpt>
      <trkpt lat="43.86547" lon="7.2562">
        <ele>902.7</ele>
        <time>2012-01-04T11:30:24Z</time>
      </trkpt>
      <trkpt lat="43.86545" lon="7.25608">
        <ele>904.6</ele>
        <time>2012-01-04T11:30:30Z</time>
      </trkpt>
      <trkpt lat="43.86544" lon="7.25596">
        <ele>904.8</ele>
        <time>2012-01-04T11:30:36Z</time>
      </trkpt>
      <trkpt lat="43.86545" lon="7.25586">
        <ele>906</ele>
        <time>2012-01-04T11:30:42Z</time>
      </trkpt>
      <trkpt lat="43.86545" lon="7.25575">
        <ele>906.2</ele>
        <time>2012-01-04T11:30:48Z</time>
      </trkpt>
      <trkpt lat="43.86544" lon="7.25563">
        <ele>906</ele>
        <time>2012-01-04T11:30:54Z</time>
      </trkpt>
      <trkpt lat="43.86545" lon="7.25551">
        <ele>907.2</ele>
        <time>2012-01-04T11:31:00Z</time>
      </trkpt>
      <trkpt lat="43.86548" lon="7.2554">
        <ele>907.6</ele>
        <time>2012-01-04T11:31:06Z</time>
      </trkpt>
      <trkpt lat="43.86548" lon="7.25538">
        <ele>907.9</ele>
        <time>2012-01-04T11:31:07Z</time>
      </trkpt>
      <trkpt lat="43.8655" lon="7.25516">
        <ele>909</ele>
        <time>2012-01-04T11:31:18Z</time>
      </trkpt>
      <trkpt lat="43.86551" lon="7.25504">
        <ele>909.8</ele>
        <time>2012-01-04T11:31:23Z</time>
      </trkpt>
      <trkpt lat="43.86551" lon="7.25492">
        <ele>911.1</ele>
        <time>2012-01-04T11:31:28Z</time>
      </trkpt>
      <trkpt lat="43.8655" lon="7.25481">
        <ele>911.8</ele>
        <time>2012-01-04T11:31:33Z</time>
      </trkpt>
      <trkpt lat="43.86549" lon="7.25469">
        <ele>913.1</ele>
        <time>2012-01-04T11:31:38Z</time>
      </trkpt>
      <trkpt lat="43.86548" lon="7.25458">
        <ele>914.6</ele>
        <time>2012-01-04T11:31:43Z</time>
      </trkpt>
      <trkpt lat="43.86546" lon="7.25446">
        <ele>915.1</ele>
        <time>2012-01-04T11:31:48Z</time>
      </trkpt>
      <trkpt lat="43.86544" lon="7.25435">
        <ele>915.2</ele>
        <time>2012-01-04T11:31:53Z</time>
      </trkpt>
      <trkpt lat="43.86542" lon="7.25424">
        <ele>915.7</ele>
        <time>2012-01-04T11:31:58Z</time>
      </trkpt>
      <trkpt lat="43.86539" lon="7.25413">
        <ele>916.6</ele>
        <time>2012-01-04T11:32:03Z</time>
      </trkpt>
      <trkpt lat="43.86538" lon="7.25403">
        <ele>918.5</ele>
        <time>2012-01-04T11:32:08Z</time>
      </trkpt>
      <trkpt lat="43.86537" lon="7.25401">
        <ele>918.5</ele>
        <time>2012-01-04T11:32:09Z</time>
      </trkpt>
      <trkpt lat="43.86532" lon="7.25381">
        <ele>920.1</ele>
        <time>2012-01-04T11:32:18Z</time>
      </trkpt>
      <trkpt lat="43.86529" lon="7.25371">
        <ele>920.6</ele>
        <time>2012-01-04T11:32:23Z</time>
      </trkpt>
      <trkpt lat="43.86529" lon="7.2536">
        <ele>921.6</ele>
        <time>2012-01-04T11:32:28Z</time>
      </trkpt>
      <trkpt lat="43.86526" lon="7.25349">
        <ele>922.8</ele>
        <time>2012-01-04T11:33:23Z</time>
      </trkpt>
      <trkpt lat="43.86526" lon="7.25347">
        <ele>922.8</ele>
        <time>2012-01-04T11:33:24Z</time>
      </trkpt>
      <trkpt lat="43.86524" lon="7.25325">
        <ele>923.4</ele>
        <time>2012-01-04T11:33:35Z</time>
      </trkpt>
      <trkpt lat="43.86522" lon="7.25314">
        <ele>924.4</ele>
        <time>2012-01-04T11:33:40Z</time>
      </trkpt>
      <trkpt lat="43.86528" lon="7.25306">
        <ele>925</ele>
        <time>2012-01-04T11:33:46Z</time>
      </trkpt>
      <trkpt lat="43.86534" lon="7.25313">
        <ele>924.8</ele>
        <time>2012-01-04T11:33:51Z</time>
      </trkpt>
      <trkpt lat="43.86535" lon="7.25323">
        <ele>925.6</ele>
        <time>2012-01-04T11:33:56Z</time>
      </trkpt>
      <trkpt lat="43.86536" lon="7.25335">
        <ele>926.5</ele>
        <time>2012-01-04T11:34:02Z</time>
      </trkpt>
      <trkpt lat="43.86537" lon="7.25347">
        <ele>927.8</ele>
        <time>2012-01-04T11:34:08Z</time>
      </trkpt>
      <trkpt lat="43.8654" lon="7.25358">
        <ele>928.8</ele>
        <time>2012-01-04T11:34:14Z</time>
      </trkpt>
      <trkpt lat="43.86544" lon="7.25369">
        <ele>929.1</ele>
        <time>2012-01-04T11:34:20Z</time>
      </trkpt>
      <trkpt lat="43.86547" lon="7.2538">
        <ele>930.1</ele>
        <time>2012-01-04T11:34:26Z</time>
      </trkpt>
      <trkpt lat="43.86548" lon="7.25382">
        <ele>930.2</ele>
        <time>2012-01-04T11:34:27Z</time>
      </trkpt>
      <trkpt lat="43.86557" lon="7.25399">
        <ele>932</ele>
        <time>2012-01-04T11:34:38Z</time>
      </trkpt>
      <trkpt lat="43.86561" lon="7.25409">
        <ele>933.8</ele>
        <time>2012-01-04T11:34:44Z</time>
      </trkpt>
      <trkpt lat="43.86566" lon="7.25418">
        <ele>934.1</ele>
        <time>2012-01-04T11:34:50Z</time>
      </trkpt>
      <trkpt lat="43.86569" lon="7.2543">
        <ele>935.2</ele>
        <time>2012-01-04T11:34:57Z</time>
      </trkpt>
      <trkpt lat="43.86573" lon="7.25439">
        <ele>935.8</ele>
        <time>2012-01-04T11:35:03Z</time>
      </trkpt>
      <trkpt lat="43.86577" lon="7.2545">
        <ele>936.7</ele>
        <time>2012-01-04T11:35:10Z</time>
      </trkpt>
      <trkpt lat="43.86582" lon="7.25458">
        <ele>937.1</ele>
        <time>2012-01-04T11:35:15Z</time>
      </trkpt>
      <trkpt lat="43.86587" lon="7.25466">
        <ele>937.9</ele>
        <time>2012-01-04T11:35:20Z</time>
      </trkpt>
      <trkpt lat="43.86593" lon="7.25474">
        <ele>939.7</ele>
        <time>2012-01-04T11:35:25Z</time>
      </trkpt>
      <trkpt lat="43.86597" lon="7.25482">
        <ele>940.5</ele>
        <time>2012-01-04T11:35:30Z</time>
      </trkpt>
      <trkpt lat="43.86598" lon="7.25484">
        <ele>940.8</ele>
        <time>2012-01-04T11:35:31Z</time>
      </trkpt>
      <trkpt lat="43.86604" lon="7.25502">
        <ele>941.9</ele>
        <time>2012-01-04T11:35:41Z</time>
      </trkpt>
      <trkpt lat="43.86607" lon="7.25512">
        <ele>941.8</ele>
        <time>2012-01-04T11:35:46Z</time>
      </trkpt>
      <trkpt lat="43.8661" lon="7.25521">
        <ele>942.1</ele>
        <time>2012-01-04T11:35:51Z</time>
      </trkpt>
      <trkpt lat="43.86614" lon="7.25531">
        <ele>943.3</ele>
        <time>2012-01-04T11:35:56Z</time>
      </trkpt>
      <trkpt lat="43.86617" lon="7.25541">
        <ele>944.2</ele>
        <time>2012-01-04T11:36:02Z</time>
      </trkpt>
      <trkpt lat="43.86621" lon="7.25552">
        <ele>944.8</ele>
        <time>2012-01-04T11:36:08Z</time>
      </trkpt>
      <trkpt lat="43.86625" lon="7.25562">
        <ele>944.4</ele>
        <time>2012-01-04T11:36:13Z</time>
      </trkpt>
      <trkpt lat="43.8663" lon="7.25572">
        <ele>946.5</ele>
        <time>2012-01-04T11:36:19Z</time>
      </trkpt>
      <trkpt lat="43.86634" lon="7.25582">
        <ele>947.6</ele>
        <time>2012-01-04T11:36:25Z</time>
      </trkpt>
      <trkpt lat="43.86638" lon="7.25593">
        <ele>948.1</ele>
        <time>2012-01-04T11:36:31Z</time>
      </trkpt>
      <trkpt lat="43.86639" lon="7.25595">
        <ele>948.3</ele>
        <time>2012-01-04T11:36:32Z</time>
      </trkpt>
      <trkpt lat="43.86647" lon="7.25614">
        <ele>949.2</ele>
        <time>2012-01-04T11:36:43Z</time>
      </trkpt>
      <trkpt lat="43.86651" lon="7.25625">
        <ele>950.5</ele>
        <time>2012-01-04T11:36:49Z</time>
      </trkpt>
      <trkpt lat="43.86654" lon="7.25634">
        <ele>951.2</ele>
        <time>2012-01-04T11:36:54Z</time>
      </trkpt>
      <trkpt lat="43.86658" lon="7.25643">
        <ele>952.8</ele>
        <time>2012-01-04T11:36:59Z</time>
      </trkpt>
      <trkpt lat="43.86662" lon="7.25652">
        <ele>953.6</ele>
        <time>2012-01-04T11:37:04Z</time>
      </trkpt>
      <trkpt lat="43.86666" lon="7.25663">
        <ele>953.7</ele>
        <time>2012-01-04T11:37:10Z</time>
      </trkpt>
      <trkpt lat="43.8667" lon="7.25672">
        <ele>954.8</ele>
        <time>2012-01-04T11:37:15Z</time>
      </trkpt>
      <trkpt lat="43.86675" lon="7.25681">
        <ele>955.7</ele>
        <time>2012-01-04T11:37:20Z</time>
      </trkpt>
      <trkpt lat="43.8668" lon="7.25689">
        <ele>956</ele>
        <time>2012-01-04T11:37:25Z</time>
      </trkpt>
      <trkpt lat="43.86686" lon="7.25698">
        <ele>956.6</ele>
        <time>2012-01-04T11:37:30Z</time>
      </trkpt>
      <trkpt lat="43.86692" lon="7.25706">
        <ele>956</ele>
        <time>2012-01-04T11:37:35Z</time>
      </trkpt>
      <trkpt lat="43.86693" lon="7.25708">
        <ele>956.4</ele>
        <time>2012-01-04T11:37:36Z</time>
      </trkpt>
      <trkpt lat="43.86701" lon="7.25724">
        <ele>958.8</ele>
        <time>2012-01-04T11:37:45Z</time>
      </trkpt>
      <trkpt lat="43.86704" lon="7.25735">
        <ele>959.1</ele>
        <time>2012-01-04T11:37:50Z</time>
      </trkpt>
      <trkpt lat="43.86707" lon="7.25745">
        <ele>958.8</ele>
        <time>2012-01-04T11:37:54Z</time>
      </trkpt>
      <trkpt lat="43.86709" lon="7.25756">
        <ele>959</ele>
        <time>2012-01-04T11:37:58Z</time>
      </trkpt>
      <trkpt lat="43.86712" lon="7.25766">
        <ele>959.1</ele>
        <time>2012-01-04T11:38:02Z</time>
      </trkpt>
      <trkpt lat="43.86716" lon="7.25777">
        <ele>960.7</ele>
        <time>2012-01-04T11:38:07Z</time>
      </trkpt>
      <trkpt lat="43.86721" lon="7.25786">
        <ele>962.5</ele>
        <time>2012-01-04T11:38:12Z</time>
      </trkpt>
      <trkpt lat="43.86726" lon="7.25796">
        <ele>963.3</ele>
        <time>2012-01-04T11:38:17Z</time>
      </trkpt>
      <trkpt lat="43.8673" lon="7.25807">
        <ele>964.7</ele>
        <time>2012-01-04T11:38:23Z</time>
      </trkpt>
      <trkpt lat="43.86735" lon="7.25816">
        <ele>965.2</ele>
        <time>2012-01-04T11:38:29Z</time>
      </trkpt>
      <trkpt lat="43.86739" lon="7.25826">
        <ele>966.4</ele>
        <time>2012-01-04T11:38:35Z</time>
      </trkpt>
      <trkpt lat="43.86742" lon="7.25836">
        <ele>967.3</ele>
        <time>2012-01-04T11:38:40Z</time>
      </trkpt>
      <trkpt lat="43.86743" lon="7.25839">
        <ele>967.6</ele>
        <time>2012-01-04T11:38:41Z</time>
      </trkpt>
      <trkpt lat="43.86752" lon="7.25854">
        <ele>967.9</ele>
        <time>2012-01-04T11:38:51Z</time>
      </trkpt>
      <trkpt lat="43.86759" lon="7.25861">
        <ele>968.9</ele>
        <time>2012-01-04T11:38:57Z</time>
      </trkpt>
      <trkpt lat="43.86768" lon="7.25864">
        <ele>970.2</ele>
        <time>2012-01-04T11:39:03Z</time>
      </trkpt>
      <trkpt lat="43.86775" lon="7.2587">
        <ele>970.6</ele>
        <time>2012-01-04T11:39:09Z</time>
      </trkpt>
      <trkpt lat="43.86783" lon="7.25877">
        <ele>971.5</ele>
        <time>2012-01-04T11:39:15Z</time>
      </trkpt>
      <trkpt lat="43.8679" lon="7.25883">
        <ele>972.9</ele>
        <time>2012-01-04T11:39:21Z</time>
      </trkpt>
      <trkpt lat="43.86798" lon="7.25887">
        <ele>974.6</ele>
        <time>2012-01-04T11:39:27Z</time>
      </trkpt>
      <trkpt lat="43.86806" lon="7.25891">
        <ele>975.2</ele>
        <time>2012-01-04T11:39:33Z</time>
      </trkpt>
      <trkpt lat="43.86814" lon="7.25895">
        <ele>976</ele>
        <time>2012-01-04T11:39:38Z</time>
      </trkpt>
      <trkpt lat="43.8682" lon="7.25902">
        <ele>976.6</ele>
        <time>2012-01-04T11:39:44Z</time>
      </trkpt>
      <trkpt lat="43.86821" lon="7.25903">
        <ele>976.7</ele>
        <time>2012-01-04T11:39:45Z</time>
      </trkpt>
      <trkpt lat="43.86826" lon="7.25923">
        <ele>978.9</ele>
        <time>2012-01-04T11:39:56Z</time>
      </trkpt>
      <trkpt lat="43.86824" lon="7.25933">
        <ele>979.8</ele>
        <time>2012-01-04T11:40:01Z</time>
      </trkpt>
      <trkpt lat="43.86821" lon="7.25944">
        <ele>981.2</ele>
        <time>2012-01-04T11:40:07Z</time>
      </trkpt>
      <trkpt lat="43.86815" lon="7.25954">
        <ele>981.4</ele>
        <time>2012-01-04T11:40:13Z</time>
      </trkpt>
      <trkpt lat="43.8681" lon="7.25964">
        <ele>982.3</ele>
        <time>2012-01-04T11:40:19Z</time>
      </trkpt>
      <trkpt lat="43.86805" lon="7.25974">
        <ele>983.6</ele>
        <time>2012-01-04T11:40:25Z</time>
      </trkpt>
      <trkpt lat="43.86799" lon="7.25983">
        <ele>985.1</ele>
        <time>2012-01-04T11:40:31Z</time>
      </trkpt>
      <trkpt lat="43.86793" lon="7.25993">
        <ele>985.3</ele>
        <time>2012-01-04T11:40:37Z</time>
      </trkpt>
      <trkpt lat="43.86793" lon="7.26005">
        <ele>985.5</ele>
        <time>2012-01-04T11:40:43Z</time>
      </trkpt>
      <trkpt lat="43.868" lon="7.2601">
        <ele>986.2</ele>
        <time>2012-01-04T11:40:48Z</time>
      </trkpt>
      <trkpt lat="43.86802" lon="7.2601">
        <ele>986.5</ele>
        <time>2012-01-04T11:40:49Z</time>
      </trkpt>
      <trkpt lat="43.86813" lon="7.25995">
        <ele>987.8</ele>
        <time>2012-01-04T11:40:58Z</time>
      </trkpt>
      <trkpt lat="43.86817" lon="7.25984">
        <ele>988.2</ele>
        <time>2012-01-04T11:41:03Z</time>
      </trkpt>
      <trkpt lat="43.86821" lon="7.25975">
        <ele>989.1</ele>
        <time>2012-01-04T11:41:08Z</time>
      </trkpt>
      <trkpt lat="43.86826" lon="7.25966">
        <ele>989.7</ele>
        <time>2012-01-04T11:41:13Z</time>
      </trkpt>
      <trkpt lat="43.8683" lon="7.25956">
        <ele>990.3</ele>
        <time>2012-01-04T11:41:18Z</time>
      </trkpt>
      <trkpt lat="43.86836" lon="7.25948">
        <ele>991</ele>
        <time>2012-01-04T11:41:23Z</time>
      </trkpt>
      <trkpt lat="43.86843" lon="7.25942">
        <ele>992.6</ele>
        <time>2012-01-04T11:41:28Z</time>
      </trkpt>
      <trkpt lat="43.8685" lon="7.25936">
        <ele>993.9</ele>
        <time>2012-01-04T11:41:34Z</time>
      </trkpt>
      <trkpt lat="43.86857" lon="7.25928">
        <ele>994.9</ele>
        <time>2012-01-04T11:41:40Z</time>
      </trkpt>
      <trkpt lat="43.8686" lon="7.25918">
        <ele>995.6</ele>
        <time>2012-01-04T11:41:45Z</time>
      </trkpt>
      <trkpt lat="43.8686" lon="7.25906">
        <ele>996.4</ele>
        <time>2012-01-04T11:41:50Z</time>
      </trkpt>
      <trkpt lat="43.86859" lon="7.25904">
        <ele>996.7</ele>
        <time>2012-01-04T11:41:51Z</time>
      </trkpt>
      <trkpt lat="43.86852" lon="7.25887">
        <ele>998</ele>
        <time>2012-01-04T11:42:00Z</time>
      </trkpt>
      <trkpt lat="43.86847" lon="7.25878">
        <ele>997.7</ele>
        <time>2012-01-04T11:42:05Z</time>
      </trkpt>
      <trkpt lat="43.86842" lon="7.2587">
        <ele>998.1</ele>
        <time>2012-01-04T11:42:09Z</time>
      </trkpt>
      <trkpt lat="43.86837" lon="7.25862">
        <ele>999.1</ele>
        <time>2012-01-04T11:42:13Z</time>
      </trkpt>
      <trkpt lat="43.86831" lon="7.25855">
        <ele>999.2</ele>
        <time>2012-01-04T11:42:17Z</time>
      </trkpt>
      <trkpt lat="43.86826" lon="7.25845">
        <ele>1000.2</ele>
        <time>2012-01-04T11:42:22Z</time>
      </trkpt>
      <trkpt lat="43.86822" lon="7.25835">
        <ele>1001.6</ele>
        <time>2012-01-04T11:42:27Z</time>
      </trkpt>
      <trkpt lat="43.86818" lon="7.25825">
        <ele>1001.5</ele>
        <time>2012-01-04T11:42:32Z</time>
      </trkpt>
      <trkpt lat="43.86814" lon="7.25816">
        <ele>1003.3</ele>
        <time>2012-01-04T11:42:37Z</time>
      </trkpt>
      <trkpt lat="43.86811" lon="7.25806">
        <ele>1003.6</ele>
        <time>2012-01-04T11:42:42Z</time>
      </trkpt>
      <trkpt lat="43.86807" lon="7.25796">
        <ele>1004.7</ele>
        <time>2012-01-04T11:42:47Z</time>
      </trkpt>
      <trkpt lat="43.86804" lon="7.25786">
        <ele>1005.6</ele>
        <time>2012-01-04T11:42:52Z</time>
      </trkpt>
      <trkpt lat="43.86803" lon="7.25784">
        <ele>1005.6</ele>
        <time>2012-01-04T11:42:53Z</time>
      </trkpt>
      <trkpt lat="43.86797" lon="7.25764">
        <ele>1006.3</ele>
        <time>2012-01-04T11:43:04Z</time>
      </trkpt>
      <trkpt lat="43.86794" lon="7.25754">
        <ele>1007.7</ele>
        <time>2012-01-04T11:43:09Z</time>
      </trkpt>
      <trkpt lat="43.8679" lon="7.25743">
        <ele>1008.4</ele>
        <time>2012-01-04T11:43:15Z</time>
      </trkpt>
      <trkpt lat="43.86786" lon="7.25732">
        <ele>1010</ele>
        <time>2012-01-04T11:43:21Z</time>
      </trkpt>
      <trkpt lat="43.86782" lon="7.25721">
        <ele>1010.5</ele>
        <time>2012-01-04T11:43:27Z</time>
      </trkpt>
      <trkpt lat="43.86778" lon="7.25711">
        <ele>1011.5</ele>
        <time>2012-01-04T11:43:33Z</time>
      </trkpt>
      <trkpt lat="43.86775" lon="7.257">
        <ele>1012.3</ele>
        <time>2012-01-04T11:43:39Z</time>
      </trkpt>
      <trkpt lat="43.86772" lon="7.25689">
        <ele>1013.1</ele>
        <time>2012-01-04T11:43:45Z</time>
      </trkpt>
      <trkpt lat="43.86768" lon="7.25678">
        <ele>1014</ele>
        <time>2012-01-04T11:43:52Z</time>
      </trkpt>
      <trkpt lat="43.86765" lon="7.25669">
        <ele>1014.5</ele>
        <time>2012-01-04T11:43:59Z</time>
      </trkpt>
      <trkpt lat="43.86764" lon="7.25667">
        <ele>1014.7</ele>
        <time>2012-01-04T11:44:00Z</time>
      </trkpt>
      <trkpt lat="43.8676" lon="7.25646">
        <ele>1017</ele>
        <time>2012-01-04T11:44:11Z</time>
      </trkpt>
      <trkpt lat="43.86758" lon="7.25636">
        <ele>1018.3</ele>
        <time>2012-01-04T11:46:08Z</time>
      </trkpt>
      <trkpt lat="43.86758" lon="7.25634">
        <ele>1018</ele>
        <time>2012-01-04T11:46:09Z</time>
      </trkpt>
      <trkpt lat="43.86754" lon="7.25615">
        <ele>1017.7</ele>
        <time>2012-01-04T11:46:17Z</time>
      </trkpt>
      <trkpt lat="43.86752" lon="7.25603">
        <ele>1019.3</ele>
        <time>2012-01-04T11:46:22Z</time>
      </trkpt>
      <trkpt lat="43.86749" lon="7.25592">
        <ele>1020.7</ele>
        <time>2012-01-04T11:46:27Z</time>
      </trkpt>
      <trkpt lat="43.86745" lon="7.25581">
        <ele>1021.8</ele>
        <time>2012-01-04T11:46:41Z</time>
      </trkpt>
      <trkpt lat="43.86743" lon="7.25569">
        <ele>1022.4</ele>
        <time>2012-01-04T11:46:51Z</time>
      </trkpt>
      <trkpt lat="43.8674" lon="7.2556">
        <ele>1022.8</ele>
        <time>2012-01-04T11:46:56Z</time>
      </trkpt>
      <trkpt lat="43.86737" lon="7.25549">
        <ele>1023.7</ele>
        <time>2012-01-04T11:47:01Z</time>
      </trkpt>
      <trkpt lat="43.86745" lon="7.25552">
        <ele>1024.9</ele>
        <time>2012-01-04T11:47:16Z</time>
      </trkpt>
      <trkpt lat="43.86745" lon="7.25554">
        <ele>1024.8</ele>
        <time>2012-01-04T11:47:17Z</time>
      </trkpt>
      <trkpt lat="43.86751" lon="7.25572">
        <ele>1026.1</ele>
        <time>2012-01-04T11:47:26Z</time>
      </trkpt>
      <trkpt lat="43.86756" lon="7.25582">
        <ele>1026.9</ele>
        <time>2012-01-04T11:47:32Z</time>
      </trkpt>
      <trkpt lat="43.86762" lon="7.25595">
        <ele>1027</ele>
        <time>2012-01-04T11:47:40Z</time>
      </trkpt>
      <trkpt lat="43.86766" lon="7.25609">
        <ele>1028</ele>
        <time>2012-01-04T11:47:48Z</time>
      </trkpt>
      <trkpt lat="43.86771" lon="7.25623">
        <ele>1030</ele>
        <time>2012-01-04T11:47:56Z</time>
      </trkpt>
      <trkpt lat="43.86774" lon="7.2564">
        <ele>1031</ele>
        <time>2012-01-04T11:48:04Z</time>
      </trkpt>
      <trkpt lat="43.86779" lon="7.25653">
        <ele>1031</ele>
        <time>2012-01-04T11:48:12Z</time>
      </trkpt>
      <trkpt lat="43.86787" lon="7.25664">
        <ele>1033</ele>
        <time>2012-01-04T11:48:20Z</time>
      </trkpt>
      <trkpt lat="43.86788" lon="7.25666">
        <ele>1034.1</ele>
        <time>2012-01-04T11:48:22Z</time>
      </trkpt>
      <trkpt lat="43.86801" lon="7.25683">
        <ele>1035.5</ele>
        <time>2012-01-04T11:48:34Z</time>
      </trkpt>
      <trkpt lat="43.86807" lon="7.2569">
        <ele>1035.8</ele>
        <time>2012-01-04T11:48:39Z</time>
      </trkpt>
      <trkpt lat="43.86813" lon="7.25697">
        <ele>1037.3</ele>
        <time>2012-01-04T11:48:45Z</time>
      </trkpt>
      <trkpt lat="43.8682" lon="7.25705">
        <ele>1038.4</ele>
        <time>2012-01-04T11:48:51Z</time>
      </trkpt>
      <trkpt lat="43.86827" lon="7.25712">
        <ele>1039.6</ele>
        <time>2012-01-04T11:48:57Z</time>
      </trkpt>
      <trkpt lat="43.86833" lon="7.2572">
        <ele>1040.2</ele>
        <time>2012-01-04T11:49:03Z</time>
      </trkpt>
      <trkpt lat="43.8684" lon="7.25728">
        <ele>1040.5</ele>
        <time>2012-01-04T11:49:09Z</time>
      </trkpt>
      <trkpt lat="43.86845" lon="7.25738">
        <ele>1041.3</ele>
        <time>2012-01-04T11:49:15Z</time>
      </trkpt>
      <trkpt lat="43.86851" lon="7.25746">
        <ele>1041.7</ele>
        <time>2012-01-04T11:49:21Z</time>
      </trkpt>
      <trkpt lat="43.86857" lon="7.25755">
        <ele>1042.7</ele>
        <time>2012-01-04T11:49:27Z</time>
      </trkpt>
      <trkpt lat="43.86857" lon="7.25757">
        <ele>1042.6</ele>
        <time>2012-01-04T11:49:28Z</time>
      </trkpt>
      <trkpt lat="43.86868" lon="7.25771">
        <ele>1045</ele>
        <time>2012-01-04T11:49:39Z</time>
      </trkpt>
      <trkpt lat="43.86874" lon="7.25779">
        <ele>1045.5</ele>
        <time>2012-01-04T11:49:45Z</time>
      </trkpt>
      <trkpt lat="43.8688" lon="7.25788">
        <ele>1047</ele>
        <time>2012-01-04T11:49:52Z</time>
      </trkpt>
      <trkpt lat="43.86887" lon="7.25795">
        <ele>1047.5</ele>
        <time>2012-01-04T11:49:58Z</time>
      </trkpt>
      <trkpt lat="43.86894" lon="7.25803">
        <ele>1048</ele>
        <time>2012-01-04T11:50:04Z</time>
      </trkpt>
      <trkpt lat="43.869" lon="7.25811">
        <ele>1049.7</ele>
        <time>2012-01-04T11:50:10Z</time>
      </trkpt>
      <trkpt lat="43.86906" lon="7.25819">
        <ele>1050.8</ele>
        <time>2012-01-04T11:50:16Z</time>
      </trkpt>
      <trkpt lat="43.86912" lon="7.25826">
        <ele>1051.3</ele>
        <time>2012-01-04T11:50:22Z</time>
      </trkpt>
      <trkpt lat="43.86918" lon="7.25833">
        <ele>1052.3</ele>
        <time>2012-01-04T11:50:28Z</time>
      </trkpt>
      <trkpt lat="43.86919" lon="7.25834">
        <ele>1052.3</ele>
        <time>2012-01-04T11:50:29Z</time>
      </trkpt>
      <trkpt lat="43.86931" lon="7.25849">
        <ele>1056.2</ele>
        <time>2012-01-04T11:50:42Z</time>
      </trkpt>
      <trkpt lat="43.86937" lon="7.25856">
        <ele>1054.3</ele>
        <time>2012-01-04T11:50:48Z</time>
      </trkpt>
      <trkpt lat="43.86943" lon="7.25865">
        <ele>1057.1</ele>
        <time>2012-01-04T11:50:55Z</time>
      </trkpt>
      <trkpt lat="43.8695" lon="7.25873">
        <ele>1057.8</ele>
        <time>2012-01-04T11:51:01Z</time>
      </trkpt>
      <trkpt lat="43.86955" lon="7.2588">
        <ele>1059</ele>
        <time>2012-01-04T11:51:06Z</time>
      </trkpt>
      <trkpt lat="43.86962" lon="7.25888">
        <ele>1058.3</ele>
        <time>2012-01-04T11:51:12Z</time>
      </trkpt>
      <trkpt lat="43.86967" lon="7.25896">
        <ele>1059.3</ele>
        <time>2012-01-04T11:51:17Z</time>
      </trkpt>
      <trkpt lat="43.86974" lon="7.25903">
        <ele>1059.8</ele>
        <time>2012-01-04T11:51:23Z</time>
      </trkpt>
      <trkpt lat="43.86981" lon="7.25908">
        <ele>1060.9</ele>
        <time>2012-01-04T11:51:29Z</time>
      </trkpt>
      <trkpt lat="43.86982" lon="7.25909">
        <ele>1061.1</ele>
        <time>2012-01-04T11:51:30Z</time>
      </trkpt>
      <trkpt lat="43.86995" lon="7.2592">
        <ele>1063.1</ele>
        <time>2012-01-04T11:51:40Z</time>
      </trkpt>
      <trkpt lat="43.87002" lon="7.25926">
        <ele>1063.9</ele>
        <time>2012-01-04T11:51:45Z</time>
      </trkpt>
      <trkpt lat="43.87009" lon="7.25931">
        <ele>1064.3</ele>
        <time>2012-01-04T11:51:50Z</time>
      </trkpt>
      <trkpt lat="43.87015" lon="7.25938">
        <ele>1065</ele>
        <time>2012-01-04T11:51:56Z</time>
      </trkpt>
      <trkpt lat="43.87022" lon="7.25945">
        <ele>1066</ele>
        <time>2012-01-04T11:52:02Z</time>
      </trkpt>
      <trkpt lat="43.87027" lon="7.25953">
        <ele>1066.7</ele>
        <time>2012-01-04T11:52:08Z</time>
      </trkpt>
      <trkpt lat="43.87031" lon="7.25963">
        <ele>1067.5</ele>
        <time>2012-01-04T11:52:15Z</time>
      </trkpt>
      <trkpt lat="43.87029" lon="7.25974">
        <ele>1068.3</ele>
        <time>2012-01-04T11:52:22Z</time>
      </trkpt>
      <trkpt lat="43.87022" lon="7.25983">
        <ele>1069.4</ele>
        <time>2012-01-04T11:52:29Z</time>
      </trkpt>
      <trkpt lat="43.87016" lon="7.25992">
        <ele>1069.6</ele>
        <time>2012-01-04T11:52:36Z</time>
      </trkpt>
      <trkpt lat="43.87015" lon="7.25993">
        <ele>1069.8</ele>
        <time>2012-01-04T11:52:37Z</time>
      </trkpt>
      <trkpt lat="43.87006" lon="7.26009">
        <ele>1071.4</ele>
        <time>2012-01-04T11:52:48Z</time>
      </trkpt>
      <trkpt lat="43.87" lon="7.26018">
        <ele>1071.5</ele>
        <time>2012-01-04T11:52:55Z</time>
      </trkpt>
      <trkpt lat="43.86993" lon="7.26026">
        <ele>1072.9</ele>
        <time>2012-01-04T11:53:01Z</time>
      </trkpt>
      <trkpt lat="43.86987" lon="7.26031">
        <ele>1074.1</ele>
        <time>2012-01-04T11:53:06Z</time>
      </trkpt>
      <trkpt lat="43.8698" lon="7.26034">
        <ele>1075.4</ele>
        <time>2012-01-04T11:53:11Z</time>
      </trkpt>
      <trkpt lat="43.86971" lon="7.26032">
        <ele>1076.5</ele>
        <time>2012-01-04T11:53:18Z</time>
      </trkpt>
      <trkpt lat="43.86962" lon="7.26031">
        <ele>1077.5</ele>
        <time>2012-01-04T11:53:24Z</time>
      </trkpt>
      <trkpt lat="43.86954" lon="7.26032">
        <ele>1078.8</ele>
        <time>2012-01-04T11:53:30Z</time>
      </trkpt>
      <trkpt lat="43.86947" lon="7.26037">
        <ele>1079.2</ele>
        <time>2012-01-04T11:53:36Z</time>
      </trkpt>
      <trkpt lat="43.8694" lon="7.26042">
        <ele>1079.6</ele>
        <time>2012-01-04T11:53:42Z</time>
      </trkpt>
      <trkpt lat="43.86938" lon="7.26043">
        <ele>1079.4</ele>
        <time>2012-01-04T11:53:43Z</time>
      </trkpt>
      <trkpt lat="43.86933" lon="7.26063">
        <ele>1080.5</ele>
        <time>2012-01-04T11:53:54Z</time>
      </trkpt>
      <trkpt lat="43.86939" lon="7.2607">
        <ele>1081.7</ele>
        <time>2012-01-04T11:54:00Z</time>
      </trkpt>
      <trkpt lat="43.86947" lon="7.26065">
        <ele>1083</ele>
        <time>2012-01-04T11:54:06Z</time>
      </trkpt>
      <trkpt lat="43.86952" lon="7.26057">
        <ele>1083.4</ele>
        <time>2012-01-04T11:54:12Z</time>
      </trkpt>
      <trkpt lat="43.8696" lon="7.26051">
        <ele>1085.2</ele>
        <time>2012-01-04T11:54:19Z</time>
      </trkpt>
      <trkpt lat="43.86969" lon="7.26049">
        <ele>1086.1</ele>
        <time>2012-01-04T11:54:26Z</time>
      </trkpt>
      <trkpt lat="43.86977" lon="7.26053">
        <ele>1087</ele>
        <time>2012-01-04T11:54:33Z</time>
      </trkpt>
      <trkpt lat="43.86984" lon="7.26059">
        <ele>1087.8</ele>
        <time>2012-01-04T11:54:39Z</time>
      </trkpt>
      <trkpt lat="43.86992" lon="7.26063">
        <ele>1089</ele>
        <time>2012-01-04T11:54:45Z</time>
      </trkpt>
      <trkpt lat="43.86994" lon="7.26062">
        <ele>1089.1</ele>
        <time>2012-01-04T11:54:46Z</time>
      </trkpt>
      <trkpt lat="43.87008" lon="7.26055">
        <ele>1090.6</ele>
        <time>2012-01-04T11:54:57Z</time>
      </trkpt>
      <trkpt lat="43.87015" lon="7.26048">
        <ele>1092.3</ele>
        <time>2012-01-04T11:55:04Z</time>
      </trkpt>
      <trkpt lat="43.87021" lon="7.26041">
        <ele>1092.4</ele>
        <time>2012-01-04T11:55:10Z</time>
      </trkpt>
      <trkpt lat="43.87026" lon="7.26033">
        <ele>1094.1</ele>
        <time>2012-01-04T11:55:16Z</time>
      </trkpt>
      <trkpt lat="43.87031" lon="7.26024">
        <ele>1095</ele>
        <time>2012-01-04T11:55:21Z</time>
      </trkpt>
      <trkpt lat="43.87037" lon="7.26016">
        <ele>1095.3</ele>
        <time>2012-01-04T11:55:26Z</time>
      </trkpt>
      <trkpt lat="43.87043" lon="7.26009">
        <ele>1095.6</ele>
        <time>2012-01-04T11:55:31Z</time>
      </trkpt>
      <trkpt lat="43.8705" lon="7.26003">
        <ele>1096.2</ele>
        <time>2012-01-04T11:55:36Z</time>
      </trkpt>
      <trkpt lat="43.87058" lon="7.25998">
        <ele>1095.7</ele>
        <time>2012-01-04T11:55:41Z</time>
      </trkpt>
      <trkpt lat="43.87067" lon="7.25996">
        <ele>1096.2</ele>
        <time>2012-01-04T11:55:46Z</time>
      </trkpt>
      <trkpt lat="43.87074" lon="7.25992">
        <ele>1097.5</ele>
        <time>2012-01-04T11:55:50Z</time>
      </trkpt>
      <trkpt lat="43.87075" lon="7.2599">
        <ele>1097.8</ele>
        <time>2012-01-04T11:55:51Z</time>
      </trkpt>
      <trkpt lat="43.87088" lon="7.2598">
        <ele>1098.3</ele>
        <time>2012-01-04T11:55:59Z</time>
      </trkpt>
      <trkpt lat="43.87094" lon="7.25975">
        <ele>1098.8</ele>
        <time>2012-01-04T11:56:03Z</time>
      </trkpt>
      <trkpt lat="43.87101" lon="7.25968">
        <ele>1100</ele>
        <time>2012-01-04T11:56:08Z</time>
      </trkpt>
      <trkpt lat="43.87108" lon="7.25962">
        <ele>1100.4</ele>
        <time>2012-01-04T11:56:13Z</time>
      </trkpt>
      <trkpt lat="43.87116" lon="7.25959">
        <ele>1101</ele>
        <time>2012-01-04T11:56:18Z</time>
      </trkpt>
      <trkpt lat="43.87125" lon="7.25957">
        <ele>1101.6</ele>
        <time>2012-01-04T11:56:44Z</time>
      </trkpt>
      <trkpt lat="43.87133" lon="7.25951">
        <ele>1102.1</ele>
        <time>2012-01-04T11:57:17Z</time>
      </trkpt>
      <trkpt lat="43.87133" lon="7.25952">
        <ele>1101.9</ele>
        <time>2012-01-04T11:57:18Z</time>
      </trkpt>
      <trkpt lat="43.87142" lon="7.25969">
        <ele>1101.6</ele>
        <time>2012-01-04T11:57:26Z</time>
      </trkpt>
      <trkpt lat="43.87145" lon="7.25978">
        <ele>1102.1</ele>
        <time>2012-01-04T11:57:30Z</time>
      </trkpt>
      <trkpt lat="43.87148" lon="7.25988">
        <ele>1101.5</ele>
        <time>2012-01-04T11:57:34Z</time>
      </trkpt>
      <trkpt lat="43.8715" lon="7.25997">
        <ele>1102.4</ele>
        <time>2012-01-04T11:57:38Z</time>
      </trkpt>
      <trkpt lat="43.87152" lon="7.26007">
        <ele>1103.4</ele>
        <time>2012-01-04T11:57:42Z</time>
      </trkpt>
      <trkpt lat="43.8715" lon="7.26019">
        <ele>1104.5</ele>
        <time>2012-01-04T11:57:47Z</time>
      </trkpt>
      <trkpt lat="43.87146" lon="7.26029">
        <ele>1104.9</ele>
        <time>2012-01-04T11:57:52Z</time>
      </trkpt>
      <trkpt lat="43.87141" lon="7.26039">
        <ele>1105.2</ele>
        <time>2012-01-04T11:57:57Z</time>
      </trkpt>
      <trkpt lat="43.87137" lon="7.26051">
        <ele>1105</ele>
        <time>2012-01-04T11:58:02Z</time>
      </trkpt>
      <trkpt lat="43.87132" lon="7.26061">
        <ele>1106.3</ele>
        <time>2012-01-04T11:58:07Z</time>
      </trkpt>
      <trkpt lat="43.87128" lon="7.26071">
        <ele>1107.7</ele>
        <time>2012-01-04T11:58:12Z</time>
      </trkpt>
      <trkpt lat="43.87122" lon="7.26081">
        <ele>1108.4</ele>
        <time>2012-01-04T11:58:17Z</time>
      </trkpt>
      <trkpt lat="43.87118" lon="7.2609">
        <ele>1108.1</ele>
        <time>2012-01-04T11:58:21Z</time>
      </trkpt>
      <trkpt lat="43.87116" lon="7.26092">
        <ele>1108.3</ele>
        <time>2012-01-04T11:58:22Z</time>
      </trkpt>
      <trkpt lat="43.87108" lon="7.26105">
        <ele>1109</ele>
        <time>2012-01-04T11:58:29Z</time>
      </trkpt>
      <trkpt lat="43.87102" lon="7.26112">
        <ele>1110</ele>
        <time>2012-01-04T11:58:33Z</time>
      </trkpt>
      <trkpt lat="43.87096" lon="7.26119">
        <ele>1110</ele>
        <time>2012-01-04T11:58:37Z</time>
      </trkpt>
      <trkpt lat="43.87091" lon="7.26126">
        <ele>1110.8</ele>
        <time>2012-01-04T11:58:41Z</time>
      </trkpt>
      <trkpt lat="43.87085" lon="7.26135">
        <ele>1111.3</ele>
        <time>2012-01-04T11:58:46Z</time>
      </trkpt>
      <trkpt lat="43.87082" lon="7.26145">
        <ele>1111.8</ele>
        <time>2012-01-04T11:58:51Z</time>
      </trkpt>
      <trkpt lat="43.87083" lon="7.26157">
        <ele>1111.8</ele>
        <time>2012-01-04T11:58:56Z</time>
      </trkpt>
      <trkpt lat="43.87085" lon="7.26167">
        <ele>1112.1</ele>
        <time>2012-01-04T11:59:00Z</time>
      </trkpt>
      <trkpt lat="43.87088" lon="7.26177">
        <ele>1113.8</ele>
        <time>2012-01-04T11:59:05Z</time>
      </trkpt>
      <trkpt lat="43.87088" lon="7.26189">
        <ele>1114</ele>
        <time>2012-01-04T11:59:10Z</time>
      </trkpt>
      <trkpt lat="43.87087" lon="7.26201">
        <ele>1114.2</ele>
        <time>2012-01-04T11:59:15Z</time>
      </trkpt>
      <trkpt lat="43.87087" lon="7.26212">
        <ele>1115.8</ele>
        <time>2012-01-04T11:59:20Z</time>
      </trkpt>
      <trkpt lat="43.87088" lon="7.26223">
        <ele>1115.3</ele>
        <time>2012-01-04T11:59:24Z</time>
      </trkpt>
      <trkpt lat="43.87088" lon="7.26226">
        <ele>1115.2</ele>
        <time>2012-01-04T11:59:25Z</time>
      </trkpt>
      <trkpt lat="43.87092" lon="7.26244">
        <ele>1116.9</ele>
        <time>2012-01-04T11:59:32Z</time>
      </trkpt>
      <trkpt lat="43.87095" lon="7.26253">
        <ele>1117.7</ele>
        <time>2012-01-04T11:59:36Z</time>
      </trkpt>
      <trkpt lat="43.87098" lon="7.26263">
        <ele>1117.9</ele>
        <time>2012-01-04T11:59:40Z</time>
      </trkpt>
      <trkpt lat="43.871" lon="7.26273">
        <ele>1118.4</ele>
        <time>2012-01-04T11:59:44Z</time>
      </trkpt>
      <trkpt lat="43.87102" lon="7.26285">
        <ele>1119</ele>
        <time>2012-01-04T11:59:49Z</time>
      </trkpt>
      <trkpt lat="43.87102" lon="7.26297">
        <ele>1119.1</ele>
        <time>2012-01-04T11:59:54Z</time>
      </trkpt>
      <trkpt lat="43.87102" lon="7.26309">
        <ele>1120.6</ele>
        <time>2012-01-04T11:59:59Z</time>
      </trkpt>
      <trkpt lat="43.87101" lon="7.2632">
        <ele>1120.3</ele>
        <time>2012-01-04T12:00:04Z</time>
      </trkpt>
      <trkpt lat="43.87099" lon="7.26331">
        <ele>1120.8</ele>
        <time>2012-01-04T12:00:09Z</time>
      </trkpt>
      <trkpt lat="43.87097" lon="7.26343">
        <ele>1122.3</ele>
        <time>2012-01-04T12:00:14Z</time>
      </trkpt>
      <trkpt lat="43.87097" lon="7.26354">
        <ele>1122.8</ele>
        <time>2012-01-04T12:00:18Z</time>
      </trkpt>
      <trkpt lat="43.87095" lon="7.26366">
        <ele>1123.5</ele>
        <time>2012-01-04T12:00:23Z</time>
      </trkpt>
      <trkpt lat="43.87095" lon="7.26377">
        <ele>1123.1</ele>
        <time>2012-01-04T12:00:27Z</time>
      </trkpt>
      <trkpt lat="43.87095" lon="7.26379">
        <ele>1123.2</ele>
        <time>2012-01-04T12:00:28Z</time>
      </trkpt>
      <trkpt lat="43.87098" lon="7.264">
        <ele>1123.6</ele>
        <time>2012-01-04T12:00:35Z</time>
      </trkpt>
      <trkpt lat="43.87101" lon="7.26409">
        <ele>1123.9</ele>
        <time>2012-01-04T12:00:38Z</time>
      </trkpt>
      <trkpt lat="43.87103" lon="7.26417">
        <ele>1124.1</ele>
        <time>2012-01-04T12:00:41Z</time>
      </trkpt>
      <trkpt lat="43.87106" lon="7.26429">
        <ele>1125.3</ele>
        <time>2012-01-04T12:00:45Z</time>
      </trkpt>
      <trkpt lat="43.87109" lon="7.2644">
        <ele>1125.9</ele>
        <time>2012-01-04T12:00:49Z</time>
      </trkpt>
      <trkpt lat="43.87111" lon="7.26452">
        <ele>1126.4</ele>
        <time>2012-01-04T12:00:53Z</time>
      </trkpt>
      <trkpt lat="43.87114" lon="7.26462">
        <ele>1126.7</ele>
        <time>2012-01-04T12:00:57Z</time>
      </trkpt>
      <trkpt lat="43.87115" lon="7.26474">
        <ele>1127.8</ele>
        <time>2012-01-04T12:01:02Z</time>
      </trkpt>
      <trkpt lat="43.87113" lon="7.26486">
        <ele>1127.9</ele>
        <time>2012-01-04T12:01:07Z</time>
      </trkpt>
      <trkpt lat="43.87109" lon="7.26495">
        <ele>1128.5</ele>
        <time>2012-01-04T12:01:11Z</time>
      </trkpt>
      <trkpt lat="43.87104" lon="7.26502">
        <ele>1129.2</ele>
        <time>2012-01-04T12:01:15Z</time>
      </trkpt>
      <trkpt lat="43.87097" lon="7.26511">
        <ele>1129.1</ele>
        <time>2012-01-04T12:01:19Z</time>
      </trkpt>
      <trkpt lat="43.87092" lon="7.26516">
        <ele>1129.5</ele>
        <time>2012-01-04T12:01:22Z</time>
      </trkpt>
      <trkpt lat="43.87084" lon="7.26522">
        <ele>1130</ele>
        <time>2012-01-04T12:01:26Z</time>
      </trkpt>
      <trkpt lat="43.87076" lon="7.26523">
        <ele>1130.4</ele>
        <time>2012-01-04T12:01:30Z</time>
      </trkpt>
      <trkpt lat="43.87074" lon="7.26523">
        <ele>1130.5</ele>
        <time>2012-01-04T12:01:31Z</time>
      </trkpt>
      <trkpt lat="43.8706" lon="7.26527">
        <ele>1129.2</ele>
        <time>2012-01-04T12:01:46Z</time>
      </trkpt>
      <trkpt lat="43.87053" lon="7.26534">
        <ele>1129.7</ele>
        <time>2012-01-04T12:01:54Z</time>
      </trkpt>
      <trkpt lat="43.87053" lon="7.26522">
        <ele>1130.9</ele>
        <time>2012-01-04T12:09:59Z</time>
      </trkpt>
      <trkpt lat="43.87053" lon="7.26522">
        <ele>1131</ele>
        <time>2012-01-04T12:10:00Z</time>
      </trkpt>
      <trkpt lat="43.87051" lon="7.26535">
        <ele>1129.5</ele>
        <time>2012-01-04T12:18:30Z</time>
      </trkpt>
      <trkpt lat="43.8704" lon="7.26534">
        <ele>1128.2</ele>
        <time>2012-01-04T12:42:20Z</time>
      </trkpt>
      <trkpt lat="43.87031" lon="7.26538">
        <ele>1127.8</ele>
        <time>2012-01-04T12:42:23Z</time>
      </trkpt>
      <trkpt lat="43.87024" lon="7.26544">
        <ele>1127.4</ele>
        <time>2012-01-04T12:42:25Z</time>
      </trkpt>
      <trkpt lat="43.87021" lon="7.26548">
        <ele>1127.2</ele>
        <time>2012-01-04T12:42:26Z</time>
      </trkpt>
      <trkpt lat="43.87017" lon="7.26551">
        <ele>1126.5</ele>
        <time>2012-01-04T12:42:27Z</time>
      </trkpt>
      <trkpt lat="43.87013" lon="7.26555">
        <ele>1126</ele>
        <time>2012-01-04T12:42:28Z</time>
      </trkpt>
      <trkpt lat="43.87008" lon="7.26559">
        <ele>1125.6</ele>
        <time>2012-01-04T12:42:29Z</time>
      </trkpt>
      <trkpt lat="43.87003" lon="7.26562">
        <ele>1124.9</ele>
        <time>2012-01-04T12:42:30Z</time>
      </trkpt>
      <trkpt lat="43.86998" lon="7.26564">
        <ele>1124.4</ele>
        <time>2012-01-04T12:42:31Z</time>
      </trkpt>
      <trkpt lat="43.86993" lon="7.26566">
        <ele>1124.3</ele>
        <time>2012-01-04T12:42:32Z</time>
      </trkpt>
      <trkpt lat="43.86988" lon="7.26566">
        <ele>1124.2</ele>
        <time>2012-01-04T12:42:33Z</time>
      </trkpt>
      <trkpt lat="43.86983" lon="7.26567">
        <ele>1124.1</ele>
        <time>2012-01-04T12:42:34Z</time>
      </trkpt>
      <trkpt lat="43.86978" lon="7.26566">
        <ele>1123.9</ele>
        <time>2012-01-04T12:42:35Z</time>
      </trkpt>
      <trkpt lat="43.86973" lon="7.26565">
        <ele>1123.8</ele>
        <time>2012-01-04T12:42:36Z</time>
      </trkpt>
      <trkpt lat="43.86967" lon="7.26564">
        <ele>1123.4</ele>
        <time>2012-01-04T12:42:37Z</time>
      </trkpt>
      <trkpt lat="43.86962" lon="7.26563">
        <ele>1123</ele>
        <time>2012-01-04T12:42:38Z</time>
      </trkpt>
      <trkpt lat="43.86956" lon="7.26562">
        <ele>1122.8</ele>
        <time>2012-01-04T12:42:39Z</time>
      </trkpt>
      <trkpt lat="43.8695" lon="7.2656">
        <ele>1122.5</ele>
        <time>2012-01-04T12:42:40Z</time>
      </trkpt>
      <trkpt lat="43.86945" lon="7.26559">
        <ele>1122.4</ele>
        <time>2012-01-04T12:42:41Z</time>
      </trkpt>
      <trkpt lat="43.86939" lon="7.26559">
        <ele>1122.2</ele>
        <time>2012-01-04T12:42:42Z</time>
      </trkpt>
      <trkpt lat="43.86934" lon="7.2656">
        <ele>1122.1</ele>
        <time>2012-01-04T12:42:43Z</time>
      </trkpt>
      <trkpt lat="43.8693" lon="7.26561">
        <ele>1120.9</ele>
        <time>2012-01-04T12:42:44Z</time>
      </trkpt>
      <trkpt lat="43.86925" lon="7.26565">
        <ele>1120.1</ele>
        <time>2012-01-04T12:42:45Z</time>
      </trkpt>
      <trkpt lat="43.86922" lon="7.26569">
        <ele>1119.6</ele>
        <time>2012-01-04T12:42:46Z</time>
      </trkpt>
      <trkpt lat="43.86917" lon="7.26579">
        <ele>1119.1</ele>
        <time>2012-01-04T12:42:48Z</time>
      </trkpt>
      <trkpt lat="43.86912" lon="7.26589">
        <ele>1118.6</ele>
        <time>2012-01-04T12:42:50Z</time>
      </trkpt>
      <trkpt lat="43.86909" lon="7.26595">
        <ele>1118.4</ele>
        <time>2012-01-04T12:42:51Z</time>
      </trkpt>
      <trkpt lat="43.86907" lon="7.26601">
        <ele>1118.2</ele>
        <time>2012-01-04T12:42:52Z</time>
      </trkpt>
      <trkpt lat="43.86904" lon="7.26606">
        <ele>1118.1</ele>
        <time>2012-01-04T12:42:53Z</time>
      </trkpt>
      <trkpt lat="43.869" lon="7.26611">
        <ele>1117.7</ele>
        <time>2012-01-04T12:42:54Z</time>
      </trkpt>
      <trkpt lat="43.86897" lon="7.26616">
        <ele>1117.4</ele>
        <time>2012-01-04T12:42:55Z</time>
      </trkpt>
      <trkpt lat="43.86893" lon="7.26622">
        <ele>1116.8</ele>
        <time>2012-01-04T12:42:56Z</time>
      </trkpt>
      <trkpt lat="43.8689" lon="7.26628">
        <ele>1116.4</ele>
        <time>2012-01-04T12:42:57Z</time>
      </trkpt>
      <trkpt lat="43.86886" lon="7.26634">
        <ele>1115.6</ele>
        <time>2012-01-04T12:42:58Z</time>
      </trkpt>
      <trkpt lat="43.86882" lon="7.26639">
        <ele>1114.9</ele>
        <time>2012-01-04T12:42:59Z</time>
      </trkpt>
      <trkpt lat="43.86877" lon="7.26644">
        <ele>1114.4</ele>
        <time>2012-01-04T12:43:00Z</time>
      </trkpt>
      <trkpt lat="43.86872" lon="7.26648">
        <ele>1114.1</ele>
        <time>2012-01-04T12:43:01Z</time>
      </trkpt>
      <trkpt lat="43.86867" lon="7.26652">
        <ele>1113.9</ele>
        <time>2012-01-04T12:43:02Z</time>
      </trkpt>
      <trkpt lat="43.86862" lon="7.26655">
        <ele>1113.4</ele>
        <time>2012-01-04T12:43:03Z</time>
      </trkpt>
      <trkpt lat="43.86856" lon="7.26657">
        <ele>1113.1</ele>
        <time>2012-01-04T12:43:04Z</time>
      </trkpt>
      <trkpt lat="43.86851" lon="7.26658">
        <ele>1112.7</ele>
        <time>2012-01-04T12:43:05Z</time>
      </trkpt>
      <trkpt lat="43.86845" lon="7.26658">
        <ele>1112.4</ele>
        <time>2012-01-04T12:43:06Z</time>
      </trkpt>
      <trkpt lat="43.86839" lon="7.26657">
        <ele>1112.2</ele>
        <time>2012-01-04T12:43:07Z</time>
      </trkpt>
      <trkpt lat="43.86831" lon="7.26655">
        <ele>1111.3</ele>
        <time>2012-01-04T12:43:09Z</time>
      </trkpt>
      <trkpt lat="43.86823" lon="7.26653">
        <ele>1110.9</ele>
        <time>2012-01-04T12:43:12Z</time>
      </trkpt>
      <trkpt lat="43.86814" lon="7.26651">
        <ele>1111.3</ele>
        <time>2012-01-04T12:44:09Z</time>
      </trkpt>
      <trkpt lat="43.86814" lon="7.26651">
        <ele>1111.1</ele>
        <time>2012-01-04T12:44:10Z</time>
      </trkpt>
      <trkpt lat="43.86813" lon="7.26632">
        <ele>1108.8</ele>
        <time>2012-01-04T12:44:44Z</time>
      </trkpt>
      <trkpt lat="43.86807" lon="7.26624">
        <ele>1106.6</ele>
        <time>2012-01-04T12:44:46Z</time>
      </trkpt>
      <trkpt lat="43.86803" lon="7.26617">
        <ele>1105.1</ele>
        <time>2012-01-04T12:44:47Z</time>
      </trkpt>
      <trkpt lat="43.86796" lon="7.2661">
        <ele>1103.3</ele>
        <time>2012-01-04T12:44:49Z</time>
      </trkpt>
      <trkpt lat="43.86788" lon="7.26607">
        <ele>1101.9</ele>
        <time>2012-01-04T12:44:51Z</time>
      </trkpt>
      <trkpt lat="43.8678" lon="7.26605">
        <ele>1100.5</ele>
        <time>2012-01-04T12:44:53Z</time>
      </trkpt>
      <trkpt lat="43.86775" lon="7.26603">
        <ele>1100.1</ele>
        <time>2012-01-04T12:44:54Z</time>
      </trkpt>
      <trkpt lat="43.8677" lon="7.26602">
        <ele>1100.1</ele>
        <time>2012-01-04T12:44:55Z</time>
      </trkpt>
      <trkpt lat="43.86762" lon="7.26601">
        <ele>1099.9</ele>
        <time>2012-01-04T12:44:57Z</time>
      </trkpt>
      <trkpt lat="43.86757" lon="7.26599">
        <ele>1099.8</ele>
        <time>2012-01-04T12:44:58Z</time>
      </trkpt>
      <trkpt lat="43.86752" lon="7.26597">
        <ele>1099</ele>
        <time>2012-01-04T12:44:59Z</time>
      </trkpt>
      <trkpt lat="43.86747" lon="7.26595">
        <ele>1098.4</ele>
        <time>2012-01-04T12:45:00Z</time>
      </trkpt>
      <trkpt lat="43.86742" lon="7.26593">
        <ele>1098</ele>
        <time>2012-01-04T12:45:01Z</time>
      </trkpt>
      <trkpt lat="43.86736" lon="7.2659">
        <ele>1097.1</ele>
        <time>2012-01-04T12:45:02Z</time>
      </trkpt>
      <trkpt lat="43.86731" lon="7.26588">
        <ele>1096.5</ele>
        <time>2012-01-04T12:45:03Z</time>
      </trkpt>
      <trkpt lat="43.86726" lon="7.26586">
        <ele>1096.2</ele>
        <time>2012-01-04T12:45:04Z</time>
      </trkpt>
      <trkpt lat="43.8672" lon="7.26583">
        <ele>1095.9</ele>
        <time>2012-01-04T12:45:05Z</time>
      </trkpt>
      <trkpt lat="43.86714" lon="7.26582">
        <ele>1094.9</ele>
        <time>2012-01-04T12:45:06Z</time>
      </trkpt>
      <trkpt lat="43.86708" lon="7.26581">
        <ele>1094.2</ele>
        <time>2012-01-04T12:45:07Z</time>
      </trkpt>
      <trkpt lat="43.86703" lon="7.2658">
        <ele>1093.6</ele>
        <time>2012-01-04T12:45:08Z</time>
      </trkpt>
      <trkpt lat="43.86699" lon="7.2658">
        <ele>1093.3</ele>
        <time>2012-01-04T12:45:09Z</time>
      </trkpt>
      <trkpt lat="43.8669" lon="7.26582">
        <ele>1092.4</ele>
        <time>2012-01-04T12:45:11Z</time>
      </trkpt>
      <trkpt lat="43.86686" lon="7.26583">
        <ele>1091.8</ele>
        <time>2012-01-04T12:45:12Z</time>
      </trkpt>
      <trkpt lat="43.86676" lon="7.26587">
        <ele>1088.8</ele>
        <time>2012-01-04T12:45:15Z</time>
      </trkpt>
      <trkpt lat="43.86668" lon="7.26592">
        <ele>1087</ele>
        <time>2012-01-04T12:45:18Z</time>
      </trkpt>
      <trkpt lat="43.86662" lon="7.26597">
        <ele>1086</ele>
        <time>2012-01-04T12:45:20Z</time>
      </trkpt>
      <trkpt lat="43.86656" lon="7.266">
        <ele>1084.9</ele>
        <time>2012-01-04T12:45:22Z</time>
      </trkpt>
      <trkpt lat="43.86648" lon="7.26603">
        <ele>1083.9</ele>
        <time>2012-01-04T12:45:24Z</time>
      </trkpt>
      <trkpt lat="43.86639" lon="7.26604">
        <ele>1082.7</ele>
        <time>2012-01-04T12:45:26Z</time>
      </trkpt>
      <trkpt lat="43.86633" lon="7.26607">
        <ele>1082.1</ele>
        <time>2012-01-04T12:45:28Z</time>
      </trkpt>
      <trkpt lat="43.86625" lon="7.2661">
        <ele>1081.3</ele>
        <time>2012-01-04T12:45:31Z</time>
      </trkpt>
      <trkpt lat="43.86617" lon="7.26611">
        <ele>1080.6</ele>
        <time>2012-01-04T12:45:33Z</time>
      </trkpt>
      <trkpt lat="43.86608" lon="7.26608">
        <ele>1079.5</ele>
        <time>2012-01-04T12:45:35Z</time>
      </trkpt>
      <trkpt lat="43.86604" lon="7.26606">
        <ele>1079.1</ele>
        <time>2012-01-04T12:45:36Z</time>
      </trkpt>
      <trkpt lat="43.86595" lon="7.26603">
        <ele>1078.1</ele>
        <time>2012-01-04T12:45:38Z</time>
      </trkpt>
      <trkpt lat="43.86589" lon="7.26599">
        <ele>1076.9</ele>
        <time>2012-01-04T12:45:40Z</time>
      </trkpt>
      <trkpt lat="43.86582" lon="7.26594">
        <ele>1075.9</ele>
        <time>2012-01-04T12:45:42Z</time>
      </trkpt>
      <trkpt lat="43.86576" lon="7.26589">
        <ele>1075.3</ele>
        <time>2012-01-04T12:45:44Z</time>
      </trkpt>
      <trkpt lat="43.8657" lon="7.26587">
        <ele>1074.7</ele>
        <time>2012-01-04T12:45:46Z</time>
      </trkpt>
      <trkpt lat="43.86563" lon="7.26585">
        <ele>1074.6</ele>
        <time>2012-01-04T12:45:48Z</time>
      </trkpt>
      <trkpt lat="43.86556" lon="7.26582">
        <ele>1073.4</ele>
        <time>2012-01-04T12:45:50Z</time>
      </trkpt>
      <trkpt lat="43.86548" lon="7.26578">
        <ele>1072.6</ele>
        <time>2012-01-04T12:45:52Z</time>
      </trkpt>
      <trkpt lat="43.8654" lon="7.26574">
        <ele>1072</ele>
        <time>2012-01-04T12:45:54Z</time>
      </trkpt>
      <trkpt lat="43.86532" lon="7.26568">
        <ele>1071.4</ele>
        <time>2012-01-04T12:45:56Z</time>
      </trkpt>
      <trkpt lat="43.86524" lon="7.26564">
        <ele>1070.2</ele>
        <time>2012-01-04T12:45:59Z</time>
      </trkpt>
      <trkpt lat="43.86518" lon="7.26557">
        <ele>1069.4</ele>
        <time>2012-01-04T12:46:01Z</time>
      </trkpt>
      <trkpt lat="43.86511" lon="7.26551">
        <ele>1068.7</ele>
        <time>2012-01-04T12:46:03Z</time>
      </trkpt>
      <trkpt lat="43.86507" lon="7.26546">
        <ele>1068.3</ele>
        <time>2012-01-04T12:46:04Z</time>
      </trkpt>
      <trkpt lat="43.865" lon="7.26538">
        <ele>1067.5</ele>
        <time>2012-01-04T12:46:06Z</time>
      </trkpt>
      <trkpt lat="43.86493" lon="7.26532">
        <ele>1066.3</ele>
        <time>2012-01-04T12:46:08Z</time>
      </trkpt>
      <trkpt lat="43.8649" lon="7.26528">
        <ele>1065.7</ele>
        <time>2012-01-04T12:46:09Z</time>
      </trkpt>
      <trkpt lat="43.86487" lon="7.26522">
        <ele>1064.7</ele>
        <time>2012-01-04T12:46:10Z</time>
      </trkpt>
      <trkpt lat="43.86484" lon="7.26518">
        <ele>1064</ele>
        <time>2012-01-04T12:46:11Z</time>
      </trkpt>
      <trkpt lat="43.8648" lon="7.26514">
        <ele>1063.5</ele>
        <time>2012-01-04T12:46:12Z</time>
      </trkpt>
      <trkpt lat="43.86476" lon="7.2651">
        <ele>1062.9</ele>
        <time>2012-01-04T12:46:13Z</time>
      </trkpt>
      <trkpt lat="43.86472" lon="7.26506">
        <ele>1062.5</ele>
        <time>2012-01-04T12:46:14Z</time>
      </trkpt>
      <trkpt lat="43.86467" lon="7.26502">
        <ele>1061.8</ele>
        <time>2012-01-04T12:46:15Z</time>
      </trkpt>
      <trkpt lat="43.86463" lon="7.26499">
        <ele>1061.2</ele>
        <time>2012-01-04T12:46:16Z</time>
      </trkpt>
      <trkpt lat="43.86459" lon="7.26495">
        <ele>1060.8</ele>
        <time>2012-01-04T12:46:17Z</time>
      </trkpt>
      <trkpt lat="43.86451" lon="7.2649">
        <ele>1060.2</ele>
        <time>2012-01-04T12:46:19Z</time>
      </trkpt>
      <trkpt lat="43.86444" lon="7.2649">
        <ele>1060.3</ele>
        <time>2012-01-04T12:46:21Z</time>
      </trkpt>
      <trkpt lat="43.86438" lon="7.26491">
        <ele>1059.6</ele>
        <time>2012-01-04T12:46:23Z</time>
      </trkpt>
      <trkpt lat="43.86429" lon="7.26489">
        <ele>1059</ele>
        <time>2012-01-04T12:46:29Z</time>
      </trkpt>
      <trkpt lat="43.8642" lon="7.26487">
        <ele>1059.2</ele>
        <time>2012-01-04T12:47:01Z</time>
      </trkpt>
      <trkpt lat="43.86412" lon="7.26483">
        <ele>1058.4</ele>
        <time>2012-01-04T12:47:16Z</time>
      </trkpt>
      <trkpt lat="43.86411" lon="7.26483">
        <ele>1058</ele>
        <time>2012-01-04T12:47:17Z</time>
      </trkpt>
      <trkpt lat="43.86398" lon="7.26472">
        <ele>1056</ele>
        <time>2012-01-04T12:47:23Z</time>
      </trkpt>
      <trkpt lat="43.86391" lon="7.26469">
        <ele>1055.6</ele>
        <time>2012-01-04T12:47:26Z</time>
      </trkpt>
      <trkpt lat="43.86384" lon="7.26466">
        <ele>1052.8</ele>
        <time>2012-01-04T12:48:17Z</time>
      </trkpt>
      <trkpt lat="43.86383" lon="7.26465">
        <ele>1052.7</ele>
        <time>2012-01-04T12:48:18Z</time>
      </trkpt>
      <trkpt lat="43.86371" lon="7.26454">
        <ele>1050.2</ele>
        <time>2012-01-04T12:48:23Z</time>
      </trkpt>
      <trkpt lat="43.86364" lon="7.26449">
        <ele>1048.2</ele>
        <time>2012-01-04T12:48:27Z</time>
      </trkpt>
      <trkpt lat="43.86358" lon="7.26446">
        <ele>1047.3</ele>
        <time>2012-01-04T12:48:29Z</time>
      </trkpt>
      <trkpt lat="43.86353" lon="7.26442">
        <ele>1046.2</ele>
        <time>2012-01-04T12:48:31Z</time>
      </trkpt>
      <trkpt lat="43.86349" lon="7.26432">
        <ele>1044.6</ele>
        <time>2012-01-04T12:48:34Z</time>
      </trkpt>
      <trkpt lat="43.86349" lon="7.26424">
        <ele>1042.4</ele>
        <time>2012-01-04T12:48:36Z</time>
      </trkpt>
      <trkpt lat="43.86348" lon="7.26414">
        <ele>1041.2</ele>
        <time>2012-01-04T12:48:38Z</time>
      </trkpt>
      <trkpt lat="43.86345" lon="7.26408">
        <ele>1040.9</ele>
        <time>2012-01-04T12:48:39Z</time>
      </trkpt>
      <trkpt lat="43.86342" lon="7.26402">
        <ele>1039.2</ele>
        <time>2012-01-04T12:48:40Z</time>
      </trkpt>
      <trkpt lat="43.86338" lon="7.26397">
        <ele>1037.9</ele>
        <time>2012-01-04T12:48:41Z</time>
      </trkpt>
      <trkpt lat="43.86332" lon="7.26389">
        <ele>1036.5</ele>
        <time>2012-01-04T12:48:43Z</time>
      </trkpt>
      <trkpt lat="43.86326" lon="7.2638">
        <ele>1033.6</ele>
        <time>2012-01-04T12:48:52Z</time>
      </trkpt>
      <trkpt lat="43.86319" lon="7.26374">
        <ele>1032.2</ele>
        <time>2012-01-04T12:48:57Z</time>
      </trkpt>
      <trkpt lat="43.86314" lon="7.26369">
        <ele>1031.6</ele>
        <time>2012-01-04T12:48:59Z</time>
      </trkpt>
      <trkpt lat="43.86308" lon="7.26364">
        <ele>1030.9</ele>
        <time>2012-01-04T12:49:01Z</time>
      </trkpt>
      <trkpt lat="43.86303" lon="7.26358">
        <ele>1030.3</ele>
        <time>2012-01-04T12:49:03Z</time>
      </trkpt>
      <trkpt lat="43.86295" lon="7.26351">
        <ele>1030.3</ele>
        <time>2012-01-04T12:49:06Z</time>
      </trkpt>
      <trkpt lat="43.86287" lon="7.26348">
        <ele>1030.1</ele>
        <time>2012-01-04T12:49:18Z</time>
      </trkpt>
      <trkpt lat="43.86285" lon="7.26348">
        <ele>1029.8</ele>
        <time>2012-01-04T12:49:19Z</time>
      </trkpt>
      <trkpt lat="43.86271" lon="7.26345">
        <ele>1027.2</ele>
        <time>2012-01-04T12:50:45Z</time>
      </trkpt>
      <trkpt lat="43.86269" lon="7.26345">
        <ele>1027.2</ele>
        <time>2012-01-04T12:50:46Z</time>
      </trkpt>
      <trkpt lat="43.86259" lon="7.26336">
        <ele>1026.7</ele>
        <time>2012-01-04T12:50:50Z</time>
      </trkpt>
      <trkpt lat="43.86252" lon="7.26328">
        <ele>1026.2</ele>
        <time>2012-01-04T12:50:52Z</time>
      </trkpt>
      <trkpt lat="43.86249" lon="7.26323">
        <ele>1025.4</ele>
        <time>2012-01-04T12:50:53Z</time>
      </trkpt>
      <trkpt lat="43.86246" lon="7.26318">
        <ele>1024.8</ele>
        <time>2012-01-04T12:50:54Z</time>
      </trkpt>
      <trkpt lat="43.86243" lon="7.26312">
        <ele>1024.1</ele>
        <time>2012-01-04T12:50:55Z</time>
      </trkpt>
      <trkpt lat="43.86239" lon="7.26307">
        <ele>1023.6</ele>
        <time>2012-01-04T12:50:56Z</time>
      </trkpt>
      <trkpt lat="43.86235" lon="7.26301">
        <ele>1023.3</ele>
        <time>2012-01-04T12:50:57Z</time>
      </trkpt>
      <trkpt lat="43.86231" lon="7.26295">
        <ele>1023.2</ele>
        <time>2012-01-04T12:50:58Z</time>
      </trkpt>
      <trkpt lat="43.86226" lon="7.26289">
        <ele>1023.1</ele>
        <time>2012-01-04T12:50:59Z</time>
      </trkpt>
      <trkpt lat="43.8622" lon="7.26283">
        <ele>1022.1</ele>
        <time>2012-01-04T12:51:00Z</time>
      </trkpt>
      <trkpt lat="43.86213" lon="7.26278">
        <ele>1021.4</ele>
        <time>2012-01-04T12:51:01Z</time>
      </trkpt>
      <trkpt lat="43.86207" lon="7.26273">
        <ele>1020.1</ele>
        <time>2012-01-04T12:51:02Z</time>
      </trkpt>
      <trkpt lat="43.86201" lon="7.26267">
        <ele>1019.1</ele>
        <time>2012-01-04T12:51:03Z</time>
      </trkpt>
      <trkpt lat="43.86195" lon="7.2626">
        <ele>1018.3</ele>
        <time>2012-01-04T12:51:04Z</time>
      </trkpt>
      <trkpt lat="43.86188" lon="7.26253">
        <ele>1017.2</ele>
        <time>2012-01-04T12:51:05Z</time>
      </trkpt>
      <trkpt lat="43.86182" lon="7.26246">
        <ele>1016.3</ele>
        <time>2012-01-04T12:51:06Z</time>
      </trkpt>
      <trkpt lat="43.86177" lon="7.2624">
        <ele>1015.2</ele>
        <time>2012-01-04T12:51:07Z</time>
      </trkpt>
      <trkpt lat="43.86172" lon="7.26234">
        <ele>1014.4</ele>
        <time>2012-01-04T12:51:08Z</time>
      </trkpt>
      <trkpt lat="43.86168" lon="7.26229">
        <ele>1012.9</ele>
        <time>2012-01-04T12:51:09Z</time>
      </trkpt>
      <trkpt lat="43.86161" lon="7.26221">
        <ele>1010.9</ele>
        <time>2012-01-04T12:51:11Z</time>
      </trkpt>
      <trkpt lat="43.86154" lon="7.26215">
        <ele>1009.7</ele>
        <time>2012-01-04T12:51:13Z</time>
      </trkpt>
      <trkpt lat="43.86148" lon="7.26211">
        <ele>1007.6</ele>
        <time>2012-01-04T12:51:15Z</time>
      </trkpt>
      <trkpt lat="43.86141" lon="7.26209">
        <ele>1006.3</ele>
        <time>2012-01-04T12:51:17Z</time>
      </trkpt>
      <trkpt lat="43.86135" lon="7.26206">
        <ele>1004.6</ele>
        <time>2012-01-04T12:51:19Z</time>
      </trkpt>
      <trkpt lat="43.86128" lon="7.26204">
        <ele>1002.6</ele>
        <time>2012-01-04T12:51:21Z</time>
      </trkpt>
      <trkpt lat="43.86121" lon="7.262">
        <ele>1001.3</ele>
        <time>2012-01-04T12:51:23Z</time>
      </trkpt>
      <trkpt lat="43.86114" lon="7.26196">
        <ele>999.6</ele>
        <time>2012-01-04T12:51:25Z</time>
      </trkpt>
      <trkpt lat="43.86107" lon="7.26188">
        <ele>998.2</ele>
        <time>2012-01-04T12:51:27Z</time>
      </trkpt>
      <trkpt lat="43.86103" lon="7.26178">
        <ele>996.9</ele>
        <time>2012-01-04T12:51:30Z</time>
      </trkpt>
      <trkpt lat="43.86097" lon="7.26169">
        <ele>995.5</ele>
        <time>2012-01-04T12:51:33Z</time>
      </trkpt>
      <trkpt lat="43.86093" lon="7.26158">
        <ele>993.2</ele>
        <time>2012-01-04T12:51:37Z</time>
      </trkpt>
      <trkpt lat="43.86086" lon="7.26151">
        <ele>990.8</ele>
        <time>2012-01-04T12:51:42Z</time>
      </trkpt>
      <trkpt lat="43.86078" lon="7.26155">
        <ele>989.2</ele>
        <time>2012-01-04T12:51:45Z</time>
      </trkpt>
      <trkpt lat="43.8607" lon="7.26156">
        <ele>987.3</ele>
        <time>2012-01-04T12:51:48Z</time>
      </trkpt>
      <trkpt lat="43.86067" lon="7.26157">
        <ele>986.6</ele>
        <time>2012-01-04T12:51:49Z</time>
      </trkpt>
      <trkpt lat="43.86072" lon="7.26136">
        <ele>980.8</ele>
        <time>2012-01-04T12:51:56Z</time>
      </trkpt>
      <trkpt lat="43.86076" lon="7.26128">
        <ele>979.4</ele>
        <time>2012-01-04T12:51:58Z</time>
      </trkpt>
      <trkpt lat="43.8608" lon="7.26118">
        <ele>977.3</ele>
        <time>2012-01-04T12:52:00Z</time>
      </trkpt>
      <trkpt lat="43.86084" lon="7.26109">
        <ele>975.8</ele>
        <time>2012-01-04T12:52:02Z</time>
      </trkpt>
      <trkpt lat="43.86089" lon="7.26098">
        <ele>974.5</ele>
        <time>2012-01-04T12:52:04Z</time>
      </trkpt>
      <trkpt lat="43.86093" lon="7.26089">
        <ele>972.8</ele>
        <time>2012-01-04T12:52:06Z</time>
      </trkpt>
      <trkpt lat="43.86097" lon="7.26079">
        <ele>970.5</ele>
        <time>2012-01-04T12:52:09Z</time>
      </trkpt>
      <trkpt lat="43.86101" lon="7.26068">
        <ele>967.9</ele>
        <time>2012-01-04T12:52:13Z</time>
      </trkpt>
      <trkpt lat="43.861" lon="7.26056">
        <ele>961</ele>
        <time>2012-01-04T12:53:26Z</time>
      </trkpt>
      <trkpt lat="43.861" lon="7.26056">
        <ele>961.1</ele>
        <time>2012-01-04T12:53:27Z</time>
      </trkpt>
      <trkpt lat="43.86101" lon="7.26033">
        <ele>958.8</ele>
        <time>2012-01-04T12:53:35Z</time>
      </trkpt>
      <trkpt lat="43.86098" lon="7.26021">
        <ele>957.1</ele>
        <time>2012-01-04T12:53:37Z</time>
      </trkpt>
      <trkpt lat="43.86096" lon="7.26015">
        <ele>956.1</ele>
        <time>2012-01-04T12:53:38Z</time>
      </trkpt>
      <trkpt lat="43.86094" lon="7.26009">
        <ele>954.7</ele>
        <time>2012-01-04T12:53:39Z</time>
      </trkpt>
      <trkpt lat="43.86092" lon="7.26003">
        <ele>953.6</ele>
        <time>2012-01-04T12:53:40Z</time>
      </trkpt>
      <trkpt lat="43.86088" lon="7.25998">
        <ele>951.6</ele>
        <time>2012-01-04T12:53:41Z</time>
      </trkpt>
      <trkpt lat="43.86083" lon="7.25995">
        <ele>950.1</ele>
        <time>2012-01-04T12:53:42Z</time>
      </trkpt>
      <trkpt lat="43.86078" lon="7.25992">
        <ele>949</ele>
        <time>2012-01-04T12:53:43Z</time>
      </trkpt>
      <trkpt lat="43.86072" lon="7.25989">
        <ele>947.5</ele>
        <time>2012-01-04T12:53:44Z</time>
      </trkpt>
      <trkpt lat="43.86067" lon="7.25987">
        <ele>946.4</ele>
        <time>2012-01-04T12:53:45Z</time>
      </trkpt>
      <trkpt lat="43.86059" lon="7.25983">
        <ele>944.1</ele>
        <time>2012-01-04T12:53:47Z</time>
      </trkpt>
      <trkpt lat="43.86052" lon="7.2599">
        <ele>941.3</ele>
        <time>2012-01-04T12:54:41Z</time>
      </trkpt>
      <trkpt lat="43.86052" lon="7.25991">
        <ele>941.2</ele>
        <time>2012-01-04T12:54:42Z</time>
      </trkpt>
      <trkpt lat="43.8604" lon="7.25996">
        <ele>936.6</ele>
        <time>2012-01-04T12:55:09Z</time>
      </trkpt>
      <trkpt lat="43.86031" lon="7.25999">
        <ele>934.1</ele>
        <time>2012-01-04T12:55:14Z</time>
      </trkpt>
      <trkpt lat="43.86023" lon="7.25999">
        <ele>929.9</ele>
        <time>2012-01-04T12:56:09Z</time>
      </trkpt>
      <trkpt lat="43.86022" lon="7.25999">
        <ele>929.9</ele>
        <time>2012-01-04T12:56:10Z</time>
      </trkpt>
      <trkpt lat="43.86023" lon="7.25998">
        <ele>929</ele>
        <time>2012-01-04T12:57:59Z</time>
      </trkpt>
      <trkpt lat="43.8602" lon="7.25997">
        <ele>928.4</ele>
        <time>2012-01-04T12:58:00Z</time>
      </trkpt>
      <trkpt lat="43.86009" lon="7.25995">
        <ele>926.6</ele>
        <time>2012-01-04T12:58:04Z</time>
      </trkpt>
      <trkpt lat="43.86003" lon="7.25991">
        <ele>926.3</ele>
        <time>2012-01-04T12:58:06Z</time>
      </trkpt>
      <trkpt lat="43.85995" lon="7.25989">
        <ele>925.5</ele>
        <time>2012-01-04T12:58:08Z</time>
      </trkpt>
      <trkpt lat="43.85991" lon="7.25988">
        <ele>925.3</ele>
        <time>2012-01-04T12:58:09Z</time>
      </trkpt>
      <trkpt lat="43.85986" lon="7.25987">
        <ele>924.6</ele>
        <time>2012-01-04T12:58:10Z</time>
      </trkpt>
      <trkpt lat="43.85981" lon="7.25986">
        <ele>924</ele>
        <time>2012-01-04T12:58:11Z</time>
      </trkpt>
      <trkpt lat="43.85976" lon="7.25985">
        <ele>923.2</ele>
        <time>2012-01-04T12:58:12Z</time>
      </trkpt>
      <trkpt lat="43.85971" lon="7.25984">
        <ele>922.6</ele>
        <time>2012-01-04T12:58:13Z</time>
      </trkpt>
      <trkpt lat="43.85963" lon="7.2598">
        <ele>920.9</ele>
        <time>2012-01-04T12:58:15Z</time>
      </trkpt>
      <trkpt lat="43.85956" lon="7.25979">
        <ele>919.6</ele>
        <time>2012-01-04T12:58:17Z</time>
      </trkpt>
      <trkpt lat="43.85949" lon="7.25977">
        <ele>918.1</ele>
        <time>2012-01-04T12:58:19Z</time>
      </trkpt>
      <trkpt lat="43.85941" lon="7.25977">
        <ele>916.7</ele>
        <time>2012-01-04T12:58:21Z</time>
      </trkpt>
      <trkpt lat="43.85933" lon="7.25977">
        <ele>915.8</ele>
        <time>2012-01-04T12:58:23Z</time>
      </trkpt>
      <trkpt lat="43.85925" lon="7.25976">
        <ele>913.9</ele>
        <time>2012-01-04T12:58:25Z</time>
      </trkpt>
      <trkpt lat="43.8592" lon="7.25976">
        <ele>912.6</ele>
        <time>2012-01-04T12:58:26Z</time>
      </trkpt>
      <trkpt lat="43.85912" lon="7.25976">
        <ele>910</ele>
        <time>2012-01-04T12:58:28Z</time>
      </trkpt>
      <trkpt lat="43.85903" lon="7.25973">
        <ele>907.9</ele>
        <time>2012-01-04T12:58:30Z</time>
      </trkpt>
      <trkpt lat="43.85895" lon="7.2597">
        <ele>906.6</ele>
        <time>2012-01-04T12:58:32Z</time>
      </trkpt>
      <trkpt lat="43.85891" lon="7.25969">
        <ele>906.1</ele>
        <time>2012-01-04T12:58:33Z</time>
      </trkpt>
      <trkpt lat="43.85885" lon="7.25969">
        <ele>905.7</ele>
        <time>2012-01-04T12:58:34Z</time>
      </trkpt>
      <trkpt lat="43.8588" lon="7.25969">
        <ele>905.4</ele>
        <time>2012-01-04T12:58:35Z</time>
      </trkpt>
      <trkpt lat="43.85874" lon="7.25969">
        <ele>904</ele>
        <time>2012-01-04T12:58:36Z</time>
      </trkpt>
      <trkpt lat="43.85869" lon="7.25969">
        <ele>903</ele>
        <time>2012-01-04T12:58:37Z</time>
      </trkpt>
      <trkpt lat="43.85864" lon="7.25968">
        <ele>901.6</ele>
        <time>2012-01-04T12:58:38Z</time>
      </trkpt>
      <trkpt lat="43.85859" lon="7.25969">
        <ele>900.6</ele>
        <time>2012-01-04T12:58:39Z</time>
      </trkpt>
      <trkpt lat="43.85851" lon="7.25967">
        <ele>898.1</ele>
        <time>2012-01-04T12:58:41Z</time>
      </trkpt>
      <trkpt lat="43.85843" lon="7.25966">
        <ele>896.6</ele>
        <time>2012-01-04T12:58:43Z</time>
      </trkpt>
      <trkpt lat="43.85836" lon="7.25966">
        <ele>895.2</ele>
        <time>2012-01-04T12:58:45Z</time>
      </trkpt>
      <trkpt lat="43.85829" lon="7.25968">
        <ele>893.7</ele>
        <time>2012-01-04T12:58:47Z</time>
      </trkpt>
      <trkpt lat="43.85822" lon="7.25967">
        <ele>892.7</ele>
        <time>2012-01-04T12:58:49Z</time>
      </trkpt>
      <trkpt lat="43.85814" lon="7.25964">
        <ele>891.5</ele>
        <time>2012-01-04T12:58:51Z</time>
      </trkpt>
      <trkpt lat="43.85807" lon="7.25966">
        <ele>890.5</ele>
        <time>2012-01-04T12:58:53Z</time>
      </trkpt>
      <trkpt lat="43.858" lon="7.25967">
        <ele>889.4</ele>
        <time>2012-01-04T12:58:55Z</time>
      </trkpt>
      <trkpt lat="43.85793" lon="7.25968">
        <ele>888</ele>
        <time>2012-01-04T12:58:57Z</time>
      </trkpt>
      <trkpt lat="43.85786" lon="7.25965">
        <ele>886.1</ele>
        <time>2012-01-04T12:58:59Z</time>
      </trkpt>
      <trkpt lat="43.85777" lon="7.25961">
        <ele>884.5</ele>
        <time>2012-01-04T12:59:01Z</time>
      </trkpt>
      <trkpt lat="43.85773" lon="7.25959">
        <ele>883.5</ele>
        <time>2012-01-04T12:59:02Z</time>
      </trkpt>
      <trkpt lat="43.85765" lon="7.25954">
        <ele>881.7</ele>
        <time>2012-01-04T12:59:04Z</time>
      </trkpt>
      <trkpt lat="43.85756" lon="7.25955">
        <ele>879.9</ele>
        <time>2012-01-04T12:59:08Z</time>
      </trkpt>
      <trkpt lat="43.8575" lon="7.25947">
        <ele>877</ele>
        <time>2012-01-04T13:00:26Z</time>
      </trkpt>
      <trkpt lat="43.85749" lon="7.25947">
        <ele>876.9</ele>
        <time>2012-01-04T13:00:27Z</time>
      </trkpt>
      <trkpt lat="43.85735" lon="7.25942">
        <ele>875.5</ele>
        <time>2012-01-04T13:00:35Z</time>
      </trkpt>
      <trkpt lat="43.85728" lon="7.2594">
        <ele>874.7</ele>
        <time>2012-01-04T13:00:37Z</time>
      </trkpt>
      <trkpt lat="43.85719" lon="7.25939">
        <ele>873.4</ele>
        <time>2012-01-04T13:00:40Z</time>
      </trkpt>
      <trkpt lat="43.85714" lon="7.25948">
        <ele>869.7</ele>
        <time>2012-01-04T13:00:47Z</time>
      </trkpt>
      <trkpt lat="43.85708" lon="7.25945">
        <ele>868.9</ele>
        <time>2012-01-04T13:00:49Z</time>
      </trkpt>
      <trkpt lat="43.857" lon="7.25944">
        <ele>867.4</ele>
        <time>2012-01-04T13:00:51Z</time>
      </trkpt>
      <trkpt lat="43.85692" lon="7.25944">
        <ele>865.6</ele>
        <time>2012-01-04T13:00:53Z</time>
      </trkpt>
      <trkpt lat="43.85684" lon="7.2594">
        <ele>864.4</ele>
        <time>2012-01-04T13:00:55Z</time>
      </trkpt>
      <trkpt lat="43.85679" lon="7.25933">
        <ele>863.1</ele>
        <time>2012-01-04T13:00:57Z</time>
      </trkpt>
      <trkpt lat="43.85672" lon="7.25929">
        <ele>862.1</ele>
        <time>2012-01-04T13:00:59Z</time>
      </trkpt>
      <trkpt lat="43.85664" lon="7.25927">
        <ele>860.9</ele>
        <time>2012-01-04T13:01:02Z</time>
      </trkpt>
      <trkpt lat="43.85656" lon="7.2593">
        <ele>858.9</ele>
        <time>2012-01-04T13:01:05Z</time>
      </trkpt>
      <trkpt lat="43.85648" lon="7.2593">
        <ele>856.9</ele>
        <time>2012-01-04T13:01:08Z</time>
      </trkpt>
      <trkpt lat="43.8564" lon="7.25925">
        <ele>854.9</ele>
        <time>2012-01-04T13:01:11Z</time>
      </trkpt>
      <trkpt lat="43.85633" lon="7.25925">
        <ele>854</ele>
        <time>2012-01-04T13:01:13Z</time>
      </trkpt>
      <trkpt lat="43.85627" lon="7.25918">
        <ele>853.3</ele>
        <time>2012-01-04T13:01:15Z</time>
      </trkpt>
      <trkpt lat="43.85619" lon="7.25917">
        <ele>852.7</ele>
        <time>2012-01-04T13:01:17Z</time>
      </trkpt>
      <trkpt lat="43.85615" lon="7.25915">
        <ele>852.5</ele>
        <time>2012-01-04T13:01:18Z</time>
      </trkpt>
      <trkpt lat="43.8561" lon="7.25913">
        <ele>851.6</ele>
        <time>2012-01-04T13:01:19Z</time>
      </trkpt>
      <trkpt lat="43.85605" lon="7.2591">
        <ele>851</ele>
        <time>2012-01-04T13:01:20Z</time>
      </trkpt>
      <trkpt lat="43.85599" lon="7.25904">
        <ele>849.9</ele>
        <time>2012-01-04T13:01:22Z</time>
      </trkpt>
      <trkpt lat="43.85591" lon="7.25901">
        <ele>848.3</ele>
        <time>2012-01-04T13:01:25Z</time>
      </trkpt>
      <trkpt lat="43.85584" lon="7.25899">
        <ele>847</ele>
        <time>2012-01-04T13:01:29Z</time>
      </trkpt>
      <trkpt lat="43.8558" lon="7.25898">
        <ele>846.6</ele>
        <time>2012-01-04T13:01:30Z</time>
      </trkpt>
      <trkpt lat="43.85568" lon="7.25897">
        <ele>844.6</ele>
        <time>2012-01-04T13:01:33Z</time>
      </trkpt>
      <trkpt lat="43.8556" lon="7.25896">
        <ele>842.4</ele>
        <time>2012-01-04T13:01:35Z</time>
      </trkpt>
      <trkpt lat="43.85556" lon="7.25896">
        <ele>841.5</ele>
        <time>2012-01-04T13:01:36Z</time>
      </trkpt>
      <trkpt lat="43.85551" lon="7.25897">
        <ele>840.9</ele>
        <time>2012-01-04T13:01:37Z</time>
      </trkpt>
      <trkpt lat="43.85547" lon="7.25897">
        <ele>839.7</ele>
        <time>2012-01-04T13:01:38Z</time>
      </trkpt>
      <trkpt lat="43.85541" lon="7.25896">
        <ele>838.9</ele>
        <time>2012-01-04T13:01:39Z</time>
      </trkpt>
      <trkpt lat="43.85536" lon="7.25896">
        <ele>838.2</ele>
        <time>2012-01-04T13:01:40Z</time>
      </trkpt>
      <trkpt lat="43.8553" lon="7.25895">
        <ele>837.2</ele>
        <time>2012-01-04T13:01:41Z</time>
      </trkpt>
      <trkpt lat="43.85525" lon="7.25895">
        <ele>836.4</ele>
        <time>2012-01-04T13:01:42Z</time>
      </trkpt>
      <trkpt lat="43.85517" lon="7.2589">
        <ele>835.9</ele>
        <time>2012-01-04T13:01:44Z</time>
      </trkpt>
      <trkpt lat="43.8551" lon="7.25884">
        <ele>836.1</ele>
        <time>2012-01-04T13:01:46Z</time>
      </trkpt>
      <trkpt lat="43.85503" lon="7.25877">
        <ele>835.8</ele>
        <time>2012-01-04T13:01:48Z</time>
      </trkpt>
      <trkpt lat="43.85499" lon="7.25874">
        <ele>835.5</ele>
        <time>2012-01-04T13:01:49Z</time>
      </trkpt>
      <trkpt lat="43.85494" lon="7.25872">
        <ele>835.7</ele>
        <time>2012-01-04T13:01:50Z</time>
      </trkpt>
      <trkpt lat="43.85485" lon="7.2587">
        <ele>836</ele>
        <time>2012-01-04T13:01:52Z</time>
      </trkpt>
      <trkpt lat="43.85478" lon="7.25869">
        <ele>833.7</ele>
        <time>2012-01-04T13:01:56Z</time>
      </trkpt>
      <trkpt lat="43.85469" lon="7.25866">
        <ele>834.2</ele>
        <time>2012-01-04T13:01:59Z</time>
      </trkpt>
      <trkpt lat="43.85462" lon="7.25866">
        <ele>833.5</ele>
        <time>2012-01-04T13:02:01Z</time>
      </trkpt>
      <trkpt lat="43.85454" lon="7.25862">
        <ele>832.8</ele>
        <time>2012-01-04T13:02:03Z</time>
      </trkpt>
      <trkpt lat="43.85446" lon="7.2586">
        <ele>832.8</ele>
        <time>2012-01-04T13:02:05Z</time>
      </trkpt>
      <trkpt lat="43.85438" lon="7.25859">
        <ele>832.5</ele>
        <time>2012-01-04T13:02:07Z</time>
      </trkpt>
      <trkpt lat="43.8543" lon="7.25856">
        <ele>832.4</ele>
        <time>2012-01-04T13:02:09Z</time>
      </trkpt>
      <trkpt lat="43.85422" lon="7.25853">
        <ele>832.5</ele>
        <time>2012-01-04T13:02:11Z</time>
      </trkpt>
      <trkpt lat="43.85414" lon="7.25849">
        <ele>832</ele>
        <time>2012-01-04T13:02:13Z</time>
      </trkpt>
      <trkpt lat="43.85407" lon="7.25844">
        <ele>831.1</ele>
        <time>2012-01-04T13:02:15Z</time>
      </trkpt>
      <trkpt lat="43.85399" lon="7.25838">
        <ele>830.7</ele>
        <time>2012-01-04T13:02:17Z</time>
      </trkpt>
      <trkpt lat="43.85391" lon="7.25833">
        <ele>830</ele>
        <time>2012-01-04T13:02:19Z</time>
      </trkpt>
      <trkpt lat="43.85395" lon="7.25824">
        <ele>828.6</ele>
        <time>2012-01-04T13:02:25Z</time>
      </trkpt>
      <trkpt lat="43.85402" lon="7.25817">
        <ele>828</ele>
        <time>2012-01-04T13:02:32Z</time>
      </trkpt>
      <trkpt lat="43.85404" lon="7.25816">
        <ele>827.9</ele>
        <time>2012-01-04T13:02:33Z</time>
      </trkpt>
      <trkpt lat="43.85413" lon="7.2581">
        <ele>827</ele>
        <time>2012-01-04T13:02:37Z</time>
      </trkpt>
      <trkpt lat="43.85417" lon="7.25801">
        <ele>826.8</ele>
        <time>2012-01-04T13:02:39Z</time>
      </trkpt>
      <trkpt lat="43.85421" lon="7.2579">
        <ele>824.3</ele>
        <time>2012-01-04T13:02:42Z</time>
      </trkpt>
      <trkpt lat="43.85426" lon="7.2578">
        <ele>823.3</ele>
        <time>2012-01-04T13:02:44Z</time>
      </trkpt>
      <trkpt lat="43.85428" lon="7.25774">
        <ele>822.2</ele>
        <time>2012-01-04T13:02:45Z</time>
      </trkpt>
      <trkpt lat="43.85431" lon="7.25769">
        <ele>821.4</ele>
        <time>2012-01-04T13:02:46Z</time>
      </trkpt>
      <trkpt lat="43.85433" lon="7.25763">
        <ele>820.7</ele>
        <time>2012-01-04T13:02:47Z</time>
      </trkpt>
      <trkpt lat="43.85436" lon="7.25757">
        <ele>820.1</ele>
        <time>2012-01-04T13:02:48Z</time>
      </trkpt>
      <trkpt lat="43.85441" lon="7.25749">
        <ele>819.4</ele>
        <time>2012-01-04T13:02:50Z</time>
      </trkpt>
      <trkpt lat="43.85436" lon="7.2574">
        <ele>820</ele>
        <time>2012-01-04T13:02:54Z</time>
      </trkpt>
      <trkpt lat="43.85431" lon="7.25737">
        <ele>820.3</ele>
        <time>2012-01-04T13:02:56Z</time>
      </trkpt>
      <trkpt lat="43.85424" lon="7.25731">
        <ele>819.4</ele>
        <time>2012-01-04T13:02:58Z</time>
      </trkpt>
      <trkpt lat="43.85417" lon="7.25727">
        <ele>818.3</ele>
        <time>2012-01-04T13:03:00Z</time>
      </trkpt>
      <trkpt lat="43.85413" lon="7.25722">
        <ele>817.8</ele>
        <time>2012-01-04T13:03:01Z</time>
      </trkpt>
      <trkpt lat="43.85407" lon="7.25716">
        <ele>817.1</ele>
        <time>2012-01-04T13:03:03Z</time>
      </trkpt>
      <trkpt lat="43.85399" lon="7.25712">
        <ele>815.9</ele>
        <time>2012-01-04T13:03:32Z</time>
      </trkpt>
      <trkpt lat="43.85396" lon="7.25702">
        <ele>815.2</ele>
        <time>2012-01-04T13:04:18Z</time>
      </trkpt>
      <trkpt lat="43.85393" lon="7.257">
        <ele>815.1</ele>
        <time>2012-01-04T13:04:19Z</time>
      </trkpt>
      <trkpt lat="43.85383" lon="7.25694">
        <ele>814.3</ele>
        <time>2012-01-04T13:04:25Z</time>
      </trkpt>
      <trkpt lat="43.85378" lon="7.25692">
        <ele>813.7</ele>
        <time>2012-01-04T13:04:27Z</time>
      </trkpt>
      <trkpt lat="43.8537" lon="7.25687">
        <ele>812.2</ele>
        <time>2012-01-04T13:04:29Z</time>
      </trkpt>
      <trkpt lat="43.85365" lon="7.2568">
        <ele>810.8</ele>
        <time>2012-01-04T13:04:31Z</time>
      </trkpt>
      <trkpt lat="43.85361" lon="7.25672">
        <ele>809.9</ele>
        <time>2012-01-04T13:04:33Z</time>
      </trkpt>
      <trkpt lat="43.85357" lon="7.25667">
        <ele>809.3</ele>
        <time>2012-01-04T13:04:34Z</time>
      </trkpt>
      <trkpt lat="43.85353" lon="7.25664">
        <ele>809</ele>
        <time>2012-01-04T13:04:35Z</time>
      </trkpt>
      <trkpt lat="43.85349" lon="7.2566">
        <ele>808</ele>
        <time>2012-01-04T13:04:36Z</time>
      </trkpt>
      <trkpt lat="43.85345" lon="7.25656">
        <ele>807.3</ele>
        <time>2012-01-04T13:04:37Z</time>
      </trkpt>
      <trkpt lat="43.85341" lon="7.25652">
        <ele>806.7</ele>
        <time>2012-01-04T13:04:38Z</time>
      </trkpt>
      <trkpt lat="43.85337" lon="7.25648">
        <ele>806.1</ele>
        <time>2012-01-04T13:04:39Z</time>
      </trkpt>
      <trkpt lat="43.85331" lon="7.25639">
        <ele>805.1</ele>
        <time>2012-01-04T13:04:41Z</time>
      </trkpt>
      <trkpt lat="43.85326" lon="7.2563">
        <ele>804.4</ele>
        <time>2012-01-04T13:04:43Z</time>
      </trkpt>
      <trkpt lat="43.8532" lon="7.25623">
        <ele>803.9</ele>
        <time>2012-01-04T13:04:45Z</time>
      </trkpt>
      <trkpt lat="43.85316" lon="7.25619">
        <ele>803.4</ele>
        <time>2012-01-04T13:04:46Z</time>
      </trkpt>
      <trkpt lat="43.85312" lon="7.25613">
        <ele>803.1</ele>
        <time>2012-01-04T13:04:47Z</time>
      </trkpt>
      <trkpt lat="43.8531" lon="7.25607">
        <ele>802.4</ele>
        <time>2012-01-04T13:04:48Z</time>
      </trkpt>
      <trkpt lat="43.85308" lon="7.25601">
        <ele>801.9</ele>
        <time>2012-01-04T13:04:49Z</time>
      </trkpt>
      <trkpt lat="43.85303" lon="7.25591">
        <ele>800.9</ele>
        <time>2012-01-04T13:04:51Z</time>
      </trkpt>
      <trkpt lat="43.85296" lon="7.25584">
        <ele>800.1</ele>
        <time>2012-01-04T13:04:53Z</time>
      </trkpt>
      <trkpt lat="43.85292" lon="7.2558">
        <ele>799.7</ele>
        <time>2012-01-04T13:04:54Z</time>
      </trkpt>
      <trkpt lat="43.85286" lon="7.25571">
        <ele>797.2</ele>
        <time>2012-01-04T13:04:56Z</time>
      </trkpt>
      <trkpt lat="43.8528" lon="7.25564">
        <ele>795.2</ele>
        <time>2012-01-04T13:04:58Z</time>
      </trkpt>
      <trkpt lat="43.85273" lon="7.25559">
        <ele>793.6</ele>
        <time>2012-01-04T13:05:00Z</time>
      </trkpt>
      <trkpt lat="43.8527" lon="7.25554">
        <ele>793.1</ele>
        <time>2012-01-04T13:05:01Z</time>
      </trkpt>
      <trkpt lat="43.85265" lon="7.25543">
        <ele>791.2</ele>
        <time>2012-01-04T13:05:03Z</time>
      </trkpt>
      <trkpt lat="43.85264" lon="7.25535">
        <ele>788.9</ele>
        <time>2012-01-04T13:05:05Z</time>
      </trkpt>
      <trkpt lat="43.85263" lon="7.25526">
        <ele>787.1</ele>
        <time>2012-01-04T13:05:07Z</time>
      </trkpt>
      <trkpt lat="43.85262" lon="7.25518">
        <ele>786</ele>
        <time>2012-01-04T13:05:09Z</time>
      </trkpt>
      <trkpt lat="43.85259" lon="7.2551">
        <ele>784.5</ele>
        <time>2012-01-04T13:05:11Z</time>
      </trkpt>
      <trkpt lat="43.85255" lon="7.25503">
        <ele>782.5</ele>
        <time>2012-01-04T13:05:13Z</time>
      </trkpt>
      <trkpt lat="43.8525" lon="7.25496">
        <ele>781.3</ele>
        <time>2012-01-04T13:05:15Z</time>
      </trkpt>
      <trkpt lat="43.85246" lon="7.25488">
        <ele>779.9</ele>
        <time>2012-01-04T13:05:17Z</time>
      </trkpt>
      <trkpt lat="43.85241" lon="7.25478">
        <ele>778.1</ele>
        <time>2012-01-04T13:05:20Z</time>
      </trkpt>
      <trkpt lat="43.85239" lon="7.25475">
        <ele>777.5</ele>
        <time>2012-01-04T13:05:21Z</time>
      </trkpt>
      <trkpt lat="43.85234" lon="7.25461">
        <ele>776</ele>
        <time>2012-01-04T13:05:24Z</time>
      </trkpt>
      <trkpt lat="43.85231" lon="7.25452">
        <ele>775</ele>
        <time>2012-01-04T13:05:26Z</time>
      </trkpt>
      <trkpt lat="43.8523" lon="7.25442">
        <ele>774.6</ele>
        <time>2012-01-04T13:05:28Z</time>
      </trkpt>
      <trkpt lat="43.85229" lon="7.25431">
        <ele>774</ele>
        <time>2012-01-04T13:05:30Z</time>
      </trkpt>
      <trkpt lat="43.8523" lon="7.2542">
        <ele>772.5</ele>
        <time>2012-01-04T13:05:33Z</time>
      </trkpt>
      <trkpt lat="43.85226" lon="7.25411">
        <ele>772.1</ele>
        <time>2012-01-04T13:05:35Z</time>
      </trkpt>
      <trkpt lat="43.85223" lon="7.254">
        <ele>770.9</ele>
        <time>2012-01-04T13:05:37Z</time>
      </trkpt>
      <trkpt lat="43.85221" lon="7.25394">
        <ele>770</ele>
        <time>2012-01-04T13:05:38Z</time>
      </trkpt>
      <trkpt lat="43.85218" lon="7.25388">
        <ele>769.3</ele>
        <time>2012-01-04T13:05:39Z</time>
      </trkpt>
      <trkpt lat="43.85216" lon="7.25376">
        <ele>767.2</ele>
        <time>2012-01-04T13:05:41Z</time>
      </trkpt>
      <trkpt lat="43.85215" lon="7.2537">
        <ele>766.5</ele>
        <time>2012-01-04T13:05:42Z</time>
      </trkpt>
      <trkpt lat="43.85212" lon="7.25364">
        <ele>765.6</ele>
        <time>2012-01-04T13:05:43Z</time>
      </trkpt>
      <trkpt lat="43.85207" lon="7.25355">
        <ele>763.9</ele>
        <time>2012-01-04T13:05:45Z</time>
      </trkpt>
      <trkpt lat="43.85202" lon="7.25346">
        <ele>761.9</ele>
        <time>2012-01-04T13:07:06Z</time>
      </trkpt>
      <trkpt lat="43.85201" lon="7.25346">
        <ele>761.9</ele>
        <time>2012-01-04T13:07:07Z</time>
      </trkpt>
      <trkpt lat="43.85186" lon="7.2534">
        <ele>760.7</ele>
        <time>2012-01-04T13:07:17Z</time>
      </trkpt>
      <trkpt lat="43.85179" lon="7.25337">
        <ele>761</ele>
        <time>2012-01-04T13:07:21Z</time>
      </trkpt>
      <trkpt lat="43.85171" lon="7.25336">
        <ele>761.1</ele>
        <time>2012-01-04T13:07:26Z</time>
      </trkpt>
      <trkpt lat="43.85163" lon="7.25336">
        <ele>763.9</ele>
        <time>2012-01-04T13:07:33Z</time>
      </trkpt>
      <trkpt lat="43.85154" lon="7.25337">
        <ele>767.2</ele>
        <time>2012-01-04T13:07:48Z</time>
      </trkpt>
      <trkpt lat="43.85145" lon="7.25338">
        <ele>770.3</ele>
        <time>2012-01-04T13:08:03Z</time>
      </trkpt>
      <trkpt lat="43.85136" lon="7.2534">
        <ele>772.9</ele>
        <time>2012-01-04T13:08:20Z</time>
      </trkpt>
      <trkpt lat="43.85136" lon="7.2534">
        <ele>773.1</ele>
        <time>2012-01-04T13:08:21Z</time>
      </trkpt>
      <trkpt lat="43.85119" lon="7.2534">
        <ele>777.7</ele>
        <time>2012-01-04T13:08:50Z</time>
      </trkpt>
      <trkpt lat="43.85111" lon="7.25342">
        <ele>778.6</ele>
        <time>2012-01-04T13:08:59Z</time>
      </trkpt>
      <trkpt lat="43.85103" lon="7.25345">
        <ele>780.7</ele>
        <time>2012-01-04T13:09:22Z</time>
      </trkpt>
      <trkpt lat="43.85102" lon="7.25345">
        <ele>780.8</ele>
        <time>2012-01-04T13:09:23Z</time>
      </trkpt>
      <trkpt lat="43.85087" lon="7.25341">
        <ele>779.6</ele>
        <time>2012-01-04T13:09:30Z</time>
      </trkpt>
      <trkpt lat="43.85079" lon="7.2534">
        <ele>779.4</ele>
        <time>2012-01-04T13:09:32Z</time>
      </trkpt>
      <trkpt lat="43.85075" lon="7.2534">
        <ele>779.1</ele>
        <time>2012-01-04T13:09:33Z</time>
      </trkpt>
      <trkpt lat="43.8507" lon="7.2534">
        <ele>778.9</ele>
        <time>2012-01-04T13:09:34Z</time>
      </trkpt>
      <trkpt lat="43.85064" lon="7.25339">
        <ele>777.9</ele>
        <time>2012-01-04T13:09:35Z</time>
      </trkpt>
      <trkpt lat="43.85058" lon="7.25338">
        <ele>777.2</ele>
        <time>2012-01-04T13:09:36Z</time>
      </trkpt>
      <trkpt lat="43.85051" lon="7.25336">
        <ele>776.7</ele>
        <time>2012-01-04T13:09:37Z</time>
      </trkpt>
      <trkpt lat="43.85045" lon="7.25334">
        <ele>775.7</ele>
        <time>2012-01-04T13:09:38Z</time>
      </trkpt>
      <trkpt lat="43.85039" lon="7.25333">
        <ele>774.9</ele>
        <time>2012-01-04T13:09:39Z</time>
      </trkpt>
      <trkpt lat="43.85032" lon="7.25331">
        <ele>774.1</ele>
        <time>2012-01-04T13:09:40Z</time>
      </trkpt>
      <trkpt lat="43.85025" lon="7.25328">
        <ele>773.5</ele>
        <time>2012-01-04T13:09:41Z</time>
      </trkpt>
      <trkpt lat="43.85017" lon="7.25326">
        <ele>772.3</ele>
        <time>2012-01-04T13:09:42Z</time>
      </trkpt>
      <trkpt lat="43.8501" lon="7.25324">
        <ele>771.5</ele>
        <time>2012-01-04T13:09:43Z</time>
      </trkpt>
      <trkpt lat="43.85003" lon="7.25322">
        <ele>770.8</ele>
        <time>2012-01-04T13:09:44Z</time>
      </trkpt>
      <trkpt lat="43.84997" lon="7.2532">
        <ele>770.5</ele>
        <time>2012-01-04T13:09:45Z</time>
      </trkpt>
      <trkpt lat="43.8499" lon="7.25318">
        <ele>770.2</ele>
        <time>2012-01-04T13:09:46Z</time>
      </trkpt>
      <trkpt lat="43.84984" lon="7.25317">
        <ele>770.2</ele>
        <time>2012-01-04T13:09:47Z</time>
      </trkpt>
      <trkpt lat="43.84979" lon="7.25316">
        <ele>770.3</ele>
        <time>2012-01-04T13:09:48Z</time>
      </trkpt>
      <trkpt lat="43.84973" lon="7.25315">
        <ele>770.3</ele>
        <time>2012-01-04T13:09:49Z</time>
      </trkpt>
      <trkpt lat="43.84967" lon="7.25315">
        <ele>770.6</ele>
        <time>2012-01-04T13:09:50Z</time>
      </trkpt>
      <trkpt lat="43.84961" lon="7.25316">
        <ele>770.9</ele>
        <time>2012-01-04T13:09:51Z</time>
      </trkpt>
      <trkpt lat="43.84956" lon="7.25316">
        <ele>770.7</ele>
        <time>2012-01-04T13:09:52Z</time>
      </trkpt>
      <trkpt lat="43.84951" lon="7.25314">
        <ele>770.6</ele>
        <time>2012-01-04T13:09:53Z</time>
      </trkpt>
      <trkpt lat="43.84945" lon="7.25312">
        <ele>770.2</ele>
        <time>2012-01-04T13:09:54Z</time>
      </trkpt>
      <trkpt lat="43.84941" lon="7.25309">
        <ele>769.8</ele>
        <time>2012-01-04T13:09:55Z</time>
      </trkpt>
      <trkpt lat="43.84936" lon="7.25307">
        <ele>769.6</ele>
        <time>2012-01-04T13:09:56Z</time>
      </trkpt>
      <trkpt lat="43.84931" lon="7.25306">
        <ele>769.6</ele>
        <time>2012-01-04T13:09:57Z</time>
      </trkpt>
      <trkpt lat="43.84926" lon="7.25305">
        <ele>769.7</ele>
        <time>2012-01-04T13:09:58Z</time>
      </trkpt>
      <trkpt lat="43.84921" lon="7.25303">
        <ele>769.2</ele>
        <time>2012-01-04T13:09:59Z</time>
      </trkpt>
      <trkpt lat="43.84916" lon="7.25302">
        <ele>768.9</ele>
        <time>2012-01-04T13:10:00Z</time>
      </trkpt>
      <trkpt lat="43.8491" lon="7.25302">
        <ele>768</ele>
        <time>2012-01-04T13:10:01Z</time>
      </trkpt>
      <trkpt lat="43.84904" lon="7.25301">
        <ele>767.3</ele>
        <time>2012-01-04T13:10:02Z</time>
      </trkpt>
      <trkpt lat="43.84898" lon="7.253">
        <ele>766.8</ele>
        <time>2012-01-04T13:10:03Z</time>
      </trkpt>
      <trkpt lat="43.84893" lon="7.25298">
        <ele>765.8</ele>
        <time>2012-01-04T13:10:04Z</time>
      </trkpt>
      <trkpt lat="43.84888" lon="7.25297">
        <ele>765.1</ele>
        <time>2012-01-04T13:10:05Z</time>
      </trkpt>
      <trkpt lat="43.84883" lon="7.25296">
        <ele>764.7</ele>
        <time>2012-01-04T13:10:06Z</time>
      </trkpt>
      <trkpt lat="43.84878" lon="7.25294">
        <ele>764.4</ele>
        <time>2012-01-04T13:10:07Z</time>
      </trkpt>
      <trkpt lat="43.84874" lon="7.25293">
        <ele>764.2</ele>
        <time>2012-01-04T13:10:08Z</time>
      </trkpt>
      <trkpt lat="43.84869" lon="7.25292">
        <ele>763.2</ele>
        <time>2012-01-04T13:10:09Z</time>
      </trkpt>
      <trkpt lat="43.84864" lon="7.2529">
        <ele>762.5</ele>
        <time>2012-01-04T13:10:10Z</time>
      </trkpt>
      <trkpt lat="43.8486" lon="7.25289">
        <ele>761.2</ele>
        <time>2012-01-04T13:10:11Z</time>
      </trkpt>
      <trkpt lat="43.84851" lon="7.25286">
        <ele>758.3</ele>
        <time>2012-01-04T13:10:13Z</time>
      </trkpt>
      <trkpt lat="43.84843" lon="7.25283">
        <ele>755.8</ele>
        <time>2012-01-04T13:10:15Z</time>
      </trkpt>
      <trkpt lat="43.84835" lon="7.25281">
        <ele>753.8</ele>
        <time>2012-01-04T13:10:17Z</time>
      </trkpt>
      <trkpt lat="43.84826" lon="7.25278">
        <ele>751</ele>
        <time>2012-01-04T13:10:19Z</time>
      </trkpt>
      <trkpt lat="43.84818" lon="7.25277">
        <ele>749</ele>
        <time>2012-01-04T13:10:21Z</time>
      </trkpt>
      <trkpt lat="43.8481" lon="7.25278">
        <ele>747.1</ele>
        <time>2012-01-04T13:10:23Z</time>
      </trkpt>
      <trkpt lat="43.84805" lon="7.2528">
        <ele>746.2</ele>
        <time>2012-01-04T13:10:24Z</time>
      </trkpt>
      <trkpt lat="43.848" lon="7.25281">
        <ele>744.9</ele>
        <time>2012-01-04T13:10:25Z</time>
      </trkpt>
      <trkpt lat="43.84794" lon="7.25282">
        <ele>744</ele>
        <time>2012-01-04T13:10:26Z</time>
      </trkpt>
      <trkpt lat="43.84789" lon="7.25281">
        <ele>743.3</ele>
        <time>2012-01-04T13:10:27Z</time>
      </trkpt>
      <trkpt lat="43.84783" lon="7.25281">
        <ele>741.6</ele>
        <time>2012-01-04T13:10:28Z</time>
      </trkpt>
      <trkpt lat="43.84776" lon="7.25281">
        <ele>740.3</ele>
        <time>2012-01-04T13:10:29Z</time>
      </trkpt>
      <trkpt lat="43.8477" lon="7.25282">
        <ele>738.6</ele>
        <time>2012-01-04T13:10:30Z</time>
      </trkpt>
      <trkpt lat="43.84763" lon="7.25282">
        <ele>737.3</ele>
        <time>2012-01-04T13:10:31Z</time>
      </trkpt>
      <trkpt lat="43.84757" lon="7.25282">
        <ele>735.4</ele>
        <time>2012-01-04T13:10:32Z</time>
      </trkpt>
      <trkpt lat="43.8475" lon="7.25281">
        <ele>733.9</ele>
        <time>2012-01-04T13:10:33Z</time>
      </trkpt>
      <trkpt lat="43.84742" lon="7.25282">
        <ele>732.9</ele>
        <time>2012-01-04T13:10:34Z</time>
      </trkpt>
      <trkpt lat="43.84735" lon="7.25282">
        <ele>731</ele>
        <time>2012-01-04T13:10:35Z</time>
      </trkpt>
      <trkpt lat="43.84728" lon="7.2528">
        <ele>729.5</ele>
        <time>2012-01-04T13:10:36Z</time>
      </trkpt>
      <trkpt lat="43.84721" lon="7.25278">
        <ele>727.6</ele>
        <time>2012-01-04T13:10:37Z</time>
      </trkpt>
      <trkpt lat="43.84713" lon="7.25276">
        <ele>726.1</ele>
        <time>2012-01-04T13:10:38Z</time>
      </trkpt>
      <trkpt lat="43.84707" lon="7.25275">
        <ele>724.8</ele>
        <time>2012-01-04T13:10:39Z</time>
      </trkpt>
      <trkpt lat="43.84699" lon="7.25269">
        <ele>720.8</ele>
        <time>2012-01-04T13:12:44Z</time>
      </trkpt>
      <trkpt lat="43.84699" lon="7.25269">
        <ele>720.7</ele>
        <time>2012-01-04T13:12:45Z</time>
      </trkpt>
      <trkpt lat="43.84695" lon="7.25251">
        <ele>719.8</ele>
        <time>2012-01-04T13:13:39Z</time>
      </trkpt>
      <trkpt lat="43.84694" lon="7.25241">
        <ele>718.1</ele>
        <time>2012-01-04T13:13:41Z</time>
      </trkpt>
      <trkpt lat="43.84694" lon="7.25232">
        <ele>716.4</ele>
        <time>2012-01-04T13:13:43Z</time>
      </trkpt>
      <trkpt lat="43.84697" lon="7.25224">
        <ele>714.4</ele>
        <time>2012-01-04T13:13:45Z</time>
      </trkpt>
      <trkpt lat="43.847" lon="7.25222">
        <ele>713.7</ele>
        <time>2012-01-04T13:13:46Z</time>
      </trkpt>
      <trkpt lat="43.84708" lon="7.25219">
        <ele>711.7</ele>
        <time>2012-01-04T13:13:48Z</time>
      </trkpt>
      <trkpt lat="43.84713" lon="7.25217">
        <ele>710.7</ele>
        <time>2012-01-04T13:13:49Z</time>
      </trkpt>
      <trkpt lat="43.84718" lon="7.25215">
        <ele>709.8</ele>
        <time>2012-01-04T13:13:50Z</time>
      </trkpt>
      <trkpt lat="43.84723" lon="7.25213">
        <ele>709.2</ele>
        <time>2012-01-04T13:13:51Z</time>
      </trkpt>
      <trkpt lat="43.84727" lon="7.2521">
        <ele>707.7</ele>
        <time>2012-01-04T13:13:52Z</time>
      </trkpt>
      <trkpt lat="43.84731" lon="7.25206">
        <ele>706.5</ele>
        <time>2012-01-04T13:13:53Z</time>
      </trkpt>
      <trkpt lat="43.84737" lon="7.25197">
        <ele>705</ele>
        <time>2012-01-04T13:13:55Z</time>
      </trkpt>
      <trkpt lat="43.8474" lon="7.25187">
        <ele>703.3</ele>
        <time>2012-01-04T13:13:57Z</time>
      </trkpt>
      <trkpt lat="43.84744" lon="7.25179">
        <ele>702.2</ele>
        <time>2012-01-04T13:13:59Z</time>
      </trkpt>
      <trkpt lat="43.84747" lon="7.25167">
        <ele>701.3</ele>
        <time>2012-01-04T13:14:01Z</time>
      </trkpt>
      <trkpt lat="43.84748" lon="7.2516">
        <ele>701</ele>
        <time>2012-01-04T13:14:02Z</time>
      </trkpt>
      <trkpt lat="43.84748" lon="7.25151">
        <ele>699.5</ele>
        <time>2012-01-04T13:14:03Z</time>
      </trkpt>
      <trkpt lat="43.8475" lon="7.25143">
        <ele>698.5</ele>
        <time>2012-01-04T13:14:04Z</time>
      </trkpt>
      <trkpt lat="43.84753" lon="7.25135">
        <ele>697.6</ele>
        <time>2012-01-04T13:14:05Z</time>
      </trkpt>
      <trkpt lat="43.84757" lon="7.25127">
        <ele>696.5</ele>
        <time>2012-01-04T13:14:06Z</time>
      </trkpt>
      <trkpt lat="43.84761" lon="7.2512">
        <ele>695.6</ele>
        <time>2012-01-04T13:14:07Z</time>
      </trkpt>
      <trkpt lat="43.84767" lon="7.25114">
        <ele>694.2</ele>
        <time>2012-01-04T13:14:08Z</time>
      </trkpt>
      <trkpt lat="43.84773" lon="7.25108">
        <ele>693.2</ele>
        <time>2012-01-04T13:14:09Z</time>
      </trkpt>
      <trkpt lat="43.84779" lon="7.25101">
        <ele>692.4</ele>
        <time>2012-01-04T13:14:10Z</time>
      </trkpt>
      <trkpt lat="43.84783" lon="7.25094">
        <ele>691</ele>
        <time>2012-01-04T13:14:11Z</time>
      </trkpt>
      <trkpt lat="43.84786" lon="7.25083">
        <ele>689.5</ele>
        <time>2012-01-04T13:14:13Z</time>
      </trkpt>
      <trkpt lat="43.84789" lon="7.25071">
        <ele>688.7</ele>
        <time>2012-01-04T13:14:16Z</time>
      </trkpt>
      <trkpt lat="43.84788" lon="7.25062">
        <ele>688.1</ele>
        <time>2012-01-04T13:14:18Z</time>
      </trkpt>
      <trkpt lat="43.84786" lon="7.25052">
        <ele>687.4</ele>
        <time>2012-01-04T13:14:20Z</time>
      </trkpt>
      <trkpt lat="43.84783" lon="7.25043">
        <ele>686.7</ele>
        <time>2012-01-04T13:14:22Z</time>
      </trkpt>
      <trkpt lat="43.84777" lon="7.25034">
        <ele>686.8</ele>
        <time>2012-01-04T13:14:25Z</time>
      </trkpt>
      <trkpt lat="43.84773" lon="7.25027">
        <ele>687.3</ele>
        <time>2012-01-04T13:14:28Z</time>
      </trkpt>
      <trkpt lat="43.84769" lon="7.25017">
        <ele>687.5</ele>
        <time>2012-01-04T13:14:31Z</time>
      </trkpt>
      <trkpt lat="43.84768" lon="7.25006">
        <ele>686.2</ele>
        <time>2012-01-04T13:14:36Z</time>
      </trkpt>
      <trkpt lat="43.84766" lon="7.24997">
        <ele>683.4</ele>
        <time>2012-01-04T13:14:40Z</time>
      </trkpt>
      <trkpt lat="43.84761" lon="7.24987">
        <ele>680.7</ele>
        <time>2012-01-04T13:14:43Z</time>
      </trkpt>
      <trkpt lat="43.84755" lon="7.2498">
        <ele>677.9</ele>
        <time>2012-01-04T13:14:46Z</time>
      </trkpt>
      <trkpt lat="43.84753" lon="7.24976">
        <ele>677.2</ele>
        <time>2012-01-04T13:14:47Z</time>
      </trkpt>
      <trkpt lat="43.8475" lon="7.24963">
        <ele>675.3</ele>
        <time>2012-01-04T13:14:49Z</time>
      </trkpt>
      <trkpt lat="43.84748" lon="7.24957">
        <ele>674.2</ele>
        <time>2012-01-04T13:14:50Z</time>
      </trkpt>
      <trkpt lat="43.84746" lon="7.24951">
        <ele>672.1</ele>
        <time>2012-01-04T13:14:51Z</time>
      </trkpt>
      <trkpt lat="43.84743" lon="7.24943">
        <ele>670.6</ele>
        <time>2012-01-04T13:14:52Z</time>
      </trkpt>
      <trkpt lat="43.84741" lon="7.24936">
        <ele>668.8</ele>
        <time>2012-01-04T13:14:53Z</time>
      </trkpt>
      <trkpt lat="43.84738" lon="7.24929">
        <ele>667.4</ele>
        <time>2012-01-04T13:14:54Z</time>
      </trkpt>
      <trkpt lat="43.84735" lon="7.24922">
        <ele>666.4</ele>
        <time>2012-01-04T13:14:55Z</time>
      </trkpt>
      <trkpt lat="43.8473" lon="7.24913">
        <ele>663.3</ele>
        <time>2012-01-04T13:14:57Z</time>
      </trkpt>
      <trkpt lat="43.84726" lon="7.24906">
        <ele>660.3</ele>
        <time>2012-01-04T13:14:59Z</time>
      </trkpt>
      <trkpt lat="43.84723" lon="7.24901">
        <ele>658.7</ele>
        <time>2012-01-04T13:15:00Z</time>
      </trkpt>
      <trkpt lat="43.84719" lon="7.24896">
        <ele>657.5</ele>
        <time>2012-01-04T13:15:01Z</time>
      </trkpt>
      <trkpt lat="43.84716" lon="7.2489">
        <ele>656.6</ele>
        <time>2012-01-04T13:15:02Z</time>
      </trkpt>
      <trkpt lat="43.84714" lon="7.24883">
        <ele>655.8</ele>
        <time>2012-01-04T13:15:03Z</time>
      </trkpt>
      <trkpt lat="43.84713" lon="7.24876">
        <ele>655.1</ele>
        <time>2012-01-04T13:15:04Z</time>
      </trkpt>
      <trkpt lat="43.84714" lon="7.24869">
        <ele>654.2</ele>
        <time>2012-01-04T13:15:05Z</time>
      </trkpt>
      <trkpt lat="43.84716" lon="7.24863">
        <ele>653.6</ele>
        <time>2012-01-04T13:15:06Z</time>
      </trkpt>
      <trkpt lat="43.84717" lon="7.24857">
        <ele>653.1</ele>
        <time>2012-01-04T13:15:07Z</time>
      </trkpt>
      <trkpt lat="43.84718" lon="7.2485">
        <ele>652.5</ele>
        <time>2012-01-04T13:15:08Z</time>
      </trkpt>
      <trkpt lat="43.8472" lon="7.24838">
        <ele>651.9</ele>
        <time>2012-01-04T13:15:10Z</time>
      </trkpt>
      <trkpt lat="43.84723" lon="7.24829">
        <ele>652.1</ele>
        <time>2012-01-04T13:15:12Z</time>
      </trkpt>
      <trkpt lat="43.8473" lon="7.24825">
        <ele>653.1</ele>
        <time>2012-01-04T13:15:15Z</time>
      </trkpt>
      <trkpt lat="43.84738" lon="7.24821">
        <ele>653.9</ele>
        <time>2012-01-04T13:15:18Z</time>
      </trkpt>
      <trkpt lat="43.84745" lon="7.24815">
        <ele>654.1</ele>
        <time>2012-01-04T13:15:21Z</time>
      </trkpt>
      <trkpt lat="43.84751" lon="7.24809">
        <ele>655.2</ele>
        <time>2012-01-04T13:15:24Z</time>
      </trkpt>
      <trkpt lat="43.84757" lon="7.24803">
        <ele>655.6</ele>
        <time>2012-01-04T13:15:27Z</time>
      </trkpt>
      <trkpt lat="43.84764" lon="7.24799">
        <ele>655.8</ele>
        <time>2012-01-04T13:15:30Z</time>
      </trkpt>
      <trkpt lat="43.8477" lon="7.24793">
        <ele>656.9</ele>
        <time>2012-01-04T13:15:33Z</time>
      </trkpt>
      <trkpt lat="43.84778" lon="7.24787">
        <ele>656.7</ele>
        <time>2012-01-04T13:15:36Z</time>
      </trkpt>
      <trkpt lat="43.84784" lon="7.24779">
        <ele>656.8</ele>
        <time>2012-01-04T13:15:39Z</time>
      </trkpt>
      <trkpt lat="43.84787" lon="7.24769">
        <ele>657.1</ele>
        <time>2012-01-04T13:15:42Z</time>
      </trkpt>
      <trkpt lat="43.84793" lon="7.24762">
        <ele>657.2</ele>
        <time>2012-01-04T13:15:45Z</time>
      </trkpt>
      <trkpt lat="43.84796" lon="7.24755">
        <ele>656.4</ele>
        <time>2012-01-04T13:15:47Z</time>
      </trkpt>
      <trkpt lat="43.84797" lon="7.24751">
        <ele>656.4</ele>
        <time>2012-01-04T13:15:48Z</time>
      </trkpt>
      <trkpt lat="43.84801" lon="7.24737">
        <ele>655.5</ele>
        <time>2012-01-04T13:15:51Z</time>
      </trkpt>
      <trkpt lat="43.84804" lon="7.24728">
        <ele>655.3</ele>
        <time>2012-01-04T13:15:53Z</time>
      </trkpt>
      <trkpt lat="43.84803" lon="7.24717">
        <ele>654.9</ele>
        <time>2012-01-04T13:15:55Z</time>
      </trkpt>
      <trkpt lat="43.84803" lon="7.24708">
        <ele>654.1</ele>
        <time>2012-01-04T13:15:57Z</time>
      </trkpt>
      <trkpt lat="43.84804" lon="7.24699">
        <ele>653.3</ele>
        <time>2012-01-04T13:15:59Z</time>
      </trkpt>
      <trkpt lat="43.84808" lon="7.24692">
        <ele>653.1</ele>
        <time>2012-01-04T13:16:01Z</time>
      </trkpt>
      <trkpt lat="43.84814" lon="7.24682">
        <ele>652.9</ele>
        <time>2012-01-04T13:16:03Z</time>
      </trkpt>
      <trkpt lat="43.84819" lon="7.24672">
        <ele>652</ele>
        <time>2012-01-04T13:16:05Z</time>
      </trkpt>
      <trkpt lat="43.8482" lon="7.24666">
        <ele>651.6</ele>
        <time>2012-01-04T13:16:06Z</time>
      </trkpt>
      <trkpt lat="43.8482" lon="7.24659">
        <ele>651.2</ele>
        <time>2012-01-04T13:16:07Z</time>
      </trkpt>
      <trkpt lat="43.84821" lon="7.24653">
        <ele>650.9</ele>
        <time>2012-01-04T13:16:08Z</time>
      </trkpt>
      <trkpt lat="43.84823" lon="7.24647">
        <ele>650.3</ele>
        <time>2012-01-04T13:16:09Z</time>
      </trkpt>
      <trkpt lat="43.84824" lon="7.2464">
        <ele>649.9</ele>
        <time>2012-01-04T13:16:10Z</time>
      </trkpt>
      <trkpt lat="43.84826" lon="7.24633">
        <ele>649.6</ele>
        <time>2012-01-04T13:16:11Z</time>
      </trkpt>
      <trkpt lat="43.84828" lon="7.24626">
        <ele>648.6</ele>
        <time>2012-01-04T13:16:12Z</time>
      </trkpt>
      <trkpt lat="43.8483" lon="7.2462">
        <ele>647.9</ele>
        <time>2012-01-04T13:16:13Z</time>
      </trkpt>
      <trkpt lat="43.84836" lon="7.24612">
        <ele>647.1</ele>
        <time>2012-01-04T13:16:15Z</time>
      </trkpt>
      <trkpt lat="43.84844" lon="7.24606">
        <ele>646.6</ele>
        <time>2012-01-04T13:16:18Z</time>
      </trkpt>
      <trkpt lat="43.84848" lon="7.24597">
        <ele>643.9</ele>
        <time>2012-01-04T13:16:23Z</time>
      </trkpt>
      <trkpt lat="43.84855" lon="7.24594">
        <ele>642</ele>
        <time>2012-01-04T13:16:26Z</time>
      </trkpt>
      <trkpt lat="43.84861" lon="7.24591">
        <ele>641</ele>
        <time>2012-01-04T13:16:28Z</time>
      </trkpt>
      <trkpt lat="43.84869" lon="7.2459">
        <ele>639.1</ele>
        <time>2012-01-04T13:16:31Z</time>
      </trkpt>
      <trkpt lat="43.84876" lon="7.24585">
        <ele>636.7</ele>
        <time>2012-01-04T13:16:34Z</time>
      </trkpt>
      <trkpt lat="43.8488" lon="7.24577">
        <ele>634.6</ele>
        <time>2012-01-04T13:16:36Z</time>
      </trkpt>
      <trkpt lat="43.84886" lon="7.24569">
        <ele>633.2</ele>
        <time>2012-01-04T13:16:38Z</time>
      </trkpt>
      <trkpt lat="43.84892" lon="7.24561">
        <ele>631.9</ele>
        <time>2012-01-04T13:16:40Z</time>
      </trkpt>
      <trkpt lat="43.84898" lon="7.24556">
        <ele>630.6</ele>
        <time>2012-01-04T13:16:42Z</time>
      </trkpt>
      <trkpt lat="43.84904" lon="7.24551">
        <ele>629.4</ele>
        <time>2012-01-04T13:16:44Z</time>
      </trkpt>
      <trkpt lat="43.84911" lon="7.24544">
        <ele>626.2</ele>
        <time>2012-01-04T13:16:47Z</time>
      </trkpt>
      <trkpt lat="43.84919" lon="7.24541">
        <ele>623.7</ele>
        <time>2012-01-04T13:16:50Z</time>
      </trkpt>
      <trkpt lat="43.8492" lon="7.2454">
        <ele>622.9</ele>
        <time>2012-01-04T13:16:51Z</time>
      </trkpt>
      <trkpt lat="43.84924" lon="7.24526">
        <ele>616</ele>
        <time>2012-01-04T13:17:03Z</time>
      </trkpt>
      <trkpt lat="43.8492" lon="7.24518">
        <ele>614</ele>
        <time>2012-01-04T13:17:07Z</time>
      </trkpt>
      <trkpt lat="43.84919" lon="7.24506">
        <ele>611.2</ele>
        <time>2012-01-04T13:17:14Z</time>
      </trkpt>
      <trkpt lat="43.84916" lon="7.24494">
        <ele>608.8</ele>
        <time>2012-01-04T13:17:25Z</time>
      </trkpt>
      <trkpt lat="43.84918" lon="7.24483">
        <ele>607.3</ele>
        <time>2012-01-04T13:17:35Z</time>
      </trkpt>
      <trkpt lat="43.84927" lon="7.24485">
        <ele>602.5</ele>
        <time>2012-01-04T13:17:53Z</time>
      </trkpt>
      <trkpt lat="43.84927" lon="7.24485">
        <ele>602.3</ele>
        <time>2012-01-04T13:17:54Z</time>
      </trkpt>
      <trkpt lat="43.84942" lon="7.24482">
        <ele>598.3</ele>
        <time>2012-01-04T13:18:02Z</time>
      </trkpt>
      <trkpt lat="43.8495" lon="7.24482">
        <ele>596.1</ele>
        <time>2012-01-04T13:18:11Z</time>
      </trkpt>
      <trkpt lat="43.84956" lon="7.24487">
        <ele>594.8</ele>
        <time>2012-01-04T13:19:22Z</time>
      </trkpt>
      <trkpt lat="43.84957" lon="7.24489">
        <ele>594.6</ele>
        <time>2012-01-04T13:19:23Z</time>
      </trkpt>
      <trkpt lat="43.84967" lon="7.24505">
        <ele>592.8</ele>
        <time>2012-01-04T13:19:28Z</time>
      </trkpt>
      <trkpt lat="43.84973" lon="7.24514">
        <ele>592.3</ele>
        <time>2012-01-04T13:19:32Z</time>
      </trkpt>
      <trkpt lat="43.84978" lon="7.24523">
        <ele>590.5</ele>
        <time>2012-01-04T13:19:46Z</time>
      </trkpt>
      <trkpt lat="43.84983" lon="7.24531">
        <ele>590.1</ele>
        <time>2012-01-04T13:19:49Z</time>
      </trkpt>
      <trkpt lat="43.84989" lon="7.24539">
        <ele>589.2</ele>
        <time>2012-01-04T13:19:51Z</time>
      </trkpt>
      <trkpt lat="43.84995" lon="7.24546">
        <ele>588.7</ele>
        <time>2012-01-04T13:19:53Z</time>
      </trkpt>
      <trkpt lat="43.85003" lon="7.24545">
        <ele>588.2</ele>
        <time>2012-01-04T13:19:55Z</time>
      </trkpt>
      <trkpt lat="43.85007" lon="7.24536">
        <ele>587.5</ele>
        <time>2012-01-04T13:19:57Z</time>
      </trkpt>
      <trkpt lat="43.85009" lon="7.24525">
        <ele>587</ele>
        <time>2012-01-04T13:19:59Z</time>
      </trkpt>
      <trkpt lat="43.85009" lon="7.24518">
        <ele>586.8</ele>
        <time>2012-01-04T13:20:00Z</time>
      </trkpt>
      <trkpt lat="43.8501" lon="7.24511">
        <ele>586.7</ele>
        <time>2012-01-04T13:20:01Z</time>
      </trkpt>
      <trkpt lat="43.8501" lon="7.24503">
        <ele>585.6</ele>
        <time>2012-01-04T13:20:02Z</time>
      </trkpt>
      <trkpt lat="43.85011" lon="7.24495">
        <ele>584.8</ele>
        <time>2012-01-04T13:20:03Z</time>
      </trkpt>
      <trkpt lat="43.85012" lon="7.24487">
        <ele>584.2</ele>
        <time>2012-01-04T13:20:04Z</time>
      </trkpt>
      <trkpt lat="43.85015" lon="7.2448">
        <ele>583.7</ele>
        <time>2012-01-04T13:20:05Z</time>
      </trkpt>
      <trkpt lat="43.85019" lon="7.24474">
        <ele>583.3</ele>
        <time>2012-01-04T13:20:06Z</time>
      </trkpt>
      <trkpt lat="43.85022" lon="7.24468">
        <ele>582.8</ele>
        <time>2012-01-04T13:20:07Z</time>
      </trkpt>
      <trkpt lat="43.85025" lon="7.24462">
        <ele>582.5</ele>
        <time>2012-01-04T13:20:08Z</time>
      </trkpt>
      <trkpt lat="43.85028" lon="7.24456">
        <ele>582.9</ele>
        <time>2012-01-04T13:20:09Z</time>
      </trkpt>
      <trkpt lat="43.8503" lon="7.2445">
        <ele>583.2</ele>
        <time>2012-01-04T13:20:10Z</time>
      </trkpt>
      <trkpt lat="43.85035" lon="7.2444">
        <ele>582.5</ele>
        <time>2012-01-04T13:20:12Z</time>
      </trkpt>
      <trkpt lat="43.85039" lon="7.2443">
        <ele>582.7</ele>
        <time>2012-01-04T13:20:14Z</time>
      </trkpt>
      <trkpt lat="43.85043" lon="7.2442">
        <ele>583.3</ele>
        <time>2012-01-04T13:20:16Z</time>
      </trkpt>
      <trkpt lat="43.85046" lon="7.24411">
        <ele>583.2</ele>
        <time>2012-01-04T13:20:18Z</time>
      </trkpt>
      <trkpt lat="43.85049" lon="7.24401">
        <ele>583</ele>
        <time>2012-01-04T13:20:20Z</time>
      </trkpt>
      <trkpt lat="43.85051" lon="7.24391">
        <ele>583.2</ele>
        <time>2012-01-04T13:20:22Z</time>
      </trkpt>
      <trkpt lat="43.85054" lon="7.24381">
        <ele>582.6</ele>
        <time>2012-01-04T13:20:24Z</time>
      </trkpt>
      <trkpt lat="43.85055" lon="7.24376">
        <ele>582.5</ele>
        <time>2012-01-04T13:20:25Z</time>
      </trkpt>
      <trkpt lat="43.8506" lon="7.24362">
        <ele>582.2</ele>
        <time>2012-01-04T13:20:28Z</time>
      </trkpt>
      <trkpt lat="43.85062" lon="7.24353">
        <ele>582.4</ele>
        <time>2012-01-04T13:20:30Z</time>
      </trkpt>
      <trkpt lat="43.85064" lon="7.24343">
        <ele>582.4</ele>
        <time>2012-01-04T13:20:32Z</time>
      </trkpt>
      <trkpt lat="43.85067" lon="7.24334">
        <ele>582.4</ele>
        <time>2012-01-04T13:20:34Z</time>
      </trkpt>
      <trkpt lat="43.8507" lon="7.24325">
        <ele>582.7</ele>
        <time>2012-01-04T13:20:36Z</time>
      </trkpt>
      <trkpt lat="43.85074" lon="7.24315">
        <ele>582.8</ele>
        <time>2012-01-04T13:20:38Z</time>
      </trkpt>
      <trkpt lat="43.85078" lon="7.24307">
        <ele>583</ele>
        <time>2012-01-04T13:20:40Z</time>
      </trkpt>
      <trkpt lat="43.85083" lon="7.24299">
        <ele>582.9</ele>
        <time>2012-01-04T13:20:42Z</time>
      </trkpt>
      <trkpt lat="43.85088" lon="7.2429">
        <ele>582.7</ele>
        <time>2012-01-04T13:20:44Z</time>
      </trkpt>
      <trkpt lat="43.85093" lon="7.24282">
        <ele>583.1</ele>
        <time>2012-01-04T13:20:46Z</time>
      </trkpt>
      <trkpt lat="43.85097" lon="7.24273">
        <ele>583.1</ele>
        <time>2012-01-04T13:20:48Z</time>
      </trkpt>
      <trkpt lat="43.85103" lon="7.24265">
        <ele>583</ele>
        <time>2012-01-04T13:20:50Z</time>
      </trkpt>
      <trkpt lat="43.85108" lon="7.24258">
        <ele>582.9</ele>
        <time>2012-01-04T13:20:52Z</time>
      </trkpt>
      <trkpt lat="43.85114" lon="7.24251">
        <ele>583.1</ele>
        <time>2012-01-04T13:20:54Z</time>
      </trkpt>
      <trkpt lat="43.85121" lon="7.24247">
        <ele>582.9</ele>
        <time>2012-01-04T13:20:56Z</time>
      </trkpt>
      <trkpt lat="43.85129" lon="7.24244">
        <ele>582.6</ele>
        <time>2012-01-04T13:20:59Z</time>
      </trkpt>
      <trkpt lat="43.85136" lon="7.24239">
        <ele>583.7</ele>
        <time>2012-01-04T13:21:02Z</time>
      </trkpt>
      <trkpt lat="43.85138" lon="7.24231">
        <ele>584.2</ele>
        <time>2012-01-04T13:21:04Z</time>
      </trkpt>
      <trkpt lat="43.85139" lon="7.24222">
        <ele>584.2</ele>
        <time>2012-01-04T13:21:06Z</time>
      </trkpt>
      <trkpt lat="43.8514" lon="7.24212">
        <ele>583.9</ele>
        <time>2012-01-04T13:21:08Z</time>
      </trkpt>
      <trkpt lat="43.85142" lon="7.24201">
        <ele>583.7</ele>
        <time>2012-01-04T13:21:10Z</time>
      </trkpt>
      <trkpt lat="43.85146" lon="7.2419">
        <ele>583.2</ele>
        <time>2012-01-04T13:21:12Z</time>
      </trkpt>
      <trkpt lat="43.85148" lon="7.24185">
        <ele>582.8</ele>
        <time>2012-01-04T13:21:13Z</time>
      </trkpt>
      <trkpt lat="43.8515" lon="7.24179">
        <ele>582.5</ele>
        <time>2012-01-04T13:21:14Z</time>
      </trkpt>
      <trkpt lat="43.85152" lon="7.24172">
        <ele>581.8</ele>
        <time>2012-01-04T13:21:15Z</time>
      </trkpt>
      <trkpt lat="43.85154" lon="7.24166">
        <ele>581.2</ele>
        <time>2012-01-04T13:21:16Z</time>
      </trkpt>
      <trkpt lat="43.85156" lon="7.24159">
        <ele>580.8</ele>
        <time>2012-01-04T13:21:17Z</time>
      </trkpt>
      <trkpt lat="43.85159" lon="7.24152">
        <ele>580.5</ele>
        <time>2012-01-04T13:21:18Z</time>
      </trkpt>
      <trkpt lat="43.85161" lon="7.24144">
        <ele>580.3</ele>
        <time>2012-01-04T13:21:19Z</time>
      </trkpt>
      <trkpt lat="43.85164" lon="7.24136">
        <ele>579.7</ele>
        <time>2012-01-04T13:21:20Z</time>
      </trkpt>
      <trkpt lat="43.85166" lon="7.24128">
        <ele>579.2</ele>
        <time>2012-01-04T13:21:21Z</time>
      </trkpt>
      <trkpt lat="43.85169" lon="7.24119">
        <ele>578.9</ele>
        <time>2012-01-04T13:21:22Z</time>
      </trkpt>
      <trkpt lat="43.85172" lon="7.2411">
        <ele>577.9</ele>
        <time>2012-01-04T13:21:23Z</time>
      </trkpt>
      <trkpt lat="43.85175" lon="7.24101">
        <ele>577.2</ele>
        <time>2012-01-04T13:21:24Z</time>
      </trkpt>
      <trkpt lat="43.85178" lon="7.24092">
        <ele>576.5</ele>
        <time>2012-01-04T13:21:25Z</time>
      </trkpt>
      <trkpt lat="43.85181" lon="7.24083">
        <ele>575.9</ele>
        <time>2012-01-04T13:21:26Z</time>
      </trkpt>
      <trkpt lat="43.85185" lon="7.24076">
        <ele>575</ele>
        <time>2012-01-04T13:21:27Z</time>
      </trkpt>
      <trkpt lat="43.85191" lon="7.24068">
        <ele>574.3</ele>
        <time>2012-01-04T13:21:28Z</time>
      </trkpt>
      <trkpt lat="43.85196" lon="7.24061">
        <ele>573.8</ele>
        <time>2012-01-04T13:21:29Z</time>
      </trkpt>
      <trkpt lat="43.85202" lon="7.24054">
        <ele>573.2</ele>
        <time>2012-01-04T13:21:30Z</time>
      </trkpt>
      <trkpt lat="43.85208" lon="7.24045">
        <ele>572.7</ele>
        <time>2012-01-04T13:21:31Z</time>
      </trkpt>
      <trkpt lat="43.85214" lon="7.24037">
        <ele>571.3</ele>
        <time>2012-01-04T13:21:32Z</time>
      </trkpt>
      <trkpt lat="43.85219" lon="7.24029">
        <ele>570.3</ele>
        <time>2012-01-04T13:21:33Z</time>
      </trkpt>
      <trkpt lat="43.85224" lon="7.24022">
        <ele>569.5</ele>
        <time>2012-01-04T13:21:34Z</time>
      </trkpt>
      <trkpt lat="43.85229" lon="7.24015">
        <ele>568.9</ele>
        <time>2012-01-04T13:21:35Z</time>
      </trkpt>
      <trkpt lat="43.85233" lon="7.24009">
        <ele>568.5</ele>
        <time>2012-01-04T13:21:36Z</time>
      </trkpt>
      <trkpt lat="43.85237" lon="7.24003">
        <ele>568.3</ele>
        <time>2012-01-04T13:21:37Z</time>
      </trkpt>
      <trkpt lat="43.85239" lon="7.23996">
        <ele>568.1</ele>
        <time>2012-01-04T13:21:38Z</time>
      </trkpt>
      <trkpt lat="43.85239" lon="7.23989">
        <ele>567.9</ele>
        <time>2012-01-04T13:21:39Z</time>
      </trkpt>
      <trkpt lat="43.85239" lon="7.23983">
        <ele>567.8</ele>
        <time>2012-01-04T13:21:40Z</time>
      </trkpt>
      <trkpt lat="43.85238" lon="7.23976">
        <ele>567.7</ele>
        <time>2012-01-04T13:21:41Z</time>
      </trkpt>
      <trkpt lat="43.85237" lon="7.2397">
        <ele>567.8</ele>
        <time>2012-01-04T13:21:42Z</time>
      </trkpt>
      <trkpt lat="43.85236" lon="7.23959">
        <ele>567.8</ele>
        <time>2012-01-04T13:21:44Z</time>
      </trkpt>
      <trkpt lat="43.85234" lon="7.23948">
        <ele>568.4</ele>
        <time>2012-01-04T13:21:46Z</time>
      </trkpt>
      <trkpt lat="43.85233" lon="7.23937">
        <ele>569.2</ele>
        <time>2012-01-04T13:21:48Z</time>
      </trkpt>
      <trkpt lat="43.85231" lon="7.23927">
        <ele>569.2</ele>
        <time>2012-01-04T13:21:50Z</time>
      </trkpt>
      <trkpt lat="43.8523" lon="7.23917">
        <ele>569.1</ele>
        <time>2012-01-04T13:21:52Z</time>
      </trkpt>
      <trkpt lat="43.85229" lon="7.23907">
        <ele>569.6</ele>
        <time>2012-01-04T13:21:54Z</time>
      </trkpt>
      <trkpt lat="43.85228" lon="7.23897">
        <ele>569.8</ele>
        <time>2012-01-04T13:21:56Z</time>
      </trkpt>
      <trkpt lat="43.85227" lon="7.23887">
        <ele>570.1</ele>
        <time>2012-01-04T13:21:58Z</time>
      </trkpt>
      <trkpt lat="43.85225" lon="7.23877">
        <ele>570.3</ele>
        <time>2012-01-04T13:22:00Z</time>
      </trkpt>
      <trkpt lat="43.85224" lon="7.23868">
        <ele>570.3</ele>
        <time>2012-01-04T13:22:02Z</time>
      </trkpt>
      <trkpt lat="43.85222" lon="7.23858">
        <ele>571.3</ele>
        <time>2012-01-04T13:22:04Z</time>
      </trkpt>
      <trkpt lat="43.85221" lon="7.23847">
        <ele>571.5</ele>
        <time>2012-01-04T13:22:06Z</time>
      </trkpt>
      <trkpt lat="43.8522" lon="7.23836">
        <ele>571.5</ele>
        <time>2012-01-04T13:22:08Z</time>
      </trkpt>
      <trkpt lat="43.85219" lon="7.23825">
        <ele>571.4</ele>
        <time>2012-01-04T13:22:10Z</time>
      </trkpt>
      <trkpt lat="43.85218" lon="7.23814">
        <ele>571.6</ele>
        <time>2012-01-04T13:22:12Z</time>
      </trkpt>
      <trkpt lat="43.85217" lon="7.23803">
        <ele>572.1</ele>
        <time>2012-01-04T13:22:14Z</time>
      </trkpt>
      <trkpt lat="43.85216" lon="7.23793">
        <ele>571.3</ele>
        <time>2012-01-04T13:22:16Z</time>
      </trkpt>
      <trkpt lat="43.85214" lon="7.23783">
        <ele>571.1</ele>
        <time>2012-01-04T13:22:18Z</time>
      </trkpt>
      <trkpt lat="43.85209" lon="7.23775">
        <ele>571.2</ele>
        <time>2012-01-04T13:22:20Z</time>
      </trkpt>
      <trkpt lat="43.85202" lon="7.23772">
        <ele>570.9</ele>
        <time>2012-01-04T13:22:22Z</time>
      </trkpt>
      <trkpt lat="43.85195" lon="7.23769">
        <ele>570.6</ele>
        <time>2012-01-04T13:22:24Z</time>
      </trkpt>
      <trkpt lat="43.85187" lon="7.23764">
        <ele>570.6</ele>
        <time>2012-01-04T13:22:26Z</time>
      </trkpt>
      <trkpt lat="43.85183" lon="7.23761">
        <ele>570.7</ele>
        <time>2012-01-04T13:22:27Z</time>
      </trkpt>
      <trkpt lat="43.85179" lon="7.23758">
        <ele>570.7</ele>
        <time>2012-01-04T13:22:28Z</time>
      </trkpt>
      <trkpt lat="43.85175" lon="7.23754">
        <ele>570.3</ele>
        <time>2012-01-04T13:22:29Z</time>
      </trkpt>
      <trkpt lat="43.8517" lon="7.23749">
        <ele>570.1</ele>
        <time>2012-01-04T13:22:30Z</time>
      </trkpt>
      <trkpt lat="43.85166" lon="7.23744">
        <ele>569.8</ele>
        <time>2012-01-04T13:22:31Z</time>
      </trkpt>
      <trkpt lat="43.85162" lon="7.23738">
        <ele>569.6</ele>
        <time>2012-01-04T13:22:32Z</time>
      </trkpt>
      <trkpt lat="43.85158" lon="7.23731">
        <ele>569.4</ele>
        <time>2012-01-04T13:22:33Z</time>
      </trkpt>
      <trkpt lat="43.85154" lon="7.23724">
        <ele>568.5</ele>
        <time>2012-01-04T13:22:34Z</time>
      </trkpt>
      <trkpt lat="43.8515" lon="7.23716">
        <ele>567.8</ele>
        <time>2012-01-04T13:22:35Z</time>
      </trkpt>
      <trkpt lat="43.85147" lon="7.23708">
        <ele>566.7</ele>
        <time>2012-01-04T13:22:36Z</time>
      </trkpt>
      <trkpt lat="43.85143" lon="7.237">
        <ele>565.8</ele>
        <time>2012-01-04T13:22:37Z</time>
      </trkpt>
      <trkpt lat="43.85139" lon="7.23692">
        <ele>564.9</ele>
        <time>2012-01-04T13:22:38Z</time>
      </trkpt>
      <trkpt lat="43.85135" lon="7.23685">
        <ele>564.2</ele>
        <time>2012-01-04T13:22:39Z</time>
      </trkpt>
      <trkpt lat="43.85131" lon="7.23677">
        <ele>563.7</ele>
        <time>2012-01-04T13:22:40Z</time>
      </trkpt>
      <trkpt lat="43.85127" lon="7.2367">
        <ele>562.3</ele>
        <time>2012-01-04T13:22:41Z</time>
      </trkpt>
      <trkpt lat="43.85123" lon="7.23663">
        <ele>561.3</ele>
        <time>2012-01-04T13:22:42Z</time>
      </trkpt>
      <trkpt lat="43.85119" lon="7.23656">
        <ele>560.7</ele>
        <time>2012-01-04T13:22:43Z</time>
      </trkpt>
      <trkpt lat="43.85114" lon="7.2365">
        <ele>560.2</ele>
        <time>2012-01-04T13:22:44Z</time>
      </trkpt>
      <trkpt lat="43.8511" lon="7.23644">
        <ele>559.9</ele>
        <time>2012-01-04T13:22:45Z</time>
      </trkpt>
      <trkpt lat="43.85103" lon="7.23638">
        <ele>558.4</ele>
        <time>2012-01-04T13:22:47Z</time>
      </trkpt>
      <trkpt lat="43.85096" lon="7.23633">
        <ele>556.9</ele>
        <time>2012-01-04T13:22:50Z</time>
      </trkpt>
      <trkpt lat="43.851" lon="7.23625">
        <ele>555.8</ele>
        <time>2012-01-04T13:22:53Z</time>
      </trkpt>
      <trkpt lat="43.85106" lon="7.23622">
        <ele>555.2</ele>
        <time>2012-01-04T13:22:55Z</time>
      </trkpt>
      <trkpt lat="43.85114" lon="7.23619">
        <ele>554.6</ele>
        <time>2012-01-04T13:22:57Z</time>
      </trkpt>
      <trkpt lat="43.85118" lon="7.23617">
        <ele>554.3</ele>
        <time>2012-01-04T13:22:58Z</time>
      </trkpt>
      <trkpt lat="43.85123" lon="7.23615">
        <ele>554</ele>
        <time>2012-01-04T13:22:59Z</time>
      </trkpt>
      <trkpt lat="43.85128" lon="7.23612">
        <ele>553.4</ele>
        <time>2012-01-04T13:23:00Z</time>
      </trkpt>
      <trkpt lat="43.85133" lon="7.2361">
        <ele>552.9</ele>
        <time>2012-01-04T13:23:01Z</time>
      </trkpt>
      <trkpt lat="43.85138" lon="7.23607">
        <ele>552.5</ele>
        <time>2012-01-04T13:23:02Z</time>
      </trkpt>
      <trkpt lat="43.85143" lon="7.23604">
        <ele>552.2</ele>
        <time>2012-01-04T13:23:03Z</time>
      </trkpt>
      <trkpt lat="43.85148" lon="7.23602">
        <ele>552</ele>
        <time>2012-01-04T13:23:04Z</time>
      </trkpt>
      <trkpt lat="43.85153" lon="7.23598">
        <ele>551.7</ele>
        <time>2012-01-04T13:23:05Z</time>
      </trkpt>
      <trkpt lat="43.85157" lon="7.23594">
        <ele>551.5</ele>
        <time>2012-01-04T13:23:06Z</time>
      </trkpt>
      <trkpt lat="43.85162" lon="7.2359">
        <ele>551.1</ele>
        <time>2012-01-04T13:23:07Z</time>
      </trkpt>
      <trkpt lat="43.85166" lon="7.23585">
        <ele>550.8</ele>
        <time>2012-01-04T13:23:08Z</time>
      </trkpt>
      <trkpt lat="43.8517" lon="7.2358">
        <ele>550.8</ele>
        <time>2012-01-04T13:23:09Z</time>
      </trkpt>
      <trkpt lat="43.85174" lon="7.23574">
        <ele>550.8</ele>
        <time>2012-01-04T13:23:10Z</time>
      </trkpt>
      <trkpt lat="43.85178" lon="7.23569">
        <ele>550.8</ele>
        <time>2012-01-04T13:23:11Z</time>
      </trkpt>
      <trkpt lat="43.85182" lon="7.23563">
        <ele>550.4</ele>
        <time>2012-01-04T13:23:12Z</time>
      </trkpt>
      <trkpt lat="43.85186" lon="7.23557">
        <ele>550.2</ele>
        <time>2012-01-04T13:23:13Z</time>
      </trkpt>
      <trkpt lat="43.8519" lon="7.2355">
        <ele>549.5</ele>
        <time>2012-01-04T13:23:14Z</time>
      </trkpt>
      <trkpt lat="43.85194" lon="7.23543">
        <ele>549</ele>
        <time>2012-01-04T13:23:15Z</time>
      </trkpt>
      <trkpt lat="43.85198" lon="7.23535">
        <ele>548.1</ele>
        <time>2012-01-04T13:23:16Z</time>
      </trkpt>
      <trkpt lat="43.85201" lon="7.23528">
        <ele>547.4</ele>
        <time>2012-01-04T13:23:17Z</time>
      </trkpt>
      <trkpt lat="43.85205" lon="7.23522">
        <ele>546.9</ele>
        <time>2012-01-04T13:23:18Z</time>
      </trkpt>
      <trkpt lat="43.85209" lon="7.23515">
        <ele>546.5</ele>
        <time>2012-01-04T13:23:19Z</time>
      </trkpt>
      <trkpt lat="43.85213" lon="7.23508">
        <ele>546.3</ele>
        <time>2012-01-04T13:23:20Z</time>
      </trkpt>
      <trkpt lat="43.85217" lon="7.23501">
        <ele>545.5</ele>
        <time>2012-01-04T13:23:21Z</time>
      </trkpt>
      <trkpt lat="43.85221" lon="7.23493">
        <ele>544.8</ele>
        <time>2012-01-04T13:23:22Z</time>
      </trkpt>
      <trkpt lat="43.85225" lon="7.23486">
        <ele>544</ele>
        <time>2012-01-04T13:23:23Z</time>
      </trkpt>
      <trkpt lat="43.85229" lon="7.2348">
        <ele>543.4</ele>
        <time>2012-01-04T13:23:24Z</time>
      </trkpt>
      <trkpt lat="43.85234" lon="7.23474">
        <ele>542.9</ele>
        <time>2012-01-04T13:23:25Z</time>
      </trkpt>
      <trkpt lat="43.85239" lon="7.23469">
        <ele>542.4</ele>
        <time>2012-01-04T13:23:26Z</time>
      </trkpt>
      <trkpt lat="43.85244" lon="7.23464">
        <ele>542.1</ele>
        <time>2012-01-04T13:23:27Z</time>
      </trkpt>
      <trkpt lat="43.8525" lon="7.2346">
        <ele>541.4</ele>
        <time>2012-01-04T13:23:28Z</time>
      </trkpt>
      <trkpt lat="43.85257" lon="7.23457">
        <ele>540.9</ele>
        <time>2012-01-04T13:23:29Z</time>
      </trkpt>
      <trkpt lat="43.85263" lon="7.23453">
        <ele>540.5</ele>
        <time>2012-01-04T13:23:30Z</time>
      </trkpt>
      <trkpt lat="43.85269" lon="7.23449">
        <ele>540.2</ele>
        <time>2012-01-04T13:23:31Z</time>
      </trkpt>
      <trkpt lat="43.85276" lon="7.23445">
        <ele>539.9</ele>
        <time>2012-01-04T13:23:32Z</time>
      </trkpt>
      <trkpt lat="43.85282" lon="7.2344">
        <ele>539.6</ele>
        <time>2012-01-04T13:23:33Z</time>
      </trkpt>
      <trkpt lat="43.85287" lon="7.23435">
        <ele>539.4</ele>
        <time>2012-01-04T13:23:34Z</time>
      </trkpt>
      <trkpt lat="43.85293" lon="7.23429">
        <ele>539.1</ele>
        <time>2012-01-04T13:23:35Z</time>
      </trkpt>
      <trkpt lat="43.85298" lon="7.23423">
        <ele>538.9</ele>
        <time>2012-01-04T13:23:36Z</time>
      </trkpt>
      <trkpt lat="43.85303" lon="7.23417">
        <ele>538.7</ele>
        <time>2012-01-04T13:23:37Z</time>
      </trkpt>
      <trkpt lat="43.85308" lon="7.2341">
        <ele>538.6</ele>
        <time>2012-01-04T13:23:38Z</time>
      </trkpt>
      <trkpt lat="43.85312" lon="7.23404">
        <ele>538.5</ele>
        <time>2012-01-04T13:23:39Z</time>
      </trkpt>
      <trkpt lat="43.85316" lon="7.23398">
        <ele>538.4</ele>
        <time>2012-01-04T13:23:40Z</time>
      </trkpt>
      <trkpt lat="43.85319" lon="7.23393">
        <ele>538.3</ele>
        <time>2012-01-04T13:23:41Z</time>
      </trkpt>
      <trkpt lat="43.85322" lon="7.23388">
        <ele>538.4</ele>
        <time>2012-01-04T13:23:42Z</time>
      </trkpt>
      <trkpt lat="43.85327" lon="7.23378">
        <ele>538.5</ele>
        <time>2012-01-04T13:23:44Z</time>
      </trkpt>
      <trkpt lat="43.85332" lon="7.23369">
        <ele>538.9</ele>
        <time>2012-01-04T13:23:46Z</time>
      </trkpt>
      <trkpt lat="43.85337" lon="7.23359">
        <ele>538.7</ele>
        <time>2012-01-04T13:23:48Z</time>
      </trkpt>
      <trkpt lat="43.85342" lon="7.23349">
        <ele>538.5</ele>
        <time>2012-01-04T13:23:50Z</time>
      </trkpt>
      <trkpt lat="43.85348" lon="7.23341">
        <ele>538.6</ele>
        <time>2012-01-04T13:23:52Z</time>
      </trkpt>
      <trkpt lat="43.85353" lon="7.23332">
        <ele>538.5</ele>
        <time>2012-01-04T13:23:54Z</time>
      </trkpt>
      <trkpt lat="43.85358" lon="7.23323">
        <ele>538.1</ele>
        <time>2012-01-04T13:23:56Z</time>
      </trkpt>
      <trkpt lat="43.85364" lon="7.23314">
        <ele>537.8</ele>
        <time>2012-01-04T13:23:58Z</time>
      </trkpt>
      <trkpt lat="43.85369" lon="7.23306">
        <ele>537.3</ele>
        <time>2012-01-04T13:24:00Z</time>
      </trkpt>
      <trkpt lat="43.85374" lon="7.23297">
        <ele>537.3</ele>
        <time>2012-01-04T13:24:02Z</time>
      </trkpt>
      <trkpt lat="43.8538" lon="7.23289">
        <ele>537.4</ele>
        <time>2012-01-04T13:24:04Z</time>
      </trkpt>
      <trkpt lat="43.85386" lon="7.23282">
        <ele>537.6</ele>
        <time>2012-01-04T13:24:06Z</time>
      </trkpt>
      <trkpt lat="43.85391" lon="7.23274">
        <ele>537.8</ele>
        <time>2012-01-04T13:24:08Z</time>
      </trkpt>
      <trkpt lat="43.85393" lon="7.23268">
        <ele>537.7</ele>
        <time>2012-01-04T13:24:09Z</time>
      </trkpt>
      <trkpt lat="43.85396" lon="7.23263">
        <ele>537.6</ele>
        <time>2012-01-04T13:24:10Z</time>
      </trkpt>
      <trkpt lat="43.854" lon="7.23258">
        <ele>537</ele>
        <time>2012-01-04T13:24:11Z</time>
      </trkpt>
      <trkpt lat="43.85406" lon="7.23252">
        <ele>535.8</ele>
        <time>2012-01-04T13:24:13Z</time>
      </trkpt>
      <trkpt lat="43.85412" lon="7.23245">
        <ele>533.7</ele>
        <time>2012-01-04T13:24:32Z</time>
      </trkpt>
      <trkpt lat="43.85412" lon="7.23243">
        <ele>533.6</ele>
        <time>2012-01-04T13:24:33Z</time>
      </trkpt>
      <trkpt lat="43.8542" lon="7.23224">
        <ele>531.4</ele>
        <time>2012-01-04T13:24:38Z</time>
      </trkpt>
      <trkpt lat="43.85422" lon="7.23213">
        <ele>530</ele>
        <time>2012-01-04T13:24:41Z</time>
      </trkpt>
      <trkpt lat="43.85421" lon="7.23204">
        <ele>528.8</ele>
        <time>2012-01-04T13:24:43Z</time>
      </trkpt>
      <trkpt lat="43.85421" lon="7.23192">
        <ele>527.1</ele>
        <time>2012-01-04T13:24:46Z</time>
      </trkpt>
      <trkpt lat="43.85426" lon="7.23182">
        <ele>527</ele>
        <time>2012-01-04T13:24:49Z</time>
      </trkpt>
      <trkpt lat="43.85433" lon="7.23178">
        <ele>527</ele>
        <time>2012-01-04T13:24:52Z</time>
      </trkpt>
      <trkpt lat="43.85436" lon="7.23168">
        <ele>526.8</ele>
        <time>2012-01-04T13:25:05Z</time>
      </trkpt>
      <trkpt lat="43.85438" lon="7.23158">
        <ele>526.8</ele>
        <time>2012-01-04T13:25:08Z</time>
      </trkpt>
      <trkpt lat="43.8544" lon="7.23149">
        <ele>526.7</ele>
        <time>2012-01-04T13:25:10Z</time>
      </trkpt>
      <trkpt lat="43.85444" lon="7.2314">
        <ele>526.6</ele>
        <time>2012-01-04T13:25:12Z</time>
      </trkpt>
      <trkpt lat="43.85447" lon="7.2313">
        <ele>525.5</ele>
        <time>2012-01-04T13:25:14Z</time>
      </trkpt>
      <trkpt lat="43.85449" lon="7.23118">
        <ele>525.1</ele>
        <time>2012-01-04T13:25:16Z</time>
      </trkpt>
      <trkpt lat="43.8545" lon="7.23112">
        <ele>525.2</ele>
        <time>2012-01-04T13:25:17Z</time>
      </trkpt>
      <trkpt lat="43.85451" lon="7.23106">
        <ele>525.3</ele>
        <time>2012-01-04T13:25:18Z</time>
      </trkpt>
      <trkpt lat="43.85451" lon="7.23099">
        <ele>525.4</ele>
        <time>2012-01-04T13:25:19Z</time>
      </trkpt>
      <trkpt lat="43.85451" lon="7.23093">
        <ele>524.7</ele>
        <time>2012-01-04T13:25:20Z</time>
      </trkpt>
      <trkpt lat="43.8545" lon="7.23086">
        <ele>524.2</ele>
        <time>2012-01-04T13:25:21Z</time>
      </trkpt>
      <trkpt lat="43.8545" lon="7.23079">
        <ele>523.6</ele>
        <time>2012-01-04T13:25:22Z</time>
      </trkpt>
      <trkpt lat="43.8545" lon="7.23072">
        <ele>523.1</ele>
        <time>2012-01-04T13:25:23Z</time>
      </trkpt>
      <trkpt lat="43.85451" lon="7.23064">
        <ele>522.8</ele>
        <time>2012-01-04T13:25:24Z</time>
      </trkpt>
      <trkpt lat="43.85452" lon="7.23057">
        <ele>522.5</ele>
        <time>2012-01-04T13:25:25Z</time>
      </trkpt>
      <trkpt lat="43.85454" lon="7.2305">
        <ele>522.3</ele>
        <time>2012-01-04T13:25:26Z</time>
      </trkpt>
      <trkpt lat="43.85456" lon="7.23042">
        <ele>521.8</ele>
        <time>2012-01-04T13:25:27Z</time>
      </trkpt>
      <trkpt lat="43.85458" lon="7.23034">
        <ele>521.4</ele>
        <time>2012-01-04T13:25:28Z</time>
      </trkpt>
      <trkpt lat="43.85459" lon="7.23026">
        <ele>521.1</ele>
        <time>2012-01-04T13:25:29Z</time>
      </trkpt>
      <trkpt lat="43.8546" lon="7.23018">
        <ele>520.8</ele>
        <time>2012-01-04T13:25:30Z</time>
      </trkpt>
      <trkpt lat="43.8546" lon="7.2301">
        <ele>520.6</ele>
        <time>2012-01-04T13:25:31Z</time>
      </trkpt>
      <trkpt lat="43.8546" lon="7.23002">
        <ele>520.1</ele>
        <time>2012-01-04T13:25:32Z</time>
      </trkpt>
      <trkpt lat="43.85458" lon="7.22994">
        <ele>519.6</ele>
        <time>2012-01-04T13:25:33Z</time>
      </trkpt>
      <trkpt lat="43.85455" lon="7.22987">
        <ele>519.1</ele>
        <time>2012-01-04T13:25:34Z</time>
      </trkpt>
      <trkpt lat="43.85452" lon="7.22979">
        <ele>518.6</ele>
        <time>2012-01-04T13:25:35Z</time>
      </trkpt>
      <trkpt lat="43.85449" lon="7.22971">
        <ele>517.9</ele>
        <time>2012-01-04T13:25:36Z</time>
      </trkpt>
      <trkpt lat="43.85446" lon="7.22963">
        <ele>517.3</ele>
        <time>2012-01-04T13:25:37Z</time>
      </trkpt>
      <trkpt lat="43.85443" lon="7.22955">
        <ele>516.9</ele>
        <time>2012-01-04T13:25:38Z</time>
      </trkpt>
      <trkpt lat="43.85439" lon="7.22947">
        <ele>516.3</ele>
        <time>2012-01-04T13:25:39Z</time>
      </trkpt>
      <trkpt lat="43.85436" lon="7.22939">
        <ele>515.8</ele>
        <time>2012-01-04T13:25:40Z</time>
      </trkpt>
      <trkpt lat="43.85433" lon="7.22932">
        <ele>515.2</ele>
        <time>2012-01-04T13:25:41Z</time>
      </trkpt>
      <trkpt lat="43.8543" lon="7.22924">
        <ele>514.7</ele>
        <time>2012-01-04T13:25:42Z</time>
      </trkpt>
      <trkpt lat="43.85427" lon="7.22916">
        <ele>514.3</ele>
        <time>2012-01-04T13:25:43Z</time>
      </trkpt>
      <trkpt lat="43.85424" lon="7.22909">
        <ele>514.4</ele>
        <time>2012-01-04T13:25:44Z</time>
      </trkpt>
      <trkpt lat="43.85421" lon="7.22903">
        <ele>514.4</ele>
        <time>2012-01-04T13:25:45Z</time>
      </trkpt>
      <trkpt lat="43.85418" lon="7.22897">
        <ele>514.8</ele>
        <time>2012-01-04T13:25:46Z</time>
      </trkpt>
      <trkpt lat="43.85414" lon="7.22892">
        <ele>515</ele>
        <time>2012-01-04T13:25:47Z</time>
      </trkpt>
      <trkpt lat="43.85411" lon="7.22887">
        <ele>515.6</ele>
        <time>2012-01-04T13:25:48Z</time>
      </trkpt>
      <trkpt lat="43.85407" lon="7.22884">
        <ele>516</ele>
        <time>2012-01-04T13:25:49Z</time>
      </trkpt>
      <trkpt lat="43.85403" lon="7.22881">
        <ele>516.3</ele>
        <time>2012-01-04T13:25:50Z</time>
      </trkpt>
      <trkpt lat="43.85399" lon="7.22877">
        <ele>516.4</ele>
        <time>2012-01-04T13:25:51Z</time>
      </trkpt>
      <trkpt lat="43.85395" lon="7.22874">
        <ele>516.5</ele>
        <time>2012-01-04T13:25:52Z</time>
      </trkpt>
      <trkpt lat="43.85391" lon="7.22871">
        <ele>516.6</ele>
        <time>2012-01-04T13:25:53Z</time>
      </trkpt>
      <trkpt lat="43.85387" lon="7.22867">
        <ele>516.8</ele>
        <time>2012-01-04T13:25:54Z</time>
      </trkpt>
      <trkpt lat="43.85382" lon="7.22864">
        <ele>517.6</ele>
        <time>2012-01-04T13:25:55Z</time>
      </trkpt>
      <trkpt lat="43.85378" lon="7.22861">
        <ele>518.3</ele>
        <time>2012-01-04T13:25:56Z</time>
      </trkpt>
      <trkpt lat="43.85374" lon="7.22858">
        <ele>518.8</ele>
        <time>2012-01-04T13:25:57Z</time>
      </trkpt>
      <trkpt lat="43.8537" lon="7.22855">
        <ele>518.6</ele>
        <time>2012-01-04T13:25:58Z</time>
      </trkpt>
      <trkpt lat="43.85365" lon="7.22853">
        <ele>518.5</ele>
        <time>2012-01-04T13:25:59Z</time>
      </trkpt>
      <trkpt lat="43.85361" lon="7.2285">
        <ele>518.7</ele>
        <time>2012-01-04T13:26:00Z</time>
      </trkpt>
      <trkpt lat="43.85357" lon="7.22847">
        <ele>518.7</ele>
        <time>2012-01-04T13:26:01Z</time>
      </trkpt>
      <trkpt lat="43.85352" lon="7.22844">
        <ele>518.8</ele>
        <time>2012-01-04T13:26:02Z</time>
      </trkpt>
      <trkpt lat="43.85346" lon="7.22835">
        <ele>518.9</ele>
        <time>2012-01-04T13:26:04Z</time>
      </trkpt>
      <trkpt lat="43.85344" lon="7.2283">
        <ele>519</ele>
        <time>2012-01-04T13:26:05Z</time>
      </trkpt>
      <trkpt lat="43.85341" lon="7.22824">
        <ele>519.2</ele>
        <time>2012-01-04T13:26:06Z</time>
      </trkpt>
      <trkpt lat="43.85338" lon="7.22819">
        <ele>518.8</ele>
        <time>2012-01-04T13:26:07Z</time>
      </trkpt>
      <trkpt lat="43.85336" lon="7.22814">
        <ele>518.5</ele>
        <time>2012-01-04T13:26:08Z</time>
      </trkpt>
      <trkpt lat="43.85332" lon="7.2281">
        <ele>518.3</ele>
        <time>2012-01-04T13:26:09Z</time>
      </trkpt>
      <trkpt lat="43.85329" lon="7.22805">
        <ele>518.3</ele>
        <time>2012-01-04T13:26:10Z</time>
      </trkpt>
      <trkpt lat="43.85326" lon="7.22801">
        <ele>518.3</ele>
        <time>2012-01-04T13:26:11Z</time>
      </trkpt>
      <trkpt lat="43.85322" lon="7.22796">
        <ele>518.5</ele>
        <time>2012-01-04T13:26:12Z</time>
      </trkpt>
      <trkpt lat="43.85315" lon="7.22788">
        <ele>519</ele>
        <time>2012-01-04T13:26:14Z</time>
      </trkpt>
      <trkpt lat="43.85308" lon="7.22782">
        <ele>519.3</ele>
        <time>2012-01-04T13:26:16Z</time>
      </trkpt>
      <trkpt lat="43.85304" lon="7.22778">
        <ele>519</ele>
        <time>2012-01-04T13:26:17Z</time>
      </trkpt>
      <trkpt lat="43.853" lon="7.22775">
        <ele>518.8</ele>
        <time>2012-01-04T13:26:18Z</time>
      </trkpt>
      <trkpt lat="43.85296" lon="7.22771">
        <ele>519.1</ele>
        <time>2012-01-04T13:26:19Z</time>
      </trkpt>
      <trkpt lat="43.85293" lon="7.22768">
        <ele>519.3</ele>
        <time>2012-01-04T13:26:20Z</time>
      </trkpt>
      <trkpt lat="43.85289" lon="7.22764">
        <ele>519</ele>
        <time>2012-01-04T13:26:21Z</time>
      </trkpt>
      <trkpt lat="43.85285" lon="7.22761">
        <ele>518.9</ele>
        <time>2012-01-04T13:26:22Z</time>
      </trkpt>
      <trkpt lat="43.85281" lon="7.22757">
        <ele>518.7</ele>
        <time>2012-01-04T13:26:23Z</time>
      </trkpt>
      <trkpt lat="43.85277" lon="7.22754">
        <ele>518.3</ele>
        <time>2012-01-04T13:26:24Z</time>
      </trkpt>
      <trkpt lat="43.85273" lon="7.2275">
        <ele>518</ele>
        <time>2012-01-04T13:26:25Z</time>
      </trkpt>
      <trkpt lat="43.85269" lon="7.22746">
        <ele>518.2</ele>
        <time>2012-01-04T13:26:26Z</time>
      </trkpt>
      <trkpt lat="43.85265" lon="7.22743">
        <ele>518.4</ele>
        <time>2012-01-04T13:26:27Z</time>
      </trkpt>
      <trkpt lat="43.85261" lon="7.22739">
        <ele>518.5</ele>
        <time>2012-01-04T13:26:28Z</time>
      </trkpt>
      <trkpt lat="43.85257" lon="7.22734">
        <ele>518.5</ele>
        <time>2012-01-04T13:26:29Z</time>
      </trkpt>
      <trkpt lat="43.85253" lon="7.2273">
        <ele>518.5</ele>
        <time>2012-01-04T13:26:30Z</time>
      </trkpt>
      <trkpt lat="43.8525" lon="7.22726">
        <ele>518.3</ele>
        <time>2012-01-04T13:26:31Z</time>
      </trkpt>
      <trkpt lat="43.85246" lon="7.22721">
        <ele>518.2</ele>
        <time>2012-01-04T13:26:32Z</time>
      </trkpt>
      <trkpt lat="43.85244" lon="7.22715">
        <ele>517.7</ele>
        <time>2012-01-04T13:26:33Z</time>
      </trkpt>
      <trkpt lat="43.85241" lon="7.2271">
        <ele>517.4</ele>
        <time>2012-01-04T13:26:34Z</time>
      </trkpt>
      <trkpt lat="43.85237" lon="7.22705">
        <ele>517.1</ele>
        <time>2012-01-04T13:26:35Z</time>
      </trkpt>
      <trkpt lat="43.85233" lon="7.22701">
        <ele>517</ele>
        <time>2012-01-04T13:26:36Z</time>
      </trkpt>
      <trkpt lat="43.85229" lon="7.22698">
        <ele>517</ele>
        <time>2012-01-04T13:26:37Z</time>
      </trkpt>
      <trkpt lat="43.85225" lon="7.22695">
        <ele>516.4</ele>
        <time>2012-01-04T13:26:38Z</time>
      </trkpt>
      <trkpt lat="43.8522" lon="7.22692">
        <ele>516</ele>
        <time>2012-01-04T13:26:39Z</time>
      </trkpt>
      <trkpt lat="43.85216" lon="7.22689">
        <ele>515.7</ele>
        <time>2012-01-04T13:26:40Z</time>
      </trkpt>
      <trkpt lat="43.85211" lon="7.22687">
        <ele>515.5</ele>
        <time>2012-01-04T13:26:41Z</time>
      </trkpt>
      <trkpt lat="43.85206" lon="7.22684">
        <ele>515.4</ele>
        <time>2012-01-04T13:26:42Z</time>
      </trkpt>
      <trkpt lat="43.85201" lon="7.22682">
        <ele>515.4</ele>
        <time>2012-01-04T13:26:43Z</time>
      </trkpt>
      <trkpt lat="43.85196" lon="7.22678">
        <ele>515.4</ele>
        <time>2012-01-04T13:26:44Z</time>
      </trkpt>
      <trkpt lat="43.85192" lon="7.22674">
        <ele>514.9</ele>
        <time>2012-01-04T13:26:45Z</time>
      </trkpt>
      <trkpt lat="43.85187" lon="7.2267">
        <ele>514.6</ele>
        <time>2012-01-04T13:26:46Z</time>
      </trkpt>
      <trkpt lat="43.85183" lon="7.22665">
        <ele>514.3</ele>
        <time>2012-01-04T13:26:47Z</time>
      </trkpt>
      <trkpt lat="43.85178" lon="7.22661">
        <ele>514.1</ele>
        <time>2012-01-04T13:26:48Z</time>
      </trkpt>
      <trkpt lat="43.85174" lon="7.22656">
        <ele>514</ele>
        <time>2012-01-04T13:26:49Z</time>
      </trkpt>
      <trkpt lat="43.85169" lon="7.22651">
        <ele>514</ele>
        <time>2012-01-04T13:26:50Z</time>
      </trkpt>
      <trkpt lat="43.85165" lon="7.22646">
        <ele>514</ele>
        <time>2012-01-04T13:26:51Z</time>
      </trkpt>
      <trkpt lat="43.8516" lon="7.22641">
        <ele>513.6</ele>
        <time>2012-01-04T13:26:52Z</time>
      </trkpt>
      <trkpt lat="43.85156" lon="7.22636">
        <ele>513.4</ele>
        <time>2012-01-04T13:26:53Z</time>
      </trkpt>
      <trkpt lat="43.85152" lon="7.2263">
        <ele>513.2</ele>
        <time>2012-01-04T13:26:54Z</time>
      </trkpt>
      <trkpt lat="43.85149" lon="7.22623">
        <ele>512.9</ele>
        <time>2012-01-04T13:26:55Z</time>
      </trkpt>
      <trkpt lat="43.85145" lon="7.22617">
        <ele>512.7</ele>
        <time>2012-01-04T13:26:56Z</time>
      </trkpt>
      <trkpt lat="43.85141" lon="7.22611">
        <ele>512.6</ele>
        <time>2012-01-04T13:26:57Z</time>
      </trkpt>
      <trkpt lat="43.85138" lon="7.22604">
        <ele>512.4</ele>
        <time>2012-01-04T13:26:58Z</time>
      </trkpt>
      <trkpt lat="43.85135" lon="7.22598">
        <ele>512</ele>
        <time>2012-01-04T13:26:59Z</time>
      </trkpt>
      <trkpt lat="43.85131" lon="7.22591">
        <ele>511.6</ele>
        <time>2012-01-04T13:27:00Z</time>
      </trkpt>
      <trkpt lat="43.85128" lon="7.22584">
        <ele>511.4</ele>
        <time>2012-01-04T13:27:01Z</time>
      </trkpt>
      <trkpt lat="43.85125" lon="7.22578">
        <ele>510.9</ele>
        <time>2012-01-04T13:27:02Z</time>
      </trkpt>
      <trkpt lat="43.85121" lon="7.22571">
        <ele>510.5</ele>
        <time>2012-01-04T13:27:03Z</time>
      </trkpt>
      <trkpt lat="43.85118" lon="7.22564">
        <ele>510.3</ele>
        <time>2012-01-04T13:27:04Z</time>
      </trkpt>
      <trkpt lat="43.85115" lon="7.22557">
        <ele>510.2</ele>
        <time>2012-01-04T13:27:05Z</time>
      </trkpt>
      <trkpt lat="43.85111" lon="7.2255">
        <ele>510</ele>
        <time>2012-01-04T13:27:06Z</time>
      </trkpt>
      <trkpt lat="43.85108" lon="7.22543">
        <ele>509.8</ele>
        <time>2012-01-04T13:27:07Z</time>
      </trkpt>
      <trkpt lat="43.85105" lon="7.22536">
        <ele>509.7</ele>
        <time>2012-01-04T13:27:08Z</time>
      </trkpt>
      <trkpt lat="43.85101" lon="7.22529">
        <ele>509.4</ele>
        <time>2012-01-04T13:27:09Z</time>
      </trkpt>
      <trkpt lat="43.85098" lon="7.22522">
        <ele>509.2</ele>
        <time>2012-01-04T13:27:10Z</time>
      </trkpt>
      <trkpt lat="43.85095" lon="7.22515">
        <ele>508.8</ele>
        <time>2012-01-04T13:27:11Z</time>
      </trkpt>
      <trkpt lat="43.85091" lon="7.22508">
        <ele>508.5</ele>
        <time>2012-01-04T13:27:12Z</time>
      </trkpt>
      <trkpt lat="43.85088" lon="7.22501">
        <ele>508.2</ele>
        <time>2012-01-04T13:27:13Z</time>
      </trkpt>
      <trkpt lat="43.85085" lon="7.22494">
        <ele>507.6</ele>
        <time>2012-01-04T13:27:14Z</time>
      </trkpt>
      <trkpt lat="43.85081" lon="7.22487">
        <ele>507.1</ele>
        <time>2012-01-04T13:27:15Z</time>
      </trkpt>
      <trkpt lat="43.85078" lon="7.2248">
        <ele>506.6</ele>
        <time>2012-01-04T13:27:16Z</time>
      </trkpt>
      <trkpt lat="43.85075" lon="7.22473">
        <ele>506.3</ele>
        <time>2012-01-04T13:27:17Z</time>
      </trkpt>
      <trkpt lat="43.85072" lon="7.22465">
        <ele>506.5</ele>
        <time>2012-01-04T13:27:18Z</time>
      </trkpt>
      <trkpt lat="43.85069" lon="7.22458">
        <ele>506.6</ele>
        <time>2012-01-04T13:27:19Z</time>
      </trkpt>
      <trkpt lat="43.85066" lon="7.2245">
        <ele>506.7</ele>
        <time>2012-01-04T13:27:20Z</time>
      </trkpt>
      <trkpt lat="43.85064" lon="7.22442">
        <ele>506.3</ele>
        <time>2012-01-04T13:27:21Z</time>
      </trkpt>
      <trkpt lat="43.85063" lon="7.22433">
        <ele>506</ele>
        <time>2012-01-04T13:27:22Z</time>
      </trkpt>
      <trkpt lat="43.85062" lon="7.22424">
        <ele>505.6</ele>
        <time>2012-01-04T13:27:23Z</time>
      </trkpt>
      <trkpt lat="43.85061" lon="7.22415">
        <ele>505.3</ele>
        <time>2012-01-04T13:27:24Z</time>
      </trkpt>
      <trkpt lat="43.85059" lon="7.22406">
        <ele>505.1</ele>
        <time>2012-01-04T13:27:25Z</time>
      </trkpt>
      <trkpt lat="43.85057" lon="7.22397">
        <ele>505.3</ele>
        <time>2012-01-04T13:27:26Z</time>
      </trkpt>
      <trkpt lat="43.85053" lon="7.2239">
        <ele>505.4</ele>
        <time>2012-01-04T13:27:27Z</time>
      </trkpt>
      <trkpt lat="43.85047" lon="7.22386">
        <ele>505.2</ele>
        <time>2012-01-04T13:27:28Z</time>
      </trkpt>
      <trkpt lat="43.85041" lon="7.22384">
        <ele>505</ele>
        <time>2012-01-04T13:27:29Z</time>
      </trkpt>
      <trkpt lat="43.85034" lon="7.22383">
        <ele>505.2</ele>
        <time>2012-01-04T13:27:30Z</time>
      </trkpt>
      <trkpt lat="43.85027" lon="7.22383">
        <ele>505.3</ele>
        <time>2012-01-04T13:27:31Z</time>
      </trkpt>
      <trkpt lat="43.85021" lon="7.22383">
        <ele>505.4</ele>
        <time>2012-01-04T13:27:32Z</time>
      </trkpt>
      <trkpt lat="43.85014" lon="7.22382">
        <ele>504.6</ele>
        <time>2012-01-04T13:27:33Z</time>
      </trkpt>
      <trkpt lat="43.85008" lon="7.22381">
        <ele>504</ele>
        <time>2012-01-04T13:27:34Z</time>
      </trkpt>
      <trkpt lat="43.85002" lon="7.22379">
        <ele>503.8</ele>
        <time>2012-01-04T13:27:35Z</time>
      </trkpt>
      <trkpt lat="43.84996" lon="7.22377">
        <ele>503.6</ele>
        <time>2012-01-04T13:27:36Z</time>
      </trkpt>
      <trkpt lat="43.84991" lon="7.22374">
        <ele>503.6</ele>
        <time>2012-01-04T13:27:37Z</time>
      </trkpt>
      <trkpt lat="43.84985" lon="7.22371">
        <ele>503.6</ele>
        <time>2012-01-04T13:27:38Z</time>
      </trkpt>
      <trkpt lat="43.8498" lon="7.22368">
        <ele>503.6</ele>
        <time>2012-01-04T13:27:39Z</time>
      </trkpt>
      <trkpt lat="43.84975" lon="7.22364">
        <ele>503.6</ele>
        <time>2012-01-04T13:27:40Z</time>
      </trkpt>
      <trkpt lat="43.8497" lon="7.22361">
        <ele>503.5</ele>
        <time>2012-01-04T13:27:41Z</time>
      </trkpt>
      <trkpt lat="43.84965" lon="7.22356">
        <ele>503.7</ele>
        <time>2012-01-04T13:27:42Z</time>
      </trkpt>
      <trkpt lat="43.8496" lon="7.22352">
        <ele>503.8</ele>
        <time>2012-01-04T13:27:43Z</time>
      </trkpt>
      <trkpt lat="43.84956" lon="7.22348">
        <ele>504.1</ele>
        <time>2012-01-04T13:27:44Z</time>
      </trkpt>
      <trkpt lat="43.84951" lon="7.22343">
        <ele>504.3</ele>
        <time>2012-01-04T13:27:45Z</time>
      </trkpt>
      <trkpt lat="43.84947" lon="7.22338">
        <ele>504.4</ele>
        <time>2012-01-04T13:27:46Z</time>
      </trkpt>
      <trkpt lat="43.84942" lon="7.22333">
        <ele>504.3</ele>
        <time>2012-01-04T13:27:47Z</time>
      </trkpt>
      <trkpt lat="43.84938" lon="7.22328">
        <ele>504.2</ele>
        <time>2012-01-04T13:27:48Z</time>
      </trkpt>
      <trkpt lat="43.84934" lon="7.22323">
        <ele>504.1</ele>
        <time>2012-01-04T13:27:49Z</time>
      </trkpt>
      <trkpt lat="43.8493" lon="7.22319">
        <ele>504</ele>
        <time>2012-01-04T13:27:50Z</time>
      </trkpt>
      <trkpt lat="43.84926" lon="7.22315">
        <ele>504</ele>
        <time>2012-01-04T13:27:51Z</time>
      </trkpt>
      <trkpt lat="43.84922" lon="7.22311">
        <ele>503.9</ele>
        <time>2012-01-04T13:27:52Z</time>
      </trkpt>
      <trkpt lat="43.84918" lon="7.22307">
        <ele>503.9</ele>
        <time>2012-01-04T13:27:53Z</time>
      </trkpt>
      <trkpt lat="43.84914" lon="7.22304">
        <ele>503.8</ele>
        <time>2012-01-04T13:27:54Z</time>
      </trkpt>
      <trkpt lat="43.8491" lon="7.223">
        <ele>503.7</ele>
        <time>2012-01-04T13:27:55Z</time>
      </trkpt>
      <trkpt lat="43.84906" lon="7.22296">
        <ele>504.3</ele>
        <time>2012-01-04T13:27:56Z</time>
      </trkpt>
      <trkpt lat="43.84903" lon="7.22293">
        <ele>504.7</ele>
        <time>2012-01-04T13:27:57Z</time>
      </trkpt>
      <trkpt lat="43.84899" lon="7.22289">
        <ele>505.1</ele>
        <time>2012-01-04T13:27:58Z</time>
      </trkpt>
      <trkpt lat="43.84895" lon="7.22286">
        <ele>505.6</ele>
        <time>2012-01-04T13:27:59Z</time>
      </trkpt>
      <trkpt lat="43.84891" lon="7.22283">
        <ele>505.9</ele>
        <time>2012-01-04T13:28:00Z</time>
      </trkpt>
      <trkpt lat="43.84887" lon="7.2228">
        <ele>505.6</ele>
        <time>2012-01-04T13:28:01Z</time>
      </trkpt>
      <trkpt lat="43.84883" lon="7.22277">
        <ele>505.4</ele>
        <time>2012-01-04T13:28:02Z</time>
      </trkpt>
      <trkpt lat="43.84875" lon="7.2227">
        <ele>505.5</ele>
        <time>2012-01-04T13:28:04Z</time>
      </trkpt>
      <trkpt lat="43.84868" lon="7.22264">
        <ele>505.7</ele>
        <time>2012-01-04T13:28:06Z</time>
      </trkpt>
      <trkpt lat="43.8486" lon="7.22258">
        <ele>505.5</ele>
        <time>2012-01-04T13:28:08Z</time>
      </trkpt>
      <trkpt lat="43.84854" lon="7.2225">
        <ele>505.3</ele>
        <time>2012-01-04T13:28:10Z</time>
      </trkpt>
      <trkpt lat="43.84847" lon="7.22243">
        <ele>506.1</ele>
        <time>2012-01-04T13:28:12Z</time>
      </trkpt>
      <trkpt lat="43.84842" lon="7.22235">
        <ele>506.3</ele>
        <time>2012-01-04T13:28:14Z</time>
      </trkpt>
      <trkpt lat="43.84837" lon="7.22226">
        <ele>507</ele>
        <time>2012-01-04T13:28:16Z</time>
      </trkpt>
      <trkpt lat="43.84832" lon="7.22216">
        <ele>507.1</ele>
        <time>2012-01-04T13:28:18Z</time>
      </trkpt>
      <trkpt lat="43.84829" lon="7.22206">
        <ele>507.3</ele>
        <time>2012-01-04T13:28:20Z</time>
      </trkpt>
      <trkpt lat="43.84826" lon="7.22197">
        <ele>507.7</ele>
        <time>2012-01-04T13:28:22Z</time>
      </trkpt>
      <trkpt lat="43.84823" lon="7.22187">
        <ele>507.9</ele>
        <time>2012-01-04T13:28:24Z</time>
      </trkpt>
      <trkpt lat="43.84821" lon="7.22178">
        <ele>508.3</ele>
        <time>2012-01-04T13:28:26Z</time>
      </trkpt>
      <trkpt lat="43.84818" lon="7.22169">
        <ele>508.4</ele>
        <time>2012-01-04T13:28:28Z</time>
      </trkpt>
      <trkpt lat="43.84815" lon="7.22159">
        <ele>508.7</ele>
        <time>2012-01-04T13:28:30Z</time>
      </trkpt>
      <trkpt lat="43.84812" lon="7.2215">
        <ele>508.8</ele>
        <time>2012-01-04T13:28:32Z</time>
      </trkpt>
      <trkpt lat="43.8481" lon="7.22141">
        <ele>508.6</ele>
        <time>2012-01-04T13:28:34Z</time>
      </trkpt>
      <trkpt lat="43.84807" lon="7.22131">
        <ele>508.6</ele>
        <time>2012-01-04T13:28:36Z</time>
      </trkpt>
      <trkpt lat="43.84806" lon="7.22126">
        <ele>508.8</ele>
        <time>2012-01-04T13:28:37Z</time>
      </trkpt>
      <trkpt lat="43.84802" lon="7.22112">
        <ele>509.2</ele>
        <time>2012-01-04T13:28:40Z</time>
      </trkpt>
      <trkpt lat="43.84799" lon="7.22103">
        <ele>510.4</ele>
        <time>2012-01-04T13:28:42Z</time>
      </trkpt>
      <trkpt lat="43.84795" lon="7.22095">
        <ele>510.8</ele>
        <time>2012-01-04T13:28:44Z</time>
      </trkpt>
      <trkpt lat="43.8479" lon="7.22087">
        <ele>511.2</ele>
        <time>2012-01-04T13:28:46Z</time>
      </trkpt>
      <trkpt lat="43.84785" lon="7.22078">
        <ele>511.6</ele>
        <time>2012-01-04T13:28:48Z</time>
      </trkpt>
      <trkpt lat="43.8478" lon="7.2207">
        <ele>511.6</ele>
        <time>2012-01-04T13:28:50Z</time>
      </trkpt>
      <trkpt lat="43.84776" lon="7.22059">
        <ele>512.1</ele>
        <time>2012-01-04T13:28:52Z</time>
      </trkpt>
      <trkpt lat="43.84774" lon="7.22054">
        <ele>511.9</ele>
        <time>2012-01-04T13:28:53Z</time>
      </trkpt>
      <trkpt lat="43.84772" lon="7.22047">
        <ele>511.6</ele>
        <time>2012-01-04T13:28:54Z</time>
      </trkpt>
      <trkpt lat="43.84771" lon="7.22041">
        <ele>511.5</ele>
        <time>2012-01-04T13:28:55Z</time>
      </trkpt>
      <trkpt lat="43.84771" lon="7.22034">
        <ele>511.8</ele>
        <time>2012-01-04T13:28:56Z</time>
      </trkpt>
      <trkpt lat="43.8477" lon="7.22028">
        <ele>512.1</ele>
        <time>2012-01-04T13:28:57Z</time>
      </trkpt>
      <trkpt lat="43.84769" lon="7.22021">
        <ele>512</ele>
        <time>2012-01-04T13:28:58Z</time>
      </trkpt>
      <trkpt lat="43.84768" lon="7.22015">
        <ele>511.9</ele>
        <time>2012-01-04T13:28:59Z</time>
      </trkpt>
      <trkpt lat="43.84767" lon="7.22008">
        <ele>511.8</ele>
        <time>2012-01-04T13:29:00Z</time>
      </trkpt>
      <trkpt lat="43.84765" lon="7.22001">
        <ele>511.7</ele>
        <time>2012-01-04T13:29:01Z</time>
      </trkpt>
      <trkpt lat="43.84763" lon="7.21995">
        <ele>511.7</ele>
        <time>2012-01-04T13:29:02Z</time>
      </trkpt>
      <trkpt lat="43.8476" lon="7.2199">
        <ele>511.5</ele>
        <time>2012-01-04T13:29:03Z</time>
      </trkpt>
      <trkpt lat="43.84757" lon="7.21985">
        <ele>511.4</ele>
        <time>2012-01-04T13:29:04Z</time>
      </trkpt>
      <trkpt lat="43.84752" lon="7.21983">
        <ele>511</ele>
        <time>2012-01-04T13:29:05Z</time>
      </trkpt>
      <trkpt lat="43.84747" lon="7.21982">
        <ele>510.7</ele>
        <time>2012-01-04T13:29:06Z</time>
      </trkpt>
      <trkpt lat="43.84742" lon="7.21983">
        <ele>510.4</ele>
        <time>2012-01-04T13:29:07Z</time>
      </trkpt>
      <trkpt lat="43.84737" lon="7.21984">
        <ele>510.2</ele>
        <time>2012-01-04T13:29:08Z</time>
      </trkpt>
      <trkpt lat="43.84731" lon="7.21985">
        <ele>510.1</ele>
        <time>2012-01-04T13:29:09Z</time>
      </trkpt>
      <trkpt lat="43.84726" lon="7.21986">
        <ele>509.6</ele>
        <time>2012-01-04T13:29:10Z</time>
      </trkpt>
      <trkpt lat="43.8472" lon="7.21986">
        <ele>509.3</ele>
        <time>2012-01-04T13:29:11Z</time>
      </trkpt>
      <trkpt lat="43.84714" lon="7.21986">
        <ele>508.9</ele>
        <time>2012-01-04T13:29:12Z</time>
      </trkpt>
      <trkpt lat="43.84709" lon="7.21985">
        <ele>508.6</ele>
        <time>2012-01-04T13:29:13Z</time>
      </trkpt>
      <trkpt lat="43.84704" lon="7.21984">
        <ele>508.4</ele>
        <time>2012-01-04T13:29:14Z</time>
      </trkpt>
      <trkpt lat="43.84698" lon="7.21983">
        <ele>508.2</ele>
        <time>2012-01-04T13:29:15Z</time>
      </trkpt>
      <trkpt lat="43.84693" lon="7.21983">
        <ele>508</ele>
        <time>2012-01-04T13:29:16Z</time>
      </trkpt>
      <trkpt lat="43.84688" lon="7.21982">
        <ele>507.7</ele>
        <time>2012-01-04T13:29:17Z</time>
      </trkpt>
      <trkpt lat="43.84682" lon="7.21981">
        <ele>507.5</ele>
        <time>2012-01-04T13:29:18Z</time>
      </trkpt>
      <trkpt lat="43.84677" lon="7.21981">
        <ele>507.6</ele>
        <time>2012-01-04T13:29:19Z</time>
      </trkpt>
      <trkpt lat="43.84671" lon="7.2198">
        <ele>507.7</ele>
        <time>2012-01-04T13:29:20Z</time>
      </trkpt>
      <trkpt lat="43.84666" lon="7.21979">
        <ele>507.7</ele>
        <time>2012-01-04T13:29:21Z</time>
      </trkpt>
      <trkpt lat="43.8466" lon="7.21978">
        <ele>507.5</ele>
        <time>2012-01-04T13:29:22Z</time>
      </trkpt>
      <trkpt lat="43.84655" lon="7.21976">
        <ele>507.3</ele>
        <time>2012-01-04T13:29:23Z</time>
      </trkpt>
      <trkpt lat="43.84649" lon="7.21974">
        <ele>507</ele>
        <time>2012-01-04T13:29:24Z</time>
      </trkpt>
      <trkpt lat="43.84644" lon="7.21972">
        <ele>506.9</ele>
        <time>2012-01-04T13:29:25Z</time>
      </trkpt>
      <trkpt lat="43.84639" lon="7.2197">
        <ele>506.7</ele>
        <time>2012-01-04T13:29:26Z</time>
      </trkpt>
      <trkpt lat="43.84633" lon="7.21967">
        <ele>506.2</ele>
        <time>2012-01-04T13:29:27Z</time>
      </trkpt>
      <trkpt lat="43.84628" lon="7.21965">
        <ele>505.8</ele>
        <time>2012-01-04T13:29:28Z</time>
      </trkpt>
      <trkpt lat="43.84622" lon="7.21962">
        <ele>505.7</ele>
        <time>2012-01-04T13:29:29Z</time>
      </trkpt>
      <trkpt lat="43.84616" lon="7.21959">
        <ele>505.6</ele>
        <time>2012-01-04T13:29:30Z</time>
      </trkpt>
      <trkpt lat="43.8461" lon="7.21956">
        <ele>504.9</ele>
        <time>2012-01-04T13:29:31Z</time>
      </trkpt>
      <trkpt lat="43.84604" lon="7.21951">
        <ele>504.4</ele>
        <time>2012-01-04T13:29:32Z</time>
      </trkpt>
      <trkpt lat="43.84599" lon="7.21947">
        <ele>504</ele>
        <time>2012-01-04T13:29:33Z</time>
      </trkpt>
      <trkpt lat="43.84593" lon="7.21941">
        <ele>503.9</ele>
        <time>2012-01-04T13:29:34Z</time>
      </trkpt>
      <trkpt lat="43.84588" lon="7.21935">
        <ele>503.8</ele>
        <time>2012-01-04T13:29:35Z</time>
      </trkpt>
      <trkpt lat="43.84583" lon="7.21928">
        <ele>503</ele>
        <time>2012-01-04T13:29:36Z</time>
      </trkpt>
      <trkpt lat="43.84579" lon="7.2192">
        <ele>502.4</ele>
        <time>2012-01-04T13:29:37Z</time>
      </trkpt>
      <trkpt lat="43.84576" lon="7.21911">
        <ele>501.7</ele>
        <time>2012-01-04T13:29:38Z</time>
      </trkpt>
      <trkpt lat="43.84573" lon="7.21902">
        <ele>501.1</ele>
        <time>2012-01-04T13:29:39Z</time>
      </trkpt>
      <trkpt lat="43.84572" lon="7.21892">
        <ele>500.6</ele>
        <time>2012-01-04T13:29:40Z</time>
      </trkpt>
      <trkpt lat="43.84571" lon="7.21882">
        <ele>500.3</ele>
        <time>2012-01-04T13:29:41Z</time>
      </trkpt>
      <trkpt lat="43.84569" lon="7.21872">
        <ele>500.1</ele>
        <time>2012-01-04T13:29:42Z</time>
      </trkpt>
      <trkpt lat="43.84568" lon="7.21862">
        <ele>500.2</ele>
        <time>2012-01-04T13:29:43Z</time>
      </trkpt>
      <trkpt lat="43.84566" lon="7.21852">
        <ele>500.3</ele>
        <time>2012-01-04T13:29:44Z</time>
      </trkpt>
      <trkpt lat="43.84564" lon="7.21842">
        <ele>500.3</ele>
        <time>2012-01-04T13:29:45Z</time>
      </trkpt>
      <trkpt lat="43.84561" lon="7.21833">
        <ele>499.2</ele>
        <time>2012-01-04T13:29:46Z</time>
      </trkpt>
      <trkpt lat="43.84558" lon="7.21824">
        <ele>498.3</ele>
        <time>2012-01-04T13:29:47Z</time>
      </trkpt>
      <trkpt lat="43.84554" lon="7.21815">
        <ele>498</ele>
        <time>2012-01-04T13:29:48Z</time>
      </trkpt>
      <trkpt lat="43.8455" lon="7.21807">
        <ele>497.8</ele>
        <time>2012-01-04T13:29:49Z</time>
      </trkpt>
      <trkpt lat="43.84545" lon="7.218">
        <ele>497.5</ele>
        <time>2012-01-04T13:29:50Z</time>
      </trkpt>
      <trkpt lat="43.8454" lon="7.21793">
        <ele>497.3</ele>
        <time>2012-01-04T13:29:51Z</time>
      </trkpt>
      <trkpt lat="43.84534" lon="7.21786">
        <ele>497.1</ele>
        <time>2012-01-04T13:29:52Z</time>
      </trkpt>
      <trkpt lat="43.84529" lon="7.21779">
        <ele>496.9</ele>
        <time>2012-01-04T13:29:53Z</time>
      </trkpt>
      <trkpt lat="43.84523" lon="7.21772">
        <ele>496.8</ele>
        <time>2012-01-04T13:29:54Z</time>
      </trkpt>
      <trkpt lat="43.84517" lon="7.21765">
        <ele>496.1</ele>
        <time>2012-01-04T13:29:55Z</time>
      </trkpt>
      <trkpt lat="43.84512" lon="7.21758">
        <ele>495.6</ele>
        <time>2012-01-04T13:29:56Z</time>
      </trkpt>
      <trkpt lat="43.84507" lon="7.21751">
        <ele>495.7</ele>
        <time>2012-01-04T13:29:57Z</time>
      </trkpt>
      <trkpt lat="43.84501" lon="7.21744">
        <ele>495.8</ele>
        <time>2012-01-04T13:29:58Z</time>
      </trkpt>
      <trkpt lat="43.84496" lon="7.21736">
        <ele>495.8</ele>
        <time>2012-01-04T13:29:59Z</time>
      </trkpt>
      <trkpt lat="43.84492" lon="7.21729">
        <ele>496.1</ele>
        <time>2012-01-04T13:30:00Z</time>
      </trkpt>
      <trkpt lat="43.84487" lon="7.21721">
        <ele>496.4</ele>
        <time>2012-01-04T13:30:01Z</time>
      </trkpt>
      <trkpt lat="43.84483" lon="7.21713">
        <ele>496</ele>
        <time>2012-01-04T13:30:02Z</time>
      </trkpt>
      <trkpt lat="43.84478" lon="7.21705">
        <ele>495.8</ele>
        <time>2012-01-04T13:30:03Z</time>
      </trkpt>
      <trkpt lat="43.84474" lon="7.21697">
        <ele>495.6</ele>
        <time>2012-01-04T13:30:04Z</time>
      </trkpt>
      <trkpt lat="43.8447" lon="7.21688">
        <ele>495.2</ele>
        <time>2012-01-04T13:30:05Z</time>
      </trkpt>
      <trkpt lat="43.84467" lon="7.21679">
        <ele>495</ele>
        <time>2012-01-04T13:30:06Z</time>
      </trkpt>
      <trkpt lat="43.84463" lon="7.21671">
        <ele>494.5</ele>
        <time>2012-01-04T13:30:07Z</time>
      </trkpt>
      <trkpt lat="43.84459" lon="7.21662">
        <ele>494.1</ele>
        <time>2012-01-04T13:30:08Z</time>
      </trkpt>
      <trkpt lat="43.84455" lon="7.21654">
        <ele>494.2</ele>
        <time>2012-01-04T13:30:09Z</time>
      </trkpt>
      <trkpt lat="43.84452" lon="7.21646">
        <ele>494.3</ele>
        <time>2012-01-04T13:30:10Z</time>
      </trkpt>
      <trkpt lat="43.84449" lon="7.21637">
        <ele>494.4</ele>
        <time>2012-01-04T13:30:11Z</time>
      </trkpt>
      <trkpt lat="43.84447" lon="7.21628">
        <ele>494.4</ele>
        <time>2012-01-04T13:30:12Z</time>
      </trkpt>
      <trkpt lat="43.84444" lon="7.21619">
        <ele>494.5</ele>
        <time>2012-01-04T13:30:13Z</time>
      </trkpt>
      <trkpt lat="43.84442" lon="7.2161">
        <ele>494.3</ele>
        <time>2012-01-04T13:30:14Z</time>
      </trkpt>
      <trkpt lat="43.8444" lon="7.21601">
        <ele>494.2</ele>
        <time>2012-01-04T13:30:15Z</time>
      </trkpt>
      <trkpt lat="43.84438" lon="7.21592">
        <ele>494.1</ele>
        <time>2012-01-04T13:30:16Z</time>
      </trkpt>
      <trkpt lat="43.84436" lon="7.21583">
        <ele>494</ele>
        <time>2012-01-04T13:30:17Z</time>
      </trkpt>
      <trkpt lat="43.84434" lon="7.21575">
        <ele>494</ele>
        <time>2012-01-04T13:30:18Z</time>
      </trkpt>
      <trkpt lat="43.84431" lon="7.21566">
        <ele>494</ele>
        <time>2012-01-04T13:30:19Z</time>
      </trkpt>
      <trkpt lat="43.84428" lon="7.21558">
        <ele>494.1</ele>
        <time>2012-01-04T13:30:20Z</time>
      </trkpt>
      <trkpt lat="43.84424" lon="7.21551">
        <ele>494.1</ele>
        <time>2012-01-04T13:30:21Z</time>
      </trkpt>
      <trkpt lat="43.8442" lon="7.21545">
        <ele>494.1</ele>
        <time>2012-01-04T13:30:22Z</time>
      </trkpt>
      <trkpt lat="43.84415" lon="7.2154">
        <ele>494.1</ele>
        <time>2012-01-04T13:30:23Z</time>
      </trkpt>
      <trkpt lat="43.84409" lon="7.21536">
        <ele>494.2</ele>
        <time>2012-01-04T13:30:24Z</time>
      </trkpt>
      <trkpt lat="43.84404" lon="7.21532">
        <ele>494.3</ele>
        <time>2012-01-04T13:30:25Z</time>
      </trkpt>
      <trkpt lat="43.84398" lon="7.21528">
        <ele>494</ele>
        <time>2012-01-04T13:30:26Z</time>
      </trkpt>
      <trkpt lat="43.84393" lon="7.21525">
        <ele>493.9</ele>
        <time>2012-01-04T13:30:27Z</time>
      </trkpt>
      <trkpt lat="43.84388" lon="7.21522">
        <ele>494.2</ele>
        <time>2012-01-04T13:30:28Z</time>
      </trkpt>
      <trkpt lat="43.84382" lon="7.21519">
        <ele>494.4</ele>
        <time>2012-01-04T13:30:29Z</time>
      </trkpt>
      <trkpt lat="43.84377" lon="7.21516">
        <ele>494.6</ele>
        <time>2012-01-04T13:30:30Z</time>
      </trkpt>
      <trkpt lat="43.84371" lon="7.21513">
        <ele>494.1</ele>
        <time>2012-01-04T13:30:31Z</time>
      </trkpt>
      <trkpt lat="43.84366" lon="7.21509">
        <ele>493.7</ele>
        <time>2012-01-04T13:30:32Z</time>
      </trkpt>
      <trkpt lat="43.84361" lon="7.21507">
        <ele>493.7</ele>
        <time>2012-01-04T13:30:33Z</time>
      </trkpt>
      <trkpt lat="43.84355" lon="7.21504">
        <ele>493.7</ele>
        <time>2012-01-04T13:30:34Z</time>
      </trkpt>
      <trkpt lat="43.8435" lon="7.21502">
        <ele>493.6</ele>
        <time>2012-01-04T13:30:35Z</time>
      </trkpt>
      <trkpt lat="43.84344" lon="7.215">
        <ele>493.5</ele>
        <time>2012-01-04T13:30:36Z</time>
      </trkpt>
      <trkpt lat="43.84339" lon="7.21498">
        <ele>493.4</ele>
        <time>2012-01-04T13:30:37Z</time>
      </trkpt>
      <trkpt lat="43.84333" lon="7.21496">
        <ele>493.7</ele>
        <time>2012-01-04T13:30:38Z</time>
      </trkpt>
      <trkpt lat="43.84327" lon="7.21495">
        <ele>493.9</ele>
        <time>2012-01-04T13:30:39Z</time>
      </trkpt>
      <trkpt lat="43.84322" lon="7.21494">
        <ele>493.8</ele>
        <time>2012-01-04T13:30:40Z</time>
      </trkpt>
      <trkpt lat="43.84316" lon="7.21493">
        <ele>493.7</ele>
        <time>2012-01-04T13:30:41Z</time>
      </trkpt>
      <trkpt lat="43.8431" lon="7.21493">
        <ele>493.7</ele>
        <time>2012-01-04T13:30:42Z</time>
      </trkpt>
      <trkpt lat="43.84305" lon="7.21492">
        <ele>493.7</ele>
        <time>2012-01-04T13:30:43Z</time>
      </trkpt>
      <trkpt lat="43.84299" lon="7.21491">
        <ele>493.6</ele>
        <time>2012-01-04T13:30:44Z</time>
      </trkpt>
      <trkpt lat="43.84294" lon="7.2149">
        <ele>493.6</ele>
        <time>2012-01-04T13:30:45Z</time>
      </trkpt>
      <trkpt lat="43.84288" lon="7.21489">
        <ele>493.5</ele>
        <time>2012-01-04T13:30:46Z</time>
      </trkpt>
      <trkpt lat="43.84282" lon="7.21488">
        <ele>493.6</ele>
        <time>2012-01-04T13:30:47Z</time>
      </trkpt>
      <trkpt lat="43.84277" lon="7.21486">
        <ele>493.7</ele>
        <time>2012-01-04T13:30:48Z</time>
      </trkpt>
      <trkpt lat="43.84271" lon="7.21484">
        <ele>493.7</ele>
        <time>2012-01-04T13:30:49Z</time>
      </trkpt>
      <trkpt lat="43.84266" lon="7.21481">
        <ele>494</ele>
        <time>2012-01-04T13:30:50Z</time>
      </trkpt>
      <trkpt lat="43.8426" lon="7.21479">
        <ele>494.2</ele>
        <time>2012-01-04T13:30:51Z</time>
      </trkpt>
      <trkpt lat="43.84255" lon="7.21478">
        <ele>494.1</ele>
        <time>2012-01-04T13:30:52Z</time>
      </trkpt>
      <trkpt lat="43.84249" lon="7.21478">
        <ele>494.1</ele>
        <time>2012-01-04T13:30:53Z</time>
      </trkpt>
      <trkpt lat="43.84244" lon="7.21478">
        <ele>494.2</ele>
        <time>2012-01-04T13:30:54Z</time>
      </trkpt>
      <trkpt lat="43.84239" lon="7.21479">
        <ele>494.3</ele>
        <time>2012-01-04T13:30:55Z</time>
      </trkpt>
      <trkpt lat="43.84233" lon="7.2148">
        <ele>494.3</ele>
        <time>2012-01-04T13:30:56Z</time>
      </trkpt>
      <trkpt lat="43.84228" lon="7.21481">
        <ele>494.7</ele>
        <time>2012-01-04T13:30:57Z</time>
      </trkpt>
      <trkpt lat="43.84223" lon="7.21482">
        <ele>495</ele>
        <time>2012-01-04T13:30:58Z</time>
      </trkpt>
      <trkpt lat="43.84218" lon="7.21483">
        <ele>495.1</ele>
        <time>2012-01-04T13:30:59Z</time>
      </trkpt>
      <trkpt lat="43.84213" lon="7.21483">
        <ele>495.2</ele>
        <time>2012-01-04T13:31:00Z</time>
      </trkpt>
      <trkpt lat="43.84208" lon="7.21482">
        <ele>494.9</ele>
        <time>2012-01-04T13:31:01Z</time>
      </trkpt>
      <trkpt lat="43.84203" lon="7.2148">
        <ele>494.7</ele>
        <time>2012-01-04T13:31:02Z</time>
      </trkpt>
      <trkpt lat="43.84198" lon="7.21478">
        <ele>494.5</ele>
        <time>2012-01-04T13:31:03Z</time>
      </trkpt>
      <trkpt lat="43.84193" lon="7.21475">
        <ele>494.8</ele>
        <time>2012-01-04T13:31:04Z</time>
      </trkpt>
      <trkpt lat="43.84189" lon="7.21472">
        <ele>495</ele>
        <time>2012-01-04T13:31:05Z</time>
      </trkpt>
      <trkpt lat="43.84184" lon="7.21468">
        <ele>495.1</ele>
        <time>2012-01-04T13:31:06Z</time>
      </trkpt>
      <trkpt lat="43.8418" lon="7.21463">
        <ele>495.1</ele>
        <time>2012-01-04T13:31:07Z</time>
      </trkpt>
      <trkpt lat="43.84176" lon="7.21459">
        <ele>495.1</ele>
        <time>2012-01-04T13:31:08Z</time>
      </trkpt>
      <trkpt lat="43.84172" lon="7.21454">
        <ele>495.5</ele>
        <time>2012-01-04T13:31:09Z</time>
      </trkpt>
      <trkpt lat="43.84169" lon="7.2145">
        <ele>495.8</ele>
        <time>2012-01-04T13:31:10Z</time>
      </trkpt>
      <trkpt lat="43.84165" lon="7.21445">
        <ele>495.7</ele>
        <time>2012-01-04T13:31:11Z</time>
      </trkpt>
      <trkpt lat="43.84162" lon="7.21441">
        <ele>495.6</ele>
        <time>2012-01-04T13:31:12Z</time>
      </trkpt>
      <trkpt lat="43.84158" lon="7.21436">
        <ele>495.3</ele>
        <time>2012-01-04T13:31:13Z</time>
      </trkpt>
      <trkpt lat="43.84155" lon="7.21431">
        <ele>495.1</ele>
        <time>2012-01-04T13:31:14Z</time>
      </trkpt>
      <trkpt lat="43.84152" lon="7.21427">
        <ele>494.9</ele>
        <time>2012-01-04T13:31:15Z</time>
      </trkpt>
      <trkpt lat="43.84149" lon="7.21421">
        <ele>495.3</ele>
        <time>2012-01-04T13:31:16Z</time>
      </trkpt>
      <trkpt lat="43.84146" lon="7.21416">
        <ele>495.7</ele>
        <time>2012-01-04T13:31:17Z</time>
      </trkpt>
      <trkpt lat="43.84143" lon="7.21411">
        <ele>495.5</ele>
        <time>2012-01-04T13:31:18Z</time>
      </trkpt>
      <trkpt lat="43.84132" lon="7.21392">
        <ele>495</ele>
        <time>2012-01-04T13:31:21Z</time>
      </trkpt>
      <trkpt lat="43.84128" lon="7.21384">
        <ele>496.4</ele>
        <time>2012-01-04T13:31:23Z</time>
      </trkpt>
      <trkpt lat="43.84124" lon="7.2138">
        <ele>496.8</ele>
        <time>2012-01-04T13:31:24Z</time>
      </trkpt>
      <trkpt lat="43.8412" lon="7.21376">
        <ele>496.6</ele>
        <time>2012-01-04T13:31:25Z</time>
      </trkpt>
      <trkpt lat="43.84115" lon="7.21375">
        <ele>496.5</ele>
        <time>2012-01-04T13:31:26Z</time>
      </trkpt>
      <trkpt lat="43.8411" lon="7.21375">
        <ele>496.5</ele>
        <time>2012-01-04T13:31:27Z</time>
      </trkpt>
      <trkpt lat="43.84105" lon="7.21377">
        <ele>496.5</ele>
        <time>2012-01-04T13:31:28Z</time>
      </trkpt>
      <trkpt lat="43.84101" lon="7.21381">
        <ele>496.5</ele>
        <time>2012-01-04T13:31:29Z</time>
      </trkpt>
      <trkpt lat="43.84097" lon="7.21385">
        <ele>496.6</ele>
        <time>2012-01-04T13:31:30Z</time>
      </trkpt>
      <trkpt lat="43.84093" lon="7.21389">
        <ele>496.6</ele>
        <time>2012-01-04T13:31:31Z</time>
      </trkpt>
      <trkpt lat="43.84089" lon="7.21393">
        <ele>496.7</ele>
        <time>2012-01-04T13:31:32Z</time>
      </trkpt>
      <trkpt lat="43.84084" lon="7.21396">
        <ele>496.8</ele>
        <time>2012-01-04T13:31:33Z</time>
      </trkpt>
      <trkpt lat="43.84075" lon="7.21397">
        <ele>497.1</ele>
        <time>2012-01-04T13:31:35Z</time>
      </trkpt>
      <trkpt lat="43.84068" lon="7.21393">
        <ele>497.3</ele>
        <time>2012-01-04T13:31:37Z</time>
      </trkpt>
      <trkpt lat="43.84062" lon="7.21388">
        <ele>497.2</ele>
        <time>2012-01-04T13:31:39Z</time>
      </trkpt>
      <trkpt lat="43.84059" lon="7.21385">
        <ele>492.7</ele>
        <time>2012-01-04T13:31:40Z</time>
      </trkpt>
      <trkpt lat="43.8405" lon="7.21376">
        <ele>485.5</ele>
        <time>2012-01-04T13:31:43Z</time>
      </trkpt>
      <trkpt lat="43.84045" lon="7.2137">
        <ele>483.2</ele>
        <time>2012-01-04T13:31:45Z</time>
      </trkpt>
      <trkpt lat="43.84038" lon="7.21363">
        <ele>482.3</ele>
        <time>2012-01-04T13:31:47Z</time>
      </trkpt>
      <trkpt lat="43.84035" lon="7.21359">
        <ele>482.2</ele>
        <time>2012-01-04T13:31:48Z</time>
      </trkpt>
      <trkpt lat="43.84031" lon="7.21355">
        <ele>482.1</ele>
        <time>2012-01-04T13:31:49Z</time>
      </trkpt>
      <trkpt lat="43.84027" lon="7.2135">
        <ele>481.9</ele>
        <time>2012-01-04T13:31:50Z</time>
      </trkpt>
      <trkpt lat="43.84024" lon="7.21346">
        <ele>481.8</ele>
        <time>2012-01-04T13:31:51Z</time>
      </trkpt>
      <trkpt lat="43.8402" lon="7.21342">
        <ele>481.6</ele>
        <time>2012-01-04T13:31:52Z</time>
      </trkpt>
      <trkpt lat="43.84016" lon="7.21337">
        <ele>481.6</ele>
        <time>2012-01-04T13:31:53Z</time>
      </trkpt>
      <trkpt lat="43.84012" lon="7.21332">
        <ele>481.1</ele>
        <time>2012-01-04T13:31:54Z</time>
      </trkpt>
      <trkpt lat="43.84008" lon="7.21328">
        <ele>480.8</ele>
        <time>2012-01-04T13:31:55Z</time>
      </trkpt>
      <trkpt lat="43.84004" lon="7.21323">
        <ele>480.4</ele>
        <time>2012-01-04T13:31:56Z</time>
      </trkpt>
      <trkpt lat="43.84" lon="7.21317">
        <ele>480.2</ele>
        <time>2012-01-04T13:31:57Z</time>
      </trkpt>
      <trkpt lat="43.83997" lon="7.21311">
        <ele>480.7</ele>
        <time>2012-01-04T13:31:58Z</time>
      </trkpt>
      <trkpt lat="43.83995" lon="7.21304">
        <ele>481.1</ele>
        <time>2012-01-04T13:31:59Z</time>
      </trkpt>
      <trkpt lat="43.83992" lon="7.21297">
        <ele>481.4</ele>
        <time>2012-01-04T13:32:00Z</time>
      </trkpt>
      <trkpt lat="43.83989" lon="7.2129">
        <ele>481</ele>
        <time>2012-01-04T13:32:01Z</time>
      </trkpt>
      <trkpt lat="43.83986" lon="7.21284">
        <ele>480.8</ele>
        <time>2012-01-04T13:32:02Z</time>
      </trkpt>
      <trkpt lat="43.83983" lon="7.21278">
        <ele>481.2</ele>
        <time>2012-01-04T13:32:03Z</time>
      </trkpt>
      <trkpt lat="43.83979" lon="7.21272">
        <ele>481.5</ele>
        <time>2012-01-04T13:32:04Z</time>
      </trkpt>
      <trkpt lat="43.83974" lon="7.21268">
        <ele>481.8</ele>
        <time>2012-01-04T13:32:05Z</time>
      </trkpt>
      <trkpt lat="43.83969" lon="7.21265">
        <ele>481.6</ele>
        <time>2012-01-04T13:32:06Z</time>
      </trkpt>
      <trkpt lat="43.83964" lon="7.21264">
        <ele>481.4</ele>
        <time>2012-01-04T13:32:07Z</time>
      </trkpt>
      <trkpt lat="43.83958" lon="7.21263">
        <ele>481.4</ele>
        <time>2012-01-04T13:32:08Z</time>
      </trkpt>
      <trkpt lat="43.83952" lon="7.21264">
        <ele>481.4</ele>
        <time>2012-01-04T13:32:09Z</time>
      </trkpt>
      <trkpt lat="43.83947" lon="7.21265">
        <ele>481.5</ele>
        <time>2012-01-04T13:32:10Z</time>
      </trkpt>
      <trkpt lat="43.83941" lon="7.21267">
        <ele>481.6</ele>
        <time>2012-01-04T13:32:11Z</time>
      </trkpt>
      <trkpt lat="43.83936" lon="7.2127">
        <ele>481.7</ele>
        <time>2012-01-04T13:32:12Z</time>
      </trkpt>
      <trkpt lat="43.83931" lon="7.21272">
        <ele>481.6</ele>
        <time>2012-01-04T13:32:13Z</time>
      </trkpt>
      <trkpt lat="43.83926" lon="7.21275">
        <ele>481.6</ele>
        <time>2012-01-04T13:32:14Z</time>
      </trkpt>
      <trkpt lat="43.83921" lon="7.21279">
        <ele>481.4</ele>
        <time>2012-01-04T13:32:15Z</time>
      </trkpt>
      <trkpt lat="43.83916" lon="7.21282">
        <ele>481.2</ele>
        <time>2012-01-04T13:32:16Z</time>
      </trkpt>
      <trkpt lat="43.83912" lon="7.21285">
        <ele>481.4</ele>
        <time>2012-01-04T13:32:17Z</time>
      </trkpt>
      <trkpt lat="43.83908" lon="7.21289">
        <ele>481.5</ele>
        <time>2012-01-04T13:32:18Z</time>
      </trkpt>
      <trkpt lat="43.83904" lon="7.21294">
        <ele>481.6</ele>
        <time>2012-01-04T13:32:19Z</time>
      </trkpt>
      <trkpt lat="43.839" lon="7.21299">
        <ele>481.7</ele>
        <time>2012-01-04T13:32:20Z</time>
      </trkpt>
      <trkpt lat="43.83896" lon="7.21303">
        <ele>481.8</ele>
        <time>2012-01-04T13:32:21Z</time>
      </trkpt>
      <trkpt lat="43.83892" lon="7.21308">
        <ele>481.7</ele>
        <time>2012-01-04T13:32:22Z</time>
      </trkpt>
      <trkpt lat="43.83888" lon="7.21312">
        <ele>481.7</ele>
        <time>2012-01-04T13:32:23Z</time>
      </trkpt>
      <trkpt lat="43.83884" lon="7.21316">
        <ele>481.7</ele>
        <time>2012-01-04T13:32:24Z</time>
      </trkpt>
      <trkpt lat="43.8388" lon="7.21319">
        <ele>481.7</ele>
        <time>2012-01-04T13:32:25Z</time>
      </trkpt>
      <trkpt lat="43.83875" lon="7.21321">
        <ele>481.7</ele>
        <time>2012-01-04T13:32:26Z</time>
      </trkpt>
      <trkpt lat="43.83867" lon="7.21322">
        <ele>481.4</ele>
        <time>2012-01-04T13:32:28Z</time>
      </trkpt>
      <trkpt lat="43.83859" lon="7.21321">
        <ele>481.4</ele>
        <time>2012-01-04T13:32:30Z</time>
      </trkpt>
      <trkpt lat="43.83852" lon="7.21319">
        <ele>481.4</ele>
        <time>2012-01-04T13:32:32Z</time>
      </trkpt>
      <trkpt lat="43.83844" lon="7.21316">
        <ele>480.7</ele>
        <time>2012-01-04T13:32:35Z</time>
      </trkpt>
      <trkpt lat="43.83837" lon="7.21315">
        <ele>480.4</ele>
        <time>2012-01-04T13:32:37Z</time>
      </trkpt>
      <trkpt lat="43.83833" lon="7.21313">
        <ele>480.4</ele>
        <time>2012-01-04T13:32:38Z</time>
      </trkpt>
      <trkpt lat="43.83828" lon="7.21311">
        <ele>479.7</ele>
        <time>2012-01-04T13:32:39Z</time>
      </trkpt>
      <trkpt lat="43.83822" lon="7.21309">
        <ele>479.1</ele>
        <time>2012-01-04T13:32:40Z</time>
      </trkpt>
      <trkpt lat="43.83817" lon="7.21307">
        <ele>478.2</ele>
        <time>2012-01-04T13:32:41Z</time>
      </trkpt>
      <trkpt lat="43.83811" lon="7.21305">
        <ele>477.5</ele>
        <time>2012-01-04T13:32:42Z</time>
      </trkpt>
      <trkpt lat="43.83806" lon="7.21303">
        <ele>476.1</ele>
        <time>2012-01-04T13:32:43Z</time>
      </trkpt>
      <trkpt lat="43.83799" lon="7.21299">
        <ele>474.2</ele>
        <time>2012-01-04T13:32:45Z</time>
      </trkpt>
      <trkpt lat="43.8379" lon="7.21303">
        <ele>471.5</ele>
        <time>2012-01-04T13:34:31Z</time>
      </trkpt>
      <trkpt lat="43.8379" lon="7.21303">
        <ele>471.5</ele>
        <time>2012-01-04T13:34:32Z</time>
      </trkpt>
      <trkpt lat="43.83779" lon="7.21299">
        <ele>470.3</ele>
        <time>2012-01-04T13:38:01Z</time>
      </trkpt>
      <trkpt lat="43.83771" lon="7.21298">
        <ele>470.8</ele>
        <time>2012-01-04T13:38:03Z</time>
      </trkpt>
      <trkpt lat="43.83766" lon="7.21297">
        <ele>470.3</ele>
        <time>2012-01-04T13:38:04Z</time>
      </trkpt>
      <trkpt lat="43.83761" lon="7.21297">
        <ele>470</ele>
        <time>2012-01-04T13:38:05Z</time>
      </trkpt>
      <trkpt lat="43.83756" lon="7.21296">
        <ele>469.6</ele>
        <time>2012-01-04T13:38:06Z</time>
      </trkpt>
      <trkpt lat="43.8375" lon="7.21296">
        <ele>469.4</ele>
        <time>2012-01-04T13:38:07Z</time>
      </trkpt>
      <trkpt lat="43.83745" lon="7.21295">
        <ele>469.2</ele>
        <time>2012-01-04T13:38:08Z</time>
      </trkpt>
      <trkpt lat="43.83739" lon="7.21294">
        <ele>468.7</ele>
        <time>2012-01-04T13:38:09Z</time>
      </trkpt>
      <trkpt lat="43.83733" lon="7.21293">
        <ele>468.3</ele>
        <time>2012-01-04T13:38:10Z</time>
      </trkpt>
      <trkpt lat="43.83726" lon="7.21292">
        <ele>468.2</ele>
        <time>2012-01-04T13:38:11Z</time>
      </trkpt>
      <trkpt lat="43.83721" lon="7.21292">
        <ele>468</ele>
        <time>2012-01-04T13:38:12Z</time>
      </trkpt>
      <trkpt lat="43.83715" lon="7.21291">
        <ele>467.7</ele>
        <time>2012-01-04T13:38:13Z</time>
      </trkpt>
      <trkpt lat="43.83709" lon="7.21288">
        <ele>467.5</ele>
        <time>2012-01-04T13:38:14Z</time>
      </trkpt>
      <trkpt lat="43.83704" lon="7.21284">
        <ele>467.3</ele>
        <time>2012-01-04T13:38:15Z</time>
      </trkpt>
      <trkpt lat="43.83699" lon="7.21279">
        <ele>466.4</ele>
        <time>2012-01-04T13:38:16Z</time>
      </trkpt>
      <trkpt lat="43.83695" lon="7.21273">
        <ele>465.8</ele>
        <time>2012-01-04T13:38:17Z</time>
      </trkpt>
      <trkpt lat="43.83692" lon="7.21265">
        <ele>465.2</ele>
        <time>2012-01-04T13:38:18Z</time>
      </trkpt>
      <trkpt lat="43.8369" lon="7.21257">
        <ele>464.7</ele>
        <time>2012-01-04T13:38:19Z</time>
      </trkpt>
      <trkpt lat="43.83688" lon="7.21249">
        <ele>464.4</ele>
        <time>2012-01-04T13:38:20Z</time>
      </trkpt>
      <trkpt lat="43.83686" lon="7.2124">
        <ele>464.1</ele>
        <time>2012-01-04T13:38:21Z</time>
      </trkpt>
      <trkpt lat="43.83685" lon="7.21231">
        <ele>463.9</ele>
        <time>2012-01-04T13:38:22Z</time>
      </trkpt>
      <trkpt lat="43.83684" lon="7.21222">
        <ele>463.1</ele>
        <time>2012-01-04T13:38:23Z</time>
      </trkpt>
      <trkpt lat="43.83682" lon="7.21213">
        <ele>462.5</ele>
        <time>2012-01-04T13:38:24Z</time>
      </trkpt>
      <trkpt lat="43.83681" lon="7.21204">
        <ele>462.3</ele>
        <time>2012-01-04T13:38:25Z</time>
      </trkpt>
      <trkpt lat="43.83679" lon="7.21195">
        <ele>462</ele>
        <time>2012-01-04T13:38:26Z</time>
      </trkpt>
      <trkpt lat="43.83677" lon="7.21187">
        <ele>461.9</ele>
        <time>2012-01-04T13:38:27Z</time>
      </trkpt>
      <trkpt lat="43.83674" lon="7.2118">
        <ele>461.4</ele>
        <time>2012-01-04T13:38:28Z</time>
      </trkpt>
      <trkpt lat="43.8367" lon="7.21174">
        <ele>461</ele>
        <time>2012-01-04T13:38:29Z</time>
      </trkpt>
      <trkpt lat="43.83665" lon="7.21168">
        <ele>460.4</ele>
        <time>2012-01-04T13:38:30Z</time>
      </trkpt>
      <trkpt lat="43.8366" lon="7.21163">
        <ele>459.9</ele>
        <time>2012-01-04T13:38:31Z</time>
      </trkpt>
      <trkpt lat="43.83654" lon="7.21158">
        <ele>459.7</ele>
        <time>2012-01-04T13:38:32Z</time>
      </trkpt>
      <trkpt lat="43.83649" lon="7.21152">
        <ele>459.5</ele>
        <time>2012-01-04T13:38:33Z</time>
      </trkpt>
      <trkpt lat="43.83644" lon="7.21147">
        <ele>459.4</ele>
        <time>2012-01-04T13:38:34Z</time>
      </trkpt>
      <trkpt lat="43.83639" lon="7.21139">
        <ele>458.5</ele>
        <time>2012-01-04T13:38:35Z</time>
      </trkpt>
      <trkpt lat="43.83635" lon="7.21131">
        <ele>457.8</ele>
        <time>2012-01-04T13:38:36Z</time>
      </trkpt>
      <trkpt lat="43.83633" lon="7.21121">
        <ele>457.1</ele>
        <time>2012-01-04T13:38:37Z</time>
      </trkpt>
      <trkpt lat="43.83633" lon="7.2111">
        <ele>456.6</ele>
        <time>2012-01-04T13:38:38Z</time>
      </trkpt>
      <trkpt lat="43.83634" lon="7.21099">
        <ele>456.3</ele>
        <time>2012-01-04T13:38:39Z</time>
      </trkpt>
      <trkpt lat="43.83637" lon="7.21089">
        <ele>456.1</ele>
        <time>2012-01-04T13:38:40Z</time>
      </trkpt>
      <trkpt lat="43.83641" lon="7.2108">
        <ele>456</ele>
        <time>2012-01-04T13:38:41Z</time>
      </trkpt>
      <trkpt lat="43.83643" lon="7.21069">
        <ele>455.2</ele>
        <time>2012-01-04T13:38:42Z</time>
      </trkpt>
      <trkpt lat="43.83645" lon="7.21059">
        <ele>454.6</ele>
        <time>2012-01-04T13:38:43Z</time>
      </trkpt>
      <trkpt lat="43.83645" lon="7.21048">
        <ele>454.1</ele>
        <time>2012-01-04T13:38:44Z</time>
      </trkpt>
      <trkpt lat="43.83644" lon="7.21037">
        <ele>453.8</ele>
        <time>2012-01-04T13:38:45Z</time>
      </trkpt>
      <trkpt lat="43.83643" lon="7.21027">
        <ele>453</ele>
        <time>2012-01-04T13:38:46Z</time>
      </trkpt>
      <trkpt lat="43.83642" lon="7.21016">
        <ele>452.4</ele>
        <time>2012-01-04T13:38:47Z</time>
      </trkpt>
      <trkpt lat="43.8364" lon="7.21004">
        <ele>452</ele>
        <time>2012-01-04T13:38:48Z</time>
      </trkpt>
      <trkpt lat="43.83638" lon="7.20993">
        <ele>451.4</ele>
        <time>2012-01-04T13:38:49Z</time>
      </trkpt>
      <trkpt lat="43.83635" lon="7.20983">
        <ele>450.9</ele>
        <time>2012-01-04T13:38:50Z</time>
      </trkpt>
      <trkpt lat="43.83631" lon="7.20974">
        <ele>450.2</ele>
        <time>2012-01-04T13:38:51Z</time>
      </trkpt>
      <trkpt lat="43.83625" lon="7.20965">
        <ele>449.7</ele>
        <time>2012-01-04T13:38:52Z</time>
      </trkpt>
      <trkpt lat="43.83619" lon="7.20956">
        <ele>449.4</ele>
        <time>2012-01-04T13:38:53Z</time>
      </trkpt>
      <trkpt lat="43.83613" lon="7.20948">
        <ele>448.7</ele>
        <time>2012-01-04T13:38:54Z</time>
      </trkpt>
      <trkpt lat="43.83606" lon="7.2094">
        <ele>448.2</ele>
        <time>2012-01-04T13:38:55Z</time>
      </trkpt>
      <trkpt lat="43.83599" lon="7.20933">
        <ele>447.3</ele>
        <time>2012-01-04T13:38:56Z</time>
      </trkpt>
      <trkpt lat="43.83591" lon="7.20927">
        <ele>446.7</ele>
        <time>2012-01-04T13:38:57Z</time>
      </trkpt>
      <trkpt lat="43.83583" lon="7.20922">
        <ele>446</ele>
        <time>2012-01-04T13:38:58Z</time>
      </trkpt>
      <trkpt lat="43.83575" lon="7.20917">
        <ele>445.5</ele>
        <time>2012-01-04T13:38:59Z</time>
      </trkpt>
      <trkpt lat="43.83567" lon="7.20912">
        <ele>445.2</ele>
        <time>2012-01-04T13:39:00Z</time>
      </trkpt>
      <trkpt lat="43.83559" lon="7.20908">
        <ele>444.8</ele>
        <time>2012-01-04T13:39:01Z</time>
      </trkpt>
      <trkpt lat="43.83551" lon="7.20905">
        <ele>444.5</ele>
        <time>2012-01-04T13:39:02Z</time>
      </trkpt>
      <trkpt lat="43.83542" lon="7.20901">
        <ele>443.6</ele>
        <time>2012-01-04T13:39:03Z</time>
      </trkpt>
      <trkpt lat="43.83534" lon="7.20898">
        <ele>442.9</ele>
        <time>2012-01-04T13:39:04Z</time>
      </trkpt>
      <trkpt lat="43.83526" lon="7.20893">
        <ele>442.4</ele>
        <time>2012-01-04T13:39:05Z</time>
      </trkpt>
      <trkpt lat="43.83518" lon="7.20889">
        <ele>442.3</ele>
        <time>2012-01-04T13:39:06Z</time>
      </trkpt>
      <trkpt lat="43.8351" lon="7.20884">
        <ele>442.2</ele>
        <time>2012-01-04T13:39:07Z</time>
      </trkpt>
      <trkpt lat="43.83503" lon="7.20879">
        <ele>441.5</ele>
        <time>2012-01-04T13:39:08Z</time>
      </trkpt>
      <trkpt lat="43.83495" lon="7.20873">
        <ele>441.1</ele>
        <time>2012-01-04T13:39:09Z</time>
      </trkpt>
      <trkpt lat="43.83488" lon="7.20867">
        <ele>440.8</ele>
        <time>2012-01-04T13:39:10Z</time>
      </trkpt>
      <trkpt lat="43.83481" lon="7.2086">
        <ele>440.5</ele>
        <time>2012-01-04T13:39:11Z</time>
      </trkpt>
      <trkpt lat="43.83474" lon="7.20853">
        <ele>440.4</ele>
        <time>2012-01-04T13:39:12Z</time>
      </trkpt>
      <trkpt lat="43.83467" lon="7.20846">
        <ele>439.8</ele>
        <time>2012-01-04T13:39:13Z</time>
      </trkpt>
      <trkpt lat="43.8346" lon="7.20838">
        <ele>439.3</ele>
        <time>2012-01-04T13:39:14Z</time>
      </trkpt>
      <trkpt lat="43.83452" lon="7.20831">
        <ele>438.4</ele>
        <time>2012-01-04T13:39:15Z</time>
      </trkpt>
      <trkpt lat="43.83445" lon="7.20824">
        <ele>437.8</ele>
        <time>2012-01-04T13:39:16Z</time>
      </trkpt>
      <trkpt lat="43.83438" lon="7.20817">
        <ele>436.9</ele>
        <time>2012-01-04T13:39:17Z</time>
      </trkpt>
      <trkpt lat="43.8343" lon="7.2081">
        <ele>436.3</ele>
        <time>2012-01-04T13:39:18Z</time>
      </trkpt>
      <trkpt lat="43.83423" lon="7.20803">
        <ele>435.8</ele>
        <time>2012-01-04T13:39:19Z</time>
      </trkpt>
      <trkpt lat="43.83416" lon="7.20796">
        <ele>435.2</ele>
        <time>2012-01-04T13:39:20Z</time>
      </trkpt>
      <trkpt lat="43.83409" lon="7.20789">
        <ele>434.8</ele>
        <time>2012-01-04T13:39:21Z</time>
      </trkpt>
      <trkpt lat="43.83401" lon="7.20782">
        <ele>433.5</ele>
        <time>2012-01-04T13:39:22Z</time>
      </trkpt>
      <trkpt lat="43.83393" lon="7.20778">
        <ele>432.6</ele>
        <time>2012-01-04T13:39:23Z</time>
      </trkpt>
      <trkpt lat="43.83385" lon="7.20776">
        <ele>431.9</ele>
        <time>2012-01-04T13:39:24Z</time>
      </trkpt>
      <trkpt lat="43.83377" lon="7.20775">
        <ele>431.3</ele>
        <time>2012-01-04T13:39:25Z</time>
      </trkpt>
      <trkpt lat="43.83369" lon="7.20776">
        <ele>430.9</ele>
        <time>2012-01-04T13:39:26Z</time>
      </trkpt>
      <trkpt lat="43.83362" lon="7.20777">
        <ele>431</ele>
        <time>2012-01-04T13:39:27Z</time>
      </trkpt>
      <trkpt lat="43.83355" lon="7.20778">
        <ele>431</ele>
        <time>2012-01-04T13:39:28Z</time>
      </trkpt>
      <trkpt lat="43.83349" lon="7.20779">
        <ele>431</ele>
        <time>2012-01-04T13:39:29Z</time>
      </trkpt>
      <trkpt lat="43.8334" lon="7.2078">
        <ele>430.9</ele>
        <time>2012-01-04T13:39:31Z</time>
      </trkpt>
      <trkpt lat="43.83331" lon="7.2078">
        <ele>431.4</ele>
        <time>2012-01-04T13:39:35Z</time>
      </trkpt>
      <trkpt lat="43.83324" lon="7.20785">
        <ele>431.5</ele>
        <time>2012-01-04T13:39:38Z</time>
      </trkpt>
      <trkpt lat="43.83318" lon="7.20794">
        <ele>430.9</ele>
        <time>2012-01-04T13:39:41Z</time>
      </trkpt>
      <trkpt lat="43.83313" lon="7.20801">
        <ele>431.4</ele>
        <time>2012-01-04T13:39:43Z</time>
      </trkpt>
      <trkpt lat="43.83308" lon="7.20807">
        <ele>432.2</ele>
        <time>2012-01-04T13:39:45Z</time>
      </trkpt>
      <trkpt lat="43.83305" lon="7.20813">
        <ele>432.4</ele>
        <time>2012-01-04T13:39:47Z</time>
      </trkpt>
      <trkpt lat="43.83299" lon="7.20822">
        <ele>432.8</ele>
        <time>2012-01-04T13:39:50Z</time>
      </trkpt>
      <trkpt lat="43.83292" lon="7.2083">
        <ele>434.6</ele>
        <time>2012-01-04T13:40:20Z</time>
      </trkpt>
      <trkpt lat="43.83292" lon="7.2083">
        <ele>434.8</ele>
        <time>2012-01-04T13:40:21Z</time>
      </trkpt>
      <trkpt lat="43.83284" lon="7.20839">
        <ele>434</ele>
        <time>2012-01-04T13:40:26Z</time>
      </trkpt>
      <trkpt lat="43.8328" lon="7.20845">
        <ele>433.5</ele>
        <time>2012-01-04T13:40:27Z</time>
      </trkpt>
      <trkpt lat="43.83275" lon="7.2085">
        <ele>433.2</ele>
        <time>2012-01-04T13:40:28Z</time>
      </trkpt>
      <trkpt lat="43.83269" lon="7.20853">
        <ele>432.4</ele>
        <time>2012-01-04T13:40:29Z</time>
      </trkpt>
      <trkpt lat="43.83264" lon="7.20855">
        <ele>431.7</ele>
        <time>2012-01-04T13:40:30Z</time>
      </trkpt>
      <trkpt lat="43.83258" lon="7.20858">
        <ele>430.8</ele>
        <time>2012-01-04T13:40:31Z</time>
      </trkpt>
      <trkpt lat="43.83253" lon="7.2086">
        <ele>430.1</ele>
        <time>2012-01-04T13:40:32Z</time>
      </trkpt>
      <trkpt lat="43.83248" lon="7.20862">
        <ele>429.5</ele>
        <time>2012-01-04T13:40:33Z</time>
      </trkpt>
      <trkpt lat="43.83243" lon="7.20863">
        <ele>429</ele>
        <time>2012-01-04T13:40:34Z</time>
      </trkpt>
      <trkpt lat="43.83234" lon="7.20863">
        <ele>427.9</ele>
        <time>2012-01-04T13:40:36Z</time>
      </trkpt>
      <trkpt lat="43.83227" lon="7.2086">
        <ele>427.1</ele>
        <time>2012-01-04T13:40:38Z</time>
      </trkpt>
      <trkpt lat="43.83221" lon="7.20854">
        <ele>426.3</ele>
        <time>2012-01-04T13:40:40Z</time>
      </trkpt>
      <trkpt lat="43.83216" lon="7.20845">
        <ele>425.5</ele>
        <time>2012-01-04T13:40:42Z</time>
      </trkpt>
      <trkpt lat="43.8321" lon="7.20835">
        <ele>425.1</ele>
        <time>2012-01-04T13:40:44Z</time>
      </trkpt>
      <trkpt lat="43.83206" lon="7.20827">
        <ele>424.1</ele>
        <time>2012-01-04T13:40:46Z</time>
      </trkpt>
      <trkpt lat="43.83203" lon="7.2082">
        <ele>423.5</ele>
        <time>2012-01-04T13:40:48Z</time>
      </trkpt>
      <trkpt lat="43.83199" lon="7.20812">
        <ele>422.5</ele>
        <time>2012-01-04T13:40:50Z</time>
      </trkpt>
      <trkpt lat="43.83195" lon="7.20804">
        <ele>421.3</ele>
        <time>2012-01-04T13:40:52Z</time>
      </trkpt>
      <trkpt lat="43.83192" lon="7.20795">
        <ele>420.5</ele>
        <time>2012-01-04T13:40:54Z</time>
      </trkpt>
      <trkpt lat="43.8319" lon="7.20787">
        <ele>419.9</ele>
        <time>2012-01-04T13:40:56Z</time>
      </trkpt>
      <trkpt lat="43.83188" lon="7.20778">
        <ele>419.1</ele>
        <time>2012-01-04T13:40:58Z</time>
      </trkpt>
      <trkpt lat="43.83185" lon="7.20766">
        <ele>417.8</ele>
        <time>2012-01-04T13:41:01Z</time>
      </trkpt>
      <trkpt lat="43.83185" lon="7.20755">
        <ele>415.5</ele>
        <time>2012-01-04T13:41:04Z</time>
      </trkpt>
      <trkpt lat="43.83188" lon="7.20747">
        <ele>414.4</ele>
        <time>2012-01-04T13:41:06Z</time>
      </trkpt>
      <trkpt lat="43.8319" lon="7.20739">
        <ele>414.3</ele>
        <time>2012-01-04T13:41:08Z</time>
      </trkpt>
      <trkpt lat="43.83188" lon="7.20728">
        <ele>412.7</ele>
        <time>2012-01-04T13:41:11Z</time>
      </trkpt>
      <trkpt lat="43.83183" lon="7.20717">
        <ele>411.1</ele>
        <time>2012-01-04T13:41:14Z</time>
      </trkpt>
      <trkpt lat="43.8318" lon="7.20708">
        <ele>407.3</ele>
        <time>2012-01-04T13:41:23Z</time>
      </trkpt>
      <trkpt lat="43.83179" lon="7.20705">
        <ele>407.3</ele>
        <time>2012-01-04T13:41:24Z</time>
      </trkpt>
      <trkpt lat="43.83171" lon="7.2069">
        <ele>406.2</ele>
        <time>2012-01-04T13:41:29Z</time>
      </trkpt>
      <trkpt lat="43.83165" lon="7.20685">
        <ele>406.8</ele>
        <time>2012-01-04T13:41:32Z</time>
      </trkpt>
      <trkpt lat="43.83158" lon="7.20677">
        <ele>405.5</ele>
        <time>2012-01-04T13:41:37Z</time>
      </trkpt>
      <trkpt lat="43.83152" lon="7.20668">
        <ele>404.5</ele>
        <time>2012-01-04T13:41:41Z</time>
      </trkpt>
      <trkpt lat="43.83147" lon="7.20662">
        <ele>404.4</ele>
        <time>2012-01-04T13:41:43Z</time>
      </trkpt>
      <trkpt lat="43.83141" lon="7.20654">
        <ele>404</ele>
        <time>2012-01-04T13:41:46Z</time>
      </trkpt>
      <trkpt lat="43.83139" lon="7.20642">
        <ele>404</ele>
        <time>2012-01-04T13:41:51Z</time>
      </trkpt>
      <trkpt lat="43.83136" lon="7.20633">
        <ele>401.2</ele>
        <time>2012-01-04T13:41:55Z</time>
      </trkpt>
      <trkpt lat="43.83133" lon="7.20623">
        <ele>399</ele>
        <time>2012-01-04T13:41:58Z</time>
      </trkpt>
      <trkpt lat="43.8313" lon="7.20615">
        <ele>398.3</ele>
        <time>2012-01-04T13:42:00Z</time>
      </trkpt>
      <trkpt lat="43.83128" lon="7.20607">
        <ele>396.2</ele>
        <time>2012-01-04T13:42:02Z</time>
      </trkpt>
      <trkpt lat="43.83124" lon="7.20598">
        <ele>393.5</ele>
        <time>2012-01-04T13:42:04Z</time>
      </trkpt>
      <trkpt lat="43.8312" lon="7.20587">
        <ele>391.4</ele>
        <time>2012-01-04T13:42:06Z</time>
      </trkpt>
      <trkpt lat="43.83117" lon="7.20575">
        <ele>389.1</ele>
        <time>2012-01-04T13:42:08Z</time>
      </trkpt>
      <trkpt lat="43.83112" lon="7.20566">
        <ele>387.3</ele>
        <time>2012-01-04T13:42:10Z</time>
      </trkpt>
      <trkpt lat="43.83108" lon="7.20556">
        <ele>385.7</ele>
        <time>2012-01-04T13:42:12Z</time>
      </trkpt>
      <trkpt lat="43.83105" lon="7.20547">
        <ele>384</ele>
        <time>2012-01-04T13:42:14Z</time>
      </trkpt>
      <trkpt lat="43.83102" lon="7.20537">
        <ele>382.3</ele>
        <time>2012-01-04T13:42:16Z</time>
      </trkpt>
      <trkpt lat="43.831" lon="7.20531">
        <ele>381.8</ele>
        <time>2012-01-04T13:42:17Z</time>
      </trkpt>
      <trkpt lat="43.83097" lon="7.20525">
        <ele>381</ele>
        <time>2012-01-04T13:42:18Z</time>
      </trkpt>
      <trkpt lat="43.83095" lon="7.20519">
        <ele>380.5</ele>
        <time>2012-01-04T13:42:19Z</time>
      </trkpt>
      <trkpt lat="43.83092" lon="7.20512">
        <ele>379.3</ele>
        <time>2012-01-04T13:42:20Z</time>
      </trkpt>
      <trkpt lat="43.83089" lon="7.20505">
        <ele>378.5</ele>
        <time>2012-01-04T13:42:21Z</time>
      </trkpt>
      <trkpt lat="43.83086" lon="7.205">
        <ele>377.8</ele>
        <time>2012-01-04T13:42:22Z</time>
      </trkpt>
      <trkpt lat="43.83082" lon="7.20494">
        <ele>377.3</ele>
        <time>2012-01-04T13:42:23Z</time>
      </trkpt>
      <trkpt lat="43.83078" lon="7.20489">
        <ele>376.9</ele>
        <time>2012-01-04T13:42:24Z</time>
      </trkpt>
      <trkpt lat="43.83075" lon="7.20483">
        <ele>376.4</ele>
        <time>2012-01-04T13:42:25Z</time>
      </trkpt>
      <trkpt lat="43.83072" lon="7.20477">
        <ele>376.1</ele>
        <time>2012-01-04T13:42:26Z</time>
      </trkpt>
      <trkpt lat="43.8307" lon="7.20472">
        <ele>375.4</ele>
        <time>2012-01-04T13:42:27Z</time>
      </trkpt>
      <trkpt lat="43.83065" lon="7.20462">
        <ele>374.5</ele>
        <time>2012-01-04T13:42:29Z</time>
      </trkpt>
      <trkpt lat="43.83058" lon="7.20457">
        <ele>374.4</ele>
        <time>2012-01-04T13:42:31Z</time>
      </trkpt>
      <trkpt lat="43.83051" lon="7.20452">
        <ele>373.9</ele>
        <time>2012-01-04T13:42:33Z</time>
      </trkpt>
      <trkpt lat="43.83044" lon="7.20448">
        <ele>373.4</ele>
        <time>2012-01-04T13:42:35Z</time>
      </trkpt>
      <trkpt lat="43.83041" lon="7.20438">
        <ele>373.2</ele>
        <time>2012-01-04T13:42:40Z</time>
      </trkpt>
      <trkpt lat="43.83042" lon="7.20428">
        <ele>372.9</ele>
        <time>2012-01-04T13:42:43Z</time>
      </trkpt>
      <trkpt lat="43.83039" lon="7.20417">
        <ele>372</ele>
        <time>2012-01-04T13:42:46Z</time>
      </trkpt>
      <trkpt lat="43.83032" lon="7.2041">
        <ele>371.4</ele>
        <time>2012-01-04T13:42:50Z</time>
      </trkpt>
      <trkpt lat="43.83025" lon="7.20405">
        <ele>370.8</ele>
        <time>2012-01-04T13:42:54Z</time>
      </trkpt>
      <trkpt lat="43.83018" lon="7.20399">
        <ele>370.6</ele>
        <time>2012-01-04T13:42:58Z</time>
      </trkpt>
      <trkpt lat="43.83013" lon="7.20394">
        <ele>370.1</ele>
        <time>2012-01-04T13:43:00Z</time>
      </trkpt>
      <trkpt lat="43.83008" lon="7.20388">
        <ele>369.4</ele>
        <time>2012-01-04T13:43:02Z</time>
      </trkpt>
      <trkpt lat="43.83004" lon="7.20381">
        <ele>369</ele>
        <time>2012-01-04T13:43:04Z</time>
      </trkpt>
      <trkpt lat="43.82999" lon="7.20371">
        <ele>368.8</ele>
        <time>2012-01-04T13:43:07Z</time>
      </trkpt>
      <trkpt lat="43.83" lon="7.20359">
        <ele>367.9</ele>
        <time>2012-01-04T13:43:09Z</time>
      </trkpt>
      <trkpt lat="43.83001" lon="7.20351">
        <ele>367.2</ele>
        <time>2012-01-04T13:43:10Z</time>
      </trkpt>
      <trkpt lat="43.83002" lon="7.20343">
        <ele>366.7</ele>
        <time>2012-01-04T13:43:11Z</time>
      </trkpt>
      <trkpt lat="43.83004" lon="7.20332">
        <ele>364.7</ele>
        <time>2012-01-04T13:43:13Z</time>
      </trkpt>
      <trkpt lat="43.83009" lon="7.20322">
        <ele>360.3</ele>
        <time>2012-01-04T13:43:25Z</time>
      </trkpt>
      <trkpt lat="43.83009" lon="7.20321">
        <ele>360.4</ele>
        <time>2012-01-04T13:43:26Z</time>
      </trkpt>
      <trkpt lat="43.8301" lon="7.203">
        <ele>357.3</ele>
        <time>2012-01-04T13:43:48Z</time>
      </trkpt>
      <trkpt lat="43.8301" lon="7.20288">
        <ele>356.5</ele>
        <time>2012-01-04T13:45:22Z</time>
      </trkpt>
      <trkpt lat="43.8301" lon="7.20287">
        <ele>356.2</ele>
        <time>2012-01-04T13:45:23Z</time>
      </trkpt>
      <trkpt lat="43.8301" lon="7.20274">
        <ele>353.6</ele>
        <time>2012-01-04T13:46:54Z</time>
      </trkpt>
      <trkpt lat="43.83002" lon="7.20261">
        <ele>350.8</ele>
        <time>2012-01-04T13:46:58Z</time>
      </trkpt>
      <trkpt lat="43.82996" lon="7.20252">
        <ele>348.2</ele>
        <time>2012-01-04T13:47:09Z</time>
      </trkpt>
      <trkpt lat="43.82989" lon="7.20246">
        <ele>348.2</ele>
        <time>2012-01-04T13:47:14Z</time>
      </trkpt>
      <trkpt lat="43.82985" lon="7.20235">
        <ele>348.4</ele>
        <time>2012-01-04T13:49:09Z</time>
      </trkpt>
      <trkpt lat="43.82985" lon="7.20235">
        <ele>348.4</ele>
        <time>2012-01-04T13:49:10Z</time>
      </trkpt>
      <trkpt lat="43.82978" lon="7.20227">
        <ele>348.1</ele>
        <time>2012-01-04T14:03:20Z</time>
      </trkpt>
      <trkpt lat="43.82968" lon="7.20215">
        <ele>348.1</ele>
        <time>2012-01-04T14:03:25Z</time>
      </trkpt>
      <trkpt lat="43.82965" lon="7.20208">
        <ele>347.6</ele>
        <time>2012-01-04T14:03:27Z</time>
      </trkpt>
      <trkpt lat="43.82962" lon="7.202">
        <ele>347.1</ele>
        <time>2012-01-04T14:03:29Z</time>
      </trkpt>
      <trkpt lat="43.82958" lon="7.20189">
        <ele>348.4</ele>
        <time>2012-01-04T14:03:32Z</time>
      </trkpt>
      <trkpt lat="43.82956" lon="7.2018">
        <ele>348.8</ele>
        <time>2012-01-04T14:03:34Z</time>
      </trkpt>
      <trkpt lat="43.82954" lon="7.20171">
        <ele>349.1</ele>
        <time>2012-01-04T14:03:36Z</time>
      </trkpt>
      <trkpt lat="43.8295" lon="7.20163">
        <ele>349.1</ele>
        <time>2012-01-04T14:03:38Z</time>
      </trkpt>
      <trkpt lat="43.82947" lon="7.20156">
        <ele>349.1</ele>
        <time>2012-01-04T14:03:40Z</time>
      </trkpt>
      <trkpt lat="43.82944" lon="7.20148">
        <ele>348.7</ele>
        <time>2012-01-04T14:03:42Z</time>
      </trkpt>
      <trkpt lat="43.8294" lon="7.2014">
        <ele>348.6</ele>
        <time>2012-01-04T14:03:44Z</time>
      </trkpt>
      <trkpt lat="43.82937" lon="7.20132">
        <ele>348.4</ele>
        <time>2012-01-04T14:03:46Z</time>
      </trkpt>
      <trkpt lat="43.82932" lon="7.20126">
        <ele>348.2</ele>
        <time>2012-01-04T14:03:48Z</time>
      </trkpt>
      <trkpt lat="43.82927" lon="7.20121">
        <ele>347.9</ele>
        <time>2012-01-04T14:03:50Z</time>
      </trkpt>
      <trkpt lat="43.82921" lon="7.20116">
        <ele>347.5</ele>
        <time>2012-01-04T14:03:52Z</time>
      </trkpt>
      <trkpt lat="43.82914" lon="7.2011">
        <ele>346.7</ele>
        <time>2012-01-04T14:03:55Z</time>
      </trkpt>
      <trkpt lat="43.82906" lon="7.20105">
        <ele>345.3</ele>
        <time>2012-01-04T14:03:58Z</time>
      </trkpt>
      <trkpt lat="43.8291" lon="7.20097">
        <ele>345.3</ele>
        <time>2012-01-04T14:04:05Z</time>
      </trkpt>
      <trkpt lat="43.82918" lon="7.20095">
        <ele>344.6</ele>
        <time>2012-01-04T14:04:07Z</time>
      </trkpt>
      <trkpt lat="43.82924" lon="7.20092">
        <ele>342.6</ele>
        <time>2012-01-04T14:04:09Z</time>
      </trkpt>
      <trkpt lat="43.82928" lon="7.20082">
        <ele>340.6</ele>
        <time>2012-01-04T14:04:11Z</time>
      </trkpt>
      <trkpt lat="43.82928" lon="7.20075">
        <ele>339.2</ele>
        <time>2012-01-04T14:04:12Z</time>
      </trkpt>
      <trkpt lat="43.82929" lon="7.20069">
        <ele>338.2</ele>
        <time>2012-01-04T14:04:13Z</time>
      </trkpt>
      <trkpt lat="43.82929" lon="7.20062">
        <ele>337.4</ele>
        <time>2012-01-04T14:04:14Z</time>
      </trkpt>
      <trkpt lat="43.8293" lon="7.20056">
        <ele>335.8</ele>
        <time>2012-01-04T14:04:15Z</time>
      </trkpt>
      <trkpt lat="43.82931" lon="7.2005">
        <ele>334.6</ele>
        <time>2012-01-04T14:04:16Z</time>
      </trkpt>
      <trkpt lat="43.82933" lon="7.20043">
        <ele>333</ele>
        <time>2012-01-04T14:04:17Z</time>
      </trkpt>
      <trkpt lat="43.82935" lon="7.20032">
        <ele>330.3</ele>
        <time>2012-01-04T14:04:19Z</time>
      </trkpt>
      <trkpt lat="43.82938" lon="7.20023">
        <ele>327.3</ele>
        <time>2012-01-04T14:04:22Z</time>
      </trkpt>
      <trkpt lat="43.82939" lon="7.2002">
        <ele>326.6</ele>
        <time>2012-01-04T14:04:23Z</time>
      </trkpt>
      <trkpt lat="43.82951" lon="7.20036">
        <ele>322</ele>
        <time>2012-01-04T14:04:29Z</time>
      </trkpt>
      <trkpt lat="43.82956" lon="7.20043">
        <ele>319.7</ele>
        <time>2012-01-04T14:04:31Z</time>
      </trkpt>
      <trkpt lat="43.82961" lon="7.2005">
        <ele>318.3</ele>
        <time>2012-01-04T14:04:33Z</time>
      </trkpt>
      <trkpt lat="43.82966" lon="7.20053">
        <ele>316.6</ele>
        <time>2012-01-04T14:04:35Z</time>
      </trkpt>
      <trkpt lat="43.82971" lon="7.20053">
        <ele>315.5</ele>
        <time>2012-01-04T14:04:36Z</time>
      </trkpt>
      <trkpt lat="43.82976" lon="7.20053">
        <ele>314.7</ele>
        <time>2012-01-04T14:04:37Z</time>
      </trkpt>
      <trkpt lat="43.82981" lon="7.20054">
        <ele>313.3</ele>
        <time>2012-01-04T14:04:38Z</time>
      </trkpt>
      <trkpt lat="43.82987" lon="7.20055">
        <ele>312.2</ele>
        <time>2012-01-04T14:04:39Z</time>
      </trkpt>
      <trkpt lat="43.82992" lon="7.20057">
        <ele>311.4</ele>
        <time>2012-01-04T14:04:40Z</time>
      </trkpt>
      <trkpt lat="43.82997" lon="7.2006">
        <ele>310.2</ele>
        <time>2012-01-04T14:04:41Z</time>
      </trkpt>
      <trkpt lat="43.83002" lon="7.20061">
        <ele>309.2</ele>
        <time>2012-01-04T14:04:42Z</time>
      </trkpt>
      <trkpt lat="43.83008" lon="7.20063">
        <ele>307.6</ele>
        <time>2012-01-04T14:04:43Z</time>
      </trkpt>
      <trkpt lat="43.83014" lon="7.20067">
        <ele>306.3</ele>
        <time>2012-01-04T14:04:44Z</time>
      </trkpt>
      <trkpt lat="43.8302" lon="7.20071">
        <ele>304.4</ele>
        <time>2012-01-04T14:04:45Z</time>
      </trkpt>
      <trkpt lat="43.83025" lon="7.20075">
        <ele>302.9</ele>
        <time>2012-01-04T14:04:46Z</time>
      </trkpt>
      <trkpt lat="43.83029" lon="7.20078">
        <ele>301.9</ele>
        <time>2012-01-04T14:04:47Z</time>
      </trkpt>
      <trkpt lat="43.83038" lon="7.20077">
        <ele>299.5</ele>
        <time>2012-01-04T14:04:49Z</time>
      </trkpt>
      <trkpt lat="43.83043" lon="7.20071">
        <ele>297.4</ele>
        <time>2012-01-04T14:04:52Z</time>
      </trkpt>
      <trkpt lat="43.83049" lon="7.20066">
        <ele>296.6</ele>
        <time>2012-01-04T14:04:55Z</time>
      </trkpt>
      <trkpt lat="43.83055" lon="7.20061">
        <ele>295.7</ele>
        <time>2012-01-04T14:04:58Z</time>
      </trkpt>
      <trkpt lat="43.83063" lon="7.2006">
        <ele>294.8</ele>
        <time>2012-01-04T14:05:01Z</time>
      </trkpt>
      <trkpt lat="43.8307" lon="7.20059">
        <ele>294.1</ele>
        <time>2012-01-04T14:05:04Z</time>
      </trkpt>
      <trkpt lat="43.83078" lon="7.20053">
        <ele>293.7</ele>
        <time>2012-01-04T14:05:14Z</time>
      </trkpt>
      <trkpt lat="43.83085" lon="7.20046">
        <ele>291.5</ele>
        <time>2012-01-04T14:05:43Z</time>
      </trkpt>
      <trkpt lat="43.83085" lon="7.20045">
        <ele>291.5</ele>
        <time>2012-01-04T14:05:44Z</time>
      </trkpt>
      <trkpt lat="43.8309" lon="7.20026">
        <ele>291</ele>
        <time>2012-01-04T14:05:54Z</time>
      </trkpt>
      <trkpt lat="43.83091" lon="7.2002">
        <ele>290.9</ele>
        <time>2012-01-04T14:05:55Z</time>
      </trkpt>
      <trkpt lat="43.83093" lon="7.20014">
        <ele>290.8</ele>
        <time>2012-01-04T14:05:56Z</time>
      </trkpt>
      <trkpt lat="43.83095" lon="7.20007">
        <ele>290.3</ele>
        <time>2012-01-04T14:05:57Z</time>
      </trkpt>
      <trkpt lat="43.83097" lon="7.20001">
        <ele>290</ele>
        <time>2012-01-04T14:05:58Z</time>
      </trkpt>
      <trkpt lat="43.83098" lon="7.19993">
        <ele>289.2</ele>
        <time>2012-01-04T14:05:59Z</time>
      </trkpt>
      <trkpt lat="43.831" lon="7.19986">
        <ele>288.6</ele>
        <time>2012-01-04T14:06:00Z</time>
      </trkpt>
      <trkpt lat="43.83101" lon="7.19979">
        <ele>288.4</ele>
        <time>2012-01-04T14:06:01Z</time>
      </trkpt>
      <trkpt lat="43.83103" lon="7.19967">
        <ele>288.1</ele>
        <time>2012-01-04T14:06:03Z</time>
      </trkpt>
      <trkpt lat="43.83107" lon="7.19956">
        <ele>288</ele>
        <time>2012-01-04T14:06:05Z</time>
      </trkpt>
      <trkpt lat="43.83109" lon="7.1995">
        <ele>287.4</ele>
        <time>2012-01-04T14:06:06Z</time>
      </trkpt>
      <trkpt lat="43.83111" lon="7.19945">
        <ele>286.9</ele>
        <time>2012-01-04T14:06:07Z</time>
      </trkpt>
      <trkpt lat="43.83114" lon="7.19939">
        <ele>286.6</ele>
        <time>2012-01-04T14:06:08Z</time>
      </trkpt>
      <trkpt lat="43.83119" lon="7.19929">
        <ele>286.2</ele>
        <time>2012-01-04T14:06:10Z</time>
      </trkpt>
      <trkpt lat="43.83121" lon="7.1992">
        <ele>285.4</ele>
        <time>2012-01-04T14:06:12Z</time>
      </trkpt>
      <trkpt lat="43.83119" lon="7.19908">
        <ele>283.9</ele>
        <time>2012-01-04T14:06:15Z</time>
      </trkpt>
      <trkpt lat="43.83115" lon="7.19898">
        <ele>281.4</ele>
        <time>2012-01-04T14:06:19Z</time>
      </trkpt>
      <trkpt lat="43.83109" lon="7.19892">
        <ele>281.2</ele>
        <time>2012-01-04T14:06:22Z</time>
      </trkpt>
      <trkpt lat="43.83105" lon="7.19886">
        <ele>280.3</ele>
        <time>2012-01-04T14:06:24Z</time>
      </trkpt>
      <trkpt lat="43.83099" lon="7.19882">
        <ele>279.1</ele>
        <time>2012-01-04T14:06:26Z</time>
      </trkpt>
      <trkpt lat="43.8309" lon="7.19883">
        <ele>278.5</ele>
        <time>2012-01-04T14:06:29Z</time>
      </trkpt>
      <trkpt lat="43.83086" lon="7.19894">
        <ele>277.6</ele>
        <time>2012-01-04T14:06:33Z</time>
      </trkpt>
      <trkpt lat="43.83082" lon="7.19904">
        <ele>277.6</ele>
        <time>2012-01-04T14:06:36Z</time>
      </trkpt>
      <trkpt lat="43.8308" lon="7.19893">
        <ele>275.7</ele>
        <time>2012-01-04T14:06:41Z</time>
      </trkpt>
      <trkpt lat="43.83081" lon="7.19885">
        <ele>275.5</ele>
        <time>2012-01-04T14:06:43Z</time>
      </trkpt>
      <trkpt lat="43.83074" lon="7.19884">
        <ele>274.7</ele>
        <time>2012-01-04T14:06:52Z</time>
      </trkpt>
      <trkpt lat="43.83072" lon="7.19881">
        <ele>274.5</ele>
        <time>2012-01-04T14:06:53Z</time>
      </trkpt>
      <trkpt lat="43.83062" lon="7.19877">
        <ele>271.2</ele>
        <time>2012-01-04T14:06:57Z</time>
      </trkpt>
      <trkpt lat="43.83055" lon="7.19877">
        <ele>269.6</ele>
        <time>2012-01-04T14:06:59Z</time>
      </trkpt>
      <trkpt lat="43.83047" lon="7.19873">
        <ele>267.7</ele>
        <time>2012-01-04T14:07:02Z</time>
      </trkpt>
      <trkpt lat="43.8304" lon="7.19868">
        <ele>265.3</ele>
        <time>2012-01-04T14:07:06Z</time>
      </trkpt>
      <trkpt lat="43.83033" lon="7.19861">
        <ele>264</ele>
        <time>2012-01-04T14:07:09Z</time>
      </trkpt>
      <trkpt lat="43.83029" lon="7.19854">
        <ele>263.1</ele>
        <time>2012-01-04T14:07:11Z</time>
      </trkpt>
      <trkpt lat="43.83022" lon="7.19847">
        <ele>262.4</ele>
        <time>2012-01-04T14:07:13Z</time>
      </trkpt>
      <trkpt lat="43.83018" lon="7.19838">
        <ele>261.4</ele>
        <time>2012-01-04T14:07:15Z</time>
      </trkpt>
      <trkpt lat="43.83012" lon="7.19831">
        <ele>260.3</ele>
        <time>2012-01-04T14:07:17Z</time>
      </trkpt>
      <trkpt lat="43.83007" lon="7.19826">
        <ele>259.6</ele>
        <time>2012-01-04T14:07:19Z</time>
      </trkpt>
      <trkpt lat="43.83001" lon="7.19819">
        <ele>258.5</ele>
        <time>2012-01-04T14:07:21Z</time>
      </trkpt>
      <trkpt lat="43.82995" lon="7.19811">
        <ele>258.1</ele>
        <time>2012-01-04T14:07:23Z</time>
      </trkpt>
      <trkpt lat="43.82991" lon="7.19801">
        <ele>257.5</ele>
        <time>2012-01-04T14:07:25Z</time>
      </trkpt>
      <trkpt lat="43.82989" lon="7.1979">
        <ele>256.1</ele>
        <time>2012-01-04T14:07:27Z</time>
      </trkpt>
      <trkpt lat="43.82987" lon="7.19784">
        <ele>255.4</ele>
        <time>2012-01-04T14:07:28Z</time>
      </trkpt>
      <trkpt lat="43.82985" lon="7.19778">
        <ele>254.6</ele>
        <time>2012-01-04T14:07:29Z</time>
      </trkpt>
      <trkpt lat="43.82983" lon="7.19766">
        <ele>253.6</ele>
        <time>2012-01-04T14:07:31Z</time>
      </trkpt>
      <trkpt lat="43.8298" lon="7.19755">
        <ele>252</ele>
        <time>2012-01-04T14:07:33Z</time>
      </trkpt>
      <trkpt lat="43.82977" lon="7.19748">
        <ele>251.2</ele>
        <time>2012-01-04T14:07:34Z</time>
      </trkpt>
      <trkpt lat="43.82974" lon="7.19742">
        <ele>250.6</ele>
        <time>2012-01-04T14:07:35Z</time>
      </trkpt>
      <trkpt lat="43.82972" lon="7.19736">
        <ele>249.1</ele>
        <time>2012-01-04T14:07:36Z</time>
      </trkpt>
      <trkpt lat="43.82971" lon="7.19729">
        <ele>248</ele>
        <time>2012-01-04T14:07:37Z</time>
      </trkpt>
      <trkpt lat="43.8297" lon="7.19722">
        <ele>247.2</ele>
        <time>2012-01-04T14:07:38Z</time>
      </trkpt>
      <trkpt lat="43.82967" lon="7.1971">
        <ele>245.7</ele>
        <time>2012-01-04T14:07:40Z</time>
      </trkpt>
      <trkpt lat="43.82961" lon="7.19703">
        <ele>242</ele>
        <time>2012-01-04T14:07:44Z</time>
      </trkpt>
      <trkpt lat="43.82957" lon="7.19696">
        <ele>240.2</ele>
        <time>2012-01-04T14:07:47Z</time>
      </trkpt>
      <trkpt lat="43.82955" lon="7.19688">
        <ele>239</ele>
        <time>2012-01-04T14:07:49Z</time>
      </trkpt>
      <trkpt lat="43.82949" lon="7.1968">
        <ele>238</ele>
        <time>2012-01-04T14:07:51Z</time>
      </trkpt>
      <trkpt lat="43.82945" lon="7.1967">
        <ele>236.7</ele>
        <time>2012-01-04T14:07:53Z</time>
      </trkpt>
      <trkpt lat="43.82944" lon="7.19664">
        <ele>236.1</ele>
        <time>2012-01-04T14:07:54Z</time>
      </trkpt>
      <trkpt lat="43.82943" lon="7.19649">
        <ele>233.2</ele>
        <time>2012-01-04T14:07:58Z</time>
      </trkpt>
      <trkpt lat="43.82942" lon="7.1964">
        <ele>232.7</ele>
        <time>2012-01-04T14:08:00Z</time>
      </trkpt>
      <trkpt lat="43.8294" lon="7.1963">
        <ele>231.7</ele>
        <time>2012-01-04T14:08:02Z</time>
      </trkpt>
      <trkpt lat="43.82939" lon="7.19623">
        <ele>231.1</ele>
        <time>2012-01-04T14:08:03Z</time>
      </trkpt>
      <trkpt lat="43.82939" lon="7.19617">
        <ele>230.7</ele>
        <time>2012-01-04T14:08:04Z</time>
      </trkpt>
      <trkpt lat="43.82939" lon="7.1961">
        <ele>230</ele>
        <time>2012-01-04T14:08:05Z</time>
      </trkpt>
      <trkpt lat="43.82937" lon="7.19603">
        <ele>229.5</ele>
        <time>2012-01-04T14:08:06Z</time>
      </trkpt>
      <trkpt lat="43.82935" lon="7.19591">
        <ele>228</ele>
        <time>2012-01-04T14:08:08Z</time>
      </trkpt>
      <trkpt lat="43.82931" lon="7.19581">
        <ele>227.2</ele>
        <time>2012-01-04T14:08:10Z</time>
      </trkpt>
      <trkpt lat="43.82928" lon="7.19571">
        <ele>226.3</ele>
        <time>2012-01-04T14:08:12Z</time>
      </trkpt>
      <trkpt lat="43.82925" lon="7.19566">
        <ele>225.8</ele>
        <time>2012-01-04T14:08:13Z</time>
      </trkpt>
      <trkpt lat="43.82922" lon="7.19561">
        <ele>224.7</ele>
        <time>2012-01-04T14:08:14Z</time>
      </trkpt>
      <trkpt lat="43.82917" lon="7.19552">
        <ele>223.4</ele>
        <time>2012-01-04T14:08:16Z</time>
      </trkpt>
      <trkpt lat="43.82911" lon="7.19544">
        <ele>222.2</ele>
        <time>2012-01-04T14:08:19Z</time>
      </trkpt>
      <trkpt lat="43.82907" lon="7.19536">
        <ele>221.5</ele>
        <time>2012-01-04T14:08:21Z</time>
      </trkpt>
      <trkpt lat="43.82904" lon="7.19531">
        <ele>221.1</ele>
        <time>2012-01-04T14:08:22Z</time>
      </trkpt>
      <trkpt lat="43.829" lon="7.19526">
        <ele>220.8</ele>
        <time>2012-01-04T14:08:23Z</time>
      </trkpt>
      <trkpt lat="43.82897" lon="7.19521">
        <ele>220.1</ele>
        <time>2012-01-04T14:08:24Z</time>
      </trkpt>
      <trkpt lat="43.82894" lon="7.19515">
        <ele>219.6</ele>
        <time>2012-01-04T14:08:25Z</time>
      </trkpt>
      <trkpt lat="43.82891" lon="7.19509">
        <ele>219.1</ele>
        <time>2012-01-04T14:08:26Z</time>
      </trkpt>
      <trkpt lat="43.82889" lon="7.19502">
        <ele>218.6</ele>
        <time>2012-01-04T14:08:27Z</time>
      </trkpt>
      <trkpt lat="43.82886" lon="7.19491">
        <ele>217.3</ele>
        <time>2012-01-04T14:08:29Z</time>
      </trkpt>
      <trkpt lat="43.82881" lon="7.19482">
        <ele>215.1</ele>
        <time>2012-01-04T14:08:32Z</time>
      </trkpt>
      <trkpt lat="43.82879" lon="7.19471">
        <ele>211.2</ele>
        <time>2012-01-04T14:09:06Z</time>
      </trkpt>
      <trkpt lat="43.82877" lon="7.19471">
        <ele>211.3</ele>
        <time>2012-01-04T14:09:07Z</time>
      </trkpt>
      <trkpt lat="43.82863" lon="7.19464">
        <ele>209</ele>
        <time>2012-01-04T14:09:12Z</time>
      </trkpt>
      <trkpt lat="43.82857" lon="7.19459">
        <ele>206.8</ele>
        <time>2012-01-04T14:09:15Z</time>
      </trkpt>
      <trkpt lat="43.8285" lon="7.19453">
        <ele>203.8</ele>
        <time>2012-01-04T14:09:20Z</time>
      </trkpt>
      <trkpt lat="43.82844" lon="7.19447">
        <ele>202.2</ele>
        <time>2012-01-04T14:09:24Z</time>
      </trkpt>
      <trkpt lat="43.82839" lon="7.19439">
        <ele>200.8</ele>
        <time>2012-01-04T14:09:27Z</time>
      </trkpt>
      <trkpt lat="43.82834" lon="7.1943">
        <ele>197.1</ele>
        <time>2012-01-04T14:09:30Z</time>
      </trkpt>
      <trkpt lat="43.82828" lon="7.19423">
        <ele>195.4</ele>
        <time>2012-01-04T14:09:33Z</time>
      </trkpt>
      <trkpt lat="43.82821" lon="7.19415">
        <ele>193.8</ele>
        <time>2012-01-04T14:09:36Z</time>
      </trkpt>
      <trkpt lat="43.82818" lon="7.19408">
        <ele>192.7</ele>
        <time>2012-01-04T14:09:38Z</time>
      </trkpt>
      <trkpt lat="43.82815" lon="7.19399">
        <ele>191.8</ele>
        <time>2012-01-04T14:09:40Z</time>
      </trkpt>
      <trkpt lat="43.82813" lon="7.19393">
        <ele>191.4</ele>
        <time>2012-01-04T14:09:41Z</time>
      </trkpt>
      <trkpt lat="43.8281" lon="7.19387">
        <ele>190.4</ele>
        <time>2012-01-04T14:09:42Z</time>
      </trkpt>
      <trkpt lat="43.82807" lon="7.19382">
        <ele>189.6</ele>
        <time>2012-01-04T14:09:43Z</time>
      </trkpt>
      <trkpt lat="43.82804" lon="7.19377">
        <ele>189.1</ele>
        <time>2012-01-04T14:09:44Z</time>
      </trkpt>
      <trkpt lat="43.828" lon="7.19372">
        <ele>188.4</ele>
        <time>2012-01-04T14:09:45Z</time>
      </trkpt>
      <trkpt lat="43.82796" lon="7.19368">
        <ele>187.8</ele>
        <time>2012-01-04T14:09:46Z</time>
      </trkpt>
      <trkpt lat="43.82793" lon="7.19362">
        <ele>186.2</ele>
        <time>2012-01-04T14:09:47Z</time>
      </trkpt>
      <trkpt lat="43.82789" lon="7.19357">
        <ele>185</ele>
        <time>2012-01-04T14:09:48Z</time>
      </trkpt>
      <trkpt lat="43.82786" lon="7.1935">
        <ele>183.3</ele>
        <time>2012-01-04T14:09:49Z</time>
      </trkpt>
      <trkpt lat="43.82782" lon="7.19343">
        <ele>182.1</ele>
        <time>2012-01-04T14:09:50Z</time>
      </trkpt>
      <trkpt lat="43.82779" lon="7.19336">
        <ele>181.1</ele>
        <time>2012-01-04T14:09:51Z</time>
      </trkpt>
      <trkpt lat="43.82775" lon="7.1933">
        <ele>179.4</ele>
        <time>2012-01-04T14:09:52Z</time>
      </trkpt>
      <trkpt lat="43.82771" lon="7.19321">
        <ele>176.5</ele>
        <time>2012-01-04T14:09:54Z</time>
      </trkpt>
      <trkpt lat="43.82769" lon="7.1931">
        <ele>172.7</ele>
        <time>2012-01-04T14:09:58Z</time>
      </trkpt>
      <trkpt lat="43.82767" lon="7.193">
        <ele>171.9</ele>
        <time>2012-01-04T14:10:02Z</time>
      </trkpt>
      <trkpt lat="43.82761" lon="7.19293">
        <ele>170.8</ele>
        <time>2012-01-04T14:10:22Z</time>
      </trkpt>
      <trkpt lat="43.8276" lon="7.1929">
        <ele>170.7</ele>
        <time>2012-01-04T14:10:23Z</time>
      </trkpt>
      <trkpt lat="43.82751" lon="7.1928">
        <ele>169.2</ele>
        <time>2012-01-04T14:10:34Z</time>
      </trkpt>
      <trkpt lat="43.82743" lon="7.19273">
        <ele>168.1</ele>
        <time>2012-01-04T14:10:37Z</time>
      </trkpt>
      <trkpt lat="43.82736" lon="7.19269">
        <ele>167.2</ele>
        <time>2012-01-04T14:10:39Z</time>
      </trkpt>
      <trkpt lat="43.82732" lon="7.19267">
        <ele>166.7</ele>
        <time>2012-01-04T14:10:40Z</time>
      </trkpt>
      <trkpt lat="43.82727" lon="7.19265">
        <ele>166</ele>
        <time>2012-01-04T14:10:41Z</time>
      </trkpt>
      <trkpt lat="43.82722" lon="7.19261">
        <ele>165.4</ele>
        <time>2012-01-04T14:10:42Z</time>
      </trkpt>
      <trkpt lat="43.82717" lon="7.19257">
        <ele>164.9</ele>
        <time>2012-01-04T14:10:43Z</time>
      </trkpt>
      <trkpt lat="43.82712" lon="7.19253">
        <ele>164</ele>
        <time>2012-01-04T14:10:44Z</time>
      </trkpt>
      <trkpt lat="43.82706" lon="7.19249">
        <ele>163.3</ele>
        <time>2012-01-04T14:10:45Z</time>
      </trkpt>
      <trkpt lat="43.82701" lon="7.19246">
        <ele>162.3</ele>
        <time>2012-01-04T14:10:46Z</time>
      </trkpt>
      <trkpt lat="43.82695" lon="7.19242">
        <ele>161.5</ele>
        <time>2012-01-04T14:10:47Z</time>
      </trkpt>
      <trkpt lat="43.82689" lon="7.19238">
        <ele>161</ele>
        <time>2012-01-04T14:10:48Z</time>
      </trkpt>
      <trkpt lat="43.82683" lon="7.19234">
        <ele>160.1</ele>
        <time>2012-01-04T14:10:49Z</time>
      </trkpt>
      <trkpt lat="43.82678" lon="7.1923">
        <ele>159.5</ele>
        <time>2012-01-04T14:10:50Z</time>
      </trkpt>
      <trkpt lat="43.82672" lon="7.19225">
        <ele>158.5</ele>
        <time>2012-01-04T14:10:51Z</time>
      </trkpt>
      <trkpt lat="43.82667" lon="7.1922">
        <ele>157.8</ele>
        <time>2012-01-04T14:10:52Z</time>
      </trkpt>
      <trkpt lat="43.82663" lon="7.19214">
        <ele>157</ele>
        <time>2012-01-04T14:10:53Z</time>
      </trkpt>
      <trkpt lat="43.82661" lon="7.19205">
        <ele>156.3</ele>
        <time>2012-01-04T14:10:54Z</time>
      </trkpt>
      <trkpt lat="43.82661" lon="7.19197">
        <ele>155.9</ele>
        <time>2012-01-04T14:10:55Z</time>
      </trkpt>
      <trkpt lat="43.82661" lon="7.19188">
        <ele>155.3</ele>
        <time>2012-01-04T14:10:56Z</time>
      </trkpt>
      <trkpt lat="43.82662" lon="7.19179">
        <ele>154.9</ele>
        <time>2012-01-04T14:10:57Z</time>
      </trkpt>
      <trkpt lat="43.82664" lon="7.1917">
        <ele>154.1</ele>
        <time>2012-01-04T14:10:58Z</time>
      </trkpt>
      <trkpt lat="43.82666" lon="7.19159">
        <ele>153.2</ele>
        <time>2012-01-04T14:11:00Z</time>
      </trkpt>
      <trkpt lat="43.82664" lon="7.19148">
        <ele>152.7</ele>
        <time>2012-01-04T14:11:03Z</time>
      </trkpt>
      <trkpt lat="43.82661" lon="7.19137">
        <ele>150.9</ele>
        <time>2012-01-04T14:11:10Z</time>
      </trkpt>
      <trkpt lat="43.82657" lon="7.19125">
        <ele>150.2</ele>
        <time>2012-01-04T14:12:22Z</time>
      </trkpt>
      <trkpt lat="43.82657" lon="7.19125">
        <ele>150.3</ele>
        <time>2012-01-04T14:12:23Z</time>
      </trkpt>
      <trkpt lat="43.82653" lon="7.19105">
        <ele>148.7</ele>
        <time>2012-01-04T14:12:32Z</time>
      </trkpt>
      <trkpt lat="43.82647" lon="7.19099">
        <ele>145.5</ele>
        <time>2012-01-04T14:12:38Z</time>
      </trkpt>
      <trkpt lat="43.82639" lon="7.19098">
        <ele>142.6</ele>
        <time>2012-01-04T14:12:42Z</time>
      </trkpt>
      <trkpt lat="43.82646" lon="7.19094">
        <ele>139.2</ele>
        <time>2012-01-04T14:12:49Z</time>
      </trkpt>
      <trkpt lat="43.82644" lon="7.19084">
        <ele>135.6</ele>
        <time>2012-01-04T14:12:57Z</time>
      </trkpt>
      <trkpt lat="43.82641" lon="7.19077">
        <ele>134.6</ele>
        <time>2012-01-04T14:12:59Z</time>
      </trkpt>
      <trkpt lat="43.82636" lon="7.19067">
        <ele>132.8</ele>
        <time>2012-01-04T14:13:02Z</time>
      </trkpt>
      <trkpt lat="43.82638" lon="7.19055">
        <ele>129.7</ele>
        <time>2012-01-04T14:13:08Z</time>
      </trkpt>
      <trkpt lat="43.82646" lon="7.19053">
        <ele>127.5</ele>
        <time>2012-01-04T14:13:11Z</time>
      </trkpt>
      <trkpt lat="43.82654" lon="7.19056">
        <ele>125.2</ele>
        <time>2012-01-04T14:13:14Z</time>
      </trkpt>
      <trkpt lat="43.82661" lon="7.19049">
        <ele>122.6</ele>
        <time>2012-01-04T14:13:19Z</time>
      </trkpt>
      <trkpt lat="43.82655" lon="7.19042">
        <ele>122</ele>
        <time>2012-01-04T14:14:06Z</time>
      </trkpt>
      <trkpt lat="43.82653" lon="7.19042">
        <ele>122.1</ele>
        <time>2012-01-04T14:14:07Z</time>
      </trkpt>
      <trkpt lat="43.82641" lon="7.19038">
        <ele>121.2</ele>
        <time>2012-01-04T14:14:11Z</time>
      </trkpt>
      <trkpt lat="43.82637" lon="7.19036">
        <ele>121</ele>
        <time>2012-01-04T14:14:12Z</time>
      </trkpt>
      <trkpt lat="43.82633" lon="7.19034">
        <ele>120.7</ele>
        <time>2012-01-04T14:14:13Z</time>
      </trkpt>
      <trkpt lat="43.82627" lon="7.19031">
        <ele>120.5</ele>
        <time>2012-01-04T14:14:14Z</time>
      </trkpt>
      <trkpt lat="43.82622" lon="7.19027">
        <ele>119.8</ele>
        <time>2012-01-04T14:14:15Z</time>
      </trkpt>
      <trkpt lat="43.82616" lon="7.19023">
        <ele>119.4</ele>
        <time>2012-01-04T14:14:16Z</time>
      </trkpt>
      <trkpt lat="43.82611" lon="7.19019">
        <ele>118.2</ele>
        <time>2012-01-04T14:14:17Z</time>
      </trkpt>
      <trkpt lat="43.82605" lon="7.19015">
        <ele>117.3</ele>
        <time>2012-01-04T14:14:18Z</time>
      </trkpt>
      <trkpt lat="43.82599" lon="7.19011">
        <ele>116.6</ele>
        <time>2012-01-04T14:14:19Z</time>
      </trkpt>
      <trkpt lat="43.82592" lon="7.19007">
        <ele>116.2</ele>
        <time>2012-01-04T14:14:20Z</time>
      </trkpt>
      <trkpt lat="43.82586" lon="7.19004">
        <ele>115.8</ele>
        <time>2012-01-04T14:14:21Z</time>
      </trkpt>
      <trkpt lat="43.8258" lon="7.19001">
        <ele>115.1</ele>
        <time>2012-01-04T14:14:22Z</time>
      </trkpt>
      <trkpt lat="43.82574" lon="7.18998">
        <ele>114.5</ele>
        <time>2012-01-04T14:14:23Z</time>
      </trkpt>
      <trkpt lat="43.82568" lon="7.18996">
        <ele>114.1</ele>
        <time>2012-01-04T14:14:24Z</time>
      </trkpt>
      <trkpt lat="43.82562" lon="7.18993">
        <ele>114</ele>
        <time>2012-01-04T14:14:25Z</time>
      </trkpt>
      <trkpt lat="43.82556" lon="7.18991">
        <ele>114</ele>
        <time>2012-01-04T14:14:26Z</time>
      </trkpt>
      <trkpt lat="43.8255" lon="7.18988">
        <ele>113.9</ele>
        <time>2012-01-04T14:14:27Z</time>
      </trkpt>
      <trkpt lat="43.82544" lon="7.18986">
        <ele>113.7</ele>
        <time>2012-01-04T14:14:28Z</time>
      </trkpt>
      <trkpt lat="43.82538" lon="7.18984">
        <ele>113.8</ele>
        <time>2012-01-04T14:14:29Z</time>
      </trkpt>
      <trkpt lat="43.82533" lon="7.18983">
        <ele>113.9</ele>
        <time>2012-01-04T14:14:30Z</time>
      </trkpt>
      <trkpt lat="43.82527" lon="7.18982">
        <ele>114</ele>
        <time>2012-01-04T14:14:31Z</time>
      </trkpt>
      <trkpt lat="43.82521" lon="7.18982">
        <ele>113.5</ele>
        <time>2012-01-04T14:14:32Z</time>
      </trkpt>
      <trkpt lat="43.82516" lon="7.18984">
        <ele>113.1</ele>
        <time>2012-01-04T14:14:33Z</time>
      </trkpt>
      <trkpt lat="43.8251" lon="7.18986">
        <ele>117.1</ele>
        <time>2012-01-04T14:14:34Z</time>
      </trkpt>
      <trkpt lat="43.82504" lon="7.18988">
        <ele>120.2</ele>
        <time>2012-01-04T14:14:35Z</time>
      </trkpt>
      <trkpt lat="43.82498" lon="7.1899">
        <ele>122</ele>
        <time>2012-01-04T14:14:36Z</time>
      </trkpt>
      <trkpt lat="43.82492" lon="7.18991">
        <ele>123.5</ele>
        <time>2012-01-04T14:14:37Z</time>
      </trkpt>
      <trkpt lat="43.82485" lon="7.18992">
        <ele>124.5</ele>
        <time>2012-01-04T14:14:38Z</time>
      </trkpt>
      <trkpt lat="43.82479" lon="7.18991">
        <ele>124.9</ele>
        <time>2012-01-04T14:14:39Z</time>
      </trkpt>
      <trkpt lat="43.82471" lon="7.18988">
        <ele>125.4</ele>
        <time>2012-01-04T14:14:41Z</time>
      </trkpt>
      <trkpt lat="43.82464" lon="7.18986">
        <ele>125.6</ele>
        <time>2012-01-04T14:14:43Z</time>
      </trkpt>
      <trkpt lat="43.82456" lon="7.18987">
        <ele>126.4</ele>
        <time>2012-01-04T14:14:45Z</time>
      </trkpt>
      <trkpt lat="43.82451" lon="7.18988">
        <ele>126.3</ele>
        <time>2012-01-04T14:14:46Z</time>
      </trkpt>
      <trkpt lat="43.82447" lon="7.1899">
        <ele>126.2</ele>
        <time>2012-01-04T14:14:47Z</time>
      </trkpt>
      <trkpt lat="43.82442" lon="7.18991">
        <ele>125.9</ele>
        <time>2012-01-04T14:14:48Z</time>
      </trkpt>
      <trkpt lat="43.82438" lon="7.18993">
        <ele>125.7</ele>
        <time>2012-01-04T14:14:49Z</time>
      </trkpt>
      <trkpt lat="43.82433" lon="7.18995">
        <ele>125.5</ele>
        <time>2012-01-04T14:14:50Z</time>
      </trkpt>
      <trkpt lat="43.82429" lon="7.18997">
        <ele>125.2</ele>
        <time>2012-01-04T14:14:51Z</time>
      </trkpt>
      <trkpt lat="43.82425" lon="7.18999">
        <ele>125</ele>
        <time>2012-01-04T14:14:52Z</time>
      </trkpt>
      <trkpt lat="43.8242" lon="7.19002">
        <ele>124.8</ele>
        <time>2012-01-04T14:14:53Z</time>
      </trkpt>
      <trkpt lat="43.82416" lon="7.19005">
        <ele>124.7</ele>
        <time>2012-01-04T14:14:54Z</time>
      </trkpt>
      <trkpt lat="43.82412" lon="7.19008">
        <ele>124.7</ele>
        <time>2012-01-04T14:14:55Z</time>
      </trkpt>
      <trkpt lat="43.82407" lon="7.19011">
        <ele>124.7</ele>
        <time>2012-01-04T14:14:56Z</time>
      </trkpt>
      <trkpt lat="43.82402" lon="7.19014">
        <ele>124.7</ele>
        <time>2012-01-04T14:14:57Z</time>
      </trkpt>
      <trkpt lat="43.82398" lon="7.19018">
        <ele>124.4</ele>
        <time>2012-01-04T14:14:58Z</time>
      </trkpt>
      <trkpt lat="43.82393" lon="7.19022">
        <ele>124.1</ele>
        <time>2012-01-04T14:14:59Z</time>
      </trkpt>
      <trkpt lat="43.82387" lon="7.19026">
        <ele>123.4</ele>
        <time>2012-01-04T14:15:00Z</time>
      </trkpt>
      <trkpt lat="43.82382" lon="7.19031">
        <ele>122.8</ele>
        <time>2012-01-04T14:15:01Z</time>
      </trkpt>
      <trkpt lat="43.82376" lon="7.19035">
        <ele>122.3</ele>
        <time>2012-01-04T14:15:02Z</time>
      </trkpt>
      <trkpt lat="43.82371" lon="7.19039">
        <ele>121.5</ele>
        <time>2012-01-04T14:15:03Z</time>
      </trkpt>
      <trkpt lat="43.82365" lon="7.19044">
        <ele>120.9</ele>
        <time>2012-01-04T14:15:04Z</time>
      </trkpt>
      <trkpt lat="43.8236" lon="7.19049">
        <ele>120.4</ele>
        <time>2012-01-04T14:15:05Z</time>
      </trkpt>
      <trkpt lat="43.82355" lon="7.19054">
        <ele>120.1</ele>
        <time>2012-01-04T14:15:06Z</time>
      </trkpt>
      <trkpt lat="43.8235" lon="7.1906">
        <ele>119.8</ele>
        <time>2012-01-04T14:15:07Z</time>
      </trkpt>
      <trkpt lat="43.82346" lon="7.19065">
        <ele>119.6</ele>
        <time>2012-01-04T14:15:08Z</time>
      </trkpt>
      <trkpt lat="43.82342" lon="7.19072">
        <ele>119.4</ele>
        <time>2012-01-04T14:15:09Z</time>
      </trkpt>
      <trkpt lat="43.82338" lon="7.19078">
        <ele>119.4</ele>
        <time>2012-01-04T14:15:10Z</time>
      </trkpt>
      <trkpt lat="43.82334" lon="7.19084">
        <ele>119.3</ele>
        <time>2012-01-04T14:15:11Z</time>
      </trkpt>
      <trkpt lat="43.8233" lon="7.1909">
        <ele>118.8</ele>
        <time>2012-01-04T14:15:12Z</time>
      </trkpt>
      <trkpt lat="43.82326" lon="7.19096">
        <ele>118.5</ele>
        <time>2012-01-04T14:15:13Z</time>
      </trkpt>
      <trkpt lat="43.82321" lon="7.19101">
        <ele>118.5</ele>
        <time>2012-01-04T14:15:14Z</time>
      </trkpt>
      <trkpt lat="43.82317" lon="7.19106">
        <ele>118.5</ele>
        <time>2012-01-04T14:15:15Z</time>
      </trkpt>
      <trkpt lat="43.82313" lon="7.1911">
        <ele>118.4</ele>
        <time>2012-01-04T14:15:16Z</time>
      </trkpt>
      <trkpt lat="43.82308" lon="7.19114">
        <ele>118.2</ele>
        <time>2012-01-04T14:15:17Z</time>
      </trkpt>
      <trkpt lat="43.82303" lon="7.19118">
        <ele>118</ele>
        <time>2012-01-04T14:15:18Z</time>
      </trkpt>
      <trkpt lat="43.82299" lon="7.19122">
        <ele>118.1</ele>
        <time>2012-01-04T14:15:19Z</time>
      </trkpt>
      <trkpt lat="43.82294" lon="7.19126">
        <ele>118.1</ele>
        <time>2012-01-04T14:15:20Z</time>
      </trkpt>
      <trkpt lat="43.82289" lon="7.19129">
        <ele>117.8</ele>
        <time>2012-01-04T14:15:21Z</time>
      </trkpt>
      <trkpt lat="43.82284" lon="7.19131">
        <ele>117.5</ele>
        <time>2012-01-04T14:15:22Z</time>
      </trkpt>
      <trkpt lat="43.82279" lon="7.19133">
        <ele>117.3</ele>
        <time>2012-01-04T14:15:23Z</time>
      </trkpt>
      <trkpt lat="43.82273" lon="7.19135">
        <ele>117.6</ele>
        <time>2012-01-04T14:15:24Z</time>
      </trkpt>
      <trkpt lat="43.82268" lon="7.19137">
        <ele>117.8</ele>
        <time>2012-01-04T14:15:25Z</time>
      </trkpt>
      <trkpt lat="43.82263" lon="7.1914">
        <ele>117.9</ele>
        <time>2012-01-04T14:15:26Z</time>
      </trkpt>
      <trkpt lat="43.82258" lon="7.19143">
        <ele>118.1</ele>
        <time>2012-01-04T14:15:27Z</time>
      </trkpt>
      <trkpt lat="43.82254" lon="7.19147">
        <ele>118.2</ele>
        <time>2012-01-04T14:15:28Z</time>
      </trkpt>
      <trkpt lat="43.82249" lon="7.19152">
        <ele>118</ele>
        <time>2012-01-04T14:15:29Z</time>
      </trkpt>
      <trkpt lat="43.82245" lon="7.19157">
        <ele>117.9</ele>
        <time>2012-01-04T14:15:30Z</time>
      </trkpt>
      <trkpt lat="43.82241" lon="7.19163">
        <ele>117.9</ele>
        <time>2012-01-04T14:15:31Z</time>
      </trkpt>
      <trkpt lat="43.82238" lon="7.19168">
        <ele>117.9</ele>
        <time>2012-01-04T14:15:32Z</time>
      </trkpt>
      <trkpt lat="43.82234" lon="7.19174">
        <ele>117.7</ele>
        <time>2012-01-04T14:15:33Z</time>
      </trkpt>
      <trkpt lat="43.8223" lon="7.1918">
        <ele>117.5</ele>
        <time>2012-01-04T14:15:34Z</time>
      </trkpt>
      <trkpt lat="43.82227" lon="7.19185">
        <ele>117.4</ele>
        <time>2012-01-04T14:15:35Z</time>
      </trkpt>
      <trkpt lat="43.82223" lon="7.1919">
        <ele>117.4</ele>
        <time>2012-01-04T14:15:36Z</time>
      </trkpt>
      <trkpt lat="43.8222" lon="7.19195">
        <ele>117.3</ele>
        <time>2012-01-04T14:15:37Z</time>
      </trkpt>
      <trkpt lat="43.82217" lon="7.192">
        <ele>117.1</ele>
        <time>2012-01-04T14:15:38Z</time>
      </trkpt>
      <trkpt lat="43.82211" lon="7.19209">
        <ele>116.7</ele>
        <time>2012-01-04T14:15:40Z</time>
      </trkpt>
      <trkpt lat="43.82204" lon="7.19217">
        <ele>117.1</ele>
        <time>2012-01-04T14:15:42Z</time>
      </trkpt>
      <trkpt lat="43.82197" lon="7.19223">
        <ele>116.8</ele>
        <time>2012-01-04T14:15:44Z</time>
      </trkpt>
      <trkpt lat="43.82189" lon="7.19219">
        <ele>116.1</ele>
        <time>2012-01-04T14:15:47Z</time>
      </trkpt>
      <trkpt lat="43.82188" lon="7.1921">
        <ele>116.8</ele>
        <time>2012-01-04T14:15:50Z</time>
      </trkpt>
      <trkpt lat="43.82189" lon="7.19202">
        <ele>117.1</ele>
        <time>2012-01-04T14:15:52Z</time>
      </trkpt>
      <trkpt lat="43.8219" lon="7.19192">
        <ele>117.2</ele>
        <time>2012-01-04T14:15:54Z</time>
      </trkpt>
      <trkpt lat="43.82191" lon="7.19181">
        <ele>117.2</ele>
        <time>2012-01-04T14:15:56Z</time>
      </trkpt>
      <trkpt lat="43.82193" lon="7.1917">
        <ele>117.4</ele>
        <time>2012-01-04T14:15:58Z</time>
      </trkpt>
      <trkpt lat="43.82194" lon="7.1916">
        <ele>117.4</ele>
        <time>2012-01-04T14:16:00Z</time>
      </trkpt>
      <trkpt lat="43.82196" lon="7.19149">
        <ele>117.5</ele>
        <time>2012-01-04T14:16:02Z</time>
      </trkpt>
      <trkpt lat="43.82196" lon="7.19139">
        <ele>117.6</ele>
        <time>2012-01-04T14:16:04Z</time>
      </trkpt>
      <trkpt lat="43.82192" lon="7.19132">
        <ele>117.6</ele>
        <time>2012-01-04T14:16:06Z</time>
      </trkpt>
      <trkpt lat="43.82185" lon="7.19127">
        <ele>117.8</ele>
        <time>2012-01-04T14:16:08Z</time>
      </trkpt>
      <trkpt lat="43.82177" lon="7.19124">
        <ele>117.8</ele>
        <time>2012-01-04T14:16:10Z</time>
      </trkpt>
      <trkpt lat="43.82173" lon="7.19122">
        <ele>118</ele>
        <time>2012-01-04T14:16:11Z</time>
      </trkpt>
      <trkpt lat="43.82161" lon="7.19117">
        <ele>118.3</ele>
        <time>2012-01-04T14:16:14Z</time>
      </trkpt>
      <trkpt lat="43.82152" lon="7.19114">
        <ele>118.5</ele>
        <time>2012-01-04T14:16:16Z</time>
      </trkpt>
      <trkpt lat="43.82144" lon="7.1911">
        <ele>118.9</ele>
        <time>2012-01-04T14:16:18Z</time>
      </trkpt>
      <trkpt lat="43.82136" lon="7.19108">
        <ele>119.3</ele>
        <time>2012-01-04T14:16:20Z</time>
      </trkpt>
      <trkpt lat="43.82129" lon="7.19109">
        <ele>119.1</ele>
        <time>2012-01-04T14:16:22Z</time>
      </trkpt>
      <trkpt lat="43.82124" lon="7.19114">
        <ele>119.4</ele>
        <time>2012-01-04T14:16:24Z</time>
      </trkpt>
      <trkpt lat="43.8212" lon="7.19121">
        <ele>120</ele>
        <time>2012-01-04T14:16:26Z</time>
      </trkpt>
      <trkpt lat="43.82117" lon="7.19129">
        <ele>120.4</ele>
        <time>2012-01-04T14:16:28Z</time>
      </trkpt>
      <trkpt lat="43.82115" lon="7.19137">
        <ele>120.3</ele>
        <time>2012-01-04T14:16:30Z</time>
      </trkpt>
      <trkpt lat="43.82112" lon="7.19149">
        <ele>120.3</ele>
        <time>2012-01-04T14:16:33Z</time>
      </trkpt>
      <trkpt lat="43.8211" lon="7.19159">
        <ele>120</ele>
        <time>2012-01-04T14:16:36Z</time>
      </trkpt>
      <trkpt lat="43.82109" lon="7.19169">
        <ele>120.7</ele>
        <time>2012-01-04T14:16:40Z</time>
      </trkpt>
      <trkpt lat="43.8211" lon="7.19175">
        <ele>122</ele>
        <time>2012-01-04T14:16:59Z</time>
      </trkpt>
      <trkpt lat="43.8211" lon="7.19175">
        <ele>122</ele>
        <time>2012-01-04T14:16:59Z</time>
      </trkpt>
    </trkseg>
  </trk>
</gpx>